<
# Wetter Temperatur Luftdruck Luftfeuchtigkeit Sichtweite Windgeschwindigkeit Windrichtung Zeit
1 Clouds 38 1005 14 10000 2.6 240 07:55 14.07.2020
2 Clouds 38 1005 14 10000 2.6 240 07:36 14.07.2020
3 Clouds 35 1005 16 10000 3.1 220 07:18 14.07.2020
4 Clouds 35 1003 14 10000 3.1 190 06:31 14.07.2020
5 Clouds 35 1003 14 10000 3.1 190 05:58 14.07.2020
6 Clouds 34 1003 20 10000 1.5 160 04:55 14.07.2020
7 Clouds 34 1003 20 10000 1.5 160 04:35 14.07.2020
8 Clouds 34 1002 16 10000 2.6 140 03:34 14.07.2020
9 Clear 35 1002 15 10000 2.6 150 02:31 14.07.2020
10 Clear 35 1002 16 10000 2.1 150 01:45 14.07.2020
11 Clear 35 1002 16 10000 2.1 150 01:24 14.07.2020
12 Clear 35 1002 14 10000 3.1 130 00:46 14.07.2020
13 Clear 35 1002 14 10000 3.1 130 00:27 14.07.2020
14 Clear 36 1002 16 10000 2.6 140 23:40 13.07.2020
15 Clear 36 1002 16 10000 2.6 140 23:20 13.07.2020
16 Clear 36 1003 16 10000 2.6 140 22:58 13.07.2020
17 Clear 36 1003 16 10000 2.6 140 22:39 13.07.2020
18 Clear 36 1003 16 10000 2.6 140 22:20 13.07.2020
19 Clear 38 1003 13 10000 4.6 110 21:55 13.07.2020
20 Clear 38 1003 13 10000 4.6 110 21:37 13.07.2020
21 Clouds 38 1003 13 10000 4.6 110 21:19 13.07.2020
22 Clouds 39 1002 12 10000 6.7 110 20:55 13.07.2020
23 Clouds 39 1002 12 10000 6.7 110 20:37 13.07.2020
24 Clouds 39 1002 12 10000 6.7 110 20:19 13.07.2020
25 Clouds 40 1001 11 10000 5.7 100 19:42 13.07.2020
26 Clouds 40 1001 11 10000 5.7 100 19:24 13.07.2020
27 Clouds 41 1001 12 10000 2.6 90 18:57 13.07.2020
28 Clouds 41 1001 12 10000 2.6 90 18:38 13.07.2020
29 Clouds 41 1001 12 10000 2.6 90 18:20 13.07.2020
30 Clouds 42 1000 12 10000 2.6 80 17:56 13.07.2020
31 Clouds 42 1000 12 10000 2.6 80 17:56 13.07.2020
32 Clouds 42 1000 12 10000 2.6 80 17:37 13.07.2020
33 Clouds 42 1000 12 10000 2.6 80 17:37 13.07.2020
34 Clouds 42 1000 12 10000 2.6 80 17:18 13.07.2020
35 Clouds 43 1000 9 10000 3.1 120 16:43 13.07.2020
36 Clouds 43 1000 9 10000 3.1 120 16:21 13.07.2020
37 Clouds 43 1000 9 10000 3.1 120 16:21 13.07.2020
38 Clouds 43 1000 9 10000 4.1 80 15:59 13.07.2020
39 Clouds 43 1000 9 10000 4.1 80 15:40 13.07.2020
40 Clouds 43 1000 9 10000 4.1 80 15:20 13.07.2020
41 Clouds 43 1000 11 10000 2.6 140 14:59 13.07.2020
42 Clouds 43 1000 11 10000 2.6 140 14:59 13.07.2020
43 Clouds 43 1000 11 10000 2.6 140 14:39 13.07.2020
44 Clouds 43 1000 11 10000 2.6 140 14:39 13.07.2020
45 Clouds 43 1000 11 10000 2.6 140 14:20 13.07.2020
46 Clouds 43 1001 9 10000 4.6 90 13:56 13.07.2020
47 Clouds 43 1001 9 10000 4.6 90 13:37 13.07.2020
48 Clouds 43 1001 9 10000 4.6 90 13:19 13.07.2020
49 Clouds 43 1001 10 9000 3.6 130 12:43 13.07.2020
50 Clouds 43 1001 10 9000 3.6 130 12:22 13.07.2020
51 Clouds 43 1002 10 9000 4.6 130 11:58 13.07.2020
52 Clouds 43 1002 10 9000 4.6 130 11:38 13.07.2020
53 Clouds 43 1002 10 9000 4.6 130 11:18 13.07.2020
54 Clouds 42 1002 10 9000 4.6 110 10:38 13.07.2020
55 Clouds 42 1002 10 9000 4.6 110 10:20 13.07.2020
56 Clouds 40 1003 12 9000 3.1 130 09:43 13.07.2020
57 Clear 40 1003 12 9000 3.1 130 09:24 13.07.2020
58 Clear 38 1003 15 10000 3.1 110 08:53 13.07.2020
59 Clear 38 1003 15 10000 3.1 110 08:34 13.07.2020
60 Clouds 37 1002 18 10000 1.5 130 07:42 13.07.2020
61 Clouds 37 1002 18 10000 1.5 130 07:19 13.07.2020
62 Clouds 35 1002 19 10000 1.5 180 06:42 13.07.2020
63 Clouds 35 1002 19 10000 1.5 180 06:22 13.07.2020
64 Clouds 32 1001 22 10000 1.5 120 04:37 13.07.2020
65 Clouds 34 1000 17 10000 2.1 120 01:57 13.07.2020
66 Clouds 34 1000 17 10000 2.1 120 01:28 13.07.2020
67 Clouds 34 1001 15 10000 5.1 80 00:58 13.07.2020
68 Clouds 34 1001 15 10000 5.1 80 00:26 13.07.2020
69 Clouds 35 1002 16 10000 3.1 60 23:58 12.07.2020
70 Clouds 35 1002 16 10000 3.1 60 23:39 12.07.2020
71 Clouds 35 1002 16 10000 3.1 60 23:21 12.07.2020
72 Clouds 36 1003 14 10000 4.1 60 22:39 12.07.2020
73 Clouds 36 1003 14 10000 4.1 60 22:21 12.07.2020
74 Clouds 37 1002 13 10000 4.1 50 21:59 12.07.2020
75 Clouds 37 1002 13 10000 4.1 50 21:40 12.07.2020
76 Clouds 37 1002 13 10000 4.1 50 21:20 12.07.2020
77 Clouds 37 1002 13 10000 4.1 50 21:20 12.07.2020
78 Clouds 38 1002 14 8000 5.1 50 20:58 12.07.2020
79 Clouds 38 1002 14 8000 5.1 50 20:40 12.07.2020
80 Clouds 38 1002 14 8000 5.1 50 20:20 12.07.2020
81 Clouds 39 1001 12 7000 5.1 50 19:55 12.07.2020
82 Clouds 39 1001 12 7000 5.1 50 19:37 12.07.2020
83 Clouds 39 1001 12 7000 5.1 50 19:18 12.07.2020
84 Clouds 41 1000 11 6000 5.1 50 18:42 12.07.2020
85 Clouds 41 1000 11 6000 5.1 50 18:20 12.07.2020
86 Clouds 42 999 9 7000 6.7 50 17:58 12.07.2020
87 Clouds 42 999 9 7000 6.7 50 17:37 12.07.2020
88 Clouds 42 999 9 7000 6.7 50 17:19 12.07.2020
89 Clouds 43 999 10 7000 6.2 60 16:44 12.07.2020
90 Clouds 43 999 10 7000 6.2 60 16:20 12.07.2020
91 Clear 43 999 10 7000 6.7 40 15:43 12.07.2020
92 Clear 43 999 10 7000 6.7 40 15:25 12.07.2020
93 Clouds 45 1000 8 7000 6.2 70 14:46 12.07.2020
94 Clouds 45 1000 8 7000 6.2 70 14:27 12.07.2020
95 Clouds 44 1000 8 8000 6.2 50 13:57 12.07.2020
96 Clouds 44 1000 8 8000 6.2 50 13:39 12.07.2020
97 Clouds 44 1000 8 8000 6.2 50 13:20 12.07.2020
98 Clouds 44 1001 10 8000 6.2 70 12:54 12.07.2020
99 Clouds 44 1001 10 8000 6.2 70 12:54 12.07.2020
100 Clouds 44 1001 10 8000 6.2 70 12:36 12.07.2020
101 Clouds 44 1001 10 8000 6.2 70 12:18 12.07.2020
102 Clouds 43 1001 10 8000 6.2 50 11:42 12.07.2020
103 Clouds 43 1001 10 8000 6.2 50 11:19 12.07.2020
104 Clouds 41 1002 11 10000 6.2 50 10:42 12.07.2020
105 Clouds 41 1002 11 10000 6.2 50 10:22 12.07.2020
106 Clouds 41 1002 10 10000 5.7 40 09:54 12.07.2020
107 Clouds 41 1002 10 10000 5.7 40 09:36 12.07.2020
108 Clouds 41 1002 10 10000 5.7 40 09:18 12.07.2020
109 Clouds 41 1002 12 10000 3.6 350 08:41 12.07.2020
110 Clouds 41 1002 12 10000 3.6 350 08:22 12.07.2020
111 Clouds 36 1001 15 8000 2.1 310 07:56 12.07.2020
112 Clouds 36 1001 15 8000 2.1 310 07:36 12.07.2020
113 Clouds 36 1001 15 8000 2.1 310 07:18 12.07.2020
114 Clouds 34 1001 23 10000 7.36 27 06:48 12.07.2020
115 Clouds 34 1001 23 10000 4.89 354 06:19 12.07.2020
116 Clouds 29 1001 28 10000 3.59 351 05:23 12.07.2020
117 Clouds 29 1001 28 10000 3.59 351 04:42 12.07.2020
118 Clear 29 1001 28 10000 3.28 346 04:23 12.07.2020
119 Clear 30 1000 27 10000 3.28 346 03:31 12.07.2020
120 Clear 32 1000 21 10000 1.5 320 02:46 12.07.2020
121 Clouds 33 1001 16 10000 3.1 280 01:36 12.07.2020
122 Clouds 34 1001 20 10000 2.1 290 00:42 12.07.2020
123 Clouds 34 1001 20 10000 2.1 290 00:22 12.07.2020
124 Clouds 34 1002 23 10000 2.12 323 23:56 11.07.2020
125 Clouds 34 1002 23 10000 2.12 323 23:38 11.07.2020
126 Clouds 34 1002 23 10000 2.27 328 23:18 11.07.2020
127 Clouds 35 1002 23 10000 2.27 328 22:45 11.07.2020
128 Clouds 35 1002 23 10000 2.05 26 22:26 11.07.2020
129 Clouds 36 1002 19 10000 2.1 60 21:58 11.07.2020
130 Clouds 36 1002 19 10000 2.1 60 21:40 11.07.2020
131 Clouds 36 1002 19 10000 2.1 60 21:21 11.07.2020
132 Clouds 37 1002 14 10000 2.1 60 20:56 11.07.2020
133 Clouds 37 1002 14 10000 2.1 60 20:37 11.07.2020
134 Clouds 37 1002 14 10000 2.1 60 20:19 11.07.2020
135 Clouds 39 1001 14 10000 2.6 60 19:55 11.07.2020
136 Clouds 39 1001 14 10000 2.6 60 19:37 11.07.2020
137 Clouds 39 1001 14 10000 2.6 60 19:19 11.07.2020
138 Clouds 41 1001 13 10000 3.1 40 18:41 11.07.2020
139 Clouds 41 1001 13 10000 3.1 40 18:22 11.07.2020
140 Clouds 42 1001 10 8000 6.2 30 17:59 11.07.2020
141 Clouds 42 1001 10 8000 6.2 30 17:39 11.07.2020
142 Clouds 42 1001 10 8000 6.2 30 17:19 11.07.2020
143 Clouds 43 1000 10 8000 6.2 10 16:56 11.07.2020
144 Clouds 43 1000 10 8000 6.2 10 16:38 11.07.2020
145 Clouds 43 1000 10 8000 6.2 10 16:18 11.07.2020
146 Clouds 44 1000 9 7000 7.7 20 15:42 11.07.2020
147 Clouds 44 1000 9 7000 7.7 20 15:21 11.07.2020
148 Clouds 45 1001 9 10000 6.2 350 14:59 11.07.2020
149 Clouds 45 1001 9 10000 6.2 350 14:40 11.07.2020
150 Clear 45 1001 9 10000 6.2 350 14:22 11.07.2020
151 Clear 44 1001 9 10000 6.2 10 13:44 11.07.2020
152 Clear 44 1001 9 10000 6.2 10 13:23 11.07.2020
153 Clear 44 1002 9 10000 6.7 20 12:59 11.07.2020
154 Clear 44 1002 9 10000 6.7 20 12:41 11.07.2020
155 Clear 44 1002 9 10000 6.7 20 12:22 11.07.2020
156 Clear 44 1003 9 10000 6.7 360 11:57 11.07.2020
157 Clear 44 1003 9 10000 6.7 360 11:39 11.07.2020
158 Clear 44 1003 9 10000 6.7 360 11:19 11.07.2020
159 Clear 44 1003 9 10000 6.2 350 10:44 11.07.2020
160 Clear 44 1003 9 10000 6.2 350 10:25 11.07.2020
161 Clear 42 1004 10 10000 5.7 340 09:45 11.07.2020
162 Clear 42 1004 10 10000 5.7 340 09:21 11.07.2020
163 Clear 39 1004 11 10000 6.2 330 08:59 11.07.2020
164 Clear 39 1004 11 10000 6.2 330 08:37 11.07.2020
165 Clear 39 1004 11 10000 6.2 330 08:19 11.07.2020
166 Clear 37 1004 11 10000 6.2 320 07:42 11.07.2020
167 Clear 37 1004 11 10000 6.2 320 07:23 11.07.2020
168 Clear 34 1004 14 10000 4.1 310 06:56 11.07.2020
169 Clear 34 1004 14 10000 4.1 310 06:22 11.07.2020
170 Clear 30 1003 19 10000 2.6 310 05:22 11.07.2020
171 Clear 30 1003 17 10000 3.1 300 04:55 11.07.2020
172 Clear 30 1003 17 10000 3.1 300 04:32 11.07.2020
173 Clear 30 1003 17 10000 2.6 290 03:24 11.07.2020
174 Clear 31 1003 18 10000 2.6 10 02:40 11.07.2020
175 Clear 33 1003 17 10000 2.6 20 01:49 11.07.2020
176 Clear 33 1003 17 10000 2.6 20 01:18 11.07.2020
177 Clear 33 1003 14 10000 3.1 280 00:41 11.07.2020
178 Clear 33 1003 14 10000 3.1 280 00:22 11.07.2020
179 Clear 34 1004 15 10000 2.6 310 23:57 10.07.2020
180 Clear 34 1004 15 10000 2.6 310 23:39 10.07.2020
181 Clear 34 1004 15 10000 2.6 310 23:19 10.07.2020
182 Clear 35 1004 13 10000 3.1 290 22:46 10.07.2020
183 Clear 35 1004 13 10000 3.1 290 22:21 10.07.2020
184 Clear 36 1004 14 10000 2.6 290 21:58 10.07.2020
185 Clear 36 1004 14 10000 2.6 290 21:37 10.07.2020
186 Clear 36 1004 14 10000 2.6 290 21:18 10.07.2020
187 Clear 38 1003 12 10000 3.6 310 20:43 10.07.2020
188 Clouds 38 1003 12 10000 3.6 310 20:23 10.07.2020
189 Clouds 39 1003 11 10000 3.1 320 19:58 10.07.2020
190 Clouds 39 1003 11 10000 3.1 320 19:40 10.07.2020
191 Clouds 39 1003 11 10000 3.1 320 19:21 10.07.2020
192 Clouds 41 1003 10 10000 4.6 330 18:42 10.07.2020
193 Clouds 41 1003 10 10000 4.6 330 18:22 10.07.2020
194 Clouds 43 1002 8 10000 6.7 330 17:59 10.07.2020
195 Clouds 43 1002 8 10000 6.7 330 17:40 10.07.2020
196 Clouds 43 1002 8 10000 6.7 330 17:21 10.07.2020
197 Clouds 44 1002 8 10000 5.1 340 16:44 10.07.2020
198 Clouds 44 1002 8 10000 5.1 340 16:21 10.07.2020
199 Clouds 45 1002 7 10000 7.2 350 15:55 10.07.2020
200 Clouds 45 1002 7 10000 7.2 350 15:37 10.07.2020
201 Clouds 45 1002 7 10000 7.2 350 15:18 10.07.2020
202 Clouds 45 1002 7 10000 7.2 350 14:41 10.07.2020
203 Clear 45 1002 7 10000 7.2 350 14:21 10.07.2020
204 Clear 45 1003 8 10000 6.2 330 13:58 10.07.2020
205 Clear 45 1003 8 10000 6.2 330 13:39 10.07.2020
206 Clear 45 1003 8 10000 6.2 330 13:21 10.07.2020
207 Clear 44 1004 8 10000 5.7 310 12:57 10.07.2020
208 Clear 44 1004 8 10000 5.7 310 12:37 10.07.2020
209 Clear 44 1004 8 10000 5.7 310 12:19 10.07.2020
210 Clear 44 1004 8 10000 4.6 330 11:42 10.07.2020
211 Clear 44 1004 8 10000 4.6 330 11:21 10.07.2020
212 Clear 43 1005 10 10000 5.7 330 10:58 10.07.2020
213 Clear 43 1005 10 10000 5.7 330 10:39 10.07.2020
214 Clear 41 1005 12 10000 5.1 330 10:20 10.07.2020
215 Clear 41 1005 12 10000 5.1 330 09:41 10.07.2020
216 Clear 41 1005 12 10000 5.1 330 09:23 10.07.2020
217 Clear 39 1006 13 10000 4.1 340 08:59 10.07.2020
218 Clear 39 1006 13 10000 4.1 340 08:41 10.07.2020
219 Clear 39 1006 13 10000 4.1 340 08:22 10.07.2020
220 Clear 36 1005 14 10000 3.1 310 07:45 10.07.2020
221 Clear 36 1005 14 10000 3.1 310 07:23 10.07.2020
222 Clear 32 1005 25 10000 1 280 06:54 10.07.2020
223 Clear 32 1005 25 10000 1 280 06:36 10.07.2020
224 Clouds 29 1005 25 10000 1.5 310 05:28 10.07.2020
225 Clouds 30 1004 19 10000 2.6 290 03:54 10.07.2020
226 Clouds 31 1004 20 10000 1.5 290 02:54 10.07.2020
227 Clouds 31 1004 20 10000 1.5 320 01:57 10.07.2020
228 Clouds 32 1004 15 10000 2.1 290 00:55 10.07.2020
229 Clouds 32 1004 15 10000 2.1 290 00:23 10.07.2020
230 Clouds 33 1004 15 10000 3.1 300 23:56 09.07.2020
231 Clouds 33 1004 15 10000 3.1 300 23:37 09.07.2020
232 Clouds 33 1004 15 10000 3.1 300 23:19 09.07.2020
233 Clouds 34 1005 14 10000 2.6 300 22:56 09.07.2020
234 Clouds 34 1005 14 10000 2.6 300 22:38 09.07.2020
235 Clear 34 1005 14 10000 2.6 300 22:19 09.07.2020
236 Clear 35 1005 13 10000 2.6 300 21:39 09.07.2020
237 Clear 35 1005 13 10000 2.6 300 21:20 09.07.2020
238 Clear 37 1004 13 10000 3.1 320 20:59 09.07.2020
239 Clear 37 1004 13 10000 3.1 320 20:39 09.07.2020
240 Clear 37 1004 13 10000 3.1 320 20:21 09.07.2020
241 Clear 39 1004 11 10000 2.6 350 19:43 09.07.2020
242 Clear 39 1004 11 10000 2.6 350 19:22 09.07.2020
243 Clear 39 1004 11 10000 2.6 350 19:22 09.07.2020
244 Clear 41 1003 9 10000 4.1 350 18:56 09.07.2020
245 Clear 41 1003 9 10000 4.1 350 18:56 09.07.2020
246 Clear 41 1003 9 10000 4.1 350 18:38 09.07.2020
247 Clear 41 1003 9 10000 4.1 350 18:18 09.07.2020
248 Clear 43 1003 8 10000 4.6 320 17:43 09.07.2020
249 Clear 43 1003 8 10000 4.6 320 17:22 09.07.2020
250 Clear 44 1003 8 10000 3.1 310 16:56 09.07.2020
251 Clear 44 1003 8 10000 3.1 310 16:38 09.07.2020
252 Clear 44 1003 8 10000 3.1 310 16:19 09.07.2020
253 Clear 45 1003 8 10000 3.1 340 15:57 09.07.2020
254 Clear 45 1003 8 10000 3.1 340 15:37 09.07.2020
255 Clear 45 1003 8 10000 3.1 340 15:18 09.07.2020
256 Clear 45 1004 9 10000 3.1 330 14:57 09.07.2020
257 Clear 45 1004 9 10000 3.1 330 14:39 09.07.2020
258 Clear 45 1004 9 10000 3.1 330 14:39 09.07.2020
259 Clouds 45 1004 9 10000 3.1 330 14:20 09.07.2020
260 Clouds 44 1004 10 10000 2.6 320 13:56 09.07.2020
261 Clouds 44 1004 10 10000 2.6 320 13:38 09.07.2020
262 Clouds 44 1004 10 10000 2.6 320 13:18 09.07.2020
263 Clouds 44 1005 10 10000 2.6 310 12:41 09.07.2020
264 Clouds 44 1005 10 10000 2.6 310 12:23 09.07.2020
265 Clouds 43 1005 8 10000 4.1 320 11:57 09.07.2020
266 Clouds 43 1005 8 10000 4.1 320 11:38 09.07.2020
267 Clouds 43 1005 8 10000 4.1 320 11:18 09.07.2020
268 Clouds 41 1006 9 10000 5.1 350 10:55 09.07.2020
269 Clouds 41 1006 9 10000 5.1 350 10:37 09.07.2020
270 Clouds 41 1006 9 10000 5.1 350 10:37 09.07.2020
271 Clouds 41 1006 9 10000 5.1 350 10:19 09.07.2020
272 Clouds 40 1006 10 10000 3.6 340 09:42 09.07.2020
273 Clear 40 1006 10 10000 3.6 340 09:22 09.07.2020
274 Clear 38 1006 10 10000 3.1 340 08:49 09.07.2020
275 Clear 38 1006 10 10000 3.1 340 08:26 09.07.2020
276 Clear 35 1006 12 10000 3.6 340 07:50 09.07.2020
277 Clear 35 1006 12 10000 3.6 340 07:30 09.07.2020
278 Clear 33 1006 14 10000 4.1 320 06:58 09.07.2020
279 Clear 33 1006 14 10000 4.1 320 06:20 09.07.2020
280 Clear 30 1005 17 10000 3.1 320 05:50 09.07.2020
281 Clear 30 1005 15 10000 3.1 290 04:28 09.07.2020
282 Clear 31 1004 16 10000 2.6 320 02:45 09.07.2020
283 Clear 32 1004 17 10000 2.6 310 01:54 09.07.2020
284 Clear 34 1004 14 10000 3.6 330 00:56 09.07.2020
285 Clear 34 1004 14 10000 3.6 330 00:37 09.07.2020
286 Clear 34 1004 14 10000 3.6 330 00:18 09.07.2020
287 Clear 34 1005 15 10000 3.6 310 23:43 08.07.2020
288 Clear 34 1005 15 10000 3.6 310 23:24 08.07.2020
289 Clear 36 1005 12 10000 3.1 310 22:55 08.07.2020
290 Clear 36 1005 12 10000 3.1 310 22:36 08.07.2020
291 Clear 36 1005 12 10000 3.1 310 22:18 08.07.2020
292 Clear 37 1005 13 10000 3.6 320 21:39 08.07.2020
293 Clear 37 1005 13 10000 3.6 320 21:21 08.07.2020
294 Clear 37 1004 13 10000 3.6 320 20:59 08.07.2020
295 Clear 37 1004 13 10000 3.6 320 20:41 08.07.2020
296 Clouds 37 1004 13 10000 3.6 320 20:23 08.07.2020
297 Clouds 40 1004 11 10000 2.6 340 19:43 08.07.2020
298 Clouds 40 1004 11 10000 2.6 340 19:25 08.07.2020
299 Clouds 41 1003 10 10000 4.1 350 18:59 08.07.2020
300 Clouds 41 1003 10 10000 4.1 350 18:40 08.07.2020
301 Clouds 41 1003 10 10000 4.1 350 18:21 08.07.2020
302 Clouds 43 1003 9 10000 4.6 330 17:57 08.07.2020
303 Clouds 43 1003 9 10000 4.6 330 17:38 08.07.2020
304 Clouds 43 1003 9 10000 4.6 330 17:38 08.07.2020
305 Clouds 43 1003 9 10000 4.6 330 17:20 08.07.2020
306 Clouds 43 1003 9 10000 4.6 330 17:20 08.07.2020
307 Clouds 44 1003 9 10000 4.1 350 16:56 08.07.2020
308 Clouds 44 1003 9 10000 4.1 350 16:37 08.07.2020
309 Clouds 44 1003 9 10000 4.1 350 16:18 08.07.2020
310 Clouds 45 1003 8 10000 5.1 340 15:56 08.07.2020
311 Clouds 45 1003 8 10000 5.1 340 15:38 08.07.2020
312 Clear 45 1003 8 10000 5.1 340 15:18 08.07.2020
313 Clear 44 1003 9 10000 3.6 360 14:42 08.07.2020
314 Clear 44 1003 9 10000 3.6 360 14:21 08.07.2020
315 Clear 44 1003 10 10000 4.1 330 13:46 08.07.2020
316 Clear 44 1003 10 10000 4.1 330 13:28 08.07.2020
317 Clear 45 1004 9 10000 4.1 340 12:58 08.07.2020
318 Clear 45 1004 9 10000 4.1 340 12:40 08.07.2020
319 Clear 45 1004 9 10000 4.1 340 12:19 08.07.2020
320 Clear 44 1004 8 10000 5.1 340 11:39 08.07.2020
321 Clear 44 1004 8 10000 5.1 340 11:21 08.07.2020
322 Clear 42 1004 8 10000 5.7 350 10:59 08.07.2020
323 Clear 42 1004 8 10000 5.7 350 10:41 08.07.2020
324 Clear 42 1004 8 10000 5.7 350 10:22 08.07.2020
325 Clear 41 1004 9 10000 6.7 350 09:44 08.07.2020
326 Clear 41 1004 9 10000 6.7 350 09:24 08.07.2020
327 Clear 40 1004 8 10000 6.7 330 08:44 08.07.2020
328 Clear 40 1004 8 10000 6.7 330 08:25 08.07.2020
329 Clear 40 1004 8 10000 6.7 330 08:25 08.07.2020
330 Clear 37 1004 11 10000 7.2 330 07:50 08.07.2020
331 Clear 37 1004 11 10000 7.2 330 07:25 08.07.2020
332 Clear 33 1004 16 7000 3.6 310 06:58 08.07.2020
333 Clear 33 1004 16 7000 3.6 310 06:39 08.07.2020
334 Clear 33 1004 16 7000 3.6 310 06:20 08.07.2020
335 Clear 30 1003 19 8000 3.6 300 05:38 08.07.2020
336 Clear 30 1003 20 10000 3.6 280 04:38 08.07.2020
337 Clear 32 1003 24 10000 2.63 356 02:55 08.07.2020
338 Clear 33 1002 16 10000 2.6 320 01:57 08.07.2020
339 Clear 33 1002 16 10000 2.6 320 01:37 08.07.2020
340 Clear 33 1003 22 10000 1 10 00:37 08.07.2020
341 Clear 33 1003 22 10000 1 10 00:18 08.07.2020
342 Clear 34 1003 15 10000 2.6 300 23:41 07.07.2020
343 Clear 34 1003 15 10000 2.6 300 23:20 07.07.2020
344 Clear 35 1003 14 10000 1 320 22:45 07.07.2020
345 Clear 35 1003 14 10000 1 320 22:24 07.07.2020
346 Clear 39 1003 10 10000 4.1 350 21:59 07.07.2020
347 Clear 39 1003 10 10000 4.1 350 21:41 07.07.2020
348 Clear 39 1003 10 10000 4.1 350 21:22 07.07.2020
349 Clear 40 1002 10 10000 4.1 340 20:58 07.07.2020
350 Clear 40 1002 10 10000 4.1 340 20:40 07.07.2020
351 Clouds 40 1002 10 10000 4.1 340 20:22 07.07.2020
352 Clouds 40 1001 11 10000 2.6 300 19:43 07.07.2020
353 Clouds 43 1001 9 10000 3.1 310 19:22 07.07.2020
354 Clouds 43 1001 9 10000 3.1 310 18:59 07.07.2020
355 Clouds 43 1001 9 10000 3.1 310 18:41 07.07.2020
356 Clouds 43 1001 9 10000 3.1 310 18:23 07.07.2020
357 Clouds 45 1000 9 10000 2.6 260 17:59 07.07.2020
358 Clouds 45 1000 9 10000 2.6 260 17:40 07.07.2020
359 Clouds 45 1000 9 10000 2.6 260 17:22 07.07.2020
360 Clouds 46 1000 8 10000 3.1 320 16:58 07.07.2020
361 Clouds 46 1000 8 10000 3.1 320 16:40 07.07.2020
362 Clouds 46 1000 8 10000 3.1 320 16:20 07.07.2020
363 Clouds 46 1000 8 10000 4.1 290 15:42 07.07.2020
364 Clouds 46 1000 8 10000 4.1 290 15:21 07.07.2020
365 Clouds 47 1000 9 10000 2.1 310 14:56 07.07.2020
366 Clouds 47 1000 9 10000 2.1 310 14:38 07.07.2020
367 Clear 47 1000 9 10000 2.1 310 14:19 07.07.2020
368 Clear 47 1001 8 10000 2.1 10 13:40 07.07.2020
369 Clear 47 1001 8 10000 2.1 10 13:19 07.07.2020
370 Clear 46 1001 9 10000 2.1 230 12:41 07.07.2020
371 Clear 46 1001 9 10000 2.1 230 12:22 07.07.2020
372 Clear 46 1001 9 10000 2.1 230 12:22 07.07.2020
373 Clear 46 1001 13 10000 1.5 260 11:58 07.07.2020
374 Clear 46 1001 13 10000 1.5 260 11:40 07.07.2020
375 Clear 46 1001 13 10000 1.5 260 11:20 07.07.2020
376 Clear 44 1002 11 10000 2.6 240 10:57 07.07.2020
377 Clear 44 1002 11 10000 2.6 240 10:37 07.07.2020
378 Clear 44 1002 11 10000 2.6 240 10:18 07.07.2020
379 Clear 42 1002 15 10000 1.5 270 09:40 07.07.2020
380 Clear 42 1002 15 10000 1.5 270 09:20 07.07.2020
381 Clear 40 1002 19 10000 1 40 08:42 07.07.2020
382 Clear 40 1002 19 10000 1 40 08:23 07.07.2020
383 Clear 36 1002 19 10000 1 90 07:47 07.07.2020
384 Clear 36 1002 19 10000 1 90 07:24 07.07.2020
385 Clear 34 1002 21 10000 2.31 293 06:49 07.07.2020
386 Clear 34 1002 21 10000 1.7 330 06:31 07.07.2020
387 Clear 31 1002 15 10000 3.1 310 05:54 07.07.2020
388 Clear 31 1002 15 10000 3.1 310 05:23 07.07.2020
389 Clear 30 1001 22 10000 1 160 04:40 07.07.2020
390 Clear 30 1001 25 10000 1.55 284 03:40 07.07.2020
391 Clouds 31 1001 19 10000 1.5 290 02:27 07.07.2020
392 Clouds 31 1001 23 10000 0.56 42 01:25 07.07.2020
393 Clouds 32 1001 19 10000 1 330 00:44 07.07.2020
394 Clouds 32 1001 19 10000 1 330 00:24 07.07.2020
395 Clouds 35 1001 19 10000 1 340 23:59 06.07.2020
396 Clouds 35 1001 19 10000 1 340 23:40 06.07.2020
397 Clouds 35 1001 19 10000 1 340 23:22 06.07.2020
398 Clouds 35 1001 19 10000 1 340 22:41 06.07.2020
399 Clouds 35 1001 19 10000 1 340 22:20 06.07.2020
400 Clouds 35 1001 21 10000 2.39 11 21:58 06.07.2020
401 Clouds 35 1001 21 10000 2.39 11 21:39 06.07.2020
402 Clear 35 1001 21 10000 1.28 334 21:19 06.07.2020
403 Clear 35 1001 21 10000 1.28 334 21:19 06.07.2020
404 Clear 37 1001 19 10000 1.28 334 20:59 06.07.2020
405 Clouds 37 1001 19 10000 1.42 30 20:39 06.07.2020
406 Clouds 37 1001 19 10000 1.42 30 20:20 06.07.2020
407 Clouds 40 1000 12 10000 2.1 350 19:57 06.07.2020
408 Clouds 40 1000 12 10000 2.1 350 19:39 06.07.2020
409 Clouds 40 1000 12 10000 2.1 350 19:20 06.07.2020
410 Clouds 42 1000 9 10000 4.1 350 18:55 06.07.2020
411 Clouds 42 1000 9 10000 4.1 350 18:36 06.07.2020
412 Clouds 42 1000 9 10000 4.1 350 18:18 06.07.2020
413 Clouds 44 999 15 10000 1.5 330 17:42 06.07.2020
414 Clouds 44 999 15 10000 1.5 330 17:23 06.07.2020
415 Clouds 45 999 10 10000 1.5 50 16:55 06.07.2020
416 Clouds 45 999 10 10000 1.5 50 16:37 06.07.2020
417 Clouds 45 999 10 10000 1.5 50 16:18 06.07.2020
418 Clouds 45 999 9 10000 3.1 300 15:42 06.07.2020
419 Clouds 45 999 9 10000 3.1 300 15:24 06.07.2020
420 Clouds 46 1000 8 10000 1.5 340 14:57 06.07.2020
421 Clouds 46 1000 8 10000 1.5 340 14:37 06.07.2020
422 Clouds 46 1000 8 10000 1.5 340 14:19 06.07.2020
423 Clouds 46 1000 9 10000 4.1 330 13:48 06.07.2020
424 Clouds 46 1000 9 10000 4.1 330 13:28 06.07.2020
425 Clouds 46 1000 7 10000 2.1 340 12:58 06.07.2020
426 Clouds 46 1000 7 10000 2.1 340 12:39 06.07.2020
427 Clouds 46 1000 7 10000 2.1 340 12:18 06.07.2020
428 Clouds 45 1001 12 10000 2.1 40 11:57 06.07.2020
429 Clouds 45 1001 12 10000 2.1 40 11:37 06.07.2020
430 Clouds 45 1001 12 10000 2.1 40 11:19 06.07.2020
431 Clouds 45 1001 12 10000 1.5 320 10:42 06.07.2020
432 Clouds 45 1001 12 10000 1.5 320 10:22 06.07.2020
433 Clouds 42 1001 14 10000 2.6 10 09:57 06.07.2020
434 Clouds 42 1001 14 10000 2.6 10 09:39 06.07.2020
435 Clouds 42 1001 14 10000 2.6 10 09:21 06.07.2020
436 Clouds 40 1010 11 10000 3.1 350 08:42 06.07.2020
437 Clouds 40 1010 11 10000 3.1 350 08:24 06.07.2020
438 Clouds 37 1001 18 7000 1 330 07:58 06.07.2020
439 Clouds 37 1001 18 7000 1 330 07:40 06.07.2020
440 Clouds 37 1001 18 7000 1 330 07:21 06.07.2020
441 Clouds 32 1001 25 7000 0.91 49 06:39 06.07.2020
442 Clouds 32 1001 25 7000 1.45 66 06:19 06.07.2020
443 Clouds 27 1000 30 7000 1.55 110 05:29 06.07.2020
444 Clouds 28 1000 28 10000 1.55 110 04:48 06.07.2020
445 Clouds 30 1000 25 10000 1.57 169 02:58 06.07.2020
446 Clouds 30 1000 25 10000 1.87 116 02:21 06.07.2020
447 Clouds 32 1001 21 10000 2.1 280 01:22 06.07.2020
448 Clouds 32 1001 21 10000 2.1 280 00:33 06.07.2020
449 Clouds 34 1001 13 10000 3.1 280 23:59 05.07.2020
450 Clouds 34 1001 13 10000 3.1 280 23:40 05.07.2020
451 Clouds 34 1001 13 10000 3.1 280 23:22 05.07.2020
452 Clouds 35 1001 17 10000 1 320 22:58 05.07.2020
453 Clouds 35 1001 17 10000 1 320 22:39 05.07.2020
454 Clear 35 1001 17 10000 1 320 22:19 05.07.2020
455 Clear 36 1001 18 10000 1 360 21:57 05.07.2020
456 Clouds 36 1001 18 10000 1 360 21:37 05.07.2020
457 Clouds 36 1001 18 10000 1 360 21:18 05.07.2020
458 Clouds 39 1000 12 10000 2.6 10 20:55 05.07.2020
459 Clouds 39 1000 12 10000 2.6 10 20:37 05.07.2020
460 Clouds 39 1000 12 10000 2.6 10 20:19 05.07.2020
461 Clouds 41 1000 9 10000 3.1 350 19:41 05.07.2020
462 Clouds 41 1000 9 10000 3.1 350 19:21 05.07.2020
463 Clouds 42 999 8 10000 5.1 350 18:55 05.07.2020
464 Clouds 42 999 8 10000 5.1 350 18:37 05.07.2020
465 Clouds 42 999 8 10000 5.1 350 18:18 05.07.2020
466 Clouds 44 999 8 10000 5.1 350 17:42 05.07.2020
467 Clouds 44 999 8 10000 5.1 350 17:19 05.07.2020
468 Clouds 45 999 9 10000 3.1 320 16:46 05.07.2020
469 Clouds 45 999 9 10000 3.1 320 16:26 05.07.2020
470 Clouds 46 999 9 10000 2.1 340 15:59 05.07.2020
471 Clouds 46 999 9 10000 2.1 340 15:40 05.07.2020
472 Clouds 46 999 9 10000 2.1 340 15:40 05.07.2020
473 Clouds 46 999 9 10000 2.1 340 15:20 05.07.2020
474 Clouds 45 999 13 10000 1.5 300 14:43 05.07.2020
475 Clouds 45 999 13 10000 1.5 300 14:23 05.07.2020
476 Clouds 44 1000 14 10000 1.5 300 13:59 05.07.2020
477 Clouds 44 1000 14 10000 1.5 300 13:40 05.07.2020
478 Clouds 44 1000 14 10000 1.5 300 13:20 05.07.2020
479 Clouds 43 1001 10 10000 3.6 240 12:44 05.07.2020
480 Clouds 43 1001 10 10000 3.6 240 12:20 05.07.2020
481 Clouds 43 1001 12 10000 2.6 270 11:55 05.07.2020
482 Clouds 43 1001 12 10000 2.6 270 11:37 05.07.2020
483 Clear 43 1001 12 10000 2.6 270 11:18 05.07.2020
484 Clear 43 1002 17 10000 2.7 232 10:54 05.07.2020
485 Clear 43 1002 17 10000 2.7 232 10:36 05.07.2020
486 Clear 43 1002 17 10000 2.02 202 10:18 05.07.2020
487 Clear 42 1003 15 8000 1 20 09:41 05.07.2020
488 Clear 42 1003 15 8000 1 20 09:20 05.07.2020
489 Clear 41 1003 19 8000 1 310 08:56 05.07.2020
490 Clear 41 1003 19 8000 1 310 08:37 05.07.2020
491 Clouds 38 1003 21 10000 1.01 222 07:59 05.07.2020
492 Clouds 38 1003 21 10000 1.01 222 07:39 05.07.2020
493 Clouds 38 1003 21 10000 1 272 07:21 05.07.2020
494 Clouds 33 1003 21 10000 1.26 291 06:30 05.07.2020
495 Clouds 29 1002 25 10000 1.5 290 04:24 05.07.2020
496 Clouds 29 1002 26 10000 1.91 90 03:18 05.07.2020
497 Clouds 30 1002 27 10000 1.91 90 02:40 05.07.2020
498 Clear 30 1002 27 10000 0.59 98 01:59 05.07.2020
499 Clear 30 1002 27 10000 1.62 146 01:28 05.07.2020
500 Clear 32 1003 24 10000 1.62 146 00:51 05.07.2020
501 Clear 32 1003 24 10000 2.16 132 00:30 05.07.2020
502 Clear 32 1003 25 10000 2.16 132 23:57 04.07.2020
503 Clear 32 1003 25 10000 2.16 132 23:33 04.07.2020
504 Clear 35 1003 23 10000 2.43 117 22:59 04.07.2020
505 Clear 35 1003 23 10000 2.43 117 22:41 04.07.2020
506 Clear 35 1003 23 10000 3.11 102 22:23 04.07.2020
507 Clear 36 1004 19 10000 1.5 120 21:58 04.07.2020
508 Clear 36 1004 19 10000 1.5 120 21:40 04.07.2020
509 Clear 36 1004 19 10000 1.5 120 21:22 04.07.2020
510 Clear 38 1004 14 10000 2.6 90 20:43 04.07.2020
511 Clear 38 1004 14 10000 2.6 90 20:21 04.07.2020
512 Clear 39 1003 17 10000 1 70 19:57 04.07.2020
513 Clear 39 1003 17 10000 1 70 19:39 04.07.2020
514 Clear 40 1003 17 10000 1.5 30 19:20 04.07.2020
515 Clear 40 1003 17 10000 1.5 30 18:44 04.07.2020
516 Clear 44 1003 11 10000 3.1 340 18:23 04.07.2020
517 Clear 44 1003 11 10000 3.1 340 17:55 04.07.2020
518 Clear 44 1003 11 10000 3.1 340 17:37 04.07.2020
519 Clear 44 1003 11 10000 3.1 340 17:18 04.07.2020
520 Clear 43 1003 11 10000 2.6 360 16:55 04.07.2020
521 Clear 43 1003 11 10000 2.6 360 16:36 04.07.2020
522 Clear 43 1003 11 10000 2.6 360 16:18 04.07.2020
523 Clear 45 1003 10 10000 2.6 350 15:41 04.07.2020
524 Clear 45 1003 10 10000 2.6 350 15:21 04.07.2020
525 Clear 46 1004 13 10000 2.1 340 14:57 04.07.2020
526 Clear 46 1004 13 10000 2.1 340 14:37 04.07.2020
527 Clear 46 1004 13 10000 2.1 340 14:18 04.07.2020
528 Clear 43 1005 12 10000 2.6 70 13:41 04.07.2020
529 Clear 43 1005 12 10000 2.6 70 13:19 04.07.2020
530 Clear 43 1005 11 10000 2.6 20 12:56 04.07.2020
531 Clear 43 1005 11 10000 2.6 20 12:38 04.07.2020
532 Clear 43 1005 11 10000 2.6 20 12:18 04.07.2020
533 Clear 42 1006 13 10000 2.6 60 11:43 04.07.2020
534 Clear 42 1006 13 10000 2.6 60 11:23 04.07.2020
535 Clear 41 1007 16 10000 1.5 30 10:56 04.07.2020
536 Clear 41 1007 16 10000 1.5 30 10:37 04.07.2020
537 Clear 41 1007 16 10000 1.5 30 10:18 04.07.2020
538 Clear 39 1007 15 10000 2.6 50 09:41 04.07.2020
539 Clear 39 1007 15 10000 2.6 50 09:22 04.07.2020
540 Clear 39 1007 21 10000 1 340 08:58 04.07.2020
541 Clear 39 1007 21 10000 1 340 08:39 04.07.2020
542 Clear 39 1007 21 10000 1 340 08:20 04.07.2020
543 Clear 35 1007 17 10000 2.6 310 07:40 04.07.2020
544 Clear 35 1007 17 10000 2.6 310 07:18 04.07.2020
545 Clear 32 1006 27 10000 1.34 40 06:38 04.07.2020
546 Clear 32 1006 27 10000 1.12 3 06:18 04.07.2020
547 Clear 29 1006 25 10000 2.1 290 05:28 04.07.2020
548 Clear 31 1005 23 10000 0.45 103 03:56 04.07.2020
549 Clear 31 1005 23 10000 2.1 140 02:41 04.07.2020
550 Clear 33 1005 18 10000 2.6 120 01:40 04.07.2020
551 Clear 33 1005 17 10000 4.1 110 00:49 04.07.2020
552 Clear 33 1005 17 10000 4.1 110 00:30 04.07.2020
553 Clear 33 1006 17 10000 2.1 100 23:59 03.07.2020
554 Clear 33 1006 17 10000 2.1 100 23:39 03.07.2020
555 Clear 33 1006 17 10000 2.1 100 23:18 03.07.2020
556 Clear 35 1007 16 10000 2.1 50 22:41 03.07.2020
557 Clear 35 1007 16 10000 2.1 50 22:23 03.07.2020
558 Clear 33 1007 21 10000 1 30 21:59 03.07.2020
559 Clear 33 1007 21 10000 1 30 21:38 03.07.2020
560 Clear 33 1007 21 10000 1 30 21:19 03.07.2020
561 Clear 37 1006 18 10000 1.5 60 20:42 03.07.2020
562 Clear 37 1006 18 10000 1.5 60 20:42 03.07.2020
563 Clear 37 1006 18 10000 1.5 60 20:42 03.07.2020
564 Clear 37 1006 18 10000 1.5 60 20:24 03.07.2020
565 Clear 38 1005 13 10000 2.1 70 19:55 03.07.2020
566 Clear 38 1005 13 10000 2.1 70 19:55 03.07.2020
567 Clear 40 1004 11 10000 3.6 80 19:37 03.07.2020
568 Clear 40 1004 11 10000 3.6 80 19:18 03.07.2020
569 Clear 40 1004 11 10000 3.6 80 18:42 03.07.2020
570 Clear 40 1004 11 10000 3.6 80 18:23 03.07.2020
571 Clear 42 1004 9 10000 4.1 60 17:47 03.07.2020
572 Clear 42 1004 9 10000 4.1 60 17:24 03.07.2020
573 Clear 42 1004 10 10000 4.1 80 16:59 03.07.2020
574 Clear 42 1004 10 10000 4.1 80 16:39 03.07.2020
575 Clear 42 1004 10 10000 4.1 80 16:20 03.07.2020
576 Clear 43 1004 9 10000 5.1 70 15:42 03.07.2020
577 Clear 43 1004 9 10000 5.1 70 15:22 03.07.2020
578 Clear 43 1004 10 10000 5.1 60 14:55 03.07.2020
579 Clear 43 1004 10 10000 5.1 60 14:37 03.07.2020
580 Clear 43 1004 10 10000 5.1 60 14:18 03.07.2020
581 Clear 43 1005 10 10000 5.1 90 13:41 03.07.2020
582 Clear 43 1005 10 10000 5.1 90 13:23 03.07.2020
583 Clear 42 1005 11 10000 5.1 110 12:45 03.07.2020
584 Clear 42 1005 11 10000 5.1 110 12:23 03.07.2020
585 Clear 42 1006 12 10000 5.1 120 11:57 03.07.2020
586 Clear 42 1006 12 10000 5.1 120 11:39 03.07.2020
587 Clear 42 1006 12 10000 5.1 120 11:19 03.07.2020
588 Clear 41 1006 13 10000 4.1 110 10:54 03.07.2020
589 Clear 41 1006 13 10000 4.1 110 10:36 03.07.2020
590 Clear 41 1006 13 10000 4.1 110 10:18 03.07.2020
591 Clear 38 1006 21 10000 3.6 120 09:40 03.07.2020
592 Clear 38 1006 21 10000 3.6 120 09:21 03.07.2020
593 Clear 37 1006 29 10000 2.6 130 08:57 03.07.2020
594 Clear 37 1006 29 10000 2.6 130 08:38 03.07.2020
595 Clear 37 1006 29 10000 2.6 130 08:18 03.07.2020
596 Clear 35 1006 36 10000 1 130 07:43 03.07.2020
597 Clear 35 1006 36 10000 1 130 07:22 03.07.2020
598 Clear 32 1006 43 10000 3.07 104 06:37 03.07.2020
599 Clear 30 1005 45 10000 1 130 05:53 03.07.2020
600 Clear 31 1004 38 10000 1.5 130 03:59 03.07.2020
601 Clear 32 1004 29 10000 3.1 110 02:56 03.07.2020
602 Clear 32 1004 29 10000 3.1 110 02:31 03.07.2020
603 Clear 32 1004 25 10000 2.49 119 01:41 03.07.2020
604 Clear 32 1004 25 10000 2.32 115 01:20 03.07.2020
605 Clear 33 1004 24 10000 1.5 110 00:41 03.07.2020
606 Clear 34 1004 21 10000 1.5 120 23:58 02.07.2020
607 Clear 34 1004 21 10000 1.5 120 23:39 02.07.2020
608 Clear 34 1004 21 10000 1.5 120 23:19 02.07.2020
609 Clear 36 1004 12 10000 4.6 110 22:55 02.07.2020
610 Clear 36 1004 12 10000 4.6 110 22:37 02.07.2020
611 Clear 36 1004 12 10000 4.6 110 22:19 02.07.2020
612 Clear 36 1004 13 10000 4.1 100 21:42 02.07.2020
613 Clear 36 1004 13 10000 4.1 100 21:20 02.07.2020
614 Clear 38 1004 12 10000 4.1 100 20:59 02.07.2020
615 Clear 38 1004 12 10000 4.1 100 20:41 02.07.2020
616 Clear 38 1004 12 10000 4.1 100 20:20 02.07.2020
617 Clear 39 1003 11 10000 4.6 100 19:45 02.07.2020
618 Clear 39 1003 11 10000 4.6 100 19:26 02.07.2020
619 Clear 41 1002 11 10000 5.1 100 18:59 02.07.2020
620 Clear 41 1002 11 10000 5.1 100 18:41 02.07.2020
621 Clear 41 1002 11 10000 5.1 100 18:41 02.07.2020
622 Clear 41 1002 11 10000 5.1 100 18:22 02.07.2020
623 Clear 42 1002 10 10000 3.1 120 17:58 02.07.2020
624 Clear 42 1002 10 10000 3.1 120 17:39 02.07.2020
625 Clear 42 1002 10 10000 3.1 120 17:18 02.07.2020
626 Clear 43 1002 10 10000 3.6 120 16:43 02.07.2020
627 Clear 43 1002 10 10000 3.6 120 16:21 02.07.2020
628 Clear 43 1002 10 10000 3.6 90 15:59 02.07.2020
629 Clear 43 1002 10 10000 3.6 90 15:38 02.07.2020
630 Clear 43 1002 10 10000 3.6 90 15:20 02.07.2020
631 Clear 44 1003 10 10000 3.1 130 14:46 02.07.2020
632 Clear 44 1003 10 10000 3.1 130 14:23 02.07.2020
633 Clear 44 1003 11 10000 2.1 140 13:57 02.07.2020
634 Clear 44 1003 11 10000 2.1 140 13:39 02.07.2020
635 Clear 44 1003 11 10000 2.1 140 13:19 02.07.2020
636 Clear 43 1004 12 10000 2.1 160 12:56 02.07.2020
637 Clear 43 1004 12 10000 2.1 160 12:38 02.07.2020
638 Clear 43 1004 12 10000 2.1 160 12:38 02.07.2020
639 Clear 43 1004 12 10000 2.1 160 12:19 02.07.2020
640 Clear 42 1004 13 10000 2.6 130 11:41 02.07.2020
641 Clear 42 1004 13 10000 2.6 130 11:23 02.07.2020
642 Clear 41 1005 13 10000 3.1 150 10:45 02.07.2020
643 Clear 41 1005 13 10000 3.1 150 10:27 02.07.2020
644 Clear 40 1005 15 10000 2.6 160 09:56 02.07.2020
645 Clear 40 1005 15 10000 2.6 160 09:37 02.07.2020
646 Clear 40 1005 15 10000 2.6 160 09:19 02.07.2020
647 Clear 38 1005 14 10000 3.1 170 08:42 02.07.2020
648 Clear 38 1005 14 10000 3.1 170 08:22 02.07.2020
649 Clear 36 1004 16 10000 3.6 170 07:45 02.07.2020
650 Clear 36 1004 16 10000 3.6 170 07:27 02.07.2020
651 Clear 34 1004 20 10000 2.1 180 06:58 02.07.2020
652 Clear 34 1004 20 10000 2.1 180 06:39 02.07.2020
653 Clear 34 1004 20 10000 2.1 180 06:19 02.07.2020
654 Clear 32 1003 22 10000 2.6 170 05:42 02.07.2020
655 Clear 32 1003 21 10000 2.6 160 03:35 02.07.2020
656 Clear 32 1003 22 10000 2.1 150 02:38 02.07.2020
657 Clear 33 1003 21 10000 2.1 130 00:46 02.07.2020
658 Clear 33 1003 21 10000 2.1 130 00:22 02.07.2020
659 Clear 34 1003 20 10000 1.5 110 23:45 01.07.2020
660 Clear 34 1003 20 10000 1.5 110 23:27 01.07.2020
661 Clear 36 1003 14 10000 2.1 80 22:56 01.07.2020
662 Clear 36 1003 14 10000 2.1 80 22:38 01.07.2020
663 Clear 36 1003 14 10000 2.1 80 22:19 01.07.2020
664 Clear 37 1003 13 10000 3.1 70 21:58 01.07.2020
665 Clear 37 1003 13 10000 3.1 70 21:40 01.07.2020
666 Clear 37 1003 13 10000 3.1 70 21:21 01.07.2020
667 Clear 38 1003 12 10000 3.1 80 20:54 01.07.2020
668 Clear 38 1003 12 10000 3.1 80 20:36 01.07.2020
669 Clear 38 1003 12 10000 3.1 80 20:18 01.07.2020
670 Clear 39 1002 13 10000 2.6 70 19:42 01.07.2020
671 Clear 39 1002 13 10000 2.6 70 19:23 01.07.2020
672 Clear 41 1002 12 10000 2.1 50 18:59 01.07.2020
673 Clear 41 1002 12 10000 2.1 50 18:40 01.07.2020
674 Clear 41 1002 12 10000 2.1 50 18:21 01.07.2020
675 Clear 43 1001 10 10000 3.6 30 17:55 01.07.2020
676 Clear 43 1001 10 10000 3.6 30 17:37 01.07.2020
677 Clear 43 1001 10 10000 3.6 30 17:18 01.07.2020
678 Clear 44 1001 11 10000 2.6 20 16:42 01.07.2020
679 Clear 44 1001 11 10000 2.6 20 16:24 01.07.2020
680 Clear 45 1002 10 10000 2.1 270 15:43 01.07.2020
681 Clear 45 1002 10 10000 2.1 270 15:25 01.07.2020
682 Clear 45 1002 13 10000 2.1 270 14:58 01.07.2020
683 Clear 45 1002 13 10000 2.1 270 14:39 01.07.2020
684 Clear 45 1002 13 10000 2.1 270 14:20 01.07.2020
685 Clear 45 1003 13 10000 1 20 13:55 01.07.2020
686 Clear 45 1003 13 10000 1 20 13:36 01.07.2020
687 Clear 44 1003 14 10000 1.5 360 13:18 01.07.2020
688 Clear 44 1003 14 10000 1.5 360 12:41 01.07.2020
689 Clear 44 1003 14 10000 1.5 360 12:23 01.07.2020
690 Clear 43 1004 16 10000 1 80 11:59 01.07.2020
691 Clear 43 1004 16 10000 1 80 11:40 01.07.2020
692 Clear 43 1004 16 10000 1 80 11:21 01.07.2020
693 Clear 41 1005 14 10000 1.5 90 10:56 01.07.2020
694 Clear 41 1005 14 10000 1.5 90 10:38 01.07.2020
695 Clear 41 1005 14 10000 1.5 90 10:20 01.07.2020
696 Clear 40 1005 15 10000 1.5 50 09:38 01.07.2020
697 Clear 40 1005 15 10000 1.5 50 09:20 01.07.2020
698 Clear 40 1005 15 10000 2.1 340 08:57 01.07.2020
699 Clear 40 1005 15 10000 2.1 340 08:39 01.07.2020
700 Clear 40 1005 15 10000 2.1 340 08:19 01.07.2020
701 Clear 35 1005 13 10000 4.1 290 07:41 01.07.2020
702 Clear 35 1005 13 10000 4.1 290 07:23 01.07.2020
703 Clear 32 1004 18 10000 2.6 300 06:55 01.07.2020
704 Clear 32 1004 18 10000 2.6 300 06:32 01.07.2020
705 Clear 28 1004 28 10000 2.33 326 05:44 01.07.2020
706 Clear 28 1003 24 10000 1 290 04:29 01.07.2020
707 Clear 29 1003 26 10000 0.78 140 03:41 01.07.2020
708 Clear 29 1003 26 10000 0.87 111 03:21 01.07.2020
709 Clear 30 1003 25 10000 0.91 43 01:56 01.07.2020
710 Clear 31 1003 25 10000 2.17 58 00:48 01.07.2020
711 Clear 31 1003 25 10000 3.02 54 00:28 01.07.2020
712 Clear 33 1003 24 10000 3.02 54 23:59 30.06.2020
713 Clear 33 1003 24 10000 3.02 54 23:39 30.06.2020
714 Clear 33 1003 24 10000 3.58 36 23:19 30.06.2020
715 Clear 35 1003 19 10000 1.5 30 22:42 30.06.2020
716 Clear 35 1003 19 10000 1.5 30 22:19 30.06.2020
717 Clear 35 1004 19 10000 1 350 21:42 30.06.2020
718 Clouds 35 1004 19 10000 1 350 21:19 30.06.2020
719 Clouds 37 1003 14 10000 2.6 20 20:59 30.06.2020
720 Clouds 37 1003 14 10000 2.6 20 20:40 30.06.2020
721 Clear 37 1003 14 10000 2.6 20 20:20 30.06.2020
722 Clear 39 1003 12 10000 3.1 20 19:43 30.06.2020
723 Clear 39 1003 12 10000 3.1 20 19:20 30.06.2020
724 Clear 39 1003 12 10000 3.1 20 19:20 30.06.2020
725 Clear 41 1002 9 10000 4.6 360 18:54 30.06.2020
726 Clear 41 1002 9 10000 4.6 360 18:36 30.06.2020
727 Clear 41 1002 9 10000 4.6 360 18:18 30.06.2020
728 Clear 43 1002 9 10000 5.1 340 17:38 30.06.2020
729 Clear 43 1002 9 10000 5.1 340 17:20 30.06.2020
730 Clear 44 1002 8 10000 3.1 330 16:55 30.06.2020
731 Clear 44 1002 8 10000 3.1 330 16:36 30.06.2020
732 Clear 44 1002 8 10000 3.1 330 16:18 30.06.2020
733 Clear 45 1002 7 10000 7.7 330 15:42 30.06.2020
734 Clear 45 1002 7 10000 7.7 330 15:22 30.06.2020
735 Clear 45 1002 7 10000 6.2 330 14:58 30.06.2020
736 Clear 45 1002 7 10000 6.2 330 14:40 30.06.2020
737 Clear 45 1002 7 10000 6.2 330 14:18 30.06.2020
738 Clear 45 1003 8 10000 4.1 300 13:42 30.06.2020
739 Clear 45 1003 8 10000 4.1 300 13:21 30.06.2020
740 Clear 44 1003 11 10000 2.6 360 12:59 30.06.2020
741 Clear 44 1003 11 10000 2.6 360 12:40 30.06.2020
742 Clear 44 1003 11 10000 2.6 360 12:21 30.06.2020
743 Clear 43 1004 11 10000 3.1 360 11:59 30.06.2020
744 Clear 43 1004 11 10000 3.1 360 11:39 30.06.2020
745 Clear 43 1004 11 10000 3.1 360 11:20 30.06.2020
746 Clear 43 1004 10 10000 2.1 360 10:59 30.06.2020
747 Clouds 44 1005 7 10000 3.1 10 16:43 28.06.2020
748 Clouds 44 1005 7 10000 3.1 10 16:24 28.06.2020
749 Clouds 44 1005 7 10000 3.6 350 15:56 28.06.2020
750 Clouds 44 1005 7 10000 3.6 350 15:38 28.06.2020
751 Clouds 44 1005 7 10000 3.6 350 15:19 28.06.2020
752 Clouds 44 1005 7 10000 3.6 20 14:46 28.06.2020
753 Clouds 44 1005 7 10000 3.6 20 14:28 28.06.2020
754 Clouds 45 1006 7 10000 3.6 10 13:58 28.06.2020
755 Clouds 45 1006 7 10000 3.6 10 13:38 28.06.2020
756 Clouds 45 1006 7 10000 3.6 10 13:19 28.06.2020
757 Clouds 44 1007 8 10000 2.6 20 12:56 28.06.2020
758 Clouds 44 1007 8 10000 2.6 20 12:37 28.06.2020
759 Clouds 44 1007 8 10000 2.6 20 12:18 28.06.2020
760 Clouds 42 1007 13 10000 2.1 100 11:56 28.06.2020
761 Clouds 42 1007 13 10000 2.1 100 11:37 28.06.2020
762 Clouds 42 1007 13 10000 2.1 100 11:19 28.06.2020
763 Clouds 42 1008 9 10000 2.6 30 10:42 28.06.2020
764 Clouds 42 1008 9 10000 2.6 30 10:42 28.06.2020
765 Clouds 42 1008 9 10000 2.6 30 10:23 28.06.2020
766 Clouds 40 1008 14 10000 1.5 60 09:59 28.06.2020
767 Clouds 40 1008 14 10000 1.5 60 09:39 28.06.2020
768 Clouds 40 1008 14 10000 1.5 60 09:20 28.06.2020
769 Clouds 39 1008 14 10000 1.5 360 08:46 28.06.2020
770 Clouds 39 1008 14 10000 1.5 360 08:25 28.06.2020
771 Clouds 35 1008 17 10000 2.1 310 07:46 28.06.2020
772 Clouds 35 1008 17 10000 2.1 310 07:28 28.06.2020
773 Clouds 30 1008 20 10000 2.37 48 06:34 28.06.2020
774 Clear 27 1007 22 10000 2.1 290 05:57 28.06.2020
775 Clear 27 1007 22 10000 2.1 290 05:26 28.06.2020
776 Clear 27 1006 21 10000 2.1 290 03:23 28.06.2020
777 Clear 28 1006 21 10000 1.5 300 02:39 28.06.2020
778 Clear 28 1007 24 10000 1.34 36 01:52 28.06.2020
779 Clear 28 1007 24 10000 2.59 25 01:25 28.06.2020
780 Clear 30 1007 15 10000 2.6 290 00:44 28.06.2020
781 Clouds 30 1007 15 10000 2.6 290 00:24 28.06.2020
782 Clouds 31 1007 15 10000 2.6 290 23:41 27.06.2020
783 Clouds 31 1007 15 10000 2.6 290 23:22 27.06.2020
784 Clouds 32 1007 22 10000 1 280 22:58 27.06.2020
785 Clouds 32 1007 22 10000 1 280 22:39 27.06.2020
786 Clouds 32 1007 22 10000 1 280 22:19 27.06.2020
787 Clouds 33 1008 18 10000 1.5 10 21:42 27.06.2020
788 Clouds 33 1008 18 10000 1.5 10 21:20 27.06.2020
789 Clouds 36 1007 12 10000 2.1 40 20:57 27.06.2020
790 Clouds 36 1007 12 10000 2.1 40 20:37 27.06.2020
791 Clouds 36 1007 12 10000 2.1 40 20:18 27.06.2020
792 Clouds 38 1007 10 10000 4.1 20 19:54 27.06.2020
793 Clouds 38 1007 10 10000 4.1 20 19:36 27.06.2020
794 Clouds 38 1007 10 10000 4.1 20 19:18 27.06.2020
795 Clouds 40 1006 7 10000 5.1 20 18:42 27.06.2020
796 Clouds 40 1006 7 10000 5.1 20 18:21 27.06.2020
797 Clouds 42 1006 6 10000 5.7 10 17:54 27.06.2020
798 Clouds 42 1006 6 10000 5.7 10 17:36 27.06.2020
799 Clouds 42 1006 6 10000 5.7 10 17:18 27.06.2020
800 Clouds 43 1006 6 10000 6.2 10 16:41 27.06.2020
801 Clouds 43 1006 6 10000 6.2 10 16:23 27.06.2020
802 Clouds 43 1006 5 10000 7.7 10 15:46 27.06.2020
803 Clouds 43 1006 5 10000 7.7 10 15:24 27.06.2020
804 Clouds 43 1006 5 10000 7.7 10 15:24 27.06.2020
805 Clouds 44 1006 5 10000 6.7 360 14:59 27.06.2020
806 Clouds 44 1006 5 10000 6.7 360 14:39 27.06.2020
807 Clouds 44 1006 5 10000 6.7 360 14:21 27.06.2020
808 Clouds 44 1006 6 10000 6.2 10 13:55 27.06.2020
809 Clouds 44 1006 6 10000 6.2 10 13:37 27.06.2020
810 Clouds 44 1006 6 10000 6.2 10 13:19 27.06.2020
811 Clouds 43 1007 6 10000 6.2 10 12:41 27.06.2020
812 Clouds 43 1007 6 10000 6.2 10 12:22 27.06.2020
813 Clouds 43 1007 6 10000 6.2 10 11:59 27.06.2020
814 Clouds 43 1007 6 10000 6.2 10 11:59 27.06.2020
815 Clouds 43 1007 6 10000 6.2 10 11:59 27.06.2020
816 Clouds 43 1007 6 10000 6.2 10 11:40 27.06.2020
817 Clouds 43 1007 6 10000 6.2 10 11:40 27.06.2020
818 Clouds 43 1007 6 10000 6.2 10 11:22 27.06.2020
819 Clouds 43 1007 6 10000 6.2 10 11:22 27.06.2020
820 Clouds 41 1008 6 10000 6.2 20 10:42 27.06.2020
821 Clouds 41 1008 6 10000 6.2 20 10:19 27.06.2020
822 Clouds 40 1008 7 10000 4.1 360 09:59 27.06.2020
823 Clouds 40 1008 7 10000 4.1 360 09:39 27.06.2020
824 Clouds 40 1008 7 10000 4.1 360 09:20 27.06.2020
825 Clouds 37 1008 9 10000 5.1 10 08:44 27.06.2020
826 Clear 37 1008 9 10000 5.1 10 08:23 27.06.2020
827 Clear 36 1008 7 10000 3.6 350 07:48 27.06.2020
828 Clear 36 1008 8 10000 3.6 350 07:26 27.06.2020
829 Clear 30 1008 20 10000 1.5 280 06:53 27.06.2020
830 Clear 30 1008 20 10000 1.5 280 06:33 27.06.2020
831 Clear 28 1007 20 10000 1.5 290 04:55 27.06.2020
832 Clear 28 1007 20 10000 1.5 290 04:18 27.06.2020
833 Clear 29 1007 13 10000 2.1 300 03:51 27.06.2020
834 Clear 28 1006 14 10000 3.1 300 02:43 27.06.2020
835 Clear 28 1006 14 10000 3.1 300 02:24 27.06.2020
836 Clear 29 1007 16 10000 2.6 310 01:34 27.06.2020
837 Clear 29 1007 16 10000 2.6 300 00:47 27.06.2020
838 Clear 31 1007 14 10000 2.6 300 23:48 26.06.2020
839 Clear 31 1007 14 10000 2.6 300 23:29 26.06.2020
840 Clear 32 1007 14 10000 2.6 300 22:59 26.06.2020
841 Clear 32 1007 14 10000 2.6 300 22:41 26.06.2020
842 Clear 32 1007 14 10000 2.6 300 22:23 26.06.2020
843 Clear 34 1008 13 10000 2.1 360 21:58 26.06.2020
844 Clear 34 1008 13 10000 2.1 360 21:58 26.06.2020
845 Clear 34 1008 13 10000 2.1 360 21:39 26.06.2020
846 Clear 34 1008 13 10000 2.1 360 21:21 26.06.2020
847 Clear 34 1008 13 10000 2.1 360 21:21 26.06.2020
848 Clear 36 1007 11 10000 2.6 10 20:57 26.06.2020
849 Clear 36 1007 11 10000 2.6 10 20:37 26.06.2020
850 Clear 36 1007 11 10000 2.6 10 20:18 26.06.2020
851 Clear 37 1007 10 10000 3.6 20 19:40 26.06.2020
852 Clear 37 1007 10 10000 3.6 20 19:20 26.06.2020
853 Clear 39 1006 9 10000 5.1 10 18:42 26.06.2020
854 Clear 39 1006 9 10000 5.1 10 18:23 26.06.2020
855 Clear 41 1006 9 10000 5.7 20 17:46 26.06.2020
856 Clear 41 1006 7 10000 5.7 20 17:28 26.06.2020
857 Clear 42 1006 8 10000 4.6 40 16:59 26.06.2020
858 Clear 42 1006 8 10000 4.6 40 16:41 26.06.2020
859 Clear 42 1006 8 10000 4.6 40 16:22 26.06.2020
860 -273 0 0 0 0 0 15:41 26.06.2020
861 Clear 42 1006 8 10000 4.6 40 15:22 26.06.2020
862 Clear 42 1006 6 10000 5.7 10 14:58 26.06.2020
863 Clear 42 1006 6 10000 5.7 10 14:39 26.06.2020
864 Clear 42 1006 6 10000 5.7 10 14:21 26.06.2020
865 Clear 42 1007 8 10000 5.7 20 13:46 26.06.2020
866 Clear 42 1007 8 10000 5.7 20 13:24 26.06.2020
867 Clear 41 1007 6 10000 6.2 350 12:57 26.06.2020
868 Clear 41 1007 6 10000 6.2 350 12:38 26.06.2020
869 Clear 41 1007 6 10000 6.2 350 12:19 26.06.2020
870 Clear 41 1008 8 10000 6.2 350 11:56 26.06.2020
871 Clear 41 1008 8 10000 6.2 350 11:38 26.06.2020
872 Clear 41 1008 8 10000 6.2 350 11:19 26.06.2020
873 Clear 39 1008 7 10000 6.7 10 10:56 26.06.2020
874 Clear 39 1008 7 10000 6.7 10 10:37 26.06.2020
875 Clear 39 1008 7 10000 6.7 10 10:37 26.06.2020
876 Clear 39 1008 7 10000 6.7 10 10:18 26.06.2020
877 Clear 38 1009 7 10000 7.2 10 09:42 26.06.2020
878 Clear 38 1009 7 10000 7.2 10 09:22 26.06.2020
879 Clear 35 1009 7 10000 5.1 10 08:48 26.06.2020
880 Clear 35 1009 8 10000 5.1 10 08:27 26.06.2020
881 Clear 34 1009 12 10000 4.1 350 07:48 26.06.2020
882 Clear 34 1009 12 10000 4.1 350 07:24 26.06.2020
883 Clear 31 1009 14 10000 3.6 320 06:54 26.06.2020
884 Clear 31 1009 14 10000 3.6 320 06:33 26.06.2020
885 Clear 27 1008 18 10000 2.1 310 05:55 26.06.2020
886 Clear 27 1008 18 10000 2.1 310 05:29 26.06.2020
887 Clear 28 1007 21 10000 2.1 300 02:40 26.06.2020
888 Clear 29 1007 17 10000 3.1 300 01:39 26.06.2020
889 Clear 30 1007 16 10000 2.1 310 00:52 26.06.2020
890 Clear 30 1007 16 10000 2.1 310 00:31 26.06.2020
891 Clear 31 1008 15 10000 2.1 310 23:48 25.06.2020
892 Clear 31 1008 15 10000 2.1 310 23:22 25.06.2020
893 Clear 32 1008 13 10000 3.1 350 22:58 25.06.2020
894 Clear 32 1008 13 10000 3.1 350 22:39 25.06.2020
895 Clear 32 1008 13 10000 3.1 350 22:20 25.06.2020
896 Clear 33 1008 14 10000 3.1 350 21:58 25.06.2020
897 Clear 33 1008 14 10000 3.1 350 21:39 25.06.2020
898 Clear 33 1008 14 10000 3.1 350 21:21 25.06.2020
899 Clear 35 1008 13 10000 2.6 10 20:57 25.06.2020
900 Clear 35 1008 13 10000 2.6 10 20:39 25.06.2020
901 Clouds 35 1008 13 10000 2.6 10 20:21 25.06.2020
902 Clouds 37 1007 12 6000 4.1 20 19:41 25.06.2020
903 Clouds 38 1007 9 6000 4.6 20 19:21 25.06.2020
904 Clouds 38 1007 9 6000 4.6 20 19:00 25.06.2020
905 Clouds 38 1007 9 6000 4.6 20 18:59 25.06.2020
906 Dust 38 1007 9 4000 5.1 20 18:39 25.06.2020
907 Dust 38 1007 9 4000 5.1 20 18:20 25.06.2020
908 Dust 39 1007 10 4000 5.1 30 17:45 25.06.2020
909 Dust 39 1007 10 4000 5.1 30 17:20 25.06.2020
910 Dust 40 1006 9 4000 5.1 20 16:58 25.06.2020
911 Dust 40 1006 9 4000 5.1 20 16:38 25.06.2020
912 Dust 40 1006 9 4000 5.1 20 16:19 25.06.2020
913 Dust 40 1007 9 4000 5.1 30 15:43 25.06.2020
914 Dust 40 1007 9 4000 5.1 30 15:25 25.06.2020
915 Dust 40 1007 9 4000 5.7 50 14:55 25.06.2020
916 Dust 40 1007 9 4000 5.7 50 14:37 25.06.2020
917 Dust 40 1007 9 4000 5.7 50 14:18 25.06.2020
918 Dust 40 1007 9 5000 6.2 10 13:42 25.06.2020
919 Dust 40 1007 9 5000 6.2 10 13:20 25.06.2020
920 Dust 39 1008 9 5000 6.2 20 12:58 25.06.2020
921 Dust 39 1008 9 5000 6.2 20 12:40 25.06.2020
922 Dust 39 1008 9 5000 6.2 20 12:19 25.06.2020
923 Clear 39 1008 7 7000 7.7 10 11:42 25.06.2020
924 Clear 39 1008 7 7000 7.7 10 11:22 25.06.2020
925 Clear 37 1009 7 7000 7.7 20 10:44 25.06.2020
926 Clear 37 1009 8 7000 7.7 20 10:26 25.06.2020
927 Clear 36 1009 9 8000 9.3 20 09:58 25.06.2020
928 Clear 36 1009 9 8000 9.3 20 09:40 25.06.2020
929 Clear 36 1009 9 8000 9.3 20 09:19 25.06.2020
930 Clear 35 1009 9 8000 8.7 10 08:43 25.06.2020
931 Clear 35 1009 10 8000 8.7 10 08:19 25.06.2020
932 Clear 33 1009 13 10000 7.2 10 07:44 25.06.2020
933 Clear 30 1009 15 10000 3.1 310 07:26 25.06.2020
934 Clear 33 1009 13 10000 7.2 10 07:26 25.06.2020
935 Clear 30 1009 15 10000 3.1 310 06:46 25.06.2020
936 Clear 30 1009 15 10000 3.1 310 06:26 25.06.2020
937 Clear 28 1008 14 10000 4.1 310 05:40 25.06.2020
938 Clear 28 1007 15 10000 4.6 310 03:55 25.06.2020
939 Clear 28 1007 15 10000 4.6 310 03:26 25.06.2020
940 Clear 28 1007 15 10000 4.1 310 02:41 25.06.2020
941 Clear 29 1007 14 10000 3.6 310 01:46 25.06.2020
942 Clear 30 1007 15 10000 3.6 320 01:19 25.06.2020
943 Clear 30 1007 15 10000 3.6 320 01:19 25.06.2020
944 Clear 30 1007 15 10000 3.6 320 00:40 25.06.2020
945 Clear 30 1007 15 10000 3.6 320 00:18 25.06.2020
946 Clear 30 1008 15 10000 2.1 300 23:42 24.06.2020
947 Clear 30 1008 15 10000 2.1 300 23:23 24.06.2020
948 Clear 30 1009 14 10000 3.1 310 22:57 24.06.2020
949 Clear 30 1009 14 10000 3.1 310 22:37 24.06.2020
950 Clear 30 1009 14 10000 3.1 310 22:19 24.06.2020
951 Clear 31 1009 19 10000 1.5 320 21:55 24.06.2020
952 Clear 31 1009 19 10000 1.5 320 21:36 24.06.2020
953 Clear 31 1009 19 10000 1.5 320 21:18 24.06.2020
954 Clear 33 1008 18 10000 1 10 20:56 24.06.2020
955 Clear 33 1008 18 10000 1 10 20:37 24.06.2020
956 Clear 33 1008 18 10000 1 10 20:19 24.06.2020
957 Clear 35 1008 13 10000 2.6 20 19:55 24.06.2020
958 Clear 35 1008 13 10000 2.6 20 19:36 24.06.2020
959 Clear 35 1008 13 10000 2.6 20 19:18 24.06.2020
960 Clear 37 1007 10 8000 3.6 20 18:56 24.06.2020
961 Clear 37 1007 10 8000 3.6 20 18:37 24.06.2020
962 Clear 37 1007 10 8000 3.6 20 18:18 24.06.2020
963 Clear 39 1006 8 7000 5.1 20 17:41 24.06.2020
964 Clear 39 1006 8 7000 5.1 20 17:19 24.06.2020
965 Clear 39 1006 8 6000 6.7 40 16:56 24.06.2020
966 Clear 39 1006 8 6000 6.7 40 16:56 24.06.2020
967 Clear 39 1006 8 6000 6.7 40 16:38 24.06.2020
968 Clear 39 1006 8 6000 6.7 40 16:20 24.06.2020
969 Clear 40 1006 7 6000 7.7 10 15:56 24.06.2020
970 Clear 40 1006 7 6000 7.7 10 15:38 24.06.2020
971 Clear 40 1006 7 6000 7.7 10 15:19 24.06.2020
972 Clear 40 1007 7 7000 6.7 350 14:43 24.06.2020
973 Clear 40 1007 7 7000 6.7 350 14:24 24.06.2020
974 Clear 40 1007 7 8000 6.7 340 13:43 24.06.2020
975 Clear 40 1007 7 8000 6.7 340 13:22 24.06.2020
976 Clear 40 1008 7 9000 5.7 340 12:59 24.06.2020
977 Clear 40 1008 7 9000 5.7 340 12:41 24.06.2020
978 Clear 40 1008 7 9000 5.7 340 12:20 24.06.2020
979 Clear 39 1008 8 9000 6.7 340 11:56 24.06.2020
980 Clear 39 1008 8 9000 6.7 340 11:38 24.06.2020
981 Clear 38 1009 8 10000 6.7 310 11:18 24.06.2020
982 Clear 38 1009 8 10000 6.7 310 10:43 24.06.2020
983 Clear 38 1009 8 10000 6.7 310 10:19 24.06.2020
984 Clear 37 1009 9 10000 5.7 360 09:43 24.06.2020
985 Clouds 37 1009 9 10000 5.7 360 09:22 24.06.2020
986 Clouds 35 1010 11 10000 3.6 350 08:43 24.06.2020
987 Clouds 35 1010 11 10000 3.6 350 08:21 24.06.2020
988 Clouds 31 1010 10 7000 3.6 320 07:51 24.06.2020
989 Clouds 31 1010 11 7000 3.6 320 07:32 24.06.2020
990 Clouds 29 1009 12 7000 4.1 310 06:51 24.06.2020
991 Clouds 29 1009 12 7000 4.1 310 06:26 24.06.2020
992 Clouds 28 1009 13 7000 3.6 310 05:58 24.06.2020
993 Dust 27 1009 11 5000 4.1 310 05:20 24.06.2020
994 Dust 27 1008 11 4000 4.6 320 04:35 24.06.2020
995 Dust 28 1008 11 4000 3.6 310 03:35 24.06.2020
996 Dust 29 1007 9 4000 4.6 310 02:51 24.06.2020
997 Dust 29 1007 11 4000 3.6 310 01:45 24.06.2020
998 Dust 30 1008 9 3000 4.1 320 00:47 24.06.2020
999 Dust 30 1008 9 3000 4.1 320 00:27 24.06.2020
1000 Dust 30 1008 9 3000 4.1 320 00:27 24.06.2020
1001 Dust 32 1008 10 2000 4.1 310 23:46 23.06.2020
1002 Dust 32 1008 10 2000 4.1 310 23:20 23.06.2020
1003 Dust 34 1008 7 2000 5.7 320 22:54 23.06.2020
1004 Dust 34 1008 7 2000 5.7 320 22:36 23.06.2020
1005 Dust 34 1008 7 2000 5.7 320 22:18 23.06.2020
1006 Dust 35 1008 8 2000 5.1 320 21:41 23.06.2020
1007 Dust 35 1008 8 2000 5.1 320 21:20 23.06.2020
1008 Dust 36 1008 8 2000 5.7 340 21:20 23.06.2020
1009 Dust 36 1008 8 2000 5.7 340 20:56 23.06.2020
1010 Dust 36 1008 8 2000 5.7 340 20:56 23.06.2020
1011 Dust 36 1008 8 2000 5.7 340 20:37 23.06.2020
1012 Dust 37 1008 9 2000 5.1 340 20:19 23.06.2020
1013 Dust 37 1008 9 2000 5.1 340 19:45 23.06.2020
1014 Dust 37 1008 9 2000 5.1 340 19:27 23.06.2020
1015 Dust 38 1007 8 2000 5.7 350 18:42 23.06.2020
1016 Dust 39 1007 8 3000 6.7 350 18:19 23.06.2020
1017 Dust 39 1007 8 3000 6.7 350 17:58 23.06.2020
1018 Dust 39 1007 8 3000 6.7 350 17:39 23.06.2020
1019 Dust 39 1007 8 3000 6.7 350 17:20 23.06.2020
1020 Dust 40 1007 7 3000 8.7 350 16:55 23.06.2020
1021 Dust 40 1007 7 3000 8.7 350 16:37 23.06.2020
1022 Dust 40 1007 7 3000 8.7 350 16:18 23.06.2020
1023 Dust 41 1007 6 3000 8.2 350 15:44 23.06.2020
1024 Dust 41 1007 6 3000 8.2 350 15:25 23.06.2020
1025 Dust 41 1007 7 3000 8.2 360 14:58 23.06.2020
1026 Dust 41 1007 7 3000 8.2 360 14:40 23.06.2020
1027 Dust 41 1008 7 3000 9.8 360 14:18 23.06.2020
1028 Dust 41 1008 7 3000 9.8 360 13:54 23.06.2020
1029 Dust 41 1008 7 3000 9.8 360 13:54 23.06.2020
1030 Dust 41 1008 7 3000 9.8 360 13:36 23.06.2020
1031 Dust 40 1008 7 3000 10.3 350 13:18 23.06.2020
1032 Dust 40 1008 7 3000 10.3 350 12:40 23.06.2020
1033 Dust 40 1008 7 3000 10.3 350 12:22 23.06.2020
1034 Dust 40 1009 9 5000 7.7 350 11:44 23.06.2020
1035 Dust 40 1009 9 5000 7.7 350 11:23 23.06.2020
1036 Dust 39 1009 10 5000 7.2 350 10:59 23.06.2020
1037 Clouds 39 1009 10 6000 8.7 340 10:41 23.06.2020
1038 Clouds 39 1009 10 6000 8.7 340 10:22 23.06.2020
1039 Clouds 38 1009 11 10000 6.7 340 09:58 23.06.2020
1040 Clouds 38 1009 11 10000 6.7 340 09:39 23.06.2020
1041 Clouds 38 1009 11 10000 6.7 340 09:20 23.06.2020
1042 Clouds 36 1009 12 10000 4.1 310 08:47 23.06.2020
1043 Clouds 36 1009 12 10000 4.1 310 08:26 23.06.2020
1044 Clouds 32 1009 15 10000 4.1 300 07:51 23.06.2020
1045 Clouds 32 1009 15 10000 4.1 300 07:25 23.06.2020
1046 Clouds 29 1009 20 10000 2.6 290 06:57 23.06.2020
1047 Clouds 29 1009 20 10000 2.6 290 06:38 23.06.2020
1048 Clouds 29 1009 20 10000 2.6 290 06:19 23.06.2020
1049 Clouds 26 1008 22 10000 3.6 290 05:28 23.06.2020
1050 Clouds 26 1008 21 10000 3.1 300 03:23 23.06.2020
1051 Clouds 27 1008 21 10000 3.1 290 02:52 23.06.2020
1052 Clouds 27 1008 21 10000 3.1 290 02:33 23.06.2020
1053 Clouds 28 1008 18 10000 3.1 280 01:46 23.06.2020
1054 Clouds 28 1008 18 10000 3.1 280 01:24 23.06.2020
1055 Clouds 29 1008 17 10000 3.1 290 00:46 23.06.2020
1056 Clouds 29 1008 17 10000 3.1 290 00:21 23.06.2020
1057 Clouds 29 1009 20 7000 3.1 290 23:55 22.06.2020
1058 Clouds 29 1009 20 7000 3.1 290 23:36 22.06.2020
1059 Clear 29 1009 20 7000 3.1 290 23:18 22.06.2020
1060 Clear 31 1009 18 7000 3.1 300 22:54 22.06.2020
1061 Clear 31 1009 18 7000 3.1 300 22:36 22.06.2020
1062 Clear 31 1009 18 7000 3.1 300 22:18 22.06.2020
1063 Clear 32 1009 17 7000 2.6 330 21:41 22.06.2020
1064 Clear 32 1009 17 7000 2.6 330 21:22 22.06.2020
1065 Clear 33 1009 15 7000 3.1 340 20:59 22.06.2020
1066 Clear 33 1009 15 7000 3.1 340 20:41 22.06.2020
1067 Clear 33 1009 15 7000 3.1 340 20:21 22.06.2020
1068 Clear 30 1006 14 0 4.35 353 19:44 22.06.2020
1069 Dust 35 1008 11 4000 6.7 350 19:20 22.06.2020
1070 Dust 35 1008 11 4000 6.7 350 18:58 22.06.2020
1071 Dust 35 1008 11 4000 6.7 350 18:38 22.06.2020
1072 Dust 35 1008 11 4000 6.7 350 18:20 22.06.2020
1073 Dust 37 1008 11 3000 7.7 350 17:56 22.06.2020
1074 Dust 37 1008 11 3000 7.7 350 17:37 22.06.2020
1075 Dust 37 1008 9 3000 7.7 350 17:19 22.06.2020
1076 Dust 37 1007 8 2000 8.2 340 16:43 22.06.2020
1077 Dust 39 1007 9 3000 7.7 340 16:20 22.06.2020
1078 Dust 39 1007 9 3000 7.7 340 15:59 22.06.2020
1079 Dust 39 1007 9 3000 7.7 340 15:39 22.06.2020
1080 Dust 39 1008 8 3000 7.7 330 15:21 22.06.2020
1081 Dust 39 1008 8 3000 7.7 330 14:40 22.06.2020
1082 Dust 39 1008 10 4000 7.7 350 14:21 22.06.2020
1083 Dust 39 1008 10 4000 7.7 350 13:58 22.06.2020
1084 Dust 39 1008 10 4000 7.7 350 13:39 22.06.2020
1085 Clear 38 1009 11 7000 7.2 350 13:21 22.06.2020
1086 Clear 38 1009 11 7000 7.2 350 12:44 22.06.2020
1087 Clear 38 1009 11 7000 7.2 350 12:24 22.06.2020
1088 Clear 38 1010 11 7000 7.7 340 11:59 22.06.2020
1089 Clear 38 1010 11 7000 7.7 340 11:37 22.06.2020
1090 Clear 36 1010 12 7000 7.7 350 11:19 22.06.2020
1091 Clear 36 1010 12 7000 7.7 350 10:55 22.06.2020
1092 Clear 36 1010 12 7000 7.7 350 10:36 22.06.2020
1093 Clear 36 1011 12 8000 7.2 340 10:18 22.06.2020
1094 Clear 36 1011 12 8000 7.2 340 09:55 22.06.2020
1095 Clouds 36 1011 12 8000 7.2 340 09:37 22.06.2020
1096 Clouds 34 1011 16 8000 6.7 350 09:18 22.06.2020
1097 Clouds 34 1011 16 8000 6.7 350 08:40 22.06.2020
1098 Clouds 32 1011 17 10000 6.2 340 08:21 22.06.2020
1099 Clouds 32 1011 17 10000 6.2 340 07:53 22.06.2020
1100 Clear 32 1011 17 10000 6.2 340 07:34 22.06.2020
1101 Clear 29 1010 18 10000 5.1 320 06:56 22.06.2020
1102 Clear 29 1010 18 10000 5.1 320 06:36 22.06.2020
1103 Clear 26 1010 24 10000 3.1 310 06:18 22.06.2020
1104 Clear 26 1010 24 10000 3.1 310 05:33 22.06.2020
1105 Clear 28 1009 21 10000 3.6 300 02:58 22.06.2020
1106 Clear 28 1008 21 10000 3.6 310 01:37 22.06.2020
1107 Clear 30 1009 25 10000 2.1 350 00:41 22.06.2020
1108 Clear 29 1009 26 10000 1.5 340 00:19 22.06.2020
1109 Clear 29 1009 26 10000 1.5 340 23:55 21.06.2020
1110 Clear 29 1009 26 10000 1.5 340 23:36 21.06.2020
1111 Clear 31 1009 23 10000 1.5 30 23:18 21.06.2020
1112 Clear 31 1009 23 10000 1.5 30 22:54 21.06.2020
1113 Clear 31 1009 23 10000 1.5 30 22:36 21.06.2020
1114 Clear 33 1009 17 10000 2.6 10 22:18 21.06.2020
1115 Clear 33 1009 17 10000 2.6 10 21:42 21.06.2020
1116 Clear 33 1009 17 10000 2.6 10 21:21 21.06.2020
1117 Clear 34 1008 17 10000 2.6 30 20:59 21.06.2020
1118 Clear 34 1008 17 10000 2.6 30 20:38 21.06.2020
1119 Clear 36 1008 14 10000 4.1 20 20:19 21.06.2020
1120 Clear 36 1008 14 10000 4.1 20 19:57 21.06.2020
1121 Clear 36 1008 14 10000 4.1 20 19:38 21.06.2020
1122 Clear 37 1007 16 10000 2.6 30 19:20 21.06.2020
1123 Clear 37 1007 16 10000 2.6 30 18:55 21.06.2020
1124 Clear 37 1007 16 10000 2.6 30 18:37 21.06.2020
1125 Clear 38 1007 14 10000 3.1 50 18:18 21.06.2020
1126 Clear 38 1007 14 10000 3.1 50 17:40 21.06.2020
1127 Clear 38 1007 14 10000 3.1 50 17:21 21.06.2020
1128 Clear 39 1007 14 10000 2.6 60 16:56 21.06.2020
1129 Clear 39 1007 14 10000 2.6 60 16:56 21.06.2020
1130 Clear 39 1007 14 10000 2.6 60 16:38 21.06.2020
1131 Clear 39 1007 14 10000 2.6 60 16:19 21.06.2020
1132 Clear 39 1007 14 10000 2.1 60 15:39 21.06.2020
1133 Clear 40 1007 13 10000 3.6 10 15:21 21.06.2020
1134 Clear 40 1007 13 10000 3.6 10 14:55 21.06.2020
1135 Clear 40 1007 13 10000 3.6 10 14:36 21.06.2020
1136 Clouds 39 1008 13 10000 3.6 10 14:18 21.06.2020
1137 Clouds 39 1008 13 10000 3.6 10 13:42 21.06.2020
1138 Clouds 39 1008 13 10000 3.6 10 13:23 21.06.2020
1139 Clouds 38 1008 15 10000 2.6 60 12:57 21.06.2020
1140 Clouds 38 1008 15 10000 2.6 60 12:39 21.06.2020
1141 Clouds 37 1009 14 10000 4.1 40 12:20 21.06.2020
1142 Clouds 37 1009 14 10000 4.1 40 11:42 21.06.2020
1143 Clear 37 1009 14 10000 4.1 40 11:24 21.06.2020
1144 Clear 36 1009 13 10000 4.6 40 10:58 21.06.2020
1145 -273 0 0 0 0 0 10:39 21.06.2020
1146 Clear 36 1009 13 10000 4.6 40 10:21 21.06.2020
1147 Clear 34 1009 15 10000 5.1 30 09:44 21.06.2020
1148 Clouds 34 1009 15 10000 5.1 30 09:24 21.06.2020
1149 Clouds 32 1009 15 10000 4.6 20 08:58 21.06.2020
1150 Clouds 32 1009 15 10000 4.6 20 08:40 21.06.2020
1151 Clouds 32 1009 15 10000 4.6 20 08:20 21.06.2020
1152 Clouds 32 1009 17 10000 4.6 10 07:43 21.06.2020
1153 Clouds 32 1009 17 10000 4.6 10 07:24 21.06.2020
1154 Clouds 30 1008 17 10000 6.2 350 06:51 21.06.2020
1155 Clouds 30 1008 17 10000 6.2 350 06:31 21.06.2020
1156 Clouds 27 1007 28 10000 1 10 05:57 21.06.2020
1157 Clouds 26 1006 34 10000 1.53 69 04:42 21.06.2020
1158 Clouds 30 1006 25 10000 1.5 160 03:19 21.06.2020
1159 Clouds 30 1006 25 10000 1.5 160 02:38 21.06.2020
1160 Clouds 31 1006 23 10000 1.5 160 01:47 21.06.2020
1161 Clouds 31 1006 23 10000 1.5 160 01:20 21.06.2020
1162 Clouds 32 1006 19 10000 2.1 130 00:46 21.06.2020
1163 Clouds 32 1006 19 10000 2.1 130 00:26 21.06.2020
1164 Clouds 33 1006 21 10000 1.5 130 23:46 20.06.2020
1165 Clouds 33 1006 21 10000 1.5 130 23:23 20.06.2020
1166 Clouds 34 1006 16 10000 2.6 90 22:59 20.06.2020
1167 Clouds 34 1006 16 10000 2.6 90 22:41 20.06.2020
1168 Clouds 35 1006 13 10000 3.1 90 22:21 20.06.2020
1169 Clouds 35 1006 13 10000 3.1 90 21:58 20.06.2020
1170 Clouds 35 1006 13 10000 3.1 90 21:40 20.06.2020
1171 Clouds 35 1006 13 10000 3.1 90 21:21 20.06.2020
1172 Clouds 36 1006 14 10000 3.1 80 20:58 20.06.2020
1173 Clouds 36 1006 14 10000 3.1 80 20:40 20.06.2020
1174 Clouds 37 1005 13 10000 2.6 80 20:21 20.06.2020
1175 Clouds 37 1005 13 10000 2.6 80 19:58 20.06.2020
1176 Clouds 37 1005 13 10000 2.6 80 19:58 20.06.2020
1177 Clouds 37 1005 13 10000 2.6 80 19:39 20.06.2020
1178 Clouds 37 1005 13 10000 2.6 80 19:20 20.06.2020
1179 Clouds 38 1005 17 10000 1.5 70 18:43 20.06.2020
1180 Clouds 38 1005 17 10000 1.5 70 18:21 20.06.2020
1181 Clouds 40 1005 15 10000 1.5 100 17:57 20.06.2020
1182 Clouds 40 1005 15 10000 1.5 100 17:39 20.06.2020
1183 Clouds 40 1005 15 10000 1.5 100 17:39 20.06.2020
1184 Clouds 40 1005 15 10000 1.5 100 17:20 20.06.2020
1185 Clouds 40 1005 15 10000 1.5 100 17:20 20.06.2020
1186 Clouds 41 1005 14 10000 2.1 60 16:42 20.06.2020
1187 Clouds 44 1005 9 10000 2.1 340 16:19 20.06.2020
1188 Clouds 44 1005 9 10000 2.1 340 15:58 20.06.2020
1189 Clouds 44 1005 9 10000 2.1 340 15:40 20.06.2020
1190 Clouds 43 1005 13 10000 1.5 300 15:18 20.06.2020
1191 Clouds 43 1005 13 10000 1.5 300 14:43 20.06.2020
1192 Clouds 43 1005 13 10000 1.5 300 14:21 20.06.2020
1193 Clouds 41 1006 14 10000 2.1 270 13:46 20.06.2020
1194 Clouds 41 1006 14 10000 2.1 270 13:26 20.06.2020
1195 Clouds 41 1006 11 10000 1.52 173 12:59 20.06.2020
1196 Clouds 41 1006 11 10000 1.52 173 12:40 20.06.2020
1197 Clouds 41 1006 11 10000 1.92 167 12:20 20.06.2020
1198 Clouds 40 1007 11 10000 3.1 50 11:55 20.06.2020
1199 Clouds 40 1007 11 10000 3.1 50 11:37 20.06.2020
1200 Clouds 40 1008 16 10000 2.4 148 11:19 20.06.2020
1201 Clouds 40 1008 16 10000 2.4 148 10:46 20.06.2020
1202 Clouds 38 1008 14 10000 2.6 110 10:22 20.06.2020
1203 Clouds 38 1008 14 10000 2.6 110 09:55 20.06.2020
1204 Clouds 38 1008 14 10000 2.6 110 09:36 20.06.2020
1205 Clouds 36 1008 18 10000 2.96 132 09:18 20.06.2020
1206 Clouds 36 1008 18 10000 2.96 132 08:45 20.06.2020
1207 Clouds 36 1008 18 10000 2.62 159 08:27 20.06.2020
1208 Clouds 33 1007 22 8000 1 260 07:51 20.06.2020
1209 Clouds 33 1007 22 8000 1 260 07:27 20.06.2020
1210 Clouds 29 1007 20 10000 1.5 220 06:54 20.06.2020
1211 Clouds 29 1007 20 10000 1.5 220 06:23 20.06.2020
1212 Clouds 25 1006 27 10000 1 330 05:52 20.06.2020
1213 Clouds 24 1005 29 10000 1 10 04:52 20.06.2020
1214 Clouds 28 1005 16 10000 2.1 310 02:27 20.06.2020
1215 Clouds 28 1005 20 10000 2.1 300 01:48 20.06.2020
1216 Clouds 28 1006 13 10000 2.6 290 00:52 20.06.2020
1217 Clouds 28 1006 12 10000 2.6 290 00:21 20.06.2020
1218 Clouds 30 1006 12 10000 3.6 280 23:55 19.06.2020
1219 Clouds 30 1006 12 10000 3.6 280 23:36 19.06.2020
1220 Clouds 30 1007 15 10000 2.6 290 23:18 19.06.2020
1221 Clouds 30 1007 15 10000 2.6 290 22:40 19.06.2020
1222 Clouds 30 1007 15 10000 2.6 290 22:22 19.06.2020
1223 Clouds 32 1007 18 10000 1.5 350 21:58 19.06.2020
1224 Clouds 32 1007 18 10000 1.5 350 21:38 19.06.2020
1225 Clouds 34 1006 13 10000 2.6 350 21:18 19.06.2020
1226 Clouds 34 1006 13 10000 2.6 350 20:58 19.06.2020
1227 Clouds 34 1006 13 10000 2.6 350 20:40 19.06.2020
1228 Clouds 34 1006 13 10000 2.6 350 20:20 19.06.2020
1229 Clouds 36 1006 11 10000 3.1 350 19:57 19.06.2020
1230 Clouds 36 1006 11 10000 3.1 350 19:38 19.06.2020
1231 Clouds 38 1005 8 10000 4.1 350 19:19 19.06.2020
1232 Clouds 38 1005 8 10000 4.1 350 18:41 19.06.2020
1233 Clouds 38 1005 8 10000 4.1 350 18:21 19.06.2020
1234 Clouds 41 1005 8 10000 5.1 340 17:58 19.06.2020
1235 Clouds 41 1005 8 10000 5.1 340 17:38 19.06.2020
1236 Clouds 41 1005 8 10000 5.1 340 17:20 19.06.2020
1237 Clouds 42 1005 7 10000 5.7 330 16:41 19.06.2020
1238 Clear 42 1005 6 10000 6.2 330 16:23 19.06.2020
1239 Clear 42 1005 6 10000 6.2 330 15:59 19.06.2020
1240 Clear 42 1005 6 10000 6.2 330 15:40 19.06.2020
1241 Clear 42 1005 6 10000 6.2 330 15:20 19.06.2020
1242 Clear 42 1005 6 10000 6.7 340 14:56 19.06.2020
1243 Clear 42 1005 6 10000 6.7 340 14:37 19.06.2020
1244 Clear 42 1006 6 10000 6.7 330 14:18 19.06.2020
1245 Clear 42 1006 6 10000 6.7 330 13:42 19.06.2020
1246 Clear 42 1006 6 10000 6.7 330 13:24 19.06.2020
1247 Clear 41 1006 7 10000 6.7 310 12:47 19.06.2020
1248 Clear 41 1007 8 10000 4.6 350 12:22 19.06.2020
1249 Clear 41 1007 8 10000 4.6 350 11:57 19.06.2020
1250 Clear 41 1007 8 10000 4.6 350 11:38 19.06.2020
1251 Clear 40 1008 7 10000 5.7 340 11:18 19.06.2020
1252 Clear 40 1008 7 10000 5.7 340 10:45 19.06.2020
1253 Clear 40 1008 7 10000 5.7 340 10:26 19.06.2020
1254 Clear 39 1008 9 10000 4.1 350 09:58 19.06.2020
1255 Clear 39 1008 9 10000 4.1 350 09:40 19.06.2020
1256 Clear 37 1008 10 10000 3.6 350 09:20 19.06.2020
1257 Clear 37 1008 10 10000 3.6 350 08:43 19.06.2020
1258 Clear 37 1008 10 10000 3.6 350 08:24 19.06.2020
1259 Clear 34 1007 10 10000 4.6 360 07:56 19.06.2020
1260 Clear 34 1007 10 10000 4.6 360 07:36 19.06.2020
1261 Clear 31 1007 11 10000 3.1 320 07:18 19.06.2020
1262 Clear 31 1007 12 10000 3.1 320 06:23 19.06.2020
1263 Clear 27 1007 14 10000 3.1 300 05:43 19.06.2020
1264 Clear 27 1006 15 10000 3.6 310 04:23 19.06.2020
1265 Clear 28 1006 14 10000 3.1 300 02:33 19.06.2020
1266 Dust 30 1006 15 5000 2.1 300 00:48 19.06.2020
1267 Dust 30 1006 15 5000 2.1 300 00:22 19.06.2020
1268 Dust 31 1007 14 5000 2.6 310 23:58 18.06.2020
1269 Dust 31 1007 14 5000 2.6 310 23:40 18.06.2020
1270 Dust 31 1007 14 5000 2.6 310 23:22 18.06.2020
1271 Dust 33 1007 13 5000 2.6 320 22:57 18.06.2020
1272 Dust 33 1007 13 5000 2.6 320 22:36 18.06.2020
1273 Dust 34 1007 11 5000 3.1 340 22:18 18.06.2020
1274 Dust 35 1007 11 4000 3.6 350 21:38 18.06.2020
1275 Dust 35 1007 10 4000 3.6 350 21:19 18.06.2020
1276 Dust 36 1007 10 3000 3.6 350 20:44 18.06.2020
1277 Dust 36 1007 10 3000 3.6 350 20:23 18.06.2020
1278 Dust 38 1006 8 3000 5.7 350 19:59 18.06.2020
1279 Dust 38 1006 8 3000 5.7 350 19:41 18.06.2020
1280 Dust 39 1005 7 3000 7.7 350 19:20 18.06.2020
1281 Dust 39 1005 7 3000 7.7 350 18:56 18.06.2020
1282 Dust 39 1005 7 3000 7.7 350 18:36 18.06.2020
1283 Dust 40 1005 6 3000 8.2 350 18:18 18.06.2020
1284 Dust 41 1005 6 5000 7.2 330 17:43 18.06.2020
1285 Dust 41 1005 6 5000 7.2 330 17:24 18.06.2020
1286 Dust 42 1005 6 5000 6.7 340 16:44 18.06.2020
1287 Dust 42 1005 6 5000 6.7 340 16:26 18.06.2020
1288 Dust 42 1005 6 5000 7.2 350 15:59 18.06.2020
1289 Dust 42 1005 6 5000 7.2 350 15:40 18.06.2020
1290 Dust 42 1005 6 5000 7.2 350 15:20 18.06.2020
1291 Clouds 43 1005 6 8000 6.7 330 14:57 18.06.2020
1292 Clouds 43 1005 6 8000 6.7 330 14:39 18.06.2020
1293 Clouds 42 1006 8 8000 6.7 350 14:21 18.06.2020
1294 Clouds 42 1006 8 8000 6.7 350 13:55 18.06.2020
1295 Clouds 42 1006 8 8000 6.7 350 13:36 18.06.2020
1296 Clouds 42 1006 8 10000 5.7 320 13:18 18.06.2020
1297 Clouds 42 1006 8 10000 5.7 320 12:40 18.06.2020
1298 Clear 41 1007 9 10000 5.7 340 12:20 18.06.2020
1299 Clear 41 1007 9 10000 5.7 340 11:59 18.06.2020
1300 Clear 41 1007 9 10000 5.7 340 11:40 18.06.2020
1301 Clear 39 1007 10 10000 4.6 20 11:19 18.06.2020
1302 Clear 39 1007 10 10000 4.6 20 11:19 18.06.2020
1303 Clear 39 1007 10 10000 4.6 20 10:41 18.06.2020
1304 Clear 39 1007 10 10000 4.6 20 10:41 18.06.2020
1305 Clear 38 1008 10 10000 5.7 10 10:19 18.06.2020
1306 Clear 38 1008 10 10000 5.7 10 09:54 18.06.2020
1307 Clouds 38 1008 10 10000 5.7 10 09:36 18.06.2020
1308 Clouds 38 1008 10 10000 5.7 10 09:36 18.06.2020
1309 Clouds 36 1008 13 10000 3.6 10 09:18 18.06.2020
1310 Clouds 36 1008 13 10000 3.6 10 08:39 18.06.2020
1311 Clouds 36 1008 13 10000 3.6 10 08:20 18.06.2020
1312 Clouds 35 1007 13 10000 3.1 350 07:46 18.06.2020
1313 Clouds 35 1007 13 10000 3.1 350 07:26 18.06.2020
1314 Clouds 33 1007 13 10000 3.1 330 06:54 18.06.2020
1315 Clouds 28 1006 18 10000 2.1 290 05:55 18.06.2020
1316 Clouds 27 1006 24 10000 2.1 310 04:22 18.06.2020
1317 Clear 29 1005 21 10000 1.5 290 02:51 18.06.2020
1318 Clouds 30 1006 22 10000 1.5 300 01:28 18.06.2020
1319 Clouds 31 1006 22 10000 1.5 290 00:55 18.06.2020
1320 Clouds 31 1006 22 10000 1.5 290 00:33 18.06.2020
1321 Clouds 33 1007 15 10000 3.1 350 23:58 17.06.2020
1322 Clouds 33 1007 15 10000 3.1 350 23:39 17.06.2020
1323 Clouds 33 1007 15 10000 3.1 350 23:20 17.06.2020
1324 Clouds 34 1007 13 10000 4.1 360 22:57 17.06.2020
1325 Clouds 34 1007 13 10000 4.1 360 22:38 17.06.2020
1326 Clouds 34 1007 13 10000 4.1 360 22:38 17.06.2020
1327 Clouds 36 1007 12 10000 4.6 360 22:19 17.06.2020
1328 Clouds 36 1007 12 10000 4.6 360 21:42 17.06.2020
1329 Clouds 36 1007 12 10000 4.6 360 21:23 17.06.2020
1330 Clouds 37 1006 11 10000 4.1 360 20:59 17.06.2020
1331 Clouds 37 1006 11 10000 4.1 360 20:59 17.06.2020
1332 Clouds 37 1006 11 10000 4.1 360 20:38 17.06.2020
1333 Clouds 38 1006 11 10000 4.1 10 20:19 17.06.2020
1334 Clouds 38 1006 11 10000 4.1 10 19:46 17.06.2020
1335 Clouds 38 1006 11 10000 4.1 10 19:23 17.06.2020
1336 Clouds 40 1005 9 10000 5.1 10 18:58 17.06.2020
1337 Clouds 40 1005 9 10000 5.1 10 18:40 17.06.2020
1338 Clouds 40 1005 9 10000 5.1 10 18:40 17.06.2020
1339 Clear 40 1005 9 10000 5.1 10 18:21 17.06.2020
1340 Clear 42 1005 8 10000 6.2 20 17:43 17.06.2020
1341 Clear 42 1005 8 10000 6.2 20 17:22 17.06.2020
1342 Clear 43 1005 8 10000 6.7 10 16:57 17.06.2020
1343 Clear 43 1005 8 10000 6.7 10 16:38 17.06.2020
1344 Clear 44 1005 8 10000 7.2 330 16:20 17.06.2020
1345 Clear 44 1005 8 10000 7.2 330 15:56 17.06.2020
1346 Clear 44 1005 8 10000 7.2 330 15:38 17.06.2020
1347 Clear 44 1005 8 10000 3.6 10 15:18 17.06.2020
1348 Clear 44 1005 8 10000 3.6 10 14:40 17.06.2020
1349 Clear 45 1005 8 10000 3.1 350 14:21 17.06.2020
1350 Clear 45 1005 8 10000 3.1 350 14:00 17.06.2020
1351 Clear 45 1005 8 10000 3.1 350 13:41 17.06.2020
1352 Clear 45 1005 8 10000 3.1 350 13:21 17.06.2020
1353 Clear 44 1006 8 10000 3.1 360 12:56 17.06.2020
1354 Clear 44 1006 8 10000 3.1 360 12:37 17.06.2020
1355 Clouds 43 1006 9 10000 3.1 20 12:19 17.06.2020
1356 Clouds 43 1006 9 10000 3.1 20 12:19 17.06.2020
1357 Clouds 43 1006 9 10000 3.1 20 11:44 17.06.2020
1358 Clouds 43 1006 9 10000 3.1 20 11:24 17.06.2020
1359 Clouds 42 1007 9 8000 3.1 350 10:55 17.06.2020
1360 Clouds 42 1007 9 8000 3.1 350 10:36 17.06.2020
1361 Clouds 41 1007 9 6000 4.6 360 10:18 17.06.2020
1362 Clouds 41 1007 9 6000 4.6 360 09:54 17.06.2020
1363 Clouds 41 1007 9 6000 4.6 360 09:36 17.06.2020
1364 Clouds 41 1007 9 6000 4.6 360 09:36 17.06.2020
1365 Clouds 40 1007 11 8000 3.6 350 09:18 17.06.2020
1366 Clouds 40 1007 11 8000 3.6 350 08:41 17.06.2020
1367 Clouds 38 1006 12 9000 0.61 23 08:19 17.06.2020
1368 Clouds 38 1006 12 9000 0.61 23 08:19 17.06.2020
1369 Clouds 38 1006 12 9000 0.61 23 08:19 17.06.2020
1370 Clouds 38 1006 12 9000 0.61 23 07:43 17.06.2020
1371 Clouds 38 1006 12 9000 1.1 356 07:23 17.06.2020
1372 Clouds 34 1006 14 9000 2.1 350 06:57 17.06.2020
1373 Clear 34 1006 14 9000 2.1 350 06:38 17.06.2020
1374 Clear 34 1006 14 9000 2.1 350 06:20 17.06.2020
1375 Clear 30 1005 15 9000 3.6 10 05:31 17.06.2020
1376 Clear 32 1005 19 10000 2.16 153 03:30 17.06.2020
1377 Clear 33 1005 19 10000 2.1 180 01:54 17.06.2020
1378 Clear 33 1005 22 10000 2.91 112 00:48 17.06.2020
1379 Clear 33 1005 22 10000 5.43 101 00:25 17.06.2020
1380 Clear 35 1006 20 10000 5.43 101 23:57 16.06.2020
1381 Clear 35 1006 20 10000 5.43 101 23:38 16.06.2020
1382 Clear 35 1006 20 10000 4.33 60 23:20 16.06.2020
1383 Clear 37 1006 11 10000 3.1 110 22:56 16.06.2020
1384 Clear 37 1006 11 10000 3.1 110 22:37 16.06.2020
1385 Clouds 38 1006 11 10000 3.6 110 22:19 16.06.2020
1386 Clouds 38 1006 11 10000 3.6 110 21:54 16.06.2020
1387 Clouds 38 1006 11 10000 3.6 110 21:36 16.06.2020
1388 Clouds 38 1005 13 10000 2.6 30 21:18 16.06.2020
1389 Clouds 38 1005 13 10000 2.6 30 20:42 16.06.2020
1390 Clouds 38 1005 19 10000 5.07 328 20:19 16.06.2020
1391 Clouds 38 1005 19 10000 5.07 328 19:58 16.06.2020
1392 Clouds 38 1005 19 10000 5.07 328 19:39 16.06.2020
1393 Clouds 42 1004 9 10000 3.6 360 19:21 16.06.2020
1394 Clouds 42 1004 9 10000 3.6 360 18:55 16.06.2020
1395 Clouds 42 1004 9 10000 3.6 360 18:37 16.06.2020
1396 Clouds 44 1004 7 10000 4.1 330 18:19 16.06.2020
1397 Clouds 44 1004 7 10000 4.1 330 17:55 16.06.2020
1398 Clouds 44 1004 7 10000 4.1 330 17:36 16.06.2020
1399 Clouds 45 1004 7 10000 3.1 350 17:18 16.06.2020
1400 Clouds 45 1004 7 10000 3.1 350 16:42 16.06.2020
1401 Clear 45 1004 7 10000 3.1 350 16:20 16.06.2020
1402 Clear 45 1004 9 10000 2.6 280 15:58 16.06.2020
1403 Clear 45 1004 9 10000 2.6 280 15:40 16.06.2020
1404 Clear 45 1004 9 10000 2.6 280 15:22 16.06.2020
1405 Clear 45 1004 6 10000 4.1 270 14:59 16.06.2020
1406 Clear 45 1004 6 10000 4.1 270 14:41 16.06.2020
1407 Clear 45 1004 6 10000 4.1 270 14:22 16.06.2020
1408 Clear 46 1005 12 10000 1 140 13:48 16.06.2020
1409 Clear 46 1005 12 10000 1 140 13:26 16.06.2020
1410 Clear 45 1006 8 10000 2.6 240 12:57 16.06.2020
1411 Clear 45 1006 8 10000 2.6 240 12:38 16.06.2020
1412 Clear 45 1006 8 10000 2.6 240 12:20 16.06.2020
1413 Clear 44 1006 8 10000 3.1 230 11:54 16.06.2020
1414 Clear 44 1006 8 10000 3.1 230 11:36 16.06.2020
1415 Clear 44 1006 8 10000 3.1 230 11:36 16.06.2020
1416 Clear 42 1007 8 10000 3.6 210 11:18 16.06.2020
1417 Clear 42 1007 8 10000 3.6 210 10:42 16.06.2020
1418 Clear 41 1008 9 10000 4.1 220 10:21 16.06.2020
1419 Clear 41 1008 9 10000 4.1 220 09:57 16.06.2020
1420 Clear 41 1008 9 10000 4.1 220 09:39 16.06.2020
1421 Clear 41 1008 9 10000 4.1 220 09:21 16.06.2020
1422 Clear 40 1008 11 10000 3.1 170 08:43 16.06.2020
1423 Clear 40 1008 11 10000 3.1 170 08:25 16.06.2020
1424 Clear 36 1008 18 10000 1.5 140 07:47 16.06.2020
1425 Clear 36 1008 18 10000 1.5 140 07:26 16.06.2020
1426 Clear 32 1008 21 10000 1.5 220 06:48 16.06.2020
1427 Clear 32 1008 21 10000 1.5 220 06:26 16.06.2020
1428 Clear 28 1008 24 10000 3.49 202 05:32 16.06.2020
1429 Clear 27 1007 28 10000 2.27 178 04:28 16.06.2020
1430 Clear 31 1006 22 10000 1.5 230 02:56 16.06.2020
1431 Clear 31 1006 23 10000 0.5 120 01:52 16.06.2020
1432 Clear 33 1007 19 10000 1.5 150 01:20 16.06.2020
1433 Clear 33 1007 19 10000 1.5 150 00:40 16.06.2020
1434 Clear 34 1007 18 10000 1.5 130 00:19 16.06.2020
1435 Clear 34 1007 18 10000 1.5 130 23:41 15.06.2020
1436 Clear 34 1007 18 10000 1.5 130 23:22 15.06.2020
1437 Clear 35 1008 19 10000 1.5 140 22:55 15.06.2020
1438 Clear 35 1008 19 10000 1.5 140 22:36 15.06.2020
1439 Clear 36 1008 18 10000 2.1 150 22:18 15.06.2020
1440 Clear 36 1008 18 10000 2.1 150 21:55 15.06.2020
1441 Clear 36 1008 18 10000 2.1 150 21:36 15.06.2020
1442 Clear 37 1008 13 10000 2.6 120 21:18 15.06.2020
1443 Clear 37 1008 13 10000 2.6 120 20:54 15.06.2020
1444 Clear 37 1008 13 10000 2.6 120 20:54 15.06.2020
1445 Clear 37 1008 13 10000 2.6 120 20:36 15.06.2020
1446 Clouds 38 1008 13 10000 2.1 120 20:18 15.06.2020
1447 Clouds 38 1008 13 10000 2.1 120 19:41 15.06.2020
1448 Clouds 38 1008 13 10000 2.1 120 19:22 15.06.2020
1449 Clouds 39 1007 16 10000 1 140 18:58 15.06.2020
1450 Clouds 39 1007 16 10000 1 140 18:58 15.06.2020
1451 Clouds 39 1007 16 10000 1 140 18:40 15.06.2020
1452 Clear 39 1007 16 10000 1 140 18:21 15.06.2020
1453 Clear 42 1007 14 10000 1 150 17:58 15.06.2020
1454 Clear 42 1007 14 10000 1 150 17:40 15.06.2020
1455 Clear 43 1007 13 10000 1 150 17:19 15.06.2020
1456 Clear 43 1007 13 10000 1 150 16:56 15.06.2020
1457 Clear 43 1007 13 10000 1 150 16:38 15.06.2020
1458 Clear 43 1007 14 10000 1.5 260 16:18 15.06.2020
1459 Clear 43 1008 14 10000 2.1 260 15:41 15.06.2020
1460 Clear 43 1008 14 10000 2.1 260 15:20 15.06.2020
1461 Clear 43 1008 14 10000 2.1 260 15:20 15.06.2020
1462 Clear 43 1008 14 10000 2.1 260 14:57 15.06.2020
1463 Clear 43 1008 14 10000 2.1 260 14:39 15.06.2020
1464 Clear 43 1009 10 10000 2.6 180 14:19 15.06.2020
1465 Clear 43 1009 10 10000 2.6 180 13:56 15.06.2020
1466 Clear 43 1009 10 10000 2.6 180 13:37 15.06.2020
1467 Clear 43 1009 10 10000 2.6 180 13:37 15.06.2020
1468 Clear 42 1010 14 10000 1.5 210 13:18 15.06.2020
1469 Clear 42 1010 14 10000 1.5 210 12:41 15.06.2020
1470 Clear 41 1010 14 10000 1.5 160 12:22 15.06.2020
1471 Clear 41 1010 14 10000 1.5 160 11:47 15.06.2020
1472 Clear 41 1010 14 10000 1.5 160 11:27 15.06.2020
1473 Clear 39 1011 12 10000 2.6 120 10:59 15.06.2020
1474 Clear 39 1011 12 10000 2.6 120 10:41 15.06.2020
1475 Clear 38 1011 12 10000 3.1 90 10:20 15.06.2020
1476 Clear 38 1011 12 10000 3.1 90 09:43 15.06.2020
1477 Clear 38 1011 12 10000 3.1 90 09:23 15.06.2020
1478 Clear 36 1012 14 10000 2.1 20 08:47 15.06.2020
1479 Clear 36 1012 14 10000 2.1 20 08:27 15.06.2020
1480 Clear 35 1011 23 10000 1.82 75 07:57 15.06.2020
1481 Clear 35 1011 23 10000 1.82 75 07:37 15.06.2020
1482 Clear 30 1011 27 10000 1.41 51 07:19 15.06.2020
1483 Clear 30 1011 27 10000 2.05 52 06:27 15.06.2020
1484 Clear 27 1011 28 10000 2.05 52 05:51 15.06.2020
1485 Clear 27 1011 28 10000 1.71 60 05:29 15.06.2020
1486 Clear 26 1010 36 10000 1.97 83 04:22 15.06.2020
1487 Clear 26 1010 36 10000 1.97 83 03:48 15.06.2020
1488 Clear 29 1009 28 10000 1.38 78 02:56 15.06.2020
1489 Clear 29 1009 28 10000 1.27 108 02:26 15.06.2020
1490 Clear 29 1008 25 10000 1.27 108 01:44 15.06.2020
1491 Clear 29 1008 25 10000 3.48 129 01:24 15.06.2020
1492 Clear 31 1009 23 10000 3.48 129 00:44 15.06.2020
1493 Clear 31 1009 23 10000 4.15 126 00:23 15.06.2020
1494 Clear 33 1009 21 10000 2.1 120 23:57 14.06.2020
1495 Clear 33 1009 21 10000 2.1 120 23:39 14.06.2020
1496 Clear 33 1009 21 10000 2.1 120 23:20 14.06.2020
1497 Clear 33 1010 21 10000 1.5 130 22:56 14.06.2020
1498 Clear 33 1010 21 10000 1.5 130 22:37 14.06.2020
1499 Clear 34 1010 15 10000 3.1 90 22:18 14.06.2020
1500 Clear 34 1010 15 10000 3.1 90 21:55 14.06.2020
1501 Clear 34 1010 15 10000 3.1 90 21:37 14.06.2020
1502 Clear 35 1010 15 10000 3.1 80 21:18 14.06.2020
1503 Clear 35 1010 15 10000 3.1 80 21:18 14.06.2020
1504 Clear 35 1010 15 10000 3.1 80 20:55 14.06.2020
1505 Clear 35 1010 15 10000 3.1 80 20:36 14.06.2020
1506 Clear 36 1010 14 10000 2.6 80 20:18 14.06.2020
1507 Clear 36 1010 14 10000 2.6 80 19:55 14.06.2020
1508 Clear 36 1010 14 10000 2.6 80 19:36 14.06.2020
1509 Clear 38 1009 12 10000 3.1 60 19:18 14.06.2020
1510 Clear 38 1009 12 10000 3.1 60 18:55 14.06.2020
1511 Clear 38 1009 12 10000 3.1 60 18:37 14.06.2020
1512 Clear 38 1009 12 10000 3.1 60 18:18 14.06.2020
1513 Clear 40 1009 11 10000 3.1 80 17:40 14.06.2020
1514 Clear 40 1009 11 10000 3.1 80 17:40 14.06.2020
1515 Clear 41 1008 12 10000 3.1 60 17:20 14.06.2020
1516 Clear 41 1008 12 10000 3.1 60 16:58 14.06.2020
1517 Clear 41 1008 12 10000 3.1 60 16:39 14.06.2020
1518 Clear 41 1008 12 10000 3.1 60 16:19 14.06.2020
1519 Clear 41 1008 11 10000 3.1 70 15:56 14.06.2020
1520 Clear 41 1008 11 10000 3.1 70 15:37 14.06.2020
1521 Clear 41 1009 11 10000 4.1 60 15:18 14.06.2020
1522 Clear 41 1009 11 10000 4.1 60 14:41 14.06.2020
1523 Clear 41 1009 11 10000 4.1 60 14:23 14.06.2020
1524 Clear 40 1009 11 10000 4.6 80 13:59 14.06.2020
1525 Clear 40 1009 11 10000 4.6 80 13:40 14.06.2020
1526 Clear 40 1009 11 10000 4.6 80 13:22 14.06.2020
1527 Clear 40 1010 11 10000 3.1 50 12:57 14.06.2020
1528 Clear 40 1010 11 10000 3.1 50 12:39 14.06.2020
1529 Clear 39 1010 12 10000 4.6 70 12:21 14.06.2020
1530 Clear 39 1010 12 10000 4.6 70 11:57 14.06.2020
1531 Clear 39 1010 12 10000 4.6 70 11:38 14.06.2020
1532 Clear 38 1011 11 10000 4.6 30 11:20 14.06.2020
1533 Clear 38 1011 11 10000 4.6 30 11:20 14.06.2020
1534 Clear 38 1011 11 10000 4.6 30 10:42 14.06.2020
1535 Clear 36 1011 12 10000 5.1 70 10:20 14.06.2020
1536 Clear 36 1011 12 10000 5.1 70 09:51 14.06.2020
1537 Clear 36 1011 12 10000 5.1 70 09:26 14.06.2020
1538 Clear 34 1011 14 10000 4.1 70 08:59 14.06.2020
1539 Clear 34 1011 14 10000 4.1 70 08:41 14.06.2020
1540 Clear 33 1011 16 10000 2.1 80 08:19 14.06.2020
1541 Clear 33 1011 16 10000 2.1 80 07:52 14.06.2020
1542 Clear 33 1011 16 10000 2.1 80 07:32 14.06.2020
1543 Clear 31 1010 25 10000 1 280 06:39 14.06.2020
1544 Clear 27 1009 30 10000 1.37 69 05:45 14.06.2020
1545 Clear 27 1008 26 10000 1.82 90 04:59 14.06.2020
1546 Clear 27 1008 26 10000 1.82 90 04:33 14.06.2020
1547 Clear 28 1008 26 10000 1.5 80 03:27 14.06.2020
1548 Clear 28 1008 28 10000 1.36 61 02:30 14.06.2020
1549 Clear 29 1008 28 10000 1 30 01:45 14.06.2020
1550 Clear 29 1008 28 10000 1 30 01:24 14.06.2020
1551 Clear 31 1008 22 10000 1 40 00:40 14.06.2020
1552 Clear 31 1008 22 10000 1 40 00:19 14.06.2020
1553 Clear 32 1008 21 10000 1 60 23:44 13.06.2020
1554 Clear 32 1008 21 10000 1 60 23:24 13.06.2020
1555 Clear 33 1008 16 10000 2.1 40 22:57 13.06.2020
1556 Clear 33 1008 16 10000 2.1 40 22:37 13.06.2020
1557 Clear 34 1008 16 10000 2.6 60 22:18 13.06.2020
1558 Clear 34 1008 16 10000 2.6 60 21:56 13.06.2020
1559 Clear 34 1008 16 10000 2.6 60 21:37 13.06.2020
1560 Clouds 35 1008 15 10000 2.6 50 21:19 13.06.2020
1561 Clouds 35 1008 15 10000 2.6 50 20:42 13.06.2020
1562 Clouds 35 1008 15 10000 2.6 50 20:42 13.06.2020
1563 Clouds 37 1008 13 10000 3.6 60 20:19 13.06.2020
1564 Clouds 37 1008 13 10000 3.6 60 19:57 13.06.2020
1565 Clouds 37 1008 13 10000 3.6 60 19:36 13.06.2020
1566 Clouds 39 1008 11 10000 3.1 50 19:18 13.06.2020
1567 Clouds 39 1008 11 10000 3.1 50 18:55 13.06.2020
1568 Clouds 39 1008 11 10000 3.1 50 18:37 13.06.2020
1569 Clouds 40 1007 11 10000 3.6 40 18:18 13.06.2020
1570 Clouds 40 1007 11 10000 3.6 40 17:42 13.06.2020
1571 Clouds 40 1007 11 10000 3.6 40 17:23 13.06.2020
1572 Clouds 41 1007 9 10000 3.6 30 16:58 13.06.2020
1573 Clouds 41 1007 9 10000 3.6 30 16:39 13.06.2020
1574 Clouds 42 1006 11 10000 2.6 60 16:19 13.06.2020
1575 Clouds 42 1006 11 10000 2.6 60 15:54 13.06.2020
1576 Clouds 42 1006 11 10000 2.6 60 15:36 13.06.2020
1577 Clouds 43 1007 10 10000 2.6 350 15:18 13.06.2020
1578 Clouds 43 1007 10 10000 2.6 350 14:41 13.06.2020
1579 Clear 43 1007 10 10000 2.6 350 14:20 13.06.2020
1580 Clear 43 1007 10 10000 3.6 360 13:44 13.06.2020
1581 Clear 43 1007 10 10000 3.6 360 13:26 13.06.2020
1582 Clear 42 1008 11 10000 2.6 360 12:55 13.06.2020
1583 Clear 42 1008 11 10000 2.6 360 12:37 13.06.2020
1584 Clear 41 1008 12 10000 2.6 40 12:19 13.06.2020
1585 Clear 41 1008 12 10000 2.6 40 11:40 13.06.2020
1586 Clear 41 1008 12 10000 2.6 40 11:19 13.06.2020
1587 Clear 39 1009 10 10000 4.1 20 10:58 13.06.2020
1588 Clear 39 1009 10 10000 4.1 20 10:39 13.06.2020
1589 Clear 38 1009 10 10000 4.6 20 10:20 13.06.2020
1590 Clear 38 1009 10 10000 4.6 20 09:45 13.06.2020
1591 Clear 38 1009 10 10000 4.6 20 09:27 13.06.2020
1592 Clear 36 1009 13 10000 3.6 50 08:56 13.06.2020
1593 Clear 36 1009 13 10000 3.6 50 08:37 13.06.2020
1594 Clear 36 1009 22 10000 1 20 08:19 13.06.2020
1595 Clear 36 1009 22 10000 1 20 07:42 13.06.2020
1596 Clear 36 1009 22 10000 1 20 07:23 13.06.2020
1597 Clear 32 1009 24 10000 1 330 06:44 13.06.2020
1598 Clear 32 1009 24 10000 1 330 06:24 13.06.2020
1599 Clear 28 1008 23 10000 1 310 05:27 13.06.2020
1600 Clear 27 1008 28 10000 1 360 04:34 13.06.2020
1601 Clear 29 1007 23 10000 1.5 290 02:55 13.06.2020
1602 Clear 29 1007 23 10000 1.5 290 02:37 13.06.2020
1603 Clear 30 1007 17 10000 2.6 290 01:47 13.06.2020
1604 Clear 32 1007 21 10000 1.5 320 01:22 13.06.2020
1605 Clear 32 1007 21 10000 1.5 320 00:45 13.06.2020
1606 Clear 32 1007 21 10000 1.5 320 00:26 13.06.2020
1607 Clear 33 1007 21 10000 2.1 50 23:55 12.06.2020
1608 Clear 33 1007 21 10000 2.1 50 23:37 12.06.2020
1609 Clear 34 1008 15 10000 3.1 70 23:18 12.06.2020
1610 Clear 34 1008 15 10000 3.1 70 22:41 12.06.2020
1611 Clear 36 1007 16 10000 1.5 80 22:19 12.06.2020
1612 Clear 36 1007 16 10000 1.5 80 21:50 12.06.2020
1613 Clear 36 1007 16 10000 1.5 80 21:27 12.06.2020
1614 Clear 37 1007 13 10000 2.6 50 20:59 12.06.2020
1615 Clear 37 1007 13 10000 2.6 50 20:41 12.06.2020
1616 Clear 37 1007 13 10000 2.6 50 20:22 12.06.2020
1617 Clear 39 1006 11 10000 2.6 60 19:57 12.06.2020
1618 Clear 39 1006 11 10000 2.6 60 19:57 12.06.2020
1619 Clear 39 1006 11 10000 2.6 60 19:39 12.06.2020
1620 Clear 40 1005 11 10000 2.6 50 19:19 12.06.2020
1621 Clear 40 1005 11 10000 2.6 50 18:39 12.06.2020
1622 Clear 43 1005 9 10000 2.6 350 18:19 12.06.2020
1623 Clear 43 1005 9 10000 2.6 350 17:58 12.06.2020
1624 Clear 43 1005 9 10000 2.6 350 17:39 12.06.2020
1625 Clear 44 1005 8 10000 3.1 10 17:19 12.06.2020
1626 Clear 44 1005 8 10000 3.1 10 16:44 12.06.2020
1627 Clear 44 1005 8 10000 3.1 10 16:20 12.06.2020
1628 Clear 45 1005 9 10000 2.6 340 15:49 12.06.2020
1629 Clear 45 1005 9 10000 2.6 340 15:26 12.06.2020
1630 Clear 44 1005 12 10000 1 160 14:58 12.06.2020
1631 Clear 44 1005 12 10000 1 160 14:39 12.06.2020
1632 Clear 44 1005 12 10000 1 160 14:21 12.06.2020
1633 Clear 44 1006 8 10000 2.6 10 13:42 12.06.2020
1634 Clear 44 1006 8 10000 2.6 10 13:21 12.06.2020
1635 Clear 43 1006 10 10000 3.1 250 12:41 12.06.2020
1636 Clear 43 1007 14 10000 1.5 90 12:20 12.06.2020
1637 Clear 43 1007 14 10000 1.5 90 11:58 12.06.2020
1638 Clear 43 1007 14 10000 1.5 90 11:40 12.06.2020
1639 Clear 43 1007 14 10000 1.5 90 11:21 12.06.2020
1640 Clear 42 1007 8 10000 3.1 270 10:46 12.06.2020
1641 Clear 42 1007 8 10000 3.1 270 10:25 12.06.2020
1642 Clear 41 1008 11 10000 2.1 230 09:47 12.06.2020
1643 Clear 41 1008 11 10000 2.1 230 09:22 12.06.2020
1644 Clear 38 1008 12 10000 2.1 270 08:46 12.06.2020
1645 Clear 38 1008 12 10000 2.1 270 08:25 12.06.2020
1646 Clear 35 1008 12 10000 2.6 290 07:56 12.06.2020
1647 Clear 35 1008 12 10000 2.6 290 07:38 12.06.2020
1648 Clear 32 1007 19 10000 1.5 300 07:19 12.06.2020
1649 Clear 32 1007 19 10000 1.5 300 06:31 12.06.2020
1650 Clear 28 1007 26 10000 1 280 05:57 12.06.2020
1651 Clear 28 1007 26 10000 1 280 05:38 12.06.2020
1652 Clear 28 1007 26 10000 1 280 05:19 12.06.2020
1653 Clear 28 1006 18 10000 2.1 290 03:33 12.06.2020
1654 Clear 30 1006 20 10000 2.1 340 01:57 12.06.2020
1655 Clear 30 1006 20 10000 2.1 340 01:30 12.06.2020
1656 Clear 30 1006 23 10000 1.24 22 00:47 12.06.2020
1657 Clear 30 1006 23 10000 0.09 260 00:26 12.06.2020
1658 Clear 33 1006 15 10000 2.1 300 23:59 11.06.2020
1659 Clear 33 1006 15 10000 2.1 300 23:59 11.06.2020
1660 Clear 33 1006 15 10000 2.1 300 23:41 11.06.2020
1661 Clear 33 1006 15 10000 2.1 300 23:22 11.06.2020
1662 Clear 32 1006 22 10000 0.51 206 22:59 11.06.2020
1663 Clear 32 1006 22 10000 0.51 206 22:39 11.06.2020
1664 Clear 35 1006 21 10000 0.65 162 22:20 11.06.2020
1665 Clear 35 1006 21 10000 0.65 162 21:56 11.06.2020
1666 Clear 35 1006 21 10000 0.65 162 21:38 11.06.2020
1667 Clear 37 1006 13 10000 3.1 60 21:20 11.06.2020
1668 Clear 37 1006 13 10000 3.1 60 21:20 11.06.2020
1669 Clear 37 1006 13 10000 3.1 60 20:45 11.06.2020
1670 Clear 40 1006 8 10000 3.6 20 20:22 11.06.2020
1671 Clear 40 1006 8 10000 3.6 20 19:58 11.06.2020
1672 Clear 40 1006 8 10000 3.6 20 19:40 11.06.2020
1673 Clear 41 1005 10 10000 2.6 350 19:22 11.06.2020
1674 Clear 41 1005 10 10000 2.6 350 18:42 11.06.2020
1675 Clear 41 1005 10 10000 2.6 350 18:24 11.06.2020
1676 Clear 43 1005 10 10000 2.6 20 17:57 11.06.2020
1677 Clear 43 1005 10 10000 2.6 20 17:38 11.06.2020
1678 Clear 43 1005 10 10000 2.6 20 17:19 11.06.2020
1679 Clear 43 1005 13 10000 1.5 120 16:57 11.06.2020
1680 Clear 43 1005 13 10000 1.5 120 16:38 11.06.2020
1681 Clear 43 1005 13 10000 1.5 120 16:20 11.06.2020
1682 Clear 44 1005 8 10000 3.6 20 15:43 11.06.2020
1683 Clear 44 1005 8 10000 3.6 20 15:25 11.06.2020
1684 Clear 44 1006 10 10000 2.1 300 14:58 11.06.2020
1685 Clear 44 1006 10 10000 2.1 300 14:38 11.06.2020
1686 Clear 44 1006 10 10000 2.1 300 14:20 11.06.2020
1687 Clear 43 1006 10 10000 3.1 150 13:55 11.06.2020
1688 Clear 43 1006 10 10000 3.1 150 13:37 11.06.2020
1689 Clear 43 1007 14 10000 2.1 40 13:18 11.06.2020
1690 Clear 43 1007 14 10000 2.1 40 12:54 11.06.2020
1691 Clear 43 1007 14 10000 2.1 40 12:36 11.06.2020
1692 Clear 43 1007 14 10000 2.1 40 12:18 11.06.2020
1693 Clear 42 1008 11 10000 2.6 190 11:56 11.06.2020
1694 Clear 42 1008 11 10000 2.6 190 11:37 11.06.2020
1695 Clear 42 1008 11 10000 2.6 190 11:18 11.06.2020
1696 Clear 43 1008 9 10000 3.6 180 10:42 11.06.2020
1697 Clear 43 1008 9 10000 3.6 180 10:20 11.06.2020
1698 Clear 41 1008 10 10000 3.6 170 09:45 11.06.2020
1699 Clear 41 1008 10 10000 3.6 170 09:26 11.06.2020
1700 Clear 39 1008 12 10000 2.1 160 08:55 11.06.2020
1701 Clear 39 1008 12 10000 2.1 160 08:36 11.06.2020
1702 Clear 39 1008 12 10000 2.1 160 08:18 11.06.2020
1703 Clear 35 1008 19 10000 1 210 07:41 11.06.2020
1704 Clear 35 1008 19 10000 1 210 07:23 11.06.2020
1705 Clear 31 1008 22 10000 1 300 06:33 11.06.2020
1706 Clear 31 1008 22 10000 1 300 06:33 11.06.2020
1707 Clear 28 1008 26 10000 1 340 05:57 11.06.2020
1708 Clear 29 1008 26 10000 1 240 04:41 11.06.2020
1709 Clear 29 1007 26 10000 1 230 03:25 11.06.2020
1710 Clear 33 1007 18 10000 2.1 180 02:46 11.06.2020
1711 Clouds 32 1007 21 10000 1.5 160 01:56 11.06.2020
1712 Clouds 32 1007 21 10000 1.5 160 01:35 11.06.2020
1713 Clouds 32 1007 19 10000 1.5 150 00:57 11.06.2020
1714 Clouds 32 1007 19 10000 1.5 150 00:38 11.06.2020
1715 Clouds 32 1007 19 10000 1.5 150 00:19 11.06.2020
1716 Clouds 34 1008 18 10000 2.1 140 23:40 10.06.2020
1717 Clouds 34 1008 18 10000 2.1 140 23:21 10.06.2020
1718 Clouds 34 1008 20 10000 1 160 22:41 10.06.2020
1719 Clouds 34 1008 20 10000 1 160 22:22 10.06.2020
1720 Clouds 35 1008 21 10000 1 100 21:59 10.06.2020
1721 Clouds 35 1008 21 10000 1 100 21:59 10.06.2020
1722 Clouds 35 1008 21 10000 1 100 21:41 10.06.2020
1723 Clear 35 1008 21 10000 1 100 21:19 10.06.2020
1724 Clear 36 1008 18 10000 1.5 130 20:59 10.06.2020
1725 Clear 36 1008 18 10000 1.5 130 20:40 10.06.2020
1726 Clear 35 1007 20 10000 1 120 20:22 10.06.2020
1727 Clear 35 1007 20 10000 1 120 19:59 10.06.2020
1728 Clear 35 1007 20 10000 1 120 19:38 10.06.2020
1729 Clear 38 1007 21 10000 2.31 115 19:18 10.06.2020
1730 Clear 38 1007 21 10000 2.31 115 18:42 10.06.2020
1731 Clear 41 1007 15 10000 1 90 18:22 10.06.2020
1732 Clear 41 1007 15 10000 1 90 17:59 10.06.2020
1733 Clear 41 1007 15 10000 1 90 17:41 10.06.2020
1734 Clouds 41 1007 15 10000 1 90 17:20 10.06.2020
1735 Clouds 44 1007 15 10000 1 330 16:59 10.06.2020
1736 Clouds 44 1007 15 10000 1 330 16:41 10.06.2020
1737 Clear 44 1007 15 10000 1 330 16:22 10.06.2020
1738 Clear 44 1007 13 10000 1.5 340 15:57 10.06.2020
1739 Clear 44 1007 13 10000 1.5 340 15:37 10.06.2020
1740 Clear 44 1007 13 10000 1.5 340 15:19 10.06.2020
1741 Clear 43 1008 13 10000 1.5 180 14:41 10.06.2020
1742 Clear 43 1008 7 10000 3.1 150 14:22 10.06.2020
1743 Clear 43 1008 7 10000 3.1 150 13:57 10.06.2020
1744 Clear 43 1008 7 10000 3.1 150 13:39 10.06.2020
1745 Clear 43 1009 8 10000 4.1 160 13:21 10.06.2020
1746 Clear 43 1009 8 10000 4.1 160 12:41 10.06.2020
1747 Clear 42 1009 10 10000 2.6 140 12:19 10.06.2020
1748 Clear 42 1009 10 10000 2.6 140 11:55 10.06.2020
1749 Clear 42 1009 10 10000 2.6 140 11:37 10.06.2020
1750 Clear 42 1010 9 10000 3.6 160 11:19 10.06.2020
1751 Clear 42 1010 9 10000 3.6 160 10:41 10.06.2020
1752 Clear 40 1010 11 10000 3.1 160 10:22 10.06.2020
1753 Clear 40 1010 11 10000 3.1 160 09:57 10.06.2020
1754 Clear 40 1010 11 10000 3.1 160 09:37 10.06.2020
1755 Clear 39 1010 16 10000 1.5 130 09:19 10.06.2020
1756 Clear 39 1010 16 10000 1.5 130 08:42 10.06.2020
1757 Clear 39 1010 16 10000 1.5 130 08:23 10.06.2020
1758 Clear 34 1010 21 10000 4.65 159 07:43 10.06.2020
1759 Clear 34 1010 21 10000 4.6 165 07:23 10.06.2020
1760 Clear 32 1009 25 10000 4.6 165 06:55 10.06.2020
1761 Clear 32 1009 25 10000 4.6 165 06:37 10.06.2020
1762 Clear 32 1009 25 10000 4.07 155 06:18 10.06.2020
1763 Clear 32 1009 25 10000 4.07 155 06:18 10.06.2020
1764 Clear 29 1009 25 10000 4.07 155 05:32 10.06.2020
1765 Clear 30 1009 23 10000 3.61 142 04:49 10.06.2020
1766 Clear 30 1009 23 10000 3.84 134 04:28 10.06.2020
1767 Clouds 32 1008 19 10000 1.5 160 02:33 10.06.2020
1768 Clouds 33 1008 18 10000 2.1 180 01:42 10.06.2020
1769 Clouds 33 1008 18 10000 2.1 180 01:21 10.06.2020
1770 Clouds 33 1008 19 10000 1.5 160 00:38 10.06.2020
1771 Clouds 33 1008 19 10000 1.5 160 00:20 10.06.2020
1772 Clouds 35 1008 14 10000 3.1 130 23:41 09.06.2020
1773 Clouds 35 1008 14 10000 3.1 130 23:23 09.06.2020
1774 Clouds 36 1008 19 10000 2.1 120 22:57 09.06.2020
1775 Clouds 36 1008 19 10000 2.1 120 22:39 09.06.2020
1776 Clouds 36 1008 19 10000 2.1 120 22:20 09.06.2020
1777 Clouds 36 1008 18 10000 1.5 130 21:57 09.06.2020
1778 Clouds 36 1008 18 10000 1.5 130 21:39 09.06.2020
1779 Clouds 36 1008 18 10000 1.5 130 21:21 09.06.2020
1780 Clouds 37 1007 18 10000 1.5 130 20:57 09.06.2020
1781 Clouds 37 1007 18 10000 1.5 130 20:39 09.06.2020
1782 Clouds 37 1007 18 10000 1.5 130 20:20 09.06.2020
1783 Clouds 38 1007 18 9000 1.5 120 19:58 09.06.2020
1784 Clouds 38 1007 18 9000 1.5 120 19:39 09.06.2020
1785 Clouds 38 1007 18 9000 1.5 120 19:20 09.06.2020
1786 Clouds 40 1006 11 8000 3.6 110 18:57 09.06.2020
1787 Clouds 40 1006 11 8000 3.6 110 18:39 09.06.2020
1788 Clouds 40 1006 11 8000 3.6 110 18:19 09.06.2020
1789 Clouds 41 1006 10 8000 4.1 110 17:55 09.06.2020
1790 Clouds 41 1006 10 8000 4.1 110 17:37 09.06.2020
1791 Clouds 41 1006 10 8000 4.1 110 17:18 09.06.2020
1792 Clouds 42 1006 16 8000 1.5 80 16:42 09.06.2020
1793 Clouds 42 1006 16 8000 1.5 80 16:23 09.06.2020
1794 Clouds 42 1007 12 8000 2.6 60 15:56 09.06.2020
1795 Clouds 42 1007 12 8000 2.6 60 15:38 09.06.2020
1796 Clear 42 1007 12 8000 2.6 60 15:19 09.06.2020
1797 Clear 43 1007 10 7000 3.6 110 14:42 09.06.2020
1798 Clear 43 1007 10 7000 2.6 110 14:21 09.06.2020
1799 Clear 43 1007 10 7000 2.6 110 13:59 09.06.2020
1800 Clear 43 1007 10 7000 2.6 110 13:41 09.06.2020
1801 Clear 42 1008 9 7000 4.1 160 13:21 09.06.2020
1802 Clear 42 1008 9 7000 4.1 160 12:58 09.06.2020
1803 Clear 42 1008 9 7000 4.1 160 12:40 09.06.2020
1804 Clear 42 1008 9 7000 4.1 160 12:18 09.06.2020
1805 Clear 41 1008 9 7000 6.2 170 11:55 09.06.2020
1806 Clear 41 1008 9 7000 6.2 170 11:37 09.06.2020
1807 Clear 41 1008 9 7000 6.2 170 11:18 09.06.2020
1808 Clear 40 1009 9 7000 6.7 180 10:43 09.06.2020
1809 Clear 40 1009 9 7000 6.7 180 10:25 09.06.2020
1810 Clear 39 1009 10 8000 5.1 160 09:44 09.06.2020
1811 Clear 39 1009 10 8000 5.1 160 09:25 09.06.2020
1812 Clear 38 1009 11 8000 4.1 150 08:57 09.06.2020
1813 Clear 38 1009 11 8000 4.1 150 08:38 09.06.2020
1814 Clear 38 1009 11 8000 4.1 150 08:20 09.06.2020
1815 Clear 36 1009 12 10000 3.6 150 07:39 09.06.2020
1816 Clear 33 1009 15 10000 3.1 140 07:20 09.06.2020
1817 Clear 33 1009 15 10000 3.1 140 06:54 09.06.2020
1818 Clear 33 1009 15 10000 3.1 140 06:35 09.06.2020
1819 Clear 30 1008 23 10000 1.5 80 05:36 09.06.2020
1820 Clear 32 1007 17 10000 2.6 130 03:47 09.06.2020
1821 Clouds 34 1007 20 10000 2.1 110 01:44 09.06.2020
1822 Clouds 35 1007 16 10000 2.6 110 01:20 09.06.2020
1823 Clouds 35 1007 16 10000 2.6 110 00:55 09.06.2020
1824 Clouds 35 1007 16 10000 2.6 110 00:36 09.06.2020
1825 Clouds 36 1007 19 10000 2.1 130 00:18 09.06.2020
1826 Clouds 36 1007 19 10000 2.1 130 23:40 08.06.2020
1827 Clouds 36 1007 19 10000 2.1 130 23:19 08.06.2020
1828 Clouds 38 1007 14 10000 2.6 110 22:54 08.06.2020
1829 Clouds 38 1007 14 10000 2.6 110 22:36 08.06.2020
1830 Clouds 37 1007 14 10000 3.1 120 22:18 08.06.2020
1831 Clouds 37 1007 14 10000 3.1 120 21:54 08.06.2020
1832 Clouds 37 1007 14 10000 3.1 120 21:36 08.06.2020
1833 Clouds 37 1007 14 10000 3.1 120 21:18 08.06.2020
1834 Clouds 37 1007 18 10000 1.5 60 20:54 08.06.2020
1835 Clouds 37 1007 18 10000 1.5 60 20:36 08.06.2020
1836 Clouds 37 1006 19 10000 1.5 70 20:18 08.06.2020
1837 Clouds 37 1006 19 10000 1.5 70 19:41 08.06.2020
1838 Clouds 38 1006 21 10000 1 90 19:20 08.06.2020
1839 Clouds 38 1006 21 10000 1 90 18:41 08.06.2020
1840 Clouds 38 1006 21 10000 1 90 18:20 08.06.2020
1841 Clouds 42 1006 18 10000 1 20 17:57 08.06.2020
1842 Clouds 42 1006 18 10000 1 20 17:39 08.06.2020
1843 Clouds 42 1006 18 10000 1 20 17:20 08.06.2020
1844 Clouds 43 1006 15 10000 1.5 280 16:46 08.06.2020
1845 Clouds 43 1006 15 10000 1.5 280 16:25 08.06.2020
1846 Clouds 42 1006 16 10000 2.1 240 15:59 08.06.2020
1847 Clouds 42 1006 16 10000 2.1 240 15:41 08.06.2020
1848 Clouds 42 1006 16 10000 2.1 240 15:21 08.06.2020
1849 Clouds 42 1006 16 10000 2.1 240 15:21 08.06.2020
1850 Clouds 43 1006 15 10000 1.5 130 14:56 08.06.2020
1851 Clear 43 1006 15 10000 1.5 130 14:38 08.06.2020
1852 Clear 42 1007 16 10000 1.5 40 14:18 08.06.2020
1853 Clear 42 1007 16 10000 1.5 40 13:42 08.06.2020
1854 Clear 42 1007 16 10000 1.5 40 13:21 08.06.2020
1855 Clear 43 1008 15 10000 2.1 300 12:42 08.06.2020
1856 Clear 43 1008 15 10000 1.5 200 12:20 08.06.2020
1857 Clear 43 1008 15 10000 1.5 200 12:19 08.06.2020
1858 Clear 43 1008 15 10000 1.5 200 11:58 08.06.2020
1859 Clear 43 1008 15 10000 1.5 200 11:39 08.06.2020
1860 Clear 43 1008 15 10000 1.5 200 11:20 08.06.2020
1861 Clear 41 1009 12 10000 2.6 160 10:56 08.06.2020
1862 Clear 41 1009 12 10000 2.6 160 10:37 08.06.2020
1863 Clear 41 1009 12 10000 2.6 160 10:19 08.06.2020
1864 Clear 39 1009 10 10000 3.6 180 09:46 08.06.2020
1865 Clear 39 1009 10 10000 3.6 180 09:23 08.06.2020
1866 Clear 38 1009 13 10000 3.1 160 08:50 08.06.2020
1867 Clear 38 1009 13 10000 3.1 160 08:24 08.06.2020
1868 Clear 35 1009 19 10000 2.1 200 07:56 08.06.2020
1869 Clear 35 1009 19 10000 2.1 200 07:56 08.06.2020
1870 Clear 35 1009 19 10000 2.1 200 07:38 08.06.2020
1871 Clear 35 1009 19 10000 2.1 200 07:19 08.06.2020
1872 Clear 31 1009 23 10000 1 280 06:39 08.06.2020
1873 Clear 28 1009 28 10000 0.7 147 05:55 08.06.2020
1874 Clear 27 1008 28 10000 0.69 147 04:59 08.06.2020
1875 Clear 28 1008 26 10000 1.5 300 03:24 08.06.2020
1876 Clear 28 1008 26 10000 1.5 300 03:24 08.06.2020
1877 Clear 28 1007 24 10000 1 290 02:26 08.06.2020
1878 Clear 29 1007 28 10000 1.37 68 01:42 08.06.2020
1879 Clear 30 1008 23 10000 1.49 44 00:57 08.06.2020
1880 Clear 30 1008 23 10000 2.7 46 00:24 08.06.2020
1881 Clear 31 1008 25 10000 2.6 40 23:38 07.06.2020
1882 Clear 31 1008 25 10000 2.6 40 23:19 07.06.2020
1883 Clear 32 1009 24 10000 2.6 40 22:57 07.06.2020
1884 Clear 32 1009 24 10000 2.6 40 22:37 07.06.2020
1885 Clear 32 1009 24 10000 3.15 29 22:18 07.06.2020
1886 Clear 33 1009 24 10000 3.15 29 21:58 07.06.2020
1887 Clear 33 1009 24 10000 3.15 29 21:36 07.06.2020
1888 Clear 36 1008 19 10000 1.5 50 21:18 07.06.2020
1889 Clear 36 1008 19 10000 1.5 50 20:39 07.06.2020
1890 Clouds 36 1008 19 10000 1.5 50 20:20 07.06.2020
1891 Clouds 37 1008 14 10000 2.6 30 19:57 07.06.2020
1892 Clouds 37 1008 14 10000 2.6 30 19:38 07.06.2020
1893 Clouds 39 1008 12 10000 3.6 40 19:20 07.06.2020
1894 Clouds 39 1008 12 10000 3.6 40 18:59 07.06.2020
1895 Clouds 39 1008 12 10000 3.6 40 18:38 07.06.2020
1896 Clouds 39 1008 12 10000 3.6 40 18:19 07.06.2020
1897 Clouds 40 1008 10 10000 4.1 20 17:57 07.06.2020
1898 Clouds 40 1008 10 10000 4.1 20 17:38 07.06.2020
1899 Clouds 40 1008 10 10000 4.1 20 17:19 07.06.2020
1900 Clouds 41 1008 10 10000 4.1 20 16:42 07.06.2020
1901 Clouds 41 1008 10 10000 4.1 20 16:21 07.06.2020
1902 Clouds 43 1008 10 10000 5.1 360 15:42 07.06.2020
1903 Clouds 43 1008 10 10000 5.1 360 15:22 07.06.2020
1904 Clouds 42 1009 10 10000 3.1 20 14:41 07.06.2020
1905 Clear 42 1009 10 10000 3.1 20 14:22 07.06.2020
1906 Clear 43 1009 10 10000 2.1 340 13:49 07.06.2020
1907 Clear 42 1010 10 10000 5.45 348 13:22 07.06.2020
1908 Clear 42 1010 10 10000 5.45 348 12:57 07.06.2020
1909 Clear 42 1010 10 10000 5.45 348 12:39 07.06.2020
1910 Clear 42 1010 10 10000 5.45 348 12:39 07.06.2020
1911 Clear 41 1010 12 10000 3.1 350 12:20 07.06.2020
1912 Clear 41 1010 12 10000 3.1 350 11:55 07.06.2020
1913 Clear 41 1010 12 10000 3.1 350 11:36 07.06.2020
1914 Clear 41 1010 12 10000 3.1 350 11:18 07.06.2020
1915 Clear 39 1011 12 10000 3.6 50 10:45 07.06.2020
1916 Clear 39 1011 12 10000 3.6 50 10:20 07.06.2020
1917 Clear 39 1011 12 10000 3.6 50 10:20 07.06.2020
1918 Clear 38 1011 11 10000 4.1 40 09:59 07.06.2020
1919 Clear 38 1011 11 10000 4.1 40 09:39 07.06.2020
1920 Clear 38 1011 11 10000 4.1 40 09:20 07.06.2020
1921 Clear 36 1011 13 10000 3.6 30 08:57 07.06.2020
1922 Clear 36 1011 13 10000 3.6 30 08:39 07.06.2020
1923 Clear 36 1011 13 10000 3.6 30 08:21 07.06.2020
1924 Clear 34 1010 16 10000 2.1 20 07:33 07.06.2020
1925 Clear 31 1010 23 10000 1.5 310 06:53 07.06.2020
1926 Clear 28 1010 21 10000 2.1 300 05:52 07.06.2020
1927 Clear 28 1009 26 10000 2.1 300 04:21 07.06.2020
1928 Clear 28 1009 24 10000 1 280 03:33 07.06.2020
1929 Clear 30 1009 19 10000 2.6 280 02:18 07.06.2020
1930 Clear 30 1009 19 10000 2.1 310 01:25 07.06.2020
1931 Clear 31 1009 22 10000 1.5 320 00:47 07.06.2020
1932 Clear 31 1009 22 10000 1.5 320 00:20 07.06.2020
1933 Clear 33 1010 21 10000 1.5 30 23:58 06.06.2020
1934 Clear 33 1010 21 10000 1.5 30 23:37 06.06.2020
1935 Clear 33 1010 21 10000 1.5 30 23:37 06.06.2020
1936 Clear 33 1010 21 10000 1.5 30 23:19 06.06.2020
1937 Clear 34 1010 16 10000 2.6 350 22:56 06.06.2020
1938 Clear 34 1010 16 10000 2.6 350 22:38 06.06.2020
1939 Clear 34 1010 16 10000 2.6 350 22:19 06.06.2020
1940 Clear 34 1010 16 10000 2.6 350 22:19 06.06.2020
1941 Clear 36 1010 12 10000 3.6 10 21:46 06.06.2020
1942 Clear 36 1010 12 10000 3.6 10 21:22 06.06.2020
1943 Clear 37 1010 13 10000 4.1 20 20:58 06.06.2020
1944 Clear 37 1010 13 10000 4.1 20 20:39 06.06.2020
1945 Clear 37 1010 13 10000 4.1 20 20:18 06.06.2020
1946 Clear 38 1009 11 10000 4.6 20 19:57 06.06.2020
1947 Clear 38 1009 11 10000 4.6 20 19:38 06.06.2020
1948 Clear 38 1009 11 10000 4.6 20 19:20 06.06.2020
1949 Clear 40 1009 10 10000 5.7 20 18:43 06.06.2020
1950 Clear 40 1009 10 10000 5.7 20 18:24 06.06.2020
1951 Clear 41 1009 9 10000 6.7 20 17:58 06.06.2020
1952 Clear 41 1009 9 10000 6.7 20 17:58 06.06.2020
1953 Clear 41 1009 9 10000 6.7 20 17:39 06.06.2020
1954 Clear 41 1009 9 10000 6.7 20 17:19 06.06.2020
1955 Clear 42 1008 9 10000 6.2 30 16:44 06.06.2020
1956 Clear 42 1008 9 10000 6.2 30 16:22 06.06.2020
1957 Clear 43 1009 8 10000 6.2 360 15:58 06.06.2020
1958 Clear 43 1009 8 10000 6.2 360 15:40 06.06.2020
1959 Clear 43 1009 8 10000 6.2 360 15:20 06.06.2020
1960 Clear 43 1009 8 10000 6.2 360 14:43 06.06.2020
1961 Clear 43 1009 8 10000 6.2 360 14:25 06.06.2020
1962 Clear 42 1010 9 10000 5.1 30 13:59 06.06.2020
1963 Clear 42 1010 9 10000 5.1 30 13:40 06.06.2020
1964 Clear 43 1011 9 10000 3.6 20 13:18 06.06.2020
1965 Clear 43 1011 9 10000 3.6 20 13:18 06.06.2020
1966 Clear 43 1011 9 10000 3.6 20 12:43 06.06.2020
1967 Clear 43 1011 9 10000 3.6 20 12:24 06.06.2020
1968 Clear 41 1011 9 10000 6.2 10 11:59 06.06.2020
1969 Clear 41 1011 9 10000 6.2 10 11:39 06.06.2020
1970 Clear 41 1011 9 10000 6.2 10 11:20 06.06.2020
1971 Clear 41 1012 9 10000 6.7 360 10:58 06.06.2020
1972 Clear 41 1012 9 10000 6.7 360 10:58 06.06.2020
1973 Clear 41 1012 9 10000 6.7 360 10:39 06.06.2020
1974 Clear 41 1012 9 10000 6.7 360 10:21 06.06.2020
1975 Clear 40 1012 8 10000 6.2 360 09:58 06.06.2020
1976 Clear 40 1012 8 10000 6.2 360 09:40 06.06.2020
1977 Clear 40 1012 8 10000 6.2 360 09:20 06.06.2020
1978 Clear 36 1013 8 10000 6.2 360 08:40 06.06.2020
1979 Clear 36 1013 9 10000 6.2 360 08:20 06.06.2020
1980 Clear 34 1012 13 10000 4.1 320 07:46 06.06.2020
1981 Clear 32 1012 17 10000 2.6 310 07:22 06.06.2020
1982 Clear 32 1012 17 10000 2.6 310 06:47 06.06.2020
1983 Clear 32 1012 17 10000 2.6 310 06:29 06.06.2020
1984 Clear 29 1011 18 10000 2.6 310 05:54 06.06.2020
1985 Clear 29 1011 18 10000 2.6 310 05:28 06.06.2020
1986 Clear 30 1011 16 10000 3.1 360 04:43 06.06.2020
1987 Clear 30 1011 17 7000 2.1 310 02:49 06.06.2020
1988 Clear 31 1011 16 7000 2.1 290 01:54 06.06.2020
1989 Clear 32 1011 21 7000 1.5 340 01:19 06.06.2020
1990 Clear 32 1011 21 7000 1.5 340 00:45 06.06.2020
1991 Clear 32 1011 21 7000 1.5 340 00:27 06.06.2020
1992 Clear 34 1011 15 7000 2.6 20 23:55 05.06.2020
1993 Clear 34 1011 15 7000 2.6 20 23:36 05.06.2020
1994 Clear 34 1011 15 7000 2.6 20 23:36 05.06.2020
1995 Clear 34 1011 15 7000 2.6 20 23:18 05.06.2020
1996 Clear 34 1011 15 7000 2.6 20 23:18 05.06.2020
1997 Clear 35 1012 13 7000 4.1 20 22:41 05.06.2020
1998 Clear 35 1012 13 7000 4.1 20 22:23 05.06.2020
1999 Clear 36 1011 13 7000 3.1 20 21:58 05.06.2020
2000 Clear 36 1011 13 7000 3.1 20 21:40 05.06.2020
2001 Clear 36 1011 13 7000 3.1 20 21:20 05.06.2020
2002 Dust 38 1011 12 5000 4.1 30 20:57 05.06.2020
2003 Dust 38 1011 12 5000 4.1 30 20:57 05.06.2020
2004 Dust 38 1011 12 5000 4.1 30 20:38 05.06.2020
2005 Clear 39 1010 10 7000 4.1 20 20:19 05.06.2020
2006 Clear 39 1010 10 7000 4.1 20 19:40 05.06.2020
2007 Clear 39 1010 10 7000 4.1 20 19:40 05.06.2020
2008 Clear 39 1010 10 7000 4.1 20 19:22 05.06.2020
2009 Clear 40 1010 9 7000 4.1 20 18:54 05.06.2020
2010 Clear 40 1010 9 7000 4.1 20 18:36 05.06.2020
2011 Clear 42 1009 8 10000 4.6 360 18:18 05.06.2020
2012 Clear 42 1009 8 10000 4.6 360 17:55 05.06.2020
2013 Clear 42 1009 8 10000 4.6 360 17:37 05.06.2020
2014 Clear 42 1009 8 10000 4.6 360 17:18 05.06.2020
2015 Clear 43 1009 7 10000 5.1 360 16:38 05.06.2020
2016 Clear 43 1009 7 10000 5.1 360 16:19 05.06.2020
2017 Clear 43 1009 8 10000 4.1 20 15:41 05.06.2020
2018 Clear 43 1009 8 10000 4.1 20 15:21 05.06.2020
2019 Clear 44 1010 8 10000 3.6 350 14:58 05.06.2020
2020 Clear 44 1010 8 10000 3.6 350 14:40 05.06.2020
2021 Clear 44 1010 8 10000 3.6 350 14:22 05.06.2020
2022 Clear 43 1011 10 10000 2.1 360 13:57 05.06.2020
2023 Clear 43 1011 10 10000 2.1 360 13:37 05.06.2020
2024 Clear 43 1011 10 10000 2.1 360 13:18 05.06.2020
2025 Clear 42 1011 10 10000 3.1 20 12:40 05.06.2020
2026 Clear 42 1011 10 10000 3.1 20 12:19 05.06.2020
2027 Clear 41 1012 10 10000 3.6 30 11:43 05.06.2020
2028 Clear 41 1012 10 10000 3.6 30 11:25 05.06.2020
2029 Clear 39 1013 11 10000 4.6 40 10:59 05.06.2020
2030 Clear 39 1013 11 10000 4.6 40 10:41 05.06.2020
2031 Clear 39 1013 11 10000 4.6 40 10:21 05.06.2020
2032 Clear 37 1013 11 10000 5.1 20 09:57 05.06.2020
2033 Clear 37 1013 11 10000 5.1 20 09:39 05.06.2020
2034 Clear 37 1013 11 10000 5.1 20 09:39 05.06.2020
2035 Clear 37 1013 11 10000 5.1 20 09:20 05.06.2020
2036 Clear 36 1013 11 10000 5.1 360 08:58 05.06.2020
2037 Clear 36 1013 11 10000 5.1 360 08:40 05.06.2020
2038 Clear 36 1013 11 10000 5.1 360 08:18 05.06.2020
2039 Clear 34 1013 12 10000 5.1 30 07:50 05.06.2020
2040 Clear 34 1013 12 10000 5.1 30 07:31 05.06.2020
2041 Clear 33 1012 15 10000 3.1 340 06:48 05.06.2020
2042 Clear 31 1012 15 10000 3.6 350 05:23 05.06.2020
2043 Clear 29 1011 20 10000 2.1 310 04:27 05.06.2020
2044 Clear 30 1011 23 10000 1.5 320 03:29 05.06.2020
2045 Clouds 31 1011 22 10000 1.5 340 02:29 05.06.2020
2046 Clouds 31 1011 18 10000 2.1 10 01:58 05.06.2020
2047 Clouds 31 1011 18 10000 2.1 10 01:31 05.06.2020
2048 Clouds 33 1011 21 10000 2.1 50 00:44 05.06.2020
2049 Clouds 34 1011 16 10000 2.6 50 00:22 05.06.2020
2050 Clouds 34 1011 16 10000 2.6 50 23:48 04.06.2020
2051 Clouds 34 1011 16 10000 2.6 50 23:48 04.06.2020
2052 Clouds 34 1011 16 10000 2.6 50 23:29 04.06.2020
2053 Clouds 34 1011 16 10000 2.6 60 22:57 04.06.2020
2054 Clouds 34 1011 16 10000 2.6 60 22:39 04.06.2020
2055 Clear 34 1011 16 10000 2.6 60 22:21 04.06.2020
2056 Clear 35 1011 15 10000 3.1 30 21:58 04.06.2020
2057 Clear 35 1011 15 10000 3.1 30 21:38 04.06.2020
2058 Clear 35 1011 15 10000 3.1 30 21:20 04.06.2020
2059 Clear 36 1011 13 10000 3.6 40 20:55 04.06.2020
2060 Clear 36 1011 13 10000 3.6 40 20:55 04.06.2020
2061 Clear 36 1011 13 10000 3.6 40 20:37 04.06.2020
2062 Clear 38 1010 13 10000 3.1 40 20:19 04.06.2020
2063 Clear 38 1010 13 10000 3.1 40 19:41 04.06.2020
2064 Clear 38 1010 13 10000 3.1 40 19:21 04.06.2020
2065 Clear 40 1010 11 10000 3.1 50 18:57 04.06.2020
2066 Clear 40 1010 11 10000 3.1 50 18:38 04.06.2020
2067 Clear 40 1010 11 10000 3.1 50 18:20 04.06.2020
2068 Clear 40 1010 11 10000 3.1 50 18:20 04.06.2020
2069 Clear 41 1009 11 10000 3.6 60 17:43 04.06.2020
2070 Clear 41 1009 11 10000 3.6 60 17:22 04.06.2020
2071 Clear 42 1009 11 10000 3.1 40 16:57 04.06.2020
2072 Clear 42 1009 11 10000 3.1 40 16:39 04.06.2020
2073 Clear 42 1009 11 10000 3.1 40 16:19 04.06.2020
2074 Clear 43 1009 11 10000 2.6 30 15:43 04.06.2020
2075 Clear 43 1009 11 10000 2.6 30 15:25 04.06.2020
2076 Clear 43 1009 15 10000 2.1 40 14:42 04.06.2020
2077 Clear 43 1009 15 10000 2.1 40 14:22 04.06.2020
2078 Clear 43 1010 10 10000 3.1 330 13:58 04.06.2020
2079 Clear 43 1010 10 10000 3.1 330 13:40 04.06.2020
2080 Clear 43 1010 10 10000 3.1 330 13:20 04.06.2020
2081 Clear 42 1010 12 10000 4.1 60 12:58 04.06.2020
2082 Clear 42 1010 12 10000 4.1 60 12:40 04.06.2020
2083 Clear 42 1010 12 10000 4.1 60 12:21 04.06.2020
2084 Clear 41 1011 11 10000 4.1 40 11:54 04.06.2020
2085 Clear 41 1011 11 10000 4.1 40 11:36 04.06.2020
2086 Clear 41 1011 11 10000 4.1 40 11:18 04.06.2020
2087 Clear 40 1011 12 10000 5.1 40 10:40 04.06.2020
2088 Clear 39 1011 13 10000 4.6 40 10:22 04.06.2020
2089 Clear 39 1011 13 10000 4.6 40 09:57 04.06.2020
2090 Clear 39 1011 13 10000 4.6 40 09:38 04.06.2020
2091 Clear 39 1011 13 10000 4.6 40 09:20 04.06.2020
2092 Clear 38 1011 14 10000 5.1 10 08:41 04.06.2020
2093 Clear 38 1011 14 10000 5.1 10 08:23 04.06.2020
2094 Clear 36 1011 11 10000 6.7 330 07:42 04.06.2020
2095 Clear 36 1011 11 10000 6.7 330 07:21 04.06.2020
2096 Clear 31 1010 19 10000 2.1 310 06:40 04.06.2020
2097 Clear 30 1010 23 10000 2.1 300 06:22 04.06.2020
2098 Clear 30 1010 23 10000 2.1 300 05:33 04.06.2020
2099 Clear 30 1008 19 10000 3.1 290 03:51 04.06.2020
2100 Clear 30 1008 19 10000 2.6 280 02:22 04.06.2020
2101 Clear 30 1008 23 10000 2.1 340 01:39 04.06.2020
2102 Clear 33 1009 21 10000 1.59 343 01:19 04.06.2020
2103 Clear 35 1009 19 10000 1.5 50 00:20 04.06.2020
2104 Clear 35 1009 19 10000 1.5 50 23:40 03.06.2020
2105 Clear 35 1009 19 10000 1.5 50 23:20 03.06.2020
2106 Clouds 37 1009 14 10000 3.1 40 22:56 03.06.2020
2107 Clouds 37 1009 14 10000 3.1 40 22:38 03.06.2020
2108 Clouds 37 1009 14 10000 3.1 40 22:18 03.06.2020
2109 Clouds 36 1009 15 10000 3.6 10 21:55 03.06.2020
2110 Clouds 36 1009 15 10000 3.6 10 21:37 03.06.2020
2111 Clouds 36 1009 15 10000 3.6 10 21:19 03.06.2020
2112 Clear 36 1009 22 10000 4.03 167 20:42 03.06.2020
2113 Clear 36 1009 22 10000 3.05 149 20:21 03.06.2020
2114 Clear 36 1008 23 10000 3.05 149 19:58 03.06.2020
2115 Clear 36 1008 23 10000 3.05 149 19:39 03.06.2020
2116 Clear 36 1008 23 10000 2.96 144 19:21 03.06.2020
2117 Clouds 38 1008 22 10000 2.96 144 18:59 03.06.2020
2118 Clouds 38 1008 22 10000 2.96 144 18:40 03.06.2020
2119 Clouds 38 1008 22 10000 3.89 148 18:19 03.06.2020
2120 Clouds 42 1007 18 10000 3.89 148 17:45 03.06.2020
2121 Clouds 42 1007 18 10000 3.09 138 17:23 03.06.2020
2122 Clouds 43 1007 14 10000 2.6 220 16:59 03.06.2020
2123 Clouds 43 1007 14 10000 2.6 220 16:41 03.06.2020
2124 Clouds 43 1007 14 10000 2.6 220 16:19 03.06.2020
2125 Clear 43 1007 11 10000 2.1 80 15:55 03.06.2020
2126 Clear 43 1007 11 10000 2.1 80 15:37 03.06.2020
2127 Clear 43 1007 11 10000 2.1 80 15:18 03.06.2020
2128 Clear 43 1007 10 10000 3.6 200 14:42 03.06.2020
2129 Clear 43 1007 10 10000 3.6 200 14:23 03.06.2020
2130 Clear 43 1008 10 10000 3.6 220 13:40 03.06.2020
2131 Clear 43 1008 10 10000 3.6 220 13:40 03.06.2020
2132 Clear 43 1008 10 10000 3.6 220 13:21 03.06.2020
2133 Clear 43 1009 13 10000 3.1 190 12:57 03.06.2020
2134 Clear 43 1009 13 10000 3.1 190 12:38 03.06.2020
2135 Clear 42 1009 12 10000 4.1 180 12:18 03.06.2020
2136 Clear 42 1009 12 10000 4.1 180 11:43 03.06.2020
2137 Clear 42 1009 12 10000 4.1 180 11:24 03.06.2020
2138 Clear 41 1010 14 10000 3.1 210 10:44 03.06.2020
2139 Clear 41 1010 14 10000 3.1 210 10:25 03.06.2020
2140 Clear 39 1010 16 10000 2.6 250 09:55 03.06.2020
2141 Clear 39 1010 16 10000 2.6 250 09:36 03.06.2020
2142 Clear 39 1010 16 10000 2.6 250 09:18 03.06.2020
2143 Clear 38 1010 16 10000 3.1 290 08:46 03.06.2020
2144 Clear 36 1010 16 10000 3.1 310 08:21 03.06.2020
2145 Clear 36 1010 16 10000 3.1 310 07:46 03.06.2020
2146 Clear 32 1009 24 10000 2.6 340 07:24 03.06.2020
2147 Clear 32 1009 24 10000 2.6 340 07:24 03.06.2020
2148 -273 0 0 0 0 0 06:58 03.06.2020
2149 Clear 32 1009 24 10000 2.6 340 06:40 03.06.2020
2150 Clear 32 1009 24 10000 2.6 340 06:21 03.06.2020
2151 Clear 29 1009 30 10000 2.39 253 05:42 03.06.2020
2152 Clear 31 1008 27 10000 3.52 255 04:18 03.06.2020
2153 Clear 31 1008 27 10000 3.52 255 03:40 03.06.2020
2154 Clear 32 1008 18 10000 4.1 310 02:25 03.06.2020
2155 Clear 35 1007 16 10000 2.6 190 01:26 03.06.2020
2156 Clear 36 1007 13 10000 4.1 180 00:37 03.06.2020
2157 Clear 36 1007 13 10000 4.1 180 00:18 03.06.2020
2158 Clear 36 1008 14 10000 4.1 170 23:39 02.06.2020
2159 Clear 36 1008 14 10000 4.1 170 23:21 02.06.2020
2160 Clear 37 1009 14 10000 3.1 180 22:40 02.06.2020
2161 Clear 37 1009 14 10000 3.1 180 22:40 02.06.2020
2162 Clear 37 1009 14 10000 3.1 180 22:19 02.06.2020
2163 Clear 37 1009 16 10000 2.1 180 21:57 02.06.2020
2164 Clear 37 1009 16 10000 2.1 180 21:39 02.06.2020
2165 Clear 37 1009 16 10000 2.1 180 21:21 02.06.2020
2166 Clear 37 1008 18 10000 1.5 150 20:59 02.06.2020
2167 Clear 37 1008 18 10000 1.5 150 20:40 02.06.2020
2168 Clear 37 1008 18 10000 1.5 150 20:22 02.06.2020
2169 Clear 37 1008 18 10000 1 130 19:45 02.06.2020
2170 Clear 37 1008 18 10000 1 130 19:26 02.06.2020
2171 Clear 39 1007 17 10000 1 120 18:59 02.06.2020
2172 Clear 39 1007 17 10000 1 120 18:40 02.06.2020
2173 Clear 39 1007 17 10000 1 120 18:20 02.06.2020
2174 Clear 40 1007 19 10000 1.5 60 17:59 02.06.2020
2175 Clear 40 1007 19 10000 1.5 60 17:40 02.06.2020
2176 Clear 40 1007 19 10000 1.5 60 17:21 02.06.2020
2177 Clear 43 1007 11 10000 1.5 30 16:55 02.06.2020
2178 Clear 43 1007 11 10000 1.5 30 16:37 02.06.2020
2179 Clear 43 1007 11 10000 1.5 30 16:19 02.06.2020
2180 Clear 43 1007 11 10000 2.1 270 15:40 02.06.2020
2181 Clear 43 1007 11 10000 2.1 270 15:22 02.06.2020
2182 Clear 43 1008 15 10000 1.5 220 14:48 02.06.2020
2183 Clear 43 1008 15 10000 1.5 220 14:28 02.06.2020
2184 Clear 43 1008 12 10000 2.6 100 13:57 02.06.2020
2185 Clear 43 1008 12 10000 2.6 100 13:37 02.06.2020
2186 Clear 43 1008 12 10000 2.6 100 13:19 02.06.2020
2187 Clear 42 1009 12 10000 3.6 180 12:57 02.06.2020
2188 Clear 42 1009 12 10000 3.6 180 12:38 02.06.2020
2189 Clear 42 1009 12 10000 3.6 180 12:20 02.06.2020
2190 Clear 42 1010 10 10000 4.6 200 11:43 02.06.2020
2191 Clear 42 1010 10 10000 4.6 200 11:24 02.06.2020
2192 Clear 41 1010 11 9000 4.1 180 10:59 02.06.2020
2193 Clear 41 1010 11 9000 4.1 180 10:41 02.06.2020
2194 Clear 41 1010 11 9000 4.1 180 10:41 02.06.2020
2195 Clear 41 1010 11 9000 4.1 180 10:22 02.06.2020
2196 Clear 39 1010 14 8000 2.1 170 09:43 02.06.2020
2197 Clear 39 1010 14 8000 2.1 170 09:21 02.06.2020
2198 Clear 37 1010 16 10000 2.1 150 08:55 02.06.2020
2199 Clear 37 1010 16 10000 2.1 150 08:29 02.06.2020
2200 Clear 34 1010 16 10000 2.6 120 07:59 02.06.2020
2201 Clear 34 1010 16 10000 2.6 120 07:38 02.06.2020
2202 Clear 34 1010 16 10000 2.6 120 07:18 02.06.2020
2203 Clear 31 1009 11 10000 4.83 169 06:39 02.06.2020
2204 Clear 28 1009 15 10000 3.48 154 05:45 02.06.2020
2205 Clear 27 1008 14 10000 1.8 186 04:52 02.06.2020
2206 Clear 29 1008 13 10000 2.7 215 03:19 02.06.2020
2207 Clear 31 1008 11 10000 2.1 130 02:18 02.06.2020
2208 Clear 29 1009 12 10000 3.41 169 00:53 02.06.2020
2209 Clear 29 1009 12 10000 3.44 167 00:22 02.06.2020
2210 Clear 30 1009 12 10000 3.44 167 23:39 01.06.2020
2211 Clear 30 1009 12 10000 3.41 178 23:21 01.06.2020
2212 Clear 31 1010 12 10000 3.41 178 22:58 01.06.2020
2213 Clear 31 1010 12 10000 3.41 178 22:39 01.06.2020
2214 Clear 31 1010 12 10000 3.6 178 22:39 01.06.2020
2215 Clear 31 1010 12 10000 3.6 178 22:19 01.06.2020
2216 Clear 31 1010 12 10000 3.6 178 22:19 01.06.2020
2217 Clear 34 1010 11 10000 1.5 170 21:55 01.06.2020
2218 Clear 34 1010 11 10000 1.5 170 21:36 01.06.2020
2219 Clear 34 1010 10 10000 1.5 170 21:18 01.06.2020
2220 Clear 36 1010 9 10000 1.5 160 20:54 01.06.2020
2221 Clear 36 1009 18 10000 1 140 20:36 01.06.2020
2222 Clear 36 1009 18 10000 1 140 20:18 01.06.2020
2223 Clear 36 1009 18 10000 1 140 19:42 01.06.2020
2224 Clear 36 1009 18 10000 1 140 19:20 01.06.2020
2225 Clear 38 1009 16 10000 1.5 120 18:58 01.06.2020
2226 Clear 38 1009 16 10000 1.5 120 18:39 01.06.2020
2227 Clear 38 1009 16 10000 1.5 120 18:19 01.06.2020
2228 Clear 41 1009 14 10000 1.5 170 17:55 01.06.2020
2229 Clear 41 1009 14 10000 1.5 170 17:36 01.06.2020
2230 Clear 41 1009 14 10000 1.5 170 17:18 01.06.2020
2231 Clear 41 1008 14 10000 1.5 90 16:39 01.06.2020
2232 Clear 41 1008 14 10000 1.5 90 16:20 01.06.2020
2233 Clear 43 1009 14 10000 2.6 140 15:55 01.06.2020
2234 Clear 43 1009 14 10000 2.6 140 15:37 01.06.2020
2235 Clear 43 1009 14 10000 2.6 140 15:18 01.06.2020
2236 Clear 43 1009 14 10000 2.6 140 15:18 01.06.2020
2237 Clear 42 1009 11 10000 3.6 150 14:56 01.06.2020
2238 Clear 42 1009 11 10000 3.6 150 14:37 01.06.2020
2239 Clear 42 1009 11 10000 3.6 150 14:18 01.06.2020
2240 Clear 42 1010 11 10000 2.1 180 13:42 01.06.2020
2241 Clear 42 1010 11 10000 2.1 180 13:21 01.06.2020
2242 -273 0 0 0 0 0 12:58 01.06.2020
2243 Clear 41 1010 12 10000 3.6 120 12:40 01.06.2020
2244 Clear 41 1010 12 10000 3.6 120 12:40 01.06.2020
2245 Clear 41 1010 12 10000 3.6 120 12:21 01.06.2020
2246 Clear 41 1011 12 10000 3.6 150 11:57 01.06.2020
2247 Clear 41 1011 12 10000 3.6 150 11:37 01.06.2020
2248 Clear 40 1011 11 10000 3.6 170 11:18 01.06.2020
2249 Clear 40 1011 11 10000 3.6 170 10:54 01.06.2020
2250 Clear 40 1011 11 10000 3.6 170 10:36 01.06.2020
2251 Clear 39 1012 12 10000 3.6 160 10:18 01.06.2020
2252 Clear 39 1012 12 10000 3.6 160 09:43 01.06.2020
2253 Clear 39 1012 12 10000 3.6 160 09:24 01.06.2020
2254 Clear 37 1012 14 10000 3.1 140 08:54 01.06.2020
2255 Clear 37 1012 14 10000 3.1 140 08:31 01.06.2020
2256 Clear 35 1012 20 10000 2.1 150 07:57 01.06.2020
2257 Clear 35 1012 20 10000 2.1 150 07:38 01.06.2020
2258 Clear 35 1012 20 10000 2.1 150 07:20 01.06.2020
2259 Clear 31 1012 27 10000 4.21 140 06:49 01.06.2020
2260 Clear 26 1011 31 10000 2.84 129 05:54 01.06.2020
2261 Clear 26 1010 31 10000 1 160 04:50 01.06.2020
2262 Clear 26 1010 31 10000 1 160 03:50 01.06.2020
2263 Clear 26 1010 31 10000 1 160 03:32 01.06.2020
2264 Clear 27 1010 28 10000 1 290 02:32 01.06.2020
2265 Clear 30 1010 19 10000 2.1 260 01:35 01.06.2020
2266 Clear 29 1011 26 10000 1.75 74 00:58 01.06.2020
2267 Clear 29 1011 26 10000 1.75 74 00:40 01.06.2020
2268 Clear 29 1011 26 10000 2.24 58 00:21 01.06.2020
2269 Clear 29 1011 26 10000 2.24 58 00:21 01.06.2020
2270 Clear 31 1011 25 10000 2.24 58 23:58 31.05.2020
2271 Clear 31 1011 25 10000 2.24 58 23:38 31.05.2020
2272 Clear 31 1011 25 10000 2.97 50 23:20 31.05.2020
2273 Clear 33 1012 19 10000 2.1 40 22:54 31.05.2020
2274 Clear 33 1012 19 10000 2.1 40 22:36 31.05.2020
2275 Clear 33 1012 19 10000 2.1 40 22:18 31.05.2020
2276 Clear 34 1011 18 10000 1.5 60 21:42 31.05.2020
2277 Clear 34 1011 18 10000 1.5 60 21:23 31.05.2020
2278 Clear 36 1011 13 10000 2.1 50 20:58 31.05.2020
2279 Clear 36 1011 13 10000 2.1 50 20:40 31.05.2020
2280 Clear 36 1011 13 10000 2.1 50 20:21 31.05.2020
2281 Clear 37 1010 13 10000 2.1 50 19:55 31.05.2020
2282 Clear 37 1010 13 10000 2.1 50 19:37 31.05.2020
2283 Clear 37 1010 13 10000 2.1 50 19:19 31.05.2020
2284 Clear 39 1010 10 10000 3.1 50 18:44 31.05.2020
2285 Clear 39 1010 10 10000 3.1 50 18:25 31.05.2020
2286 Clear 40 1009 11 10000 3.1 70 17:46 31.05.2020
2287 Clear 40 1009 11 10000 3.1 70 17:25 31.05.2020
2288 Clear 41 1009 9 10000 4.1 50 16:59 31.05.2020
2289 Clear 41 1009 9 10000 4.1 50 16:40 31.05.2020
2290 Clear 42 1009 9 10000 3.6 40 16:21 31.05.2020
2291 Clear 42 1009 9 10000 3.6 40 15:40 31.05.2020
2292 Clear 42 1009 9 10000 3.6 40 15:21 31.05.2020
2293 Clear 43 1010 6 10000 1.5 110 14:47 31.05.2020
2294 Clear 43 1010 6 10000 1.5 110 14:22 31.05.2020
2295 Clear 42 1010 6 10000 3.1 70 13:57 31.05.2020
2296 Clear 42 1010 6 10000 3.1 70 13:38 31.05.2020
2297 Clear 42 1011 9 10000 3.1 130 13:20 31.05.2020
2298 Clear 42 1011 9 10000 3.1 130 12:57 31.05.2020
2299 Clear 42 1011 9 10000 3.1 130 12:38 31.05.2020
2300 Clear 42 1011 9 10000 3.1 130 12:19 31.05.2020
2301 Clear 42 1011 9 10000 3.1 130 12:19 31.05.2020
2302 Clear 41 1012 8 10000 1.5 150 11:49 31.05.2020
2303 Clear 41 1012 8 10000 1.5 150 11:24 31.05.2020
2304 Clear 39 1012 7 10000 2.1 40 10:57 31.05.2020
2305 Clear 39 1012 7 10000 2.1 40 10:39 31.05.2020
2306 Clear 38 1013 8 10000 2.1 30 10:20 31.05.2020
2307 Clear 38 1013 8 10000 2.1 30 09:42 31.05.2020
2308 Clear 38 1013 8 10000 2.1 30 09:23 31.05.2020
2309 Clear 35 1013 10 10000 3.1 60 08:58 31.05.2020
2310 Clear 35 1013 10 10000 3.1 60 08:38 31.05.2020
2311 Clear 33 1013 16 10000 2.6 50 08:20 31.05.2020
2312 Clear 33 1013 16 10000 2.6 50 07:44 31.05.2020
2313 Clear 33 1013 16 10000 2.6 50 07:21 31.05.2020
2314 Clear 31 1013 18 10000 2.6 360 06:54 31.05.2020
2315 Clear 31 1013 18 10000 2.6 360 06:32 31.05.2020
2316 Clear 29 1012 28 10000 1 330 05:44 31.05.2020
2317 Clear 28 1011 30 10000 1 350 04:31 31.05.2020
2318 Clear 28 1011 28 10000 1 260 03:49 31.05.2020
2319 Clear 28 1011 26 10000 1 220 02:59 31.05.2020
2320 Clear 29 1011 25 10000 1.5 300 01:50 31.05.2020
2321 Clear 29 1011 25 10000 1.5 300 01:28 31.05.2020
2322 Clear 30 1011 27 10000 1 20 00:31 31.05.2020
2323 Clear 32 1012 22 10000 1.5 40 23:59 30.05.2020
2324 Clear 32 1012 22 10000 1.5 40 23:39 30.05.2020
2325 Clear 32 1012 22 10000 1.5 40 23:21 30.05.2020
2326 Clear 33 1012 15 10000 3.1 30 22:41 30.05.2020
2327 Clear 33 1012 15 10000 3.1 30 22:23 30.05.2020
2328 Clear 34 1012 16 10000 2.1 40 21:56 30.05.2020
2329 Clear 34 1012 16 10000 2.1 40 21:38 30.05.2020
2330 Clear 34 1012 16 10000 2.1 40 21:20 30.05.2020
2331 Clear 36 1011 14 10000 2.6 50 20:56 30.05.2020
2332 Clear 36 1011 14 10000 2.6 50 20:38 30.05.2020
2333 Clear 37 1010 14 10000 2.1 60 20:20 30.05.2020
2334 Clear 37 1010 14 10000 2.1 60 19:43 30.05.2020
2335 Clear 37 1010 14 10000 2.1 60 19:22 30.05.2020
2336 Clear 39 1010 13 10000 2.6 50 18:46 30.05.2020
2337 Clear 39 1010 13 10000 2.6 50 18:25 30.05.2020
2338 Clear 39 1010 13 10000 2.6 50 18:25 30.05.2020
2339 Clear 40 1009 10 10000 3.6 70 17:56 30.05.2020
2340 Clear 40 1009 10 10000 3.6 70 17:38 30.05.2020
2341 Clear 41 1009 9 10000 4.6 70 17:19 30.05.2020
2342 Clear 41 1009 9 10000 4.6 70 16:43 30.05.2020
2343 Clear 41 1009 9 10000 4.6 70 16:23 30.05.2020
2344 Clear 42 1009 8 10000 5.7 40 15:56 30.05.2020
2345 Clear 42 1009 8 10000 4.6 10 15:37 30.05.2020
2346 Clear 42 1009 8 10000 4.6 10 15:19 30.05.2020
2347 Clear 42 1009 8 10000 4.6 10 14:42 30.05.2020
2348 Clear 42 1009 8 10000 5.7 50 14:20 30.05.2020
2349 Clear 42 1009 8 10000 5.7 50 13:41 30.05.2020
2350 Clear 42 1010 9 10000 4.1 60 13:19 30.05.2020
2351 Clear 42 1010 9 10000 4.1 60 12:40 30.05.2020
2352 Clear 42 1010 9 10000 4.1 60 12:20 30.05.2020
2353 Clear 41 1010 9 10000 4.6 60 11:55 30.05.2020
2354 Clear 41 1010 9 10000 4.6 60 11:37 30.05.2020
2355 Clear 40 1011 10 10000 4.1 30 11:19 30.05.2020
2356 Clear 40 1011 10 10000 4.1 30 10:39 30.05.2020
2357 Clear 40 1011 10 10000 4.1 30 10:20 30.05.2020
2358 Clear 40 1011 11 10000 4.1 350 09:46 30.05.2020
2359 Clear 40 1011 11 10000 4.1 350 09:28 30.05.2020
2360 Clear 38 1011 12 10000 3.1 330 08:46 30.05.2020
2361 Clear 38 1011 12 10000 3.1 330 08:27 30.05.2020
2362 Clear 33 1011 16 10000 2.1 300 07:44 30.05.2020
2363 Clear 33 1011 16 10000 2.1 300 07:20 30.05.2020
2364 Clear 31 1010 22 10000 1 340 06:33 30.05.2020
2365 Clear 26 1010 26 10000 1 320 05:52 30.05.2020
2366 Clear 26 1010 26 10000 1 320 05:30 30.05.2020
2367 Clear 27 1008 28 10000 0.36 322 03:38 30.05.2020
2368 Clear 28 1008 26 10000 0.83 1 02:29 30.05.2020
2369 Clear 30 1009 22 10000 1.5 280 01:40 30.05.2020
2370 Clear 30 1009 17 10000 2.1 300 00:37 30.05.2020
2371 Clear 30 1009 17 10000 2.1 300 00:18 30.05.2020
2372 Clear 31 1009 16 10000 3.1 290 23:42 29.05.2020
2373 Clear 31 1009 16 10000 3.1 290 23:21 29.05.2020
2374 Clear 32 1010 19 10000 2.1 300 22:58 29.05.2020
2375 Clear 32 1010 19 10000 2.1 300 22:39 29.05.2020
2376 Clear 32 1010 19 10000 2.1 300 22:19 29.05.2020
2377 Clear 34 1010 18 10000 1 50 21:41 29.05.2020
2378 Clear 34 1010 18 10000 1 50 21:21 29.05.2020
2379 Clear 34 1010 18 10000 1 50 21:21 29.05.2020
2380 Clear 35 1010 19 10000 1 50 20:59 29.05.2020
2381 Clear 35 1010 19 10000 1 50 20:40 29.05.2020
2382 Clear 35 1010 19 10000 1 50 20:19 29.05.2020
2383 Clear 37 1009 13 10000 2.6 30 19:44 29.05.2020
2384 Clear 37 1009 13 10000 2.6 30 19:26 29.05.2020
2385 Clear 39 1009 10 10000 3.1 50 18:55 29.05.2020
2386 Clear 39 1009 10 10000 3.1 50 18:37 29.05.2020
2387 Clear 39 1009 10 10000 3.1 50 18:18 29.05.2020
2388 Clear 41 1008 9 10000 5.1 30 17:40 29.05.2020
2389 Clear 41 1008 9 10000 5.1 30 17:22 29.05.2020
2390 Clear 41 1008 9 10000 5.1 30 17:22 29.05.2020
2391 Clear 41 1008 9 10000 5.1 30 16:58 29.05.2020
2392 Clear 41 1008 9 10000 5.1 30 16:40 29.05.2020
2393 Clear 41 1008 9 10000 5.1 30 16:22 29.05.2020
2394 Clear 42 1008 9 10000 4.6 20 15:54 29.05.2020
2395 Clear 42 1008 9 10000 4.6 20 15:36 29.05.2020
2396 Clear 43 1009 8 10000 4.1 10 15:18 29.05.2020
2397 Clear 43 1009 8 10000 4.1 10 15:18 29.05.2020
2398 Clear 43 1009 8 10000 4.1 10 14:39 29.05.2020
2399 Clear 43 1009 9 10000 3.6 40 14:20 29.05.2020
2400 Clear 43 1009 9 10000 3.6 40 13:43 29.05.2020
2401 Clear 43 1009 9 10000 3.6 40 13:24 29.05.2020
2402 Clear 42 1010 9 10000 5.1 360 12:58 29.05.2020
2403 Clear 42 1010 9 10000 5.1 360 12:40 29.05.2020
2404 Clear 42 1010 9 10000 5.1 360 12:21 29.05.2020
2405 Clear 41 1010 11 10000 2.6 30 11:44 29.05.2020
2406 Clear 41 1010 11 10000 2.6 30 11:25 29.05.2020
2407 Clear 41 1011 16 10000 1 240 10:56 29.05.2020
2408 Clear 41 1011 16 10000 1 240 10:36 29.05.2020
2409 Clear 39 1011 18 10000 1 80 10:18 29.05.2020
2410 Clear 39 1011 18 10000 1 80 09:42 29.05.2020
2411 Clear 39 1011 18 10000 1 80 09:19 29.05.2020
2412 Clear 38 1011 21 10000 1 230 08:48 29.05.2020
2413 Clear 38 1011 21 10000 1 230 08:26 29.05.2020
2414 Clear 34 1011 24 9000 1.66 57 07:58 29.05.2020
2415 Clear 34 1011 24 9000 1.66 57 07:37 29.05.2020
2416 Clear 31 1011 27 9000 0.33 346 07:18 29.05.2020
2417 Clear 31 1011 27 9000 0.33 346 06:46 29.05.2020
2418 Clear 31 1011 27 9000 1.18 253 06:26 29.05.2020
2419 Clear 26 1011 29 10000 1.18 253 05:45 29.05.2020
2420 Clear 28 1010 17 10000 3.1 280 02:35 29.05.2020
2421 Clear 28 1010 24 10000 1.5 290 01:28 29.05.2020
2422 Clear 29 1011 23 10000 1.5 310 00:54 29.05.2020
2423 Clear 29 1011 23 10000 1.5 310 00:33 29.05.2020
2424 Clear 31 1011 23 10000 0.95 32 23:58 28.05.2020
2425 Clear 31 1011 23 10000 0.95 32 23:39 28.05.2020
2426 Clear 31 1012 20 10000 1.5 310 23:18 28.05.2020
2427 Clear 31 1012 20 10000 1.5 310 22:42 28.05.2020
2428 Clear 31 1012 20 10000 1.5 310 22:24 28.05.2020
2429 Clear 33 1011 19 10000 1.5 350 21:56 28.05.2020
2430 Clear 33 1011 19 10000 1.5 350 21:38 28.05.2020
2431 Clear 33 1011 19 10000 1.5 350 21:19 28.05.2020
2432 Clear 35 1011 14 10000 2.6 30 20:56 28.05.2020
2433 Clear 35 1011 14 10000 2.6 30 20:37 28.05.2020
2434 Clear 35 1011 14 10000 2.6 30 20:18 28.05.2020
2435 Clear 37 1010 10 10000 3.1 30 19:43 28.05.2020
2436 Clear 37 1010 10 10000 3.1 30 19:43 28.05.2020
2437 Clear 37 1010 10 10000 3.1 30 19:21 28.05.2020
2438 Clear 38 1010 10 10000 4.1 30 18:58 28.05.2020
2439 Clear 38 1010 10 10000 4.1 30 18:58 28.05.2020
2440 Clear 38 1010 10 10000 4.1 30 18:40 28.05.2020
2441 Clear 38 1010 9 10000 4.1 30 18:22 28.05.2020
2442 Clear 40 1009 9 10000 4.6 30 17:43 28.05.2020
2443 Clear 40 1009 7 10000 4.6 30 17:22 28.05.2020
2444 Clear 41 1009 7 10000 4.1 40 16:57 28.05.2020
2445 Clear 41 1009 7 10000 4.1 40 16:37 28.05.2020
2446 Clear 41 1009 8 10000 5.1 40 16:19 28.05.2020
2447 Clear 41 1009 8 10000 5.1 40 15:42 28.05.2020
2448 Clear 41 1009 8 10000 5.1 40 15:24 28.05.2020
2449 Clear 44 1010 6 10000 3.1 20 14:55 28.05.2020
2450 Clear 44 1010 6 10000 3.1 20 14:36 28.05.2020
2451 Clear 42 1010 10 10000 2.1 30 14:18 28.05.2020
2452 Clear 42 1010 10 10000 2.1 30 13:40 28.05.2020
2453 Clear 42 1010 10 10000 2.1 30 13:40 28.05.2020
2454 Clear 42 1011 11 10000 2.6 340 13:20 28.05.2020
2455 Clear 42 1011 11 10000 2.6 340 12:42 28.05.2020
2456 Clear 40 1012 12 10000 2.6 10 12:19 28.05.2020
2457 Clear 40 1012 12 10000 2.6 10 11:44 28.05.2020
2458 Clear 40 1012 12 10000 2.6 10 11:25 28.05.2020
2459 Clear 39 1013 12 10000 3.1 360 10:57 28.05.2020
2460 Clear 39 1013 12 10000 3.1 360 10:57 28.05.2020
2461 Clear 39 1013 12 10000 3.1 360 10:57 28.05.2020
2462 Clear 39 1013 12 10000 3.1 360 10:39 28.05.2020
2463 Clear 39 1013 12 10000 3.1 360 10:19 28.05.2020
2464 Clear 38 1013 14 10000 2.6 20 09:39 28.05.2020
2465 Clear 38 1013 14 10000 2.6 20 09:39 28.05.2020
2466 Clear 38 1013 14 10000 2.6 20 09:39 28.05.2020
2467 Clear 38 1013 14 10000 2.6 20 09:20 28.05.2020
2468 Clear 38 1014 17 10000 1.5 340 08:50 28.05.2020
2469 Clear 38 1014 17 10000 1.5 340 08:26 28.05.2020
2470 Clear 34 1013 16 10000 2.6 320 07:45 28.05.2020
2471 Clear 34 1013 16 10000 2.6 320 07:26 28.05.2020
2472 Clear 29 1014 20 10000 2.1 280 06:59 28.05.2020
2473 Clear 29 1014 20 10000 2.1 280 06:37 28.05.2020
2474 Clear 26 1013 27 10000 1 300 05:58 28.05.2020
2475 Clear 26 1013 27 10000 1 300 05:36 28.05.2020
2476 Clear 25 1013 29 10000 1.5 280 04:29 28.05.2020
2477 Clear 26 1013 27 10000 1.5 300 03:46 28.05.2020
2478 Clear 27 1013 21 10000 2.1 300 02:45 28.05.2020
2479 Clear 27 1013 21 10000 2.1 300 01:52 28.05.2020
2480 Clear 28 1013 24 10000 1 300 00:55 28.05.2020
2481 Clear 28 1013 24 10000 1 300 00:28 28.05.2020
2482 Clear 29 1014 23 10000 1.5 320 23:58 27.05.2020
2483 Clear 29 1014 23 10000 1.5 320 23:39 27.05.2020
2484 Clear 29 1014 23 10000 1.5 320 23:21 27.05.2020
2485 Clear 31 1014 22 10000 1 310 22:56 27.05.2020
2486 Clear 31 1014 22 10000 1 310 22:38 27.05.2020
2487 Clear 31 1014 22 10000 1 310 22:19 27.05.2020
2488 Clear 32 1014 21 10000 1.5 360 21:41 27.05.2020
2489 Clear 32 1014 21 10000 1.5 360 21:23 27.05.2020
2490 Clear 33 1014 16 10000 2.1 10 20:59 27.05.2020
2491 Clear 33 1014 16 10000 2.1 10 20:41 27.05.2020
2492 Clear 33 1014 16 10000 2.1 10 20:41 27.05.2020
2493 Clear 33 1014 16 10000 2.1 10 20:21 27.05.2020
2494 Clear 35 1013 13 10000 3.6 30 19:57 27.05.2020
2495 Clear 35 1013 13 10000 3.6 30 19:39 27.05.2020
2496 Clear 35 1013 13 10000 3.6 30 19:39 27.05.2020
2497 Clear 37 1013 12 10000 3.6 40 19:18 27.05.2020
2498 Clear 37 1013 12 10000 3.6 40 18:40 27.05.2020
2499 Clear 39 1013 10 10000 4.1 40 18:19 27.05.2020
2500 Clear 37 1013 12 10000 3.6 40 18:19 27.05.2020
2501 Clear 39 1013 10 10000 4.1 40 17:46 27.05.2020
2502 Clear 39 1013 10 10000 4.1 40 17:46 27.05.2020
2503 Clear 39 1013 10 10000 4.1 40 17:28 27.05.2020
2504 Clear 38 1012 13 10000 4.1 20 16:58 27.05.2020
2505 Clear 38 1012 13 10000 4.1 20 16:39 27.05.2020
2506 Clear 38 1012 13 10000 4.1 20 16:20 27.05.2020
2507 Clear 40 1012 11 10000 3.6 30 15:59 27.05.2020
2508 Clear 40 1012 11 10000 3.6 30 15:39 27.05.2020
2509 Clear 40 1012 11 10000 3.6 30 15:21 27.05.2020
2510 Clear 40 1013 11 10000 3.6 60 14:43 27.05.2020
2511 Clear 40 1013 11 10000 3.6 60 14:21 27.05.2020
2512 Clear 40 1013 11 10000 3.6 30 13:55 27.05.2020
2513 Clear 40 1013 11 10000 3.6 30 13:36 27.05.2020
2514 Clear 39 1014 12 10000 3.6 50 13:18 27.05.2020
2515 Clear 39 1014 12 10000 3.6 50 12:40 27.05.2020
2516 Clear 39 1014 12 10000 3.6 50 12:22 27.05.2020
2517 Clear 39 1015 12 10000 3.1 20 11:39 27.05.2020
2518 Clear 39 1015 12 10000 3.1 20 11:21 27.05.2020
2519 Clear 37 1015 18 10000 2.1 10 10:57 27.05.2020
2520 Clear 37 1015 18 10000 2.1 10 10:57 27.05.2020
2521 Clear 37 1015 18 10000 2.1 10 10:38 27.05.2020
2522 Clear 37 1015 18 10000 2.1 10 10:19 27.05.2020
2523 Clear 36 1016 19 10000 1.5 40 09:41 27.05.2020
2524 Clear 36 1016 19 10000 1.5 40 09:22 27.05.2020
2525 Clear 33 1016 16 9000 3.1 30 08:56 27.05.2020
2526 Clear 33 1016 16 9000 3.1 30 08:36 27.05.2020
2527 Clear 31 1016 18 8000 2.1 360 08:18 27.05.2020
2528 Clear 31 1016 18 8000 2.1 360 07:49 27.05.2020
2529 Clear 31 1016 18 8000 2.1 360 07:30 27.05.2020
2530 Clear 31 1016 18 8000 2.1 360 07:30 27.05.2020
2531 Clear 27 1015 22 10000 2.1 300 06:47 27.05.2020
2532 Clear 27 1015 22 10000 2.1 300 06:20 27.05.2020
2533 Clear 25 1015 29 10000 1.5 300 05:49 27.05.2020
2534 Clear 24 1015 25 10000 2.1 290 04:38 27.05.2020
2535 Clear 26 1015 27 10000 1.5 300 02:32 27.05.2020
2536 Clear 26 1015 27 10000 1 350 01:53 27.05.2020
2537 Clear 26 1015 27 10000 1 350 01:29 27.05.2020
2538 Clear 26 1015 27 10000 1 300 00:46 27.05.2020
2539 Clear 28 1015 28 10000 2.86 43 00:20 27.05.2020
2540 Clear 28 1015 28 10000 2.86 43 23:55 26.05.2020
2541 Clear 28 1015 28 10000 2.86 43 23:37 26.05.2020
2542 Clear 28 1015 28 10000 2.86 43 23:37 26.05.2020
2543 Clear 28 1015 28 10000 3.24 55 23:18 26.05.2020
2544 Clear 28 1015 28 10000 3.24 55 23:18 26.05.2020
2545 Clear 29 1016 25 10000 1 50 22:40 26.05.2020
2546 Clear 29 1016 25 10000 1 50 22:21 26.05.2020
2547 Clear 31 1016 22 10000 1.5 50 21:58 26.05.2020
2548 Clear 31 1016 22 10000 1.5 50 21:40 26.05.2020
2549 Clear 31 1016 22 10000 1.5 50 21:21 26.05.2020
2550 Clear 33 1015 21 10000 2.1 50 20:55 26.05.2020
2551 Clear 33 1015 21 10000 2.1 50 20:37 26.05.2020
2552 Clear 34 1015 15 10000 3.1 60 20:18 26.05.2020
2553 Clear 34 1015 15 10000 3.1 60 19:39 26.05.2020
2554 Clear 35 1014 14 10000 3.6 60 19:20 26.05.2020
2555 Clear 35 1014 14 10000 3.6 60 18:43 26.05.2020
2556 Clear 35 1014 14 10000 3.6 60 18:24 26.05.2020
2557 Clear 37 1014 13 10000 3.6 60 17:59 26.05.2020
2558 Clear 37 1014 13 10000 3.6 60 17:38 26.05.2020
2559 Clear 37 1014 13 10000 3.6 60 17:20 26.05.2020
2560 Clear 38 1014 12 10000 3.1 70 16:45 26.05.2020
2561 Clear 38 1014 12 10000 3.1 50 16:20 26.05.2020
2562 Clear 38 1014 12 10000 3.1 50 15:55 26.05.2020
2563 Clear 38 1014 12 10000 3.1 50 15:37 26.05.2020
2564 Clear 38 1014 13 10000 3.1 50 15:19 26.05.2020
2565 Clear 38 1014 13 10000 3.1 50 14:43 26.05.2020
2566 Clear 38 1014 13 10000 3.1 50 14:23 26.05.2020
2567 Clear 37 1014 14 10000 2.1 70 13:56 26.05.2020
2568 Clear 37 1014 14 10000 2.1 70 13:37 26.05.2020
2569 Clear 37 1014 14 10000 2.1 70 13:18 26.05.2020
2570 Clear 37 1015 16 10000 2.6 60 12:42 26.05.2020
2571 Clear 37 1015 16 10000 2.6 60 12:22 26.05.2020
2572 Clear 35 1015 15 10000 3.1 40 11:58 26.05.2020
2573 Clear 35 1015 15 10000 3.1 40 11:58 26.05.2020
2574 Clear 35 1015 15 10000 3.1 40 11:40 26.05.2020
2575 Clear 34 1016 16 10000 3.6 20 11:18 26.05.2020
2576 Clear 34 1016 16 10000 3.6 20 10:42 26.05.2020
2577 Clear 31 1016 18 10000 4.1 30 10:19 26.05.2020
2578 Clear 31 1016 18 10000 4.1 30 09:40 26.05.2020
2579 Clear 31 1016 18 10000 4.1 30 09:20 26.05.2020
2580 Clear 29 1016 20 10000 4.6 50 08:43 26.05.2020
2581 Clear 29 1016 20 10000 4.6 50 08:43 26.05.2020
2582 Clear 29 1016 20 10000 4.6 50 08:22 26.05.2020
2583 Clear 28 1017 21 8000 5.7 30 07:57 26.05.2020
2584 Clear 28 1017 21 8000 5.7 30 07:37 26.05.2020
2585 Clear 27 1016 32 7000 4.1 20 07:18 26.05.2020
2586 Clear 27 1016 32 7000 4.1 20 06:45 26.05.2020
2587 Clear 27 1016 32 7000 4.1 20 06:19 26.05.2020
2588 Clear 26 1015 36 7000 2.6 20 05:35 26.05.2020
2589 Clear 26 1014 36 6000 3.1 30 04:55 26.05.2020
2590 Clear 26 1014 36 6000 3.1 30 04:34 26.05.2020
2591 Clear 27 1014 36 6000 3.1 30 03:59 26.05.2020
2592 Clear 28 1014 39 6000 3.1 20 02:49 26.05.2020
2593 Clear 29 1013 48 6000 2.6 10 01:49 26.05.2020
2594 Clear 29 1013 48 6000 2.6 10 01:28 26.05.2020
2595 Clear 30 1013 35 6000 2.6 60 00:39 26.05.2020
2596 Clear 30 1013 35 6000 2.6 60 00:19 26.05.2020
2597 Dust 31 1013 29 5000 4.1 80 23:56 25.05.2020
2598 Dust 31 1013 29 5000 4.1 80 23:37 25.05.2020
2599 Dust 32 1013 21 4000 5.1 70 23:18 25.05.2020
2600 Dust 32 1013 21 4000 5.1 70 22:55 25.05.2020
2601 Dust 32 1013 21 4000 5.1 70 22:36 25.05.2020
2602 Dust 32 1013 21 4000 5.1 70 22:18 25.05.2020
2603 Dust 34 1013 13 4000 5.1 60 22:18 25.05.2020
2604 Dust 34 1013 13 4000 5.1 60 21:55 25.05.2020
2605 Dust 34 1013 13 4000 5.1 60 21:36 25.05.2020
2606 Dust 35 1012 11 4000 5.1 60 21:18 25.05.2020
2607 Dust 35 1012 11 4000 5.1 60 20:42 25.05.2020
2608 Dust 35 1012 11 4000 5.1 60 20:22 25.05.2020
2609 Dust 35 1012 11 4000 5.1 60 20:22 25.05.2020
2610 Dust 36 1012 11 3500 5.1 50 19:59 25.05.2020
2611 Dust 36 1012 11 3500 5.1 50 19:40 25.05.2020
2612 Dust 36 1012 11 3500 5.1 50 19:18 25.05.2020
2613 Dust 37 1011 10 5000 5.1 70 18:55 25.05.2020
2614 Dust 37 1011 10 5000 5.1 70 18:36 25.05.2020
2615 Clear 39 1010 15 10000 1.5 130 18:18 25.05.2020
2616 Clear 39 1010 15 10000 1.5 130 17:41 25.05.2020
2617 Clear 39 1010 15 10000 1.5 130 17:23 25.05.2020
2618 Clear 40 1010 11 10000 3.6 70 16:56 25.05.2020
2619 Clear 40 1010 11 10000 3.6 70 16:38 25.05.2020
2620 Clear 40 1010 11 10000 3.6 70 16:19 25.05.2020
2621 Clear 40 1010 11 10000 3.6 70 16:19 25.05.2020
2622 Clear 41 1010 13 8000 2.1 110 15:44 25.05.2020
2623 Clear 41 1011 11 8000 2.1 80 15:19 25.05.2020
2624 Clear 41 1011 11 8000 2.1 80 14:57 25.05.2020
2625 Clear 41 1011 11 8000 2.1 80 14:38 25.05.2020
2626 Clouds 40 1012 15 7000 2.6 190 14:19 25.05.2020
2627 Clouds 40 1012 15 7000 2.6 190 13:39 25.05.2020
2628 Clouds 40 1012 15 7000 2.6 190 13:21 25.05.2020
2629 Dust 40 1013 11 5000 3.6 300 12:57 25.05.2020
2630 Dust 40 1013 11 5000 3.6 300 12:38 25.05.2020
2631 Dust 40 1013 11 5000 3.6 300 12:20 25.05.2020
2632 Dust 40 1013 14 3000 1 120 11:39 25.05.2020
2633 Dust 40 1013 14 3000 1 120 11:20 25.05.2020
2634 Dust 38 1013 10 3000 2.1 300 10:56 25.05.2020
2635 Dust 38 1013 10 3000 2.1 300 10:56 25.05.2020
2636 Dust 38 1013 10 3000 2.1 300 10:37 25.05.2020
2637 Dust 37 1013 13 3000 3.6 290 10:18 25.05.2020
2638 Dust 37 1013 13 3000 3.6 290 09:42 25.05.2020
2639 Dust 37 1013 13 3000 3.6 290 09:20 25.05.2020
2640 Dust 37 1013 11 5000 3.6 270 08:59 25.05.2020
2641 Clear 36 1013 11 10000 3.1 210 08:38 25.05.2020
2642 Clear 34 1012 12 10000 3.6 160 08:20 25.05.2020
2643 Clear 34 1012 12 10000 3.6 160 07:47 25.05.2020
2644 Clear 34 1012 12 10000 3.6 160 07:26 25.05.2020
2645 Clear 31 1011 15 10000 2.1 160 06:56 25.05.2020
2646 Clear 31 1011 15 10000 2.1 160 06:35 25.05.2020
2647 Clear 28 1010 13 10000 2.1 130 05:20 25.05.2020
2648 Clear 29 1009 20 10000 2.1 150 03:25 25.05.2020
2649 Clear 29 1009 20 10000 2.1 150 02:46 25.05.2020
2650 Clear 29 1009 20 10000 1.5 150 01:59 25.05.2020
2651 Clear 29 1009 20 10000 1.5 150 01:40 25.05.2020
2652 Clear 29 1009 20 10000 1.5 150 00:45 25.05.2020
2653 Clear 29 1009 20 10000 1.5 150 00:23 25.05.2020
2654 Clear 30 1010 20 10000 1 150 23:57 24.05.2020
2655 Clear 30 1010 20 10000 1 150 23:38 24.05.2020
2656 Clear 30 1010 20 10000 1 150 23:19 24.05.2020
2657 Clear 32 1010 17 10000 1.5 150 22:41 24.05.2020
2658 Clear 32 1010 18 10000 2.1 160 22:19 24.05.2020
2659 Clear 32 1010 18 10000 2.1 160 21:58 24.05.2020
2660 Clear 32 1010 18 10000 2.1 160 21:40 24.05.2020
2661 Clear 32 1010 18 10000 2.1 160 21:21 24.05.2020
2662 Clear 34 1010 16 10000 1.5 140 20:57 24.05.2020
2663 Clear 34 1010 16 10000 1.5 140 20:57 24.05.2020
2664 Clear 34 1010 16 10000 1.5 140 20:38 24.05.2020
2665 Clear 36 1009 11 10000 2.6 100 20:18 24.05.2020
2666 Clear 36 1009 11 10000 2.6 100 19:55 24.05.2020
2667 Clear 36 1009 11 10000 2.6 100 19:36 24.05.2020
2668 Clear 37 1009 16 10000 2.1 100 19:18 24.05.2020
2669 Clear 37 1009 16 10000 2.1 100 18:41 24.05.2020
2670 Clear 37 1009 16 10000 2.1 100 18:23 24.05.2020
2671 Clear 39 1008 10 10000 2.6 80 17:56 24.05.2020
2672 Clear 39 1008 10 10000 2.6 80 17:37 24.05.2020
2673 Clear 40 1008 14 10000 2.1 110 17:19 24.05.2020
2674 Clear 40 1008 14 10000 2.1 110 16:39 24.05.2020
2675 Clear 40 1008 14 10000 2.1 110 16:21 24.05.2020
2676 Clear 41 1008 13 10000 1.5 270 15:59 24.05.2020
2677 Clear 41 1008 13 10000 1.5 270 15:40 24.05.2020
2678 Clear 41 1008 13 10000 1.5 270 15:20 24.05.2020
2679 Clear 41 1009 10 10000 2.6 200 14:55 24.05.2020
2680 Clear 41 1009 10 10000 2.6 200 14:37 24.05.2020
2681 Clear 41 1010 10 10000 2.6 200 14:18 24.05.2020
2682 Clear 41 1010 10 10000 2.6 200 13:55 24.05.2020
2683 Clear 41 1010 10 10000 2.6 200 13:36 24.05.2020
2684 Clear 41 1010 10 10000 2.6 200 13:36 24.05.2020
2685 Clear 41 1010 10 10000 2.6 200 13:36 24.05.2020
2686 Clear 42 1010 13 10000 1.5 280 13:18 24.05.2020
2687 Clear 42 1010 13 10000 1.5 280 12:54 24.05.2020
2688 Clear 42 1010 13 10000 1.5 280 12:36 24.05.2020
2689 Clear 42 1010 13 10000 1.5 280 12:36 24.05.2020
2690 Clear 40 1011 10 10000 3.1 240 12:18 24.05.2020
2691 Clear 40 1011 10 10000 3.1 240 11:42 24.05.2020
2692 Clear 40 1011 10 10000 3.1 240 11:23 24.05.2020
2693 Clear 40 1011 8 10000 4.1 190 10:59 24.05.2020
2694 Clear 40 1011 8 10000 4.1 190 10:40 24.05.2020
2695 Clear 40 1011 8 10000 4.1 190 10:22 24.05.2020
2696 Clear 38 1011 9 10000 5.1 180 09:55 24.05.2020
2697 Clear 38 1011 9 10000 5.1 180 09:37 24.05.2020
2698 Clear 37 1012 11 10000 4.1 190 09:18 24.05.2020
2699 Clear 37 1012 11 10000 4.1 190 08:40 24.05.2020
2700 Clear 37 1012 11 10000 4.1 190 08:22 24.05.2020
2701 Clear 34 1011 18 10000 1.5 170 07:54 24.05.2020
2702 Clear 34 1011 18 10000 1.5 170 07:36 24.05.2020
2703 Clear 29 1011 25 10000 1 110 07:18 24.05.2020
2704 Clear 29 1011 25 10000 1 110 06:38 24.05.2020
2705 Clear 26 1011 24 10000 1.5 200 05:43 24.05.2020
2706 Clear 25 1010 25 10000 1 230 03:46 24.05.2020
2707 Clear 26 1010 27 10000 2.39 134 02:52 24.05.2020
2708 Clear 26 1010 27 10000 1.96 139 02:18 24.05.2020
2709 Clear 27 1011 24 10000 1 310 00:44 24.05.2020
2710 Clear 27 1011 24 10000 1 310 00:25 24.05.2020
2711 Clear 27 1011 26 10000 1.9 151 23:59 23.05.2020
2712 Clear 27 1011 26 10000 1.9 151 23:36 23.05.2020
2713 Clear 29 1011 25 10000 2.05 133 23:18 23.05.2020
2714 Clear 29 1011 25 10000 2.05 133 22:55 23.05.2020
2715 Clear 29 1011 25 10000 2.05 133 22:37 23.05.2020
2716 Clear 31 1011 23 10000 1.74 124 22:18 23.05.2020
2717 Clear 31 1011 23 10000 1.74 124 21:42 23.05.2020
2718 Clear 31 1011 23 10000 1.7 103 21:21 23.05.2020
2719 Clear 33 1011 19 10000 1 110 20:59 23.05.2020
2720 Clear 33 1011 19 10000 1 110 20:39 23.05.2020
2721 Clear 35 1010 13 10000 2.1 100 20:19 23.05.2020
2722 Clear 35 1010 13 10000 2.1 100 19:55 23.05.2020
2723 Clear 35 1010 13 10000 2.1 100 19:37 23.05.2020
2724 Clear 37 1010 16 10000 1.5 60 19:18 23.05.2020
2725 Clear 37 1010 16 10000 1.5 60 18:41 23.05.2020
2726 Clear 37 1010 16 10000 1.5 60 18:22 23.05.2020
2727 Clear 39 1010 15 10000 1 30 17:58 23.05.2020
2728 Clear 39 1010 15 10000 1 30 17:58 23.05.2020
2729 Clear 39 1010 15 10000 1 30 17:40 23.05.2020
2730 Clear 40 1010 15 10000 1.5 360 17:20 23.05.2020
2731 Clear 40 1010 15 10000 1.5 360 16:59 23.05.2020
2732 Clear 40 1010 15 10000 1.5 360 16:40 23.05.2020
2733 Clear 40 1010 15 10000 1.5 360 16:20 23.05.2020
2734 Clear 40 1010 11 10000 2.1 100 15:44 23.05.2020
2735 Clear 40 1010 11 10000 2.1 100 15:24 23.05.2020
2736 Clear 40 1010 11 10000 2.1 100 15:24 23.05.2020
2737 Clear 40 1010 11 10000 3.1 270 14:59 23.05.2020
2738 Clear 40 1010 11 10000 3.1 270 14:41 23.05.2020
2739 Clear 40 1010 11 10000 3.1 270 14:22 23.05.2020
2740 Clear 39 1011 9 10000 6.2 20 13:42 23.05.2020
2741 Clear 39 1012 10 10000 3.1 70 13:19 23.05.2020
2742 Clear 39 1012 10 10000 3.1 70 12:57 23.05.2020
2743 Clear 39 1012 10 10000 3.1 70 12:57 23.05.2020
2744 Clear 39 1012 10 10000 3.1 70 12:39 23.05.2020
2745 Clear 39 1012 10 10000 3.1 70 12:19 23.05.2020
2746 Clear 40 1013 8 10000 5.1 310 11:43 23.05.2020
2747 Clear 40 1013 8 10000 5.1 310 11:22 23.05.2020
2748 Clear 39 1013 16 10000 1.5 200 10:58 23.05.2020
2749 Clear 39 1013 16 10000 1.5 200 10:39 23.05.2020
2750 Clear 39 1013 16 10000 1.5 200 10:20 23.05.2020
2751 Clear 37 1013 16 10000 2.1 200 09:59 23.05.2020
2752 Clear 37 1013 16 10000 2.1 200 09:59 23.05.2020
2753 Clear 37 1013 16 10000 2.1 200 09:40 23.05.2020
2754 Clear 37 1013 16 10000 2.1 200 09:21 23.05.2020
2755 Clear 35 1014 21 10000 1 230 08:44 23.05.2020
2756 Clear 35 1014 21 10000 1 230 08:20 23.05.2020
2757 Clear 32 1014 19 10000 1.5 310 07:59 23.05.2020
2758 Clear 32 1014 19 10000 1.5 310 07:39 23.05.2020
2759 Clear 32 1014 19 10000 1.5 310 07:21 23.05.2020
2760 Clear 27 1013 22 10000 1.5 320 06:39 23.05.2020
2761 Clear 24 1013 23 10000 1.5 300 05:34 23.05.2020
2762 Clear 24 1012 23 10000 1.5 310 03:43 23.05.2020
2763 Clear 25 1012 22 10000 1.5 270 02:59 23.05.2020
2764 Clear 25 1012 22 10000 1 270 01:58 23.05.2020
2765 Clear 25 1012 22 10000 1 270 01:26 23.05.2020
2766 Clear 27 1012 19 10000 1.5 300 00:47 23.05.2020
2767 Clear 27 1012 19 10000 1.5 300 00:29 23.05.2020
2768 Clear 28 1012 15 10000 2.6 290 23:58 22.05.2020
2769 Clear 28 1012 15 10000 2.6 290 23:39 22.05.2020
2770 Clear 28 1012 15 10000 2.6 290 23:39 22.05.2020
2771 Clear 29 1012 21 10000 4.2 16 23:19 22.05.2020
2772 Clear 29 1012 21 10000 4.2 16 22:55 22.05.2020
2773 Clear 29 1012 21 10000 4.2 16 22:36 22.05.2020
2774 Clear 31 1012 20 10000 3.93 358 22:18 22.05.2020
2775 Clear 31 1012 20 10000 3.93 358 22:18 22.05.2020
2776 Clear 29 1012 21 10000 3.93 358 22:18 22.05.2020
2777 Clear 31 1012 20 10000 3.93 358 21:42 22.05.2020
2778 Clear 32 1012 10 10000 2.1 320 21:21 22.05.2020
2779 Clear 32 1012 10 10000 2.1 320 20:46 22.05.2020
2780 Clouds 32 1012 9 10000 2.1 320 20:21 22.05.2020
2781 Clouds 33 1011 9 10000 2.1 340 19:59 22.05.2020
2782 Clouds 33 1011 9 10000 2.1 340 19:40 22.05.2020
2783 Clouds 33 1011 9 10000 2.1 340 19:22 22.05.2020
2784 Clouds 36 1011 9 10000 2.6 350 18:39 22.05.2020
2785 Clouds 39 1010 7 10000 4.1 340 18:21 22.05.2020
2786 Clouds 39 1010 7 10000 4.1 340 17:57 22.05.2020
2787 Clouds 39 1010 7 10000 4.1 340 17:37 22.05.2020
2788 Clouds 39 1010 7 10000 4.1 340 17:18 22.05.2020
2789 Clouds 40 1010 8 10000 2.6 320 17:18 22.05.2020
2790 Clouds 40 1010 8 10000 2.6 320 16:43 22.05.2020
2791 Clouds 40 1010 8 10000 2.6 320 16:20 22.05.2020
2792 Clouds 40 1010 7 10000 4.1 350 15:59 22.05.2020
2793 Clouds 40 1010 7 10000 4.1 350 15:59 22.05.2020
2794 Clouds 40 1010 7 10000 4.1 350 15:40 22.05.2020
2795 Clouds 40 1010 7 10000 4.1 350 15:40 22.05.2020
2796 Clouds 40 1010 7 10000 4.1 350 15:19 22.05.2020
2797 Clouds 39 1010 7 10000 5.1 300 14:43 22.05.2020
2798 Clouds 40 1011 6 10000 5.7 330 14:24 22.05.2020
2799 Clouds 40 1011 6 10000 5.7 330 13:46 22.05.2020
2800 Clouds 39 1012 7 10000 5.1 300 13:20 22.05.2020
2801 Clouds 39 1012 7 10000 5.1 300 12:54 22.05.2020
2802 Clouds 39 1012 7 10000 5.1 300 12:36 22.05.2020
2803 Clouds 39 1013 10 10000 2.6 330 12:18 22.05.2020
2804 Clouds 39 1013 10 10000 2.6 330 11:42 22.05.2020
2805 Clouds 39 1013 10 10000 2.6 330 11:42 22.05.2020
2806 Clouds 39 1013 10 10000 2.6 330 11:20 22.05.2020
2807 Clouds 39 1013 10 10000 2.6 340 10:55 22.05.2020
2808 Clouds 39 1013 10 10000 2.6 340 10:36 22.05.2020
2809 Clouds 37 1013 16 10000 2.1 320 10:18 22.05.2020
2810 Clouds 37 1013 16 10000 2.1 320 09:41 22.05.2020
2811 Clouds 36 1013 16 10000 1.5 350 09:19 22.05.2020
2812 Clouds 36 1013 16 10000 1.5 350 08:44 22.05.2020
2813 Clouds 32 1013 14 10000 2.6 310 08:21 22.05.2020
2814 Clouds 36 1013 16 10000 1.5 350 08:21 22.05.2020
2815 Clouds 32 1013 14 10000 2.6 310 07:57 22.05.2020
2816 Clouds 32 1013 14 10000 2.6 310 07:27 22.05.2020
2817 Clear 27 1012 18 10000 2.1 310 06:58 22.05.2020
2818 Clear 27 1012 18 10000 2.1 310 06:36 22.05.2020
2819 Clear 23 1012 25 10000 2.1 350 05:40 22.05.2020
2820 Clear 22 1011 26 10000 1 340 04:51 22.05.2020
2821 Clear 22 1011 26 10000 1 340 04:28 22.05.2020
2822 Clear 24 1011 23 10000 1 330 03:47 22.05.2020
2823 Clear 26 1011 16 10000 2.6 290 02:59 22.05.2020
2824 Clear 26 1011 15 10000 3.1 280 01:56 22.05.2020
2825 Clear 26 1011 15 10000 3.1 280 01:28 22.05.2020
2826 Clear 26 1011 13 10000 2.1 290 00:48 22.05.2020
2827 Clear 26 1011 12 10000 2.1 290 00:28 22.05.2020
2828 Clear 27 1011 12 10000 2.1 290 23:43 21.05.2020
2829 Clear 27 1011 12 10000 2.1 290 23:25 21.05.2020
2830 Clear 29 1011 20 10000 1.5 290 22:58 21.05.2020
2831 Clear 29 1011 20 10000 1.5 290 22:58 21.05.2020
2832 Clear 29 1011 20 10000 1.5 290 22:38 21.05.2020
2833 Clear 29 1011 20 10000 1.5 290 22:20 21.05.2020
2834 Clear 30 1011 19 10000 1 310 21:58 21.05.2020
2835 Clear 30 1011 19 10000 1 310 21:39 21.05.2020
2836 Clear 30 1011 19 10000 1 310 21:19 21.05.2020
2837 Clear 32 1011 13 10000 1.5 350 20:43 21.05.2020
2838 Clear 32 1011 13 10000 1.5 350 20:22 21.05.2020
2839 Clear 34 1010 12 10000 2.6 360 19:55 21.05.2020
2840 Clear 34 1010 12 10000 2.6 360 19:36 21.05.2020
2841 Clear 36 1010 8 10000 4.1 350 19:18 21.05.2020
2842 Clear 36 1010 8 10000 4.1 350 18:39 21.05.2020
2843 Clear 39 1009 8 10000 4.6 350 18:19 21.05.2020
2844 Clear 39 1009 8 10000 4.6 350 17:57 21.05.2020
2845 Clear 39 1009 8 10000 4.6 350 17:39 21.05.2020
2846 Clear 40 1009 7 10000 6.7 330 17:21 21.05.2020
2847 Clear 40 1009 7 10000 6.7 330 16:45 21.05.2020
2848 Clear 40 1009 7 10000 6.7 330 16:23 21.05.2020
2849 Clear 41 1009 8 10000 5.7 330 15:45 21.05.2020
2850 Clear 41 1009 7 10000 5.7 330 15:24 21.05.2020
2851 Clear 41 1010 7 10000 5.7 320 14:56 21.05.2020
2852 Clear 41 1010 7 10000 5.7 320 14:36 21.05.2020
2853 Clear 41 1010 7 10000 5.7 320 14:18 21.05.2020
2854 Clear 41 1010 8 10000 4.6 340 13:39 21.05.2020
2855 Clear 41 1010 8 10000 4.6 340 13:39 21.05.2020
2856 Clear 41 1010 8 10000 4.6 340 13:21 21.05.2020
2857 Clear 40 1011 8 10000 5.1 320 12:55 21.05.2020
2858 Clear 40 1011 8 10000 5.1 320 12:36 21.05.2020
2859 Clear 40 1012 11 10000 2.1 10 12:18 21.05.2020
2860 Clear 40 1012 11 10000 2.1 10 11:40 21.05.2020
2861 Clear 40 1012 11 10000 2.1 10 11:22 21.05.2020
2862 Clear 39 1012 11 10000 3.1 350 10:55 21.05.2020
2863 Clear 39 1012 11 10000 3.1 350 10:37 21.05.2020
2864 Clear 39 1012 11 10000 3.6 340 10:18 21.05.2020
2865 Clear 39 1012 11 10000 3.6 340 09:42 21.05.2020
2866 Clear 39 1012 11 10000 3.6 340 09:24 21.05.2020
2867 Clear 37 1012 13 10000 2.6 340 08:58 21.05.2020
2868 Clear 37 1012 13 10000 2.6 340 08:39 21.05.2020
2869 Clear 37 1012 13 10000 2.6 340 08:21 21.05.2020
2870 Clear 33 1012 15 10000 2.6 310 07:43 21.05.2020
2871 Clear 33 1012 15 10000 2.6 310 07:22 21.05.2020
2872 Clear 29 1011 23 10000 1.5 310 06:44 21.05.2020
2873 Clear 26 1011 22 10000 2.6 300 05:50 21.05.2020
2874 Clear 26 1011 26 10000 1.5 300 04:25 21.05.2020
2875 Clear 26 1010 27 10000 1.22 271 03:21 21.05.2020
2876 Clear 26 1010 27 10000 1.22 271 03:21 21.05.2020
2877 Clear 26 1010 27 10000 1.22 271 03:21 21.05.2020
2878 Clear 26 1010 27 10000 1.22 271 03:21 21.05.2020
2879 Clear 26 1010 27 10000 1.22 271 03:21 21.05.2020
2880 Clear 28 1010 28 10000 1.9 260 02:31 21.05.2020
2881 Clear 29 1009 21 10000 2.6 310 01:52 21.05.2020
2882 Clear 29 1009 21 10000 2.6 310 01:24 21.05.2020
2883 Clear 30 1010 28 10000 2.92 202 00:59 21.05.2020
2884 Clear 30 1010 28 10000 2.92 202 00:41 21.05.2020
2885 Clear 30 1010 25 10000 2.1 90 00:19 21.05.2020
2886 Clear 30 1010 25 10000 2.1 90 00:19 21.05.2020
2887 Clear 30 1010 25 10000 2.1 90 23:40 20.05.2020
2888 Clear 30 1010 25 10000 2.1 90 23:19 20.05.2020
2889 Clear 30 1010 27 10000 4.16 174 22:55 20.05.2020
2890 Clear 30 1010 27 10000 4.16 174 22:55 20.05.2020
2891 Clear 30 1010 27 10000 4.16 174 22:36 20.05.2020
2892 Clear 32 1010 22 10000 1.5 30 22:18 20.05.2020
2893 Clear 32 1010 22 10000 1.5 30 21:39 20.05.2020
2894 Clear 33 1009 17 10000 2.6 350 21:20 20.05.2020
2895 Clear 33 1009 17 10000 2.6 350 20:44 20.05.2020
2896 Clouds 33 1009 17 10000 2.6 350 20:24 20.05.2020
2897 Clouds 35 1009 15 10000 2.6 10 19:44 20.05.2020
2898 Clouds 35 1009 15 10000 2.6 10 19:25 20.05.2020
2899 Clouds 36 1008 15 10000 2.6 340 18:59 20.05.2020
2900 Clouds 36 1008 15 10000 2.6 340 18:41 20.05.2020
2901 Clouds 36 1008 15 10000 2.6 340 18:21 20.05.2020
2902 Clouds 38 1008 12 10000 4.1 360 17:40 20.05.2020
2903 Clouds 39 1007 12 10000 3.1 360 17:22 20.05.2020
2904 Clouds 39 1007 12 10000 3.1 360 16:55 20.05.2020
2905 Clouds 39 1007 12 10000 3.1 360 16:37 20.05.2020
2906 Clouds 39 1008 14 10000 2.6 10 16:18 20.05.2020
2907 Clouds 39 1008 14 10000 2.6 10 15:42 20.05.2020
2908 Clouds 39 1008 14 10000 2.6 10 15:23 20.05.2020
2909 Clouds 40 1008 17 10000 1.5 360 14:44 20.05.2020
2910 Clouds 40 1008 17 10000 1.5 360 14:22 20.05.2020
2911 Clouds 39 1008 15 10000 2.6 260 13:55 20.05.2020
2912 Clouds 39 1008 15 10000 2.6 260 13:36 20.05.2020
2913 Clouds 40 1009 12 10000 4.1 340 13:18 20.05.2020
2914 Clouds 40 1009 12 10000 4.1 340 12:41 20.05.2020
2915 Clouds 40 1009 12 10000 4.1 340 12:20 20.05.2020
2916 Clouds 39 1010 18 10000 1.5 10 11:37 20.05.2020
2917 Clouds 39 1010 18 10000 1.5 10 11:19 20.05.2020
2918 Clouds 38 1010 14 8000 1 120 10:44 20.05.2020
2919 Clouds 38 1010 14 8000 1 120 10:22 20.05.2020
2920 Clouds 37 1011 18 8000 2.1 280 09:46 20.05.2020
2921 Clear 37 1011 18 8000 2.1 280 09:23 20.05.2020
2922 Clear 35 1011 20 7000 2.6 270 08:59 20.05.2020
2923 Clear 35 1011 20 7000 2.6 270 08:41 20.05.2020
2924 Clouds 35 1011 24 6000 3.88 251 08:19 20.05.2020
2925 Clouds 35 1011 24 6000 3.88 251 07:49 20.05.2020
2926 Clouds 35 1011 24 6000 3.83 233 07:22 20.05.2020
2927 Clouds 30 1010 30 6000 3.83 233 06:46 20.05.2020
2928 Clouds 27 1010 34 6000 2.58 219 05:52 20.05.2020
2929 Clouds 27 1010 34 10000 1.28 223 04:37 20.05.2020
2930 Clouds 30 1009 23 10000 3.1 230 03:54 20.05.2020
2931 Clouds 30 1009 23 10000 3.1 230 03:25 20.05.2020
2932 Clouds 30 1009 27 8000 2.1 230 01:33 20.05.2020
2933 Clouds 30 1010 23 8000 3.1 280 00:46 20.05.2020
2934 Clouds 30 1010 23 8000 3.1 280 00:25 20.05.2020
2935 Clouds 30 1010 23 8000 3.1 280 23:47 19.05.2020
2936 Clouds 30 1010 23 8000 3.1 280 23:22 19.05.2020
2937 Clouds 31 1011 25 8000 2.1 280 22:58 19.05.2020
2938 Clouds 31 1011 25 8000 2.1 280 22:39 19.05.2020
2939 Clouds 32 1011 21 10000 2.1 360 22:20 19.05.2020
2940 Clouds 32 1011 21 10000 2.1 360 21:59 19.05.2020
2941 Clouds 32 1011 21 10000 2.1 360 21:40 19.05.2020
2942 Clouds 34 1011 16 10000 3.6 350 21:22 19.05.2020
2943 Clouds 34 1011 16 10000 3.6 350 20:59 19.05.2020
2944 Clouds 34 1011 16 10000 3.6 350 20:59 19.05.2020
2945 Clouds 34 1011 16 10000 3.6 350 20:40 19.05.2020
2946 Clouds 34 1011 16 10000 3.6 350 20:22 19.05.2020
2947 Clouds 35 1010 20 10000 1.5 330 19:59 19.05.2020
2948 Clouds 35 1010 20 10000 1.5 330 19:37 19.05.2020
2949 Clouds 36 1009 15 10000 3.1 280 19:19 19.05.2020
2950 Clouds 36 1009 15 10000 3.1 280 18:43 19.05.2020
2951 Clouds 36 1009 15 10000 3.1 280 18:22 19.05.2020
2952 Clouds 37 1009 13 10000 4.1 350 17:56 19.05.2020
2953 Clouds 37 1009 13 10000 4.1 350 17:38 19.05.2020
2954 Clouds 38 1009 14 10000 3.6 310 17:18 19.05.2020
2955 Clouds 38 1009 14 10000 3.6 310 16:40 19.05.2020
2956 Clouds 38 1009 14 10000 3.6 310 16:21 19.05.2020
2957 Clouds 38 1009 13 10000 3.1 10 15:56 19.05.2020
2958 Clouds 38 1009 13 10000 3.1 10 15:37 19.05.2020
2959 Clouds 38 1009 13 10000 3.1 10 15:19 19.05.2020
2960 Clouds 40 1010 11 10000 3.6 340 14:43 19.05.2020
2961 Clouds 40 1010 11 10000 3.6 340 14:21 19.05.2020
2962 Clouds 38 1010 13 10000 2.1 10 13:59 19.05.2020
2963 Clouds 38 1010 13 10000 2.1 10 13:40 19.05.2020
2964 Clouds 38 1011 14 10000 2.6 280 13:22 19.05.2020
2965 Clouds 38 1011 14 10000 2.6 280 12:59 19.05.2020
2966 Clouds 38 1011 14 10000 2.6 280 12:40 19.05.2020
2967 Clouds 38 1011 14 10000 2.6 280 12:22 19.05.2020
2968 Clouds 39 1011 13 10000 2.1 260 11:58 19.05.2020
2969 Clouds 39 1011 13 10000 2.1 260 11:39 19.05.2020
2970 Clouds 39 1011 13 10000 2.1 260 11:21 19.05.2020
2971 Clouds 37 1012 14 10000 2.6 320 10:46 19.05.2020
2972 Clouds 37 1012 14 10000 2.6 320 10:28 19.05.2020
2973 Clouds 36 1013 14 10000 3.6 300 09:58 19.05.2020
2974 Clouds 36 1013 14 10000 3.6 300 09:40 19.05.2020
2975 Clouds 34 1012 18 9000 2.6 310 09:20 19.05.2020
2976 Clouds 34 1012 18 9000 2.6 310 08:43 19.05.2020
2977 Clouds 32 1012 22 7000 3.1 280 08:23 19.05.2020
2978 Clouds 32 1012 22 7000 3.1 280 07:44 19.05.2020
2979 Clouds 32 1012 22 7000 3.1 280 07:26 19.05.2020
2980 Dust 30 1012 23 5000 3.1 290 06:50 19.05.2020
2981 Dust 30 1012 23 5000 3.1 290 06:25 19.05.2020
2982 Dust 28 1012 23 5000 2.1 290 05:41 19.05.2020
2983 Clouds 28 1011 20 10000 3.1 280 04:56 19.05.2020
2984 Clouds 28 1011 20 10000 3.1 280 04:18 19.05.2020
2985 Clouds 29 1011 18 10000 2.1 280 01:30 19.05.2020
2986 Clouds 30 1012 17 10000 2.6 250 00:43 19.05.2020
2987 Clouds 30 1012 17 10000 2.6 250 00:22 19.05.2020
2988 Clouds 30 1011 22 10000 1.5 20 23:56 18.05.2020
2989 Clouds 30 1011 22 10000 1.5 20 23:38 18.05.2020
2990 Clouds 30 1012 16 10000 2.1 360 23:19 18.05.2020
2991 Clouds 30 1012 16 10000 2.1 360 22:40 18.05.2020
2992 Clouds 30 1012 16 10000 2.1 360 22:21 18.05.2020
2993 Clouds 32 1011 19 10000 1 360 21:54 18.05.2020
2994 Clouds 32 1011 19 10000 1 360 21:36 18.05.2020
2995 Clouds 32 1011 19 10000 1 360 21:18 18.05.2020
2996 Clouds 34 1011 15 10000 2.6 30 20:42 18.05.2020
2997 Clouds 36 1011 11 10000 4.6 20 20:22 18.05.2020
2998 Clouds 36 1011 11 10000 4.6 20 19:57 18.05.2020
2999 Clouds 36 1011 11 10000 4.6 20 19:39 18.05.2020
3000 Clouds 37 1010 12 10000 4.1 350 19:19 18.05.2020
3001 Clouds 37 1010 12 10000 4.1 350 18:45 18.05.2020
3002 Clouds 39 1010 10 10000 4.6 350 18:24 18.05.2020
3003 Clouds 39 1010 10 10000 4.6 350 17:41 18.05.2020
3004 Clouds 39 1010 10 10000 4.6 350 17:18 18.05.2020
3005 Clouds 39 1010 10 10000 5.7 330 16:59 18.05.2020
3006 Clouds 39 1010 10 10000 5.7 330 16:40 18.05.2020
3007 Clouds 39 1010 10 10000 5.7 330 16:20 18.05.2020
3008 Clouds 41 1010 9 10000 4.6 350 15:57 18.05.2020
3009 -273 0 0 0 0 0 15:39 18.05.2020
3010 Clouds 41 1010 10 10000 3.1 330 15:20 18.05.2020
3011 Clouds 41 1010 10 10000 3.1 330 14:55 18.05.2020
3012 Clouds 41 1010 10 10000 3.1 330 14:37 18.05.2020
3013 Clouds 41 1011 9 10000 4.1 350 14:19 18.05.2020
3014 Clouds 41 1011 9 10000 4.1 350 13:40 18.05.2020
3015 Clouds 41 1011 9 10000 4.1 350 13:20 18.05.2020
3016 Clouds 40 1012 10 10000 5.1 360 12:58 18.05.2020
3017 Clouds 40 1012 10 10000 5.1 360 12:39 18.05.2020
3018 Clouds 40 1012 10 10000 5.1 360 12:19 18.05.2020
3019 Clouds 40 1012 12 10000 2.1 360 11:47 18.05.2020
3020 Clouds 40 1012 12 10000 2.1 360 11:27 18.05.2020
3021 Clouds 41 1013 15 10000 1.5 360 10:59 18.05.2020
3022 Clouds 41 1013 15 10000 1.5 360 10:40 18.05.2020
3023 Clouds 41 1013 15 10000 1.5 360 10:22 18.05.2020
3024 Clouds 37 1013 13 10000 2.1 200 09:44 18.05.2020
3025 Clouds 37 1013 13 10000 2.1 200 09:25 18.05.2020
3026 Clouds 36 1013 18 10000 1.5 170 08:45 18.05.2020
3027 Clouds 36 1013 18 10000 1.5 170 08:27 18.05.2020
3028 Clouds 33 1013 24 10000 1 220 07:55 18.05.2020
3029 Clouds 33 1013 24 10000 1 220 07:27 18.05.2020
3030 Clouds 28 1013 28 10000 1 290 06:54 18.05.2020
3031 Clouds 28 1013 28 10000 1 290 06:34 18.05.2020
3032 Clouds 24 1013 29 10000 1.5 310 05:49 18.05.2020
3033 Clouds 24 1013 29 10000 1.5 310 05:21 18.05.2020
3034 Clear 24 1012 31 10000 2.01 135 03:31 18.05.2020
3035 Clear 25 1012 31 10000 2.05 104 02:22 18.05.2020
3036 Clear 27 1012 28 10000 2.33 91 00:55 18.05.2020
3037 Clear 27 1012 28 10000 2.54 87 00:25 18.05.2020
3038 Clear 29 1012 26 10000 2.54 87 23:57 17.05.2020
3039 Clear 29 1012 26 10000 2.54 87 23:39 17.05.2020
3040 Clear 29 1012 26 10000 2.75 86 23:20 17.05.2020
3041 Clear 30 1013 25 10000 2.75 86 22:56 17.05.2020
3042 Clear 30 1013 25 10000 2.75 86 22:37 17.05.2020
3043 Clear 32 1013 21 10000 1.5 60 22:19 17.05.2020
3044 Clear 32 1013 21 10000 1.5 60 21:55 17.05.2020
3045 Clear 32 1013 21 10000 1.5 60 21:36 17.05.2020
3046 Clear 33 1013 16 10000 2.1 60 21:18 17.05.2020
3047 Clear 33 1013 16 10000 2.1 60 20:41 17.05.2020
3048 Clear 33 1013 16 10000 2.1 60 20:20 17.05.2020
3049 Clear 34 1012 18 10000 2.1 50 19:56 17.05.2020
3050 Clear 34 1012 18 10000 2.1 50 19:37 17.05.2020
3051 Clear 34 1012 18 10000 2.1 50 19:19 17.05.2020
3052 Clear 36 1011 12 10000 3.1 30 18:41 17.05.2020
3053 Clear 36 1011 12 10000 3.1 30 18:23 17.05.2020
3054 Clear 39 1011 11 10000 3.1 350 17:58 17.05.2020
3055 Clear 39 1011 11 10000 3.1 350 17:39 17.05.2020
3056 Clear 39 1011 11 10000 3.1 350 17:18 17.05.2020
3057 Clear 40 1011 10 10000 4.6 330 16:40 17.05.2020
3058 Clear 40 1011 10 10000 4.6 330 16:20 17.05.2020
3059 Clear 40 1011 10 10000 2.6 300 15:58 17.05.2020
3060 Clear 40 1011 10 10000 2.6 300 15:39 17.05.2020
3061 Clear 40 1011 10 10000 2.6 300 15:20 17.05.2020
3062 Clear 40 1011 11 10000 2.6 10 14:43 17.05.2020
3063 Clear 40 1011 11 10000 2.6 10 14:24 17.05.2020
3064 Clear 40 1012 12 10000 2.1 360 13:58 17.05.2020
3065 Clear 40 1012 12 10000 2.1 360 13:40 17.05.2020
3066 Clear 40 1012 12 10000 2.1 360 13:19 17.05.2020
3067 Clear 25 1013 27 10000 2.1 280 04:41 17.05.2020
3068 Clear 25 1012 31 10000 2.13 99 02:39 17.05.2020
3069 Clear 25 1012 31 10000 2.28 54 02:19 17.05.2020
3070 Clear 27 1012 26 10000 1.5 180 01:44 17.05.2020
3071 Clear 27 1012 28 10000 3.44 8 00:40 17.05.2020
3072 Clear 28 1012 28 10000 3.6 346 00:19 17.05.2020
3073 Clear 28 1012 28 10000 3.6 346 23:40 16.05.2020
3074 Clouds 30 1012 25 10000 2.99 42 23:20 16.05.2020
3075 Clouds 30 1012 25 10000 2.99 42 22:58 16.05.2020
3076 Clouds 30 1012 25 10000 2.99 42 22:40 16.05.2020
3077 Clouds 30 1012 25 10000 2.99 40 22:20 16.05.2020
3078 Clouds 31 1013 22 10000 1.5 40 21:46 16.05.2020
3079 Clouds 31 1013 22 10000 1.5 40 21:46 16.05.2020
3080 Clear 31 1013 22 10000 1.5 40 21:27 16.05.2020
3081 Clouds 33 1012 19 10000 1.5 60 20:59 16.05.2020
3082 Clouds 33 1012 19 10000 1.5 60 20:41 16.05.2020
3083 Clouds 33 1012 19 10000 1.5 60 20:21 16.05.2020
3084 Clouds 34 1012 18 10000 1.5 50 19:58 16.05.2020
3085 Clouds 34 1012 18 10000 1.5 50 19:39 16.05.2020
3086 Clouds 34 1012 18 10000 1.5 50 19:21 16.05.2020
3087 Clouds 36 1012 13 10000 2.6 20 18:42 16.05.2020
3088 Clouds 36 1012 13 10000 2.6 20 18:24 16.05.2020
3089 Clouds 38 1011 9 10000 4.1 10 17:56 16.05.2020
3090 Clouds 38 1011 9 10000 4.1 10 17:38 16.05.2020
3091 Clouds 39 1011 11 10000 4.1 350 17:19 16.05.2020
3092 Clouds 39 1011 11 10000 4.1 350 16:40 16.05.2020
3093 Clouds 39 1011 11 10000 4.1 350 16:22 16.05.2020
3094 Clouds 40 1011 10 10000 3.6 340 15:57 16.05.2020
3095 Clouds 40 1011 10 10000 3.6 340 15:38 16.05.2020
3096 Clear 38 1011 10 10000 4.1 20 15:19 16.05.2020
3097 Clear 38 1011 10 10000 4.1 20 14:43 16.05.2020
3098 Clouds 39 1012 12 10000 2.6 330 14:20 16.05.2020
3099 Clouds 39 1012 12 10000 2.6 330 13:57 16.05.2020
3100 Clouds 39 1012 12 10000 2.6 330 13:39 16.05.2020
3101 Clouds 39 1012 12 10000 2.6 330 13:21 16.05.2020
3102 Clouds 38 1012 13 10000 2.6 280 12:45 16.05.2020
3103 Clouds 38 1012 13 10000 2.6 280 12:21 16.05.2020
3104 Clouds 39 1013 16 10000 2.1 330 11:56 16.05.2020
3105 Clouds 39 1013 16 10000 2.1 330 11:38 16.05.2020
3106 Clouds 37 1014 20 10000 1 80 11:20 16.05.2020
3107 Clouds 37 1014 20 10000 1 80 10:55 16.05.2020
3108 Clouds 37 1014 20 10000 1 80 10:37 16.05.2020
3109 Clouds 36 1014 19 10000 1 250 10:18 16.05.2020
3110 Clouds 36 1014 19 10000 1 250 10:18 16.05.2020
3111 Clouds 36 1014 19 10000 1 250 09:44 16.05.2020
3112 Clouds 36 1014 19 10000 1 250 09:25 16.05.2020
3113 Clouds 34 1014 23 10000 1 60 08:43 16.05.2020
3114 Clouds 34 1014 23 10000 1 60 08:21 16.05.2020
3115 Clouds 32 1014 25 10000 2.82 152 07:46 16.05.2020
3116 Clouds 32 1014 25 10000 2.09 147 07:27 16.05.2020
3117 Clouds 26 1013 34 10000 2.09 147 06:59 16.05.2020
3118 Clouds 26 1013 34 10000 2.09 147 06:41 16.05.2020
3119 Clouds 23 1013 35 10000 1.38 156 06:18 16.05.2020
3120 Clouds 23 1013 35 10000 1.38 156 05:38 16.05.2020
3121 Clouds 24 1012 29 10000 1.5 290 03:58 16.05.2020
3122 Clouds 24 1011 31 10000 1.46 116 02:59 16.05.2020
3123 Clouds 24 1011 31 10000 2.13 105 02:21 16.05.2020
3124 Clouds 25 1011 27 10000 1 280 01:54 16.05.2020
3125 Clouds 25 1011 27 10000 1 280 01:27 16.05.2020
3126 Clouds 25 1012 31 10000 2.75 115 00:51 16.05.2020
3127 Clouds 25 1012 31 10000 2.91 119 00:22 16.05.2020
3128 Clouds 25 1012 31 10000 2.91 119 23:41 15.05.2020
3129 Clouds 25 1012 31 10000 3.78 99 23:20 15.05.2020
3130 Clouds 27 1013 28 10000 3.78 99 22:59 15.05.2020
3131 Clouds 27 1013 28 10000 3.78 99 22:40 15.05.2020
3132 Clouds 28 1013 26 10000 3.96 86 22:19 15.05.2020
3133 Clouds 28 1013 26 10000 3.96 86 21:40 15.05.2020
3134 Clear 28 1013 26 10000 3.27 97 21:22 15.05.2020
3135 Clear 31 1013 20 10000 1 50 20:59 15.05.2020
3136 Clear 31 1013 20 10000 1 50 20:41 15.05.2020
3137 Clear 31 1013 20 10000 1 50 20:22 15.05.2020
3138 Clear 32 1012 21 10000 1 70 19:58 15.05.2020
3139 Clear 32 1012 21 10000 1 70 19:40 15.05.2020
3140 Clear 32 1012 21 10000 1 70 19:21 15.05.2020
3141 Clear 34 1011 14 10000 2.1 60 18:45 15.05.2020
3142 Clear 34 1011 14 10000 2.1 60 18:27 15.05.2020
3143 Clear 36 1011 11 10000 3.6 50 17:40 15.05.2020
3144 Clear 36 1011 11 10000 3.6 50 17:20 15.05.2020
3145 Clear 37 1011 11 10000 3.6 20 16:58 15.05.2020
3146 Clear 37 1011 11 10000 3.6 20 16:39 15.05.2020
3147 Clear 37 1011 11 10000 3.6 20 16:19 15.05.2020
3148 Clear 37 1011 11 10000 4.6 50 15:58 15.05.2020
3149 Clear 37 1011 11 10000 4.6 50 15:39 15.05.2020
3150 Clear 37 1011 9 10000 5.1 10 15:19 15.05.2020
3151 Clear 37 1011 9 10000 5.1 10 14:42 15.05.2020
3152 Clear 37 1011 9 10000 5.1 10 14:42 15.05.2020
3153 Clouds 37 1011 9 10000 5.1 10 14:24 15.05.2020
3154 Clouds 37 1012 11 10000 6.2 10 13:59 15.05.2020
3155 Clouds 37 1012 11 10000 6.2 10 13:39 15.05.2020
3156 Clouds 37 1012 11 10000 6.2 10 13:20 15.05.2020
3157 Clouds 36 1013 9 10000 4.6 10 12:40 15.05.2020
3158 Clouds 36 1013 9 10000 4.6 10 12:40 15.05.2020
3159 Clouds 36 1013 11 10000 3.1 10 12:19 15.05.2020
3160 Clouds 36 1013 11 10000 3.1 10 12:19 15.05.2020
3161 Clouds 36 1013 11 10000 3.1 10 11:57 15.05.2020
3162 Clouds 36 1013 11 10000 3.1 10 11:39 15.05.2020
3163 Clouds 36 1013 11 10000 3.1 10 11:20 15.05.2020
3164 Clouds 35 1014 12 10000 4.6 40 10:58 15.05.2020
3165 Clouds 35 1014 12 10000 4.6 40 10:39 15.05.2020
3166 Clouds 35 1014 14 10000 2.1 60 10:21 15.05.2020
3167 Clouds 35 1014 14 10000 2.1 60 09:58 15.05.2020
3168 Clouds 35 1014 14 10000 2.1 60 09:58 15.05.2020
3169 Clouds 35 1014 14 10000 2.1 60 09:37 15.05.2020
3170 Clouds 34 1014 18 10000 1.5 10 09:18 15.05.2020
3171 Clouds 34 1014 18 10000 1.5 10 08:55 15.05.2020
3172 Clouds 34 1014 18 10000 1.5 10 08:37 15.05.2020
3173 Clouds 31 1014 16 10000 2.6 300 08:18 15.05.2020
3174 Clouds 31 1014 16 10000 2.6 300 07:42 15.05.2020
3175 Clouds 31 1014 16 10000 2.6 300 07:24 15.05.2020
3176 Clouds 25 1013 23 10000 2.1 290 06:35 15.05.2020
3177 Clouds 24 1013 29 10000 1.5 280 05:40 15.05.2020
3178 Clouds 23 1012 27 10000 1.5 310 04:25 15.05.2020
3179 Clouds 23 1012 25 10000 2.1 310 03:40 15.05.2020
3180 Clouds 24 1012 27 10000 2.1 300 01:38 15.05.2020
3181 Clouds 26 1012 19 10000 2.6 280 01:19 15.05.2020
3182 Clouds 26 1012 19 10000 2.6 280 00:44 15.05.2020
3183 Clouds 26 1012 19 10000 2.6 280 00:23 15.05.2020
3184 Clouds 27 1013 19 10000 2.6 280 23:42 14.05.2020
3185 Clouds 26 1013 29 10000 3.4 33 23:20 14.05.2020
3186 Clouds 26 1013 29 10000 3.4 33 22:55 14.05.2020
3187 Clouds 26 1013 29 10000 3.4 33 22:37 14.05.2020
3188 Clouds 28 1013 23 10000 1 310 22:19 14.05.2020
3189 Clouds 28 1013 23 10000 1 310 21:42 14.05.2020
3190 Clouds 30 1013 16 10000 2.6 360 21:20 14.05.2020
3191 Clouds 30 1013 16 10000 2.6 360 20:59 14.05.2020
3192 Clouds 30 1013 16 10000 2.6 360 20:40 14.05.2020
3193 Clouds 30 1013 16 10000 2.6 360 20:20 14.05.2020
3194 Clouds 32 1012 14 10000 3.1 10 19:57 14.05.2020
3195 Clouds 32 1012 14 10000 3.1 10 19:39 14.05.2020
3196 Clouds 34 1012 12 10000 4.1 10 19:20 14.05.2020
3197 Clouds 34 1012 12 10000 4.1 10 18:57 14.05.2020
3198 Clouds 34 1012 12 10000 4.1 10 18:38 14.05.2020
3199 Clouds 34 1012 11 10000 4.1 10 18:19 14.05.2020
3200 Clouds 36 1011 11 10000 5.7 360 17:57 14.05.2020
3201 Clouds 36 1011 11 10000 5.7 360 17:37 14.05.2020
3202 Clouds 37 1011 9 10000 6.2 350 17:18 14.05.2020
3203 Clouds 37 1011 9 10000 6.2 350 16:56 14.05.2020
3204 Clouds 37 1011 9 10000 6.2 350 16:37 14.05.2020
3205 Clouds 38 1011 9 10000 4.6 340 16:18 14.05.2020
3206 Clouds 38 1011 9 10000 4.6 340 15:41 14.05.2020
3207 Clouds 37 1012 12 10000 3.6 330 15:21 14.05.2020
3208 Clouds 37 1012 12 10000 3.6 330 14:57 14.05.2020
3209 Clouds 37 1012 12 10000 3.6 330 14:39 14.05.2020
3210 Clouds 36 1012 8 10000 6.2 330 14:20 14.05.2020
3211 Clouds 36 1012 8 10000 6.2 330 13:57 14.05.2020
3212 Clouds 36 1012 8 10000 6.2 330 13:38 14.05.2020
3213 Clouds 36 1012 8 10000 6.2 330 13:19 14.05.2020
3214 Clear 37 1013 8 10000 5.1 340 12:57 14.05.2020
3215 Clear 37 1013 8 10000 5.1 340 12:38 14.05.2020
3216 Clear 36 1014 11 10000 5.1 340 12:18 14.05.2020
3217 Clear 36 1014 11 10000 5.1 340 11:56 14.05.2020
3218 Clear 36 1014 11 10000 5.1 340 11:37 14.05.2020
3219 Clear 35 1014 9 10000 5.1 340 11:19 14.05.2020
3220 Clear 35 1014 9 10000 5.1 340 10:44 14.05.2020
3221 Clear 35 1014 10 10000 5.1 340 10:26 14.05.2020
3222 Clear 33 1015 16 10000 2.1 280 09:56 14.05.2020
3223 Clouds 33 1015 16 10000 2.1 280 09:37 14.05.2020
3224 Clouds 33 1015 16 10000 2.1 280 09:18 14.05.2020
3225 Clouds 31 1015 22 10000 1.5 260 08:39 14.05.2020
3226 Clear 29 1015 18 10000 2.1 300 08:19 14.05.2020
3227 Clear 29 1015 18 10000 2.1 300 07:45 14.05.2020
3228 Clear 29 1015 18 10000 2.1 300 07:22 14.05.2020
3229 Clear 25 1014 23 10000 2.1 290 06:48 14.05.2020
3230 Clear 25 1014 23 10000 2.1 290 06:26 14.05.2020
3231 Clear 23 1014 23 10000 2.1 290 05:42 14.05.2020
3232 Clear 23 1014 23 10000 2.1 290 05:42 14.05.2020
3233 Clear 22 1013 24 10000 2.6 290 04:56 14.05.2020
3234 Clear 23 1013 23 10000 2.6 270 03:44 14.05.2020
3235 Clear 23 1013 23 10000 2.6 270 03:20 14.05.2020
3236 Clear 24 1013 23 10000 3.1 310 02:36 14.05.2020
3237 Clear 25 1013 20 10000 3.1 310 01:52 14.05.2020
3238 Clear 26 1013 19 10000 2.6 320 00:54 14.05.2020
3239 Clear 26 1013 19 10000 2.6 320 00:28 14.05.2020
3240 Clear 26 1014 19 10000 2.6 310 23:46 13.05.2020
3241 Clear 26 1014 19 10000 2.6 310 23:25 13.05.2020
3242 Clear 28 1015 23 10000 2.1 350 22:59 13.05.2020
3243 Clear 28 1015 23 10000 2.1 350 22:41 13.05.2020
3244 Clear 28 1015 23 10000 2.1 350 22:22 13.05.2020
3245 Clear 29 1015 17 10000 2.1 320 21:58 13.05.2020
3246 Clear 29 1015 17 10000 2.1 320 21:39 13.05.2020
3247 Clear 30 1014 16 10000 2.6 360 21:19 13.05.2020
3248 Clear 30 1014 16 10000 2.6 360 20:55 13.05.2020
3249 Clear 30 1014 16 10000 2.6 360 20:37 13.05.2020
3250 Clear 30 1014 16 10000 2.6 360 20:37 13.05.2020
3251 Clear 30 1014 16 10000 2.6 360 20:19 13.05.2020
3252 Clear 32 1014 13 10000 3.6 360 19:41 13.05.2020
3253 Clear 32 1014 13 10000 3.6 360 19:23 13.05.2020
3254 Clear 33 1013 13 10000 4.6 360 18:44 13.05.2020
3255 Clear 33 1013 13 10000 4.6 360 18:22 13.05.2020
3256 Clear 33 1013 13 10000 4.6 360 18:22 13.05.2020
3257 Clear 35 1013 11 10000 4.6 340 17:58 13.05.2020
3258 Clear 35 1013 11 10000 4.6 340 17:38 13.05.2020
3259 Clear 36 1013 11 10000 6.2 330 17:18 13.05.2020
3260 Clear 36 1013 11 10000 6.2 330 16:40 13.05.2020
3261 Clear 37 1013 11 10000 5.7 330 16:19 13.05.2020
3262 Clear 37 1013 11 10000 5.7 330 15:55 13.05.2020
3263 Clear 37 1013 11 10000 5.7 330 15:36 13.05.2020
3264 Clear 37 1013 11 10000 5.7 330 15:18 13.05.2020
3265 Clear 37 1014 11 10000 4.1 350 14:42 13.05.2020
3266 Clear 37 1014 11 10000 4.1 350 14:24 13.05.2020
3267 Clear 37 1014 11 10000 4.1 330 13:59 13.05.2020
3268 Clear 37 1014 11 10000 4.1 330 13:41 13.05.2020
3269 Clear 37 1014 11 10000 4.1 330 13:21 13.05.2020
3270 Clear 35 1015 9 10000 4.6 360 12:58 13.05.2020
3271 Clear 35 1015 9 10000 4.6 360 12:39 13.05.2020
3272 Clear 35 1016 8 10000 4.6 350 12:20 13.05.2020
3273 Clear 35 1016 8 10000 4.6 350 11:56 13.05.2020
3274 Clear 35 1016 8 10000 4.6 350 11:56 13.05.2020
3275 Clear 35 1016 8 10000 4.6 350 11:37 13.05.2020
3276 Clear 34 1017 9 10000 5.1 360 11:19 13.05.2020
3277 Clear 34 1017 9 10000 5.1 360 10:56 13.05.2020
3278 Clear 34 1017 9 10000 5.1 360 10:38 13.05.2020
3279 Clear 34 1017 9 10000 5.1 360 10:19 13.05.2020
3280 Clear 31 1017 11 10000 4.6 20 09:45 13.05.2020
3281 Clear 31 1017 11 10000 4.6 20 09:23 13.05.2020
3282 Clear 30 1018 11 10000 5.1 30 08:57 13.05.2020
3283 Clear 30 1018 11 10000 5.1 30 08:37 13.05.2020
3284 Clear 28 1017 13 10000 4.6 30 08:19 13.05.2020
3285 Clear 28 1017 13 10000 4.6 30 07:44 13.05.2020
3286 Clear 28 1017 14 10000 4.6 30 07:26 13.05.2020
3287 Clear 26 1017 19 10000 3.6 350 06:49 13.05.2020
3288 Clear 26 1017 19 10000 3.6 350 06:28 13.05.2020
3289 Clear 24 1015 25 10000 2.1 290 04:57 13.05.2020
3290 Clear 24 1015 29 10000 2.1 300 03:27 13.05.2020
3291 Clear 25 1015 27 10000 2.1 290 02:32 13.05.2020
3292 Clear 25 1015 27 10000 1.5 290 01:38 13.05.2020
3293 Clear 27 1015 28 10000 1 290 00:53 13.05.2020
3294 Clear 27 1015 28 10000 1 290 00:22 13.05.2020
3295 Clear 27 1015 28 10000 1 320 23:40 12.05.2020
3296 Clear 27 1015 28 10000 1 320 23:40 12.05.2020
3297 Clear 27 1015 28 10000 1 320 23:22 12.05.2020
3298 Clear 27 1015 28 10000 1 320 23:22 12.05.2020
3299 -273 0 0 0 0 0 22:59 12.05.2020
3300 Clear 29 1016 23 10000 2.1 30 22:41 12.05.2020
3301 Clear 29 1016 23 10000 2.1 30 22:21 12.05.2020
3302 Clear 29 1016 18 10000 2.6 40 21:56 12.05.2020
3303 Clouds 29 1016 18 10000 2.6 40 21:37 12.05.2020
3304 Clear 29 1016 18 10000 2.6 40 21:37 12.05.2020
3305 Clear 31 1016 15 10000 3.6 40 21:19 12.05.2020
3306 Clear 31 1016 15 10000 3.6 40 20:57 12.05.2020
3307 Clear 31 1016 15 10000 3.6 40 20:38 12.05.2020
3308 Clear 32 1015 15 10000 3.1 50 20:20 12.05.2020
3309 Clear 32 1015 15 10000 3.1 50 19:56 12.05.2020
3310 Clear 32 1015 15 10000 3.1 50 19:38 12.05.2020
3311 Clear 33 1015 15 10000 4.1 60 19:20 12.05.2020
3312 Clear 33 1015 15 10000 4.1 60 18:43 12.05.2020
3313 Clear 33 1015 15 10000 4.1 60 18:24 12.05.2020
3314 Clear 35 1014 15 10000 2.6 40 17:59 12.05.2020
3315 Clear 35 1014 15 10000 2.6 40 17:41 12.05.2020
3316 Clear 37 1014 14 10000 2.1 340 17:22 12.05.2020
3317 Clear 37 1014 14 10000 2.1 340 16:47 12.05.2020
3318 Clear 37 1014 14 10000 2.1 340 16:24 12.05.2020
3319 Clear 37 1014 14 10000 2.6 340 15:56 12.05.2020
3320 Clear 37 1014 14 10000 2.6 340 15:37 12.05.2020
3321 Clear 37 1014 14 10000 2.6 10 15:18 12.05.2020
3322 Clear 37 1014 14 10000 2.6 10 15:18 12.05.2020
3323 Clear 37 1014 14 10000 2.6 10 14:55 12.05.2020
3324 Clear 37 1014 14 10000 2.6 10 14:36 12.05.2020
3325 Clear 37 1014 14 10000 2.6 10 14:18 12.05.2020
3326 Clear 37 1015 18 10000 1 60 13:56 12.05.2020
3327 Clear 37 1015 18 10000 1 60 13:37 12.05.2020
3328 Clear 36 1015 12 10000 3.6 30 13:18 12.05.2020
3329 Clear 36 1015 12 10000 3.6 30 12:57 12.05.2020
3330 Clear 36 1015 12 10000 3.6 30 12:38 12.05.2020
3331 Clear 36 1015 12 10000 3.6 30 12:38 12.05.2020
3332 Clear 36 1015 12 10000 3.6 30 12:20 12.05.2020
3333 Clear 35 1016 15 10000 2.1 70 11:57 12.05.2020
3334 Clear 35 1016 15 10000 2.1 70 11:37 12.05.2020
3335 Clear 34 1017 15 10000 1.5 40 11:19 12.05.2020
3336 Clear 34 1017 15 10000 1.5 40 10:55 12.05.2020
3337 Clear 34 1017 15 10000 1.5 40 10:37 12.05.2020
3338 Clouds 32 1017 17 10000 3.6 50 10:18 12.05.2020
3339 Clouds 32 1017 17 10000 3.6 50 09:57 12.05.2020
3340 Clouds 32 1017 17 10000 3.6 50 09:38 12.05.2020
3341 Clear 31 1017 19 10000 2.6 30 09:19 12.05.2020
3342 Clear 31 1017 19 10000 2.6 30 08:40 12.05.2020
3343 Clouds 31 1017 19 10000 2.6 30 08:21 12.05.2020
3344 Clouds 29 1017 30 8000 1.5 310 07:45 12.05.2020
3345 Clouds 29 1017 30 8000 1.5 310 07:27 12.05.2020
3346 Clouds 25 1017 41 8000 2.1 290 06:56 12.05.2020
3347 Clouds 25 1017 41 8000 2.1 290 06:37 12.05.2020
3348 Clouds 24 1016 41 8000 1.5 310 06:19 12.05.2020
3349 Clouds 24 1016 41 8000 1.5 310 05:45 12.05.2020
3350 Clouds 25 1015 38 8000 1 280 03:53 12.05.2020
3351 Clouds 25 1015 41 8000 1.88 64 03:18 12.05.2020
3352 Clouds 25 1015 41 8000 2.45 58 02:26 12.05.2020
3353 Clouds 25 1015 44 8000 3.57 66 01:33 12.05.2020
3354 Clouds 26 1016 36 8000 1 30 00:57 12.05.2020
3355 Clouds 26 1016 36 8000 1 30 00:21 12.05.2020
3356 Clouds 27 1016 34 8000 1 30 23:55 11.05.2020
3357 Clouds 27 1016 34 8000 1 30 23:37 11.05.2020
3358 Clouds 28 1017 30 8000 2.1 30 23:18 11.05.2020
3359 Clouds 28 1017 30 8000 2.1 30 22:55 11.05.2020
3360 Clouds 28 1017 30 8000 2.1 30 22:36 11.05.2020
3361 Clouds 28 1017 30 8000 2.1 30 22:18 11.05.2020
3362 Clouds 28 1017 30 7000 2.6 60 21:54 11.05.2020
3363 Clouds 28 1017 30 7000 2.6 60 21:36 11.05.2020
3364 Clouds 29 1016 28 7000 3.1 50 21:18 11.05.2020
3365 Clouds 29 1016 28 7000 3.1 50 20:42 11.05.2020
3366 Clouds 29 1016 28 7000 3.1 50 20:21 11.05.2020
3367 Clouds 30 1016 27 7000 3.1 50 19:58 11.05.2020
3368 Clouds 30 1016 27 7000 3.1 50 19:40 11.05.2020
3369 Clouds 31 1015 23 6000 4.1 50 19:21 11.05.2020
3370 Clouds 31 1015 23 6000 4.1 50 18:57 11.05.2020
3371 Clouds 31 1015 23 6000 4.1 50 18:38 11.05.2020
3372 Clouds 32 1015 22 10000 3.6 60 18:19 11.05.2020
3373 Clouds 32 1015 22 10000 3.6 60 17:57 11.05.2020
3374 Clouds 32 1015 22 10000 3.6 60 17:57 11.05.2020
3375 Clouds 32 1015 22 10000 3.6 60 17:38 11.05.2020
3376 Clouds 32 1015 22 10000 3.6 60 17:19 11.05.2020
3377 Clouds 32 1015 22 6000 3.1 70 16:45 11.05.2020
3378 Clouds 32 1015 22 6000 3.1 70 16:23 11.05.2020
3379 Dust 33 1015 19 5000 34 50 15:59 11.05.2020
3380 Dust 33 1015 19 5000 34 50 15:40 11.05.2020
3381 Dust 33 1015 19 5000 34 50 15:20 11.05.2020
3382 Dust 33 1015 17 3000 3.1 60 14:57 11.05.2020
3383 Dust 33 1015 17 3000 3.1 60 14:39 11.05.2020
3384 Dust 33 1016 17 3000 4.1 40 14:21 11.05.2020
3385 Dust 33 1015 17 3000 3.1 60 14:21 11.05.2020
3386 Dust 33 1016 17 3000 4.1 40 13:42 11.05.2020
3387 Dust 33 1016 17 3000 4.1 40 13:22 11.05.2020
3388 Dust 34 1016 17 3000 3.6 60 12:59 11.05.2020
3389 Dust 34 1016 17 3000 3.6 60 12:41 11.05.2020
3390 Dust 34 1016 17 3000 3.6 60 12:23 11.05.2020
3391 Dust 33 1017 19 3000 3.6 20 11:57 11.05.2020
3392 Dust 33 1017 19 3000 3.6 20 11:39 11.05.2020
3393 Dust 33 1017 19 3000 3.6 20 11:21 11.05.2020
3394 Dust 32 1017 19 3000 3.6 70 10:57 11.05.2020
3395 Dust 32 1017 19 3000 3.6 70 10:39 11.05.2020
3396 Dust 32 1017 19 3000 3.6 70 10:20 11.05.2020
3397 Dust 32 1017 19 3000 3.6 70 10:20 11.05.2020
3398 Dust 31 1017 20 3000 3.6 50 09:57 11.05.2020
3399 Dust 31 1017 20 3000 3.6 50 09:57 11.05.2020
3400 Dust 31 1017 20 3000 3.6 50 09:39 11.05.2020
3401 Dust 30 1017 20 3000 4.6 70 09:19 11.05.2020
3402 Dust 30 1017 20 3000 4.6 70 08:42 11.05.2020
3403 Dust 30 1017 20 3000 4.6 70 08:24 11.05.2020
3404 Dust 29 1017 23 3000 3.6 70 07:56 11.05.2020
3405 Dust 29 1017 23 3000 3.6 70 07:38 11.05.2020
3406 Dust 29 1017 23 3000 3.6 70 07:20 11.05.2020
3407 Dust 29 1017 23 3000 3.6 70 07:20 11.05.2020
3408 Dust 28 1016 28 3000 3.1 80 06:34 11.05.2020
3409 Dust 27 1015 36 3000 2.6 80 05:53 11.05.2020
3410 Dust 27 1015 36 3000 2.6 80 05:22 11.05.2020
3411 Dust 29 1015 26 3000 4.6 10 03:56 11.05.2020
3412 Dust 30 1015 25 3000 5.1 10 02:36 11.05.2020
3413 Dust 30 1014 28 5000 3.6 20 01:59 11.05.2020
3414 Clouds 31 1015 29 7000 3.1 20 01:18 11.05.2020
3415 Clouds 31 1015 27 9000 3.6 10 00:40 11.05.2020
3416 Clouds 32 1015 27 9000 2.6 10 00:18 11.05.2020
3417 Clouds 32 1015 27 9000 2.6 10 23:39 10.05.2020
3418 Clouds 32 1015 27 9000 2.6 10 23:20 10.05.2020
3419 Clouds 32 1015 25 7000 3.6 20 22:54 10.05.2020
3420 Clouds 32 1015 25 7000 3.6 20 22:36 10.05.2020
3421 Clouds 33 1015 24 7000 4.1 30 22:18 10.05.2020
3422 Clouds 33 1015 24 7000 4.1 30 22:18 10.05.2020
3423 Clouds 33 1015 24 7000 4.1 30 21:42 10.05.2020
3424 Clouds 33 1014 24 6000 3.1 30 21:18 10.05.2020
3425 Clouds 33 1014 24 6000 3.1 30 20:43 10.05.2020
3426 Clouds 33 1014 24 6000 3.1 30 20:24 10.05.2020
3427 Clouds 34 1013 21 6000 4.1 50 19:57 10.05.2020
3428 Clouds 34 1013 21 6000 4.1 50 19:38 10.05.2020
3429 Clouds 34 1013 21 6000 4.1 50 19:20 10.05.2020
3430 Dust 35 1012 19 5000 6.7 50 18:55 10.05.2020
3431 Dust 35 1012 19 5000 6.7 50 18:36 10.05.2020
3432 Dust 37 1012 17 5000 4.1 40 18:18 10.05.2020
3433 Dust 37 1012 17 5000 4.1 40 17:57 10.05.2020
3434 Dust 37 1012 17 5000 4.1 40 17:37 10.05.2020
3435 Dust 38 1012 21 5000 1.5 40 17:19 10.05.2020
3436 Dust 38 1012 21 5000 1.5 40 16:43 10.05.2020
3437 Dust 38 1012 21 5000 1.5 40 16:21 10.05.2020
3438 Dust 38 1012 21 5000 2.1 90 15:58 10.05.2020
3439 Dust 38 1012 21 5000 2.1 90 15:39 10.05.2020
3440 Dust 38 1012 21 5000 2.1 90 15:21 10.05.2020
3441 Dust 38 1012 16 5000 3.1 80 14:56 10.05.2020
3442 Dust 38 1012 16 5000 3.1 80 14:37 10.05.2020
3443 Dust 39 1013 20 5000 1.5 190 14:19 10.05.2020
3444 Dust 39 1013 20 5000 1.5 190 13:57 10.05.2020
3445 Dust 39 1013 20 5000 1.5 190 13:36 10.05.2020
3446 Dust 37 1014 18 4000 2.1 130 13:18 10.05.2020
3447 Dust 37 1014 18 4000 2.1 130 12:42 10.05.2020
3448 Dust 37 1014 18 4000 2.1 130 12:22 10.05.2020
3449 Dust 37 1014 17 4000 2.6 130 11:59 10.05.2020
3450 Dust 37 1014 17 4000 2.6 130 11:40 10.05.2020
3451 Dust 37 1014 17 4000 2.6 130 11:21 10.05.2020
3452 Dust 35 1015 19 4000 2.6 90 10:55 10.05.2020
3453 Dust 35 1015 19 4000 2.6 90 10:36 10.05.2020
3454 Dust 33 1015 18 4000 2.1 90 10:18 10.05.2020
3455 Dust 33 1015 18 4000 2.1 90 09:41 10.05.2020
3456 Dust 33 1015 18 4000 2.1 90 09:23 10.05.2020
3457 Dust 31 1015 22 3000 3.6 90 08:55 10.05.2020
3458 Dust 31 1015 22 3000 3.6 90 08:37 10.05.2020
3459 Dust 31 1015 22 3000 3.6 90 08:19 10.05.2020
3460 Dust 30 1015 23 3000 4.6 80 07:38 10.05.2020
3461 Dust 29 1014 26 4000 5.1 70 07:19 10.05.2020
3462 Dust 29 1014 26 4000 5.1 70 06:50 10.05.2020
3463 Dust 29 1014 26 4000 5.1 70 06:23 10.05.2020
3464 Dust 28 1014 32 3000 5.1 50 05:45 10.05.2020
3465 Dust 29 1014 30 3000 4.6 40 04:45 10.05.2020
3466 Dust 29 1014 30 3000 4.6 40 04:25 10.05.2020
3467 Dust 29 1014 30 2000 4.1 10 03:44 10.05.2020
3468 Dust 30 1014 28 2000 6.2 20 02:59 10.05.2020
3469 Dust 30 1014 28 2000 6.2 20 02:25 10.05.2020
3470 Dust 30 1014 27 1500 7.2 360 01:57 10.05.2020
3471 Dust 30 1014 28 1000 6.7 360 01:39 10.05.2020
3472 Dust 30 1014 28 800 6.7 360 01:18 10.05.2020
3473 Dust 30 1014 28 800 6.7 360 00:52 10.05.2020
3474 Dust 31 1014 25 500 7.7 360 00:20 10.05.2020
3475 Dust 32 1013 24 300 9.8 360 23:40 09.05.2020
3476 Dust 32 1013 24 300 9.8 360 23:21 09.05.2020
3477 Dust 32 1013 25 300 10.8 360 22:57 09.05.2020
3478 Dust 34 1012 17 5000 5.1 330 22:39 09.05.2020
3479 Clouds 35 1011 16 10000 3.1 170 22:21 09.05.2020
3480 Clouds 35 1011 16 10000 3.1 170 21:55 09.05.2020
3481 Clouds 35 1011 16 10000 3.1 170 21:37 09.05.2020
3482 Clouds 35 1011 17 10000 3.1 170 21:19 09.05.2020
3483 Clouds 35 1011 17 10000 3.1 170 20:55 09.05.2020
3484 Clouds 35 1011 17 10000 3.1 170 20:36 09.05.2020
3485 Clouds 35 1011 17 10000 3.1 170 20:18 09.05.2020
3486 Clouds 37 1010 14 10000 4.1 160 19:40 09.05.2020
3487 Clouds 37 1010 14 10000 4.1 160 19:20 09.05.2020
3488 Clouds 37 1010 14 10000 4.1 170 18:55 09.05.2020
3489 Clouds 37 1010 14 10000 4.1 170 18:55 09.05.2020
3490 Clouds 37 1010 14 10000 4.1 170 18:37 09.05.2020
3491 Clouds 39 1009 20 10000 1 180 18:18 09.05.2020
3492 Clouds 39 1009 20 10000 1 180 17:42 09.05.2020
3493 Clouds 39 1009 20 10000 1 180 17:22 09.05.2020
3494 Clouds 40 1009 14 9000 3.6 160 16:41 09.05.2020
3495 Clouds 40 1009 12 9000 3.6 150 16:20 09.05.2020
3496 Clouds 40 1009 12 9000 3.6 150 15:54 09.05.2020
3497 Clouds 40 1009 12 9000 3.6 150 15:36 09.05.2020
3498 Clouds 40 1010 11 9000 4.1 150 15:18 09.05.2020
3499 Clouds 40 1010 11 9000 4.1 150 14:42 09.05.2020
3500 Clouds 40 1010 11 9000 4.1 150 14:20 09.05.2020
3501 Clouds 38 1011 14 9000 4.1 170 13:58 09.05.2020
3502 Clouds 38 1011 14 9000 4.1 170 13:40 09.05.2020
3503 Clouds 38 1011 14 9000 4.1 170 13:20 09.05.2020
3504 Clouds 38 1012 13 9000 3.6 170 12:43 09.05.2020
3505 Clouds 38 1012 13 9000 3.6 170 12:23 09.05.2020
3506 Clouds 36 1013 14 10000 4.6 160 11:59 09.05.2020
3507 Clouds 36 1013 14 10000 4.6 160 11:41 09.05.2020
3508 Clouds 36 1013 14 10000 4.6 160 11:19 09.05.2020
3509 Clouds 35 1013 15 10000 4.6 170 10:47 09.05.2020
3510 Clouds 34 1013 15 10000 4.6 180 10:26 09.05.2020
3511 Clouds 34 1013 15 10000 4.6 180 09:58 09.05.2020
3512 Clouds 34 1013 15 10000 4.6 180 09:39 09.05.2020
3513 Clear 34 1013 15 10000 4.6 180 09:19 09.05.2020
3514 Clouds 33 1013 17 10000 5.1 160 08:51 09.05.2020
3515 Clouds 33 1013 17 10000 5.1 160 08:33 09.05.2020
3516 Clouds 30 1013 20 10000 3.6 170 07:51 09.05.2020
3517 Clouds 30 1013 20 10000 3.6 170 07:33 09.05.2020
3518 Clouds 27 1013 24 10000 3.1 160 06:55 09.05.2020
3519 Clouds 27 1013 24 10000 3.1 160 06:26 09.05.2020
3520 Clouds 25 1013 31 10000 1.5 160 05:49 09.05.2020
3521 Clouds 26 1013 27 10000 1.5 150 04:20 09.05.2020
3522 Clouds 26 1013 27 10000 1.5 150 03:38 09.05.2020
3523 Clouds 26 1013 22 10000 2.1 150 02:42 09.05.2020
3524 Clouds 26 1013 19 10000 3.6 130 01:54 09.05.2020
3525 Clouds 26 1013 19 10000 3.6 130 01:54 09.05.2020
3526 Clouds 26 1013 19 10000 3.6 130 01:25 09.05.2020
3527 Clouds 27 1013 22 10000 2.6 140 00:55 09.05.2020
3528 Clouds 27 1013 22 10000 2.6 140 00:37 09.05.2020
3529 Clouds 27 1014 21 10000 3.1 140 23:54 08.05.2020
3530 Clouds 27 1014 21 10000 3.1 140 23:36 08.05.2020
3531 Clouds 28 1014 17 10000 3.1 140 23:18 08.05.2020
3532 Clouds 28 1014 17 10000 3.1 140 22:42 08.05.2020
3533 Clouds 28 1014 17 10000 3.1 140 22:20 08.05.2020
3534 Clouds 28 1015 20 10000 2.1 130 21:59 08.05.2020
3535 Clouds 28 1015 20 10000 2.1 130 21:41 08.05.2020
3536 Clear 29 1014 16 10000 3.6 110 21:19 08.05.2020
3537 Clear 29 1014 16 10000 3.6 110 20:59 08.05.2020
3538 Clear 29 1014 16 10000 3.6 110 20:40 08.05.2020
3539 Clouds 29 1014 16 10000 3.6 110 20:22 08.05.2020
3540 Clouds 30 1014 16 10000 3.6 110 19:45 08.05.2020
3541 Clouds 30 1014 16 10000 3.6 110 19:24 08.05.2020
3542 Clouds 32 1014 14 8000 4.1 110 18:57 08.05.2020
3543 Clouds 32 1014 14 8000 4.1 110 18:39 08.05.2020
3544 Clouds 32 1014 14 8000 4.1 110 18:21 08.05.2020
3545 Clouds 33 1013 15 7000 4.6 100 17:42 08.05.2020
3546 Clouds 33 1013 15 7000 4.6 100 17:19 08.05.2020
3547 Clouds 33 1013 14 10000 5.1 110 16:46 08.05.2020
3548 Clouds 33 1013 14 10000 5.1 110 16:27 08.05.2020
3549 Clouds 33 1013 15 10000 4.6 100 15:58 08.05.2020
3550 Clouds 33 1013 15 10000 4.6 100 15:40 08.05.2020
3551 Clouds 33 1014 14 10000 3.6 120 15:18 08.05.2020
3552 Clouds 33 1014 14 10000 3.6 120 14:54 08.05.2020
3553 Clouds 33 1014 14 10000 3.6 120 14:36 08.05.2020
3554 Clouds 33 1014 14 10000 3.6 120 14:18 08.05.2020
3555 Clouds 33 1015 14 10000 4.6 120 13:40 08.05.2020
3556 Clouds 33 1015 14 10000 4.6 120 13:20 08.05.2020
3557 Clouds 32 1016 15 10000 3.1 130 12:54 08.05.2020
3558 Clouds 32 1016 15 10000 3.1 130 12:36 08.05.2020
3559 Clouds 32 1016 15 10000 3.1 130 12:36 08.05.2020
3560 Clouds 32 1016 15 10000 3.1 130 12:18 08.05.2020
3561 Clouds 32 1016 15 10000 3.1 130 11:43 08.05.2020
3562 Clouds 32 1016 15 10000 3.1 130 11:22 08.05.2020
3563 Clouds 30 1016 17 10000 3.6 110 10:58 08.05.2020
3564 Clouds 30 1016 17 10000 3.6 110 10:39 08.05.2020
3565 Clouds 29 1017 17 10000 2.6 110 10:18 08.05.2020
3566 Clouds 29 1017 17 10000 2.6 110 09:42 08.05.2020
3567 Clouds 29 1017 17 10000 2.6 110 09:20 08.05.2020
3568 Clouds 28 1017 21 8000 2.6 120 08:58 08.05.2020
3569 Clouds 28 1017 21 8000 2.6 120 08:39 08.05.2020
3570 Clouds 28 1017 21 8000 2.6 120 08:20 08.05.2020
3571 Clouds 27 1016 30 7000 1.5 100 07:40 08.05.2020
3572 Clouds 27 1016 30 7000 1.5 100 07:20 08.05.2020
3573 Clouds 24 1016 33 7000 1.5 80 06:48 08.05.2020
3574 Clouds 24 1016 33 7000 1.5 80 06:20 08.05.2020
3575 Clouds 23 1015 35 6000 1.5 110 05:34 08.05.2020
3576 Clear 24 1015 36 7000 1.5 80 03:50 08.05.2020
3577 Clouds 25 1015 36 7000 3.02 70 02:30 08.05.2020
3578 Clouds 25 1015 29 7000 3.1 110 01:41 08.05.2020
3579 Clouds 25 1015 29 7000 3.1 110 01:21 08.05.2020
3580 Clouds 26 1015 27 6000 2.1 90 00:48 08.05.2020
3581 Clouds 26 1015 27 6000 2.1 90 00:27 08.05.2020
3582 Clouds 27 1015 26 6000 2.6 100 23:57 07.05.2020
3583 Clouds 27 1015 26 6000 2.6 100 23:38 07.05.2020
3584 Clouds 27 1015 26 6000 2.6 100 23:20 07.05.2020
3585 Clouds 28 1016 21 6000 3.1 80 22:42 07.05.2020
3586 Clouds 28 1016 21 6000 3.1 80 22:42 07.05.2020
3587 Clouds 28 1016 21 6000 3.1 80 22:20 07.05.2020
3588 Clouds 29 1016 18 6000 3.1 80 21:57 07.05.2020
3589 Clouds 29 1016 18 6000 3.1 80 21:39 07.05.2020
3590 Clouds 29 1016 18 6000 3.1 80 21:20 07.05.2020
3591 Clouds 29 1016 18 6000 3.1 80 20:57 07.05.2020
3592 Clouds 29 1016 18 6000 3.1 80 20:38 07.05.2020
3593 Clouds 29 1016 18 6000 3.1 80 20:19 07.05.2020
3594 Clouds 30 1015 17 6000 3.6 70 19:47 07.05.2020
3595 Clouds 30 1015 17 6000 3.6 70 19:23 07.05.2020
3596 Clouds 31 1015 16 6000 4.6 70 18:56 07.05.2020
3597 Clouds 31 1015 16 6000 4.6 70 18:38 07.05.2020
3598 Clouds 31 1015 16 6000 4.6 70 18:20 07.05.2020
3599 Clouds 32 1014 17 6000 4.6 80 17:41 07.05.2020
3600 Clouds 32 1014 17 6000 4.6 80 17:20 07.05.2020
3601 Dust 33 1014 17 5000 3.1 80 16:43 07.05.2020
3602 Dust 33 1014 17 5000 3.1 80 16:19 07.05.2020
3603 Dust 33 1014 17 4500 4.6 70 15:57 07.05.2020
3604 Dust 33 1014 17 4500 4.6 70 15:38 07.05.2020
3605 Dust 34 1014 15 5000 3.6 90 15:18 07.05.2020
3606 Dust 34 1014 15 5000 3.6 90 14:55 07.05.2020
3607 Dust 34 1014 15 5000 3.6 90 14:37 07.05.2020
3608 Dust 33 1014 16 5000 5.1 30 14:18 07.05.2020
3609 Dust 33 1014 16 5000 5.1 30 13:41 07.05.2020
3610 Dust 33 1014 16 5000 5.1 30 13:22 07.05.2020
3611 Dust 32 1015 15 5000 5.7 30 12:42 07.05.2020
3612 Clear 31 1016 16 6000 4.1 70 12:20 07.05.2020
3613 Clear 31 1016 16 6000 4.1 70 11:40 07.05.2020
3614 Clear 31 1016 16 6000 4.1 70 11:21 07.05.2020
3615 Clouds 29 1016 16 6000 5.7 40 10:57 07.05.2020
3616 Clouds 29 1016 16 6000 5.7 40 10:38 07.05.2020
3617 Clouds 28 1017 15 7000 5.7 50 10:19 07.05.2020
3618 Clouds 28 1017 15 7000 5.7 50 09:39 07.05.2020
3619 Clouds 28 1017 15 7000 5.7 50 09:20 07.05.2020
3620 Clouds 27 1017 15 7000 5.7 40 08:54 07.05.2020
3621 Clouds 27 1017 15 7000 5.7 40 08:36 07.05.2020
3622 Clouds 26 1016 20 7000 6.2 50 08:18 07.05.2020
3623 Clouds 26 1016 20 7000 6.2 50 07:41 07.05.2020
3624 Clouds 26 1016 23 7000 6.2 50 07:21 07.05.2020
3625 Clouds 25 1016 22 7000 4.6 50 06:38 07.05.2020
3626 Clouds 25 1016 22 7000 4.6 50 06:19 07.05.2020
3627 Clouds 25 1014 27 7000 3.6 30 04:41 07.05.2020
3628 Clouds 26 1014 22 7000 4.1 30 03:47 07.05.2020
3629 Clouds 26 1014 22 7000 4.1 30 03:20 07.05.2020
3630 Clouds 27 1014 18 7000 5.1 40 02:36 07.05.2020
3631 Clouds 28 1014 20 7000 4.6 40 01:38 07.05.2020
3632 Clouds 28 1014 20 7000 4.6 40 01:20 07.05.2020
3633 Clouds 28 1014 21 7000 4.6 30 00:43 07.05.2020
3634 Clouds 28 1014 21 7000 4.6 30 00:23 07.05.2020
3635 Clouds 29 1014 20 7000 4.6 30 23:45 06.05.2020
3636 Clouds 29 1014 20 7000 4.6 30 23:23 06.05.2020
3637 Dust 29 1015 20 4000 5.1 30 22:56 06.05.2020
3638 Dust 29 1015 20 4000 5.1 30 22:38 06.05.2020
3639 Dust 29 1015 20 4000 5.1 30 22:38 06.05.2020
3640 Dust 29 1015 20 4000 5.1 30 22:19 06.05.2020
3641 Dust 30 1015 17 3000 6.7 30 21:55 06.05.2020
3642 Dust 30 1015 17 3000 6.7 30 21:37 06.05.2020
3643 Dust 30 1015 17 3000 6.7 30 21:18 06.05.2020
3644 Dust 30 1014 16 2000 8.2 20 20:42 06.05.2020
3645 Dust 30 1014 16 2000 8.2 20 20:22 06.05.2020
3646 Dust 31 1013 15 1500 8.7 20 19:57 06.05.2020
3647 Dust 31 1013 15 1500 8.7 20 19:38 06.05.2020
3648 Dust 31 1013 15 1500 8.7 20 19:19 06.05.2020
3649 Dust 32 1012 14 300 9.3 20 18:58 06.05.2020
3650 Dust 32 1012 14 300 9.3 20 18:38 06.05.2020
3651 Dust 36 1011 14 50 7.2 10 18:20 06.05.2020
3652 Dust 36 1011 14 50 7.2 10 17:55 06.05.2020
3653 Dust 36 1011 14 50 7.2 10 17:37 06.05.2020
3654 Clouds 38 1010 15 10000 4.1 360 17:18 06.05.2020
3655 Clouds 38 1010 15 10000 4.1 360 16:58 06.05.2020
3656 Clouds 38 1010 15 10000 4.1 360 16:40 06.05.2020
3657 Clouds 38 1010 17 10000 3.6 280 16:20 06.05.2020
3658 Clouds 38 1010 17 10000 3.6 280 15:57 06.05.2020
3659 Clouds 38 1010 17 10000 3.6 280 15:39 06.05.2020
3660 Clouds 38 1010 17 10000 4.6 290 15:19 06.05.2020
3661 Clouds 38 1010 17 10000 4.6 290 14:41 06.05.2020
3662 Clouds 38 1011 18 10000 3.6 240 14:19 06.05.2020
3663 Clouds 38 1011 18 10000 3.6 240 14:19 06.05.2020
3664 Clouds 38 1011 18 10000 3.6 240 13:59 06.05.2020
3665 Clouds 38 1011 18 10000 3.6 240 13:59 06.05.2020
3666 Clouds 38 1011 18 10000 3.6 240 13:39 06.05.2020
3667 Clouds 37 1012 20 10000 3.1 260 13:19 06.05.2020
3668 Clouds 37 1012 20 10000 3.1 260 13:19 06.05.2020
3669 Clouds 37 1012 20 10000 3.1 260 12:44 06.05.2020
3670 Clouds 37 1012 20 10000 3.1 260 12:26 06.05.2020
3671 Clouds 37 1012 20 10000 4.1 190 11:56 06.05.2020
3672 Clouds 37 1012 20 10000 4.1 190 11:37 06.05.2020
3673 Clouds 36 1013 22 8000 3.6 220 11:19 06.05.2020
3674 Clouds 36 1013 22 8000 3.6 220 10:55 06.05.2020
3675 Clouds 36 1013 22 8000 3.6 220 10:37 06.05.2020
3676 Clouds 34 1013 28 8000 2.6 170 10:18 06.05.2020
3677 Clouds 34 1013 28 8000 2.6 170 09:39 06.05.2020
3678 Clouds 33 1013 33 8000 1 200 09:20 06.05.2020
3679 Clouds 33 1013 33 8000 1 200 08:44 06.05.2020
3680 Clouds 33 1013 33 8000 1 200 08:21 06.05.2020
3681 Clouds 33 1013 33 8000 1 200 08:21 06.05.2020
3682 Clouds 31 1013 40 6000 1.5 190 07:57 06.05.2020
3683 Clouds 31 1013 40 6000 1.5 190 07:38 06.05.2020
3684 Clouds 31 1013 40 6000 1.5 190 07:19 06.05.2020
3685 Clouds 29 1012 48 7000 1 140 06:49 06.05.2020
3686 Clouds 29 1012 48 7000 1 140 06:21 06.05.2020
3687 Clouds 28 1012 45 6000 2.1 160 05:50 06.05.2020
3688 Clouds 28 1012 45 6000 2.1 160 05:31 06.05.2020
3689 Dust 28 1012 48 3000 2.1 150 03:54 06.05.2020
3690 Dust 28 1012 48 3000 2.1 150 03:31 06.05.2020
3691 Dust 27 1012 57 3000 2.34 1 02:55 06.05.2020
3692 Dust 27 1012 57 3000 2.47 4 02:27 06.05.2020
3693 Dust 28 1013 45 3000 3.1 350 01:43 06.05.2020
3694 Dust 28 1013 45 3000 3.1 350 01:25 06.05.2020
3695 Dust 28 1013 42 3000 4.1 340 00:44 06.05.2020
3696 Dust 28 1013 42 3000 4.1 340 00:19 06.05.2020
3697 Dust 29 1012 39 3000 5.1 330 23:42 05.05.2020
3698 Dust 29 1012 39 3000 5.1 330 23:20 05.05.2020
3699 Rain 26 1014 61 3000 9.3 310 22:55 05.05.2020
3700 Rain 26 1014 61 3000 9.3 310 22:37 05.05.2020
3701 Clouds 32 1013 31 800 11.3 290 22:18 05.05.2020
3702 Clouds 36 1012 19 10000 3.6 200 21:41 05.05.2020
3703 Clouds 36 1012 19 10000 3.6 200 21:22 05.05.2020
3704 Clouds 36 1011 16 10000 4.6 180 20:59 05.05.2020
3705 Clouds 36 1011 16 10000 4.6 180 20:40 05.05.2020
3706 Clouds 36 1011 16 10000 4.6 180 20:20 05.05.2020
3707 Clouds 36 1011 18 10000 4.6 170 19:59 05.05.2020
3708 Clouds 36 1011 18 10000 4.6 170 19:59 05.05.2020
3709 Clouds 36 1011 18 10000 4.6 170 19:40 05.05.2020
3710 Clouds 36 1011 18 10000 4.6 170 19:40 05.05.2020
3711 Clouds 36 1011 18 10000 4.6 170 19:21 05.05.2020
3712 Clouds 37 1010 16 10000 5.1 170 18:57 05.05.2020
3713 Clouds 37 1010 16 10000 5.1 170 18:57 05.05.2020
3714 Clouds 37 1010 16 10000 5.1 170 18:57 05.05.2020
3715 Clouds 37 1010 16 10000 5.1 170 18:38 05.05.2020
3716 Clouds 37 1010 16 10000 5.1 170 18:19 05.05.2020
3717 Clouds 38 1010 17 10000 2.6 160 17:55 05.05.2020
3718 Clouds 38 1010 17 10000 2.6 160 17:36 05.05.2020
3719 Clouds 39 1011 14 10000 3.6 180 17:18 05.05.2020
3720 Clouds 39 1011 14 10000 3.6 180 16:38 05.05.2020
3721 Clouds 39 1011 14 10000 3.6 180 16:20 05.05.2020
3722 Clouds 39 1011 13 10000 5.1 190 15:58 05.05.2020
3723 Clouds 39 1011 13 10000 5.1 190 15:39 05.05.2020
3724 Clouds 39 1011 13 10000 5.1 190 15:20 05.05.2020
3725 Clouds 39 1011 14 10000 5.1 160 14:55 05.05.2020
3726 Clouds 39 1011 14 10000 5.1 160 14:37 05.05.2020
3727 Clouds 39 1011 14 10000 5.1 160 14:37 05.05.2020
3728 Clouds 39 1012 13 10000 5.1 180 14:18 05.05.2020
3729 Clouds 39 1012 13 10000 5.1 180 13:55 05.05.2020
3730 Clouds 39 1012 13 10000 5.1 180 13:36 05.05.2020
3731 Clouds 39 1013 14 10000 5.1 170 13:18 05.05.2020
3732 Clouds 39 1013 14 10000 5.1 170 12:43 05.05.2020
3733 Clouds 39 1013 14 10000 5.1 170 12:25 05.05.2020
3734 Clouds 38 1014 12 10000 6.2 170 11:59 05.05.2020
3735 Clouds 38 1014 12 10000 6.2 170 11:40 05.05.2020
3736 Clouds 38 1014 12 10000 6.2 170 11:19 05.05.2020
3737 Clouds 37 1014 11 10000 6.2 170 10:55 05.05.2020
3738 Clouds 37 1014 11 10000 6.2 170 10:36 05.05.2020
3739 Clouds 37 1015 11 10000 6.2 170 10:18 05.05.2020
3740 Clouds 37 1015 11 10000 6.2 170 09:44 05.05.2020
3741 Clear 37 1015 11 10000 6.2 170 09:26 05.05.2020
3742 Clear 35 1015 11 10000 5.1 170 08:58 05.05.2020
3743 Clear 35 1015 11 10000 5.1 170 08:39 05.05.2020
3744 Clear 32 1015 13 10000 4.1 170 08:18 05.05.2020
3745 Clear 32 1015 13 10000 4.1 170 07:43 05.05.2020
3746 Clear 32 1015 13 10000 4.1 170 07:21 05.05.2020
3747 Clear 28 1015 17 10000 2.1 150 06:54 05.05.2020
3748 Clear 28 1015 17 10000 2.1 150 06:31 05.05.2020
3749 Clear 27 1015 18 10000 3.1 180 05:53 05.05.2020
3750 Clear 26 1014 19 10000 2.1 150 04:58 05.05.2020
3751 Clear 27 1014 18 10000 2.6 150 02:37 05.05.2020
3752 Clouds 28 1015 21 10000 2.1 150 00:56 05.05.2020
3753 Clouds 28 1015 21 10000 2.1 150 00:56 05.05.2020
3754 Clouds 28 1015 21 10000 2.1 150 00:31 05.05.2020
3755 Clouds 28 1015 15 10000 3.6 130 23:48 04.05.2020
3756 Clear 28 1015 15 10000 3.6 130 23:26 04.05.2020
3757 Clear 29 1015 16 10000 3.1 140 22:59 04.05.2020
3758 Clear 29 1015 16 10000 3.1 140 22:41 04.05.2020
3759 Clear 29 1015 16 10000 3.1 140 22:21 04.05.2020
3760 Clear 29 1015 16 10000 3.1 140 22:21 04.05.2020
3761 Clear 30 1015 16 10000 2.6 120 21:57 04.05.2020
3762 Clear 30 1015 16 10000 2.6 120 21:37 04.05.2020
3763 Clear 31 1015 20 10000 2.1 130 21:19 04.05.2020
3764 Clear 31 1015 20 10000 2.1 130 21:19 04.05.2020
3765 Clear 31 1015 20 10000 2.1 130 20:41 04.05.2020
3766 Clear 31 1015 20 10000 2.1 130 20:41 04.05.2020
3767 Clear 31 1015 20 10000 2.1 130 20:41 04.05.2020
3768 Clear 31 1015 20 10000 2.1 130 20:41 04.05.2020
3769 Clear 31 1015 20 10000 2.1 130 20:41 04.05.2020
3770 Clear 31 1015 20 10000 2.1 130 20:20 04.05.2020
3771 Clear 33 1014 14 10000 4.1 110 19:55 04.05.2020
3772 Clear 33 1014 14 10000 4.1 110 19:37 04.05.2020
3773 Clear 34 1014 18 10000 2.1 130 19:18 04.05.2020
3774 Clear 34 1014 18 10000 2.1 130 18:39 04.05.2020
3775 Clear 34 1014 18 10000 2.1 130 18:39 04.05.2020
3776 Clear 36 1014 11 10000 3.1 140 18:20 04.05.2020
3777 Clear 36 1014 11 10000 3.1 140 17:56 04.05.2020
3778 Clear 36 1014 11 10000 3.1 140 17:38 04.05.2020
3779 Clear 36 1014 11 10000 3.1 140 17:19 04.05.2020
3780 Clear 37 1013 13 10000 3.1 160 16:44 04.05.2020
3781 Clear 37 1013 13 10000 3.1 160 16:44 04.05.2020
3782 Clear 37 1013 13 10000 3.1 160 16:23 04.05.2020
3783 Clear 37 1014 11 10000 3.6 120 15:58 04.05.2020
3784 Clear 37 1014 11 10000 3.6 120 15:40 04.05.2020
3785 Clouds 37 1014 10 10000 4.1 120 15:21 04.05.2020
3786 Clouds 37 1014 10 10000 4.1 120 14:48 04.05.2020
3787 Clouds 37 1014 10 10000 4.1 120 14:21 04.05.2020
3788 Clouds 37 1015 11 10000 3.6 110 13:21 04.05.2020
3789 Clouds 37 1015 11 10000 3.6 110 13:21 04.05.2020
3790 Clouds 37 1015 11 10000 3.6 110 13:21 04.05.2020
3791 Clear 36 1016 8 10000 4.1 110 12:44 04.05.2020
3792 Clear 36 1016 8 10000 4.1 110 12:44 04.05.2020
3793 Clear 36 1016 8 10000 4.1 110 12:44 04.05.2020
3794 Clear 36 1016 8 10000 4.1 110 12:44 04.05.2020
3795 Clear 36 1016 8 10000 4.1 110 12:44 04.05.2020
3796 Clear 34 1017 10 10000 4.1 120 11:19 04.05.2020
3797 Clear 32 1018 10 10000 4.6 110 09:27 04.05.2020
3798 Clear 28 1017 30 10000 5.59 109 07:53 04.05.2020
3799 Clear 28 1017 30 10000 5.59 109 07:33 04.05.2020
3800 Clear 28 1017 30 10000 5.59 109 07:33 04.05.2020
3801 Clear 21 1016 37 10000 2.68 86 05:24 04.05.2020
3802 Clear 21 1016 37 10000 2.68 86 04:50 04.05.2020
3803 Clear 24 1015 29 10000 1.5 170 02:42 04.05.2020
3804 Clear 24 1015 27 10000 1.5 160 01:22 04.05.2020
3805 Clear 25 1015 29 10000 1 70 23:59 03.05.2020
3806 Clear 25 1015 29 10000 1 70 23:41 03.05.2020
3807 Clear 25 1015 29 10000 1 70 23:23 03.05.2020
3808 Clear 27 1016 22 10000 1.5 80 22:43 03.05.2020
3809 Clear 27 1016 22 10000 1.5 80 22:24 03.05.2020
3810 Clear 27 1016 22 10000 1 80 21:42 03.05.2020
3811 Clear 27 1016 22 10000 1 80 21:22 03.05.2020
3812 Clear 28 1016 23 10000 1.5 80 20:57 03.05.2020
3813 Clear 28 1016 23 10000 1.5 80 20:57 03.05.2020
3814 Clear 28 1016 23 10000 1.5 80 20:57 03.05.2020
3815 Clear 28 1016 23 10000 1.5 80 20:57 03.05.2020
3816 Clear 28 1016 23 10000 1.5 80 20:57 03.05.2020
3817 Clear 28 1016 23 10000 1.5 80 20:39 03.05.2020
3818 Clear 30 1015 20 10000 1.5 50 20:20 03.05.2020
3819 Clear 30 1015 20 10000 1.5 50 19:47 03.05.2020
3820 Clear 30 1015 20 10000 1.5 50 19:27 03.05.2020
3821 Clear 30 1015 20 10000 1.5 50 19:27 03.05.2020
3822 Clear 30 1015 20 10000 1.5 50 19:27 03.05.2020
3823 Clear 32 1014 13 10000 2.6 40 18:41 03.05.2020
3824 Clear 32 1014 13 10000 2.6 40 18:41 03.05.2020
3825 Clear 32 1014 13 10000 2.6 40 18:41 03.05.2020
3826 Clear 32 1014 13 10000 2.6 40 18:41 03.05.2020
3827 Clear 32 1014 13 10000 2.6 40 18:41 03.05.2020
3828 Clear 32 1014 13 10000 2.6 40 18:21 03.05.2020
3829 Clear 34 1013 10 10000 4.1 20 17:59 03.05.2020
3830 Clear 34 1013 10 10000 4.1 20 17:40 03.05.2020
3831 Clear 34 1013 10 10000 4.1 20 17:21 03.05.2020
3832 Clear 35 1013 10 10000 4.6 20 16:45 03.05.2020
3833 Clear 35 1013 10 10000 4.6 20 16:45 03.05.2020
3834 Clear 35 1013 10 10000 4.6 20 16:20 03.05.2020
3835 Clear 36 1013 8 10000 5.7 20 15:58 03.05.2020
3836 Clear 36 1013 8 10000 5.7 20 15:39 03.05.2020
3837 Clear 36 1013 9 10000 3.6 10 15:20 03.05.2020
3838 Clear 36 1013 9 10000 3.6 10 14:58 03.05.2020
3839 Clear 36 1013 9 10000 3.6 10 14:39 03.05.2020
3840 Clear 36 1013 9 10000 3.6 10 14:20 03.05.2020
3841 Clear 36 1014 9 10000 4.6 10 13:45 03.05.2020
3842 Clear 36 1014 9 10000 4.6 10 13:45 03.05.2020
3843 Clear 36 1014 9 10000 4.6 10 13:44 03.05.2020
3844 Clear 34 1015 10 10000 4.1 50 12:59 03.05.2020
3845 Clear 34 1015 10 10000 4.1 50 12:59 03.05.2020
3846 Clear 34 1015 10 10000 4.1 50 12:41 03.05.2020
3847 Clear 34 1016 10 10000 4.6 20 12:18 03.05.2020
3848 Clear 34 1016 10 10000 4.6 20 11:55 03.05.2020
3849 Clear 34 1016 10 10000 4.6 20 11:37 03.05.2020
3850 Clouds 33 1016 8 10000 4.1 40 11:18 03.05.2020
3851 Clouds 33 1016 8 10000 4.1 40 10:39 03.05.2020
3852 Clouds 33 1016 8 10000 4.1 40 10:39 03.05.2020
3853 Clouds 33 1016 8 10000 4.1 40 10:39 03.05.2020
3854 Clouds 33 1016 8 10000 4.1 40 10:39 03.05.2020
3855 Clouds 33 1016 8 10000 4.1 40 10:39 03.05.2020
3856 Clouds 31 1017 12 10000 4.6 80 09:52 03.05.2020
3857 Clouds 31 1017 12 10000 4.6 80 09:51 03.05.2020
3858 Clouds 31 1017 12 10000 4.6 80 09:27 03.05.2020
3859 Clouds 31 1017 12 10000 4.6 80 09:27 03.05.2020
3860 Clouds 31 1017 12 10000 4.6 80 09:27 03.05.2020
3861 Clouds 31 1017 12 10000 4.6 80 09:27 03.05.2020
3862 Clouds 30 1016 9 10000 4.1 50 08:52 03.05.2020
3863 Clouds 30 1016 9 10000 4.1 50 08:52 03.05.2020
3864 Clouds 30 1016 9 10000 4.1 50 08:52 03.05.2020
3865 Clouds 30 1016 10 10000 4.1 50 08:19 03.05.2020
3866 Clouds 30 1016 10 10000 4.1 50 08:19 03.05.2020
3867 Clouds 27 1016 18 10000 4.1 10 08:19 03.05.2020
3868 Clouds 30 1016 10 10000 4.1 50 08:19 03.05.2020
3869 Clouds 27 1016 18 10000 4.1 10 07:38 03.05.2020
3870 Clouds 24 1014 22 10000 3.6 350 06:19 03.05.2020
3871 Clouds 24 1014 22 10000 3.6 350 05:44 03.05.2020
3872 Clouds 24 1014 14 10000 3.1 350 04:29 03.05.2020
3873 Clouds 25 1013 13 10000 3.1 360 03:58 03.05.2020
3874 Clouds 26 1012 16 10000 3.6 20 02:47 03.05.2020
3875 Clouds 26 1012 16 10000 3.6 20 02:22 03.05.2020
3876 Clouds 27 1012 24 10000 3.1 30 01:41 03.05.2020
3877 Clear 27 1012 24 10000 3.1 30 01:23 03.05.2020
3878 Clear 27 1012 18 10000 2.1 20 00:40 03.05.2020
3879 Clear 27 1012 18 10000 2.1 20 00:21 03.05.2020
3880 Clear 28 1012 13 10000 4.6 340 23:55 02.05.2020
3881 Clear 28 1012 13 10000 4.6 340 23:37 02.05.2020
3882 Clear 29 1013 12 7000 5.7 350 23:18 02.05.2020
3883 Clear 29 1013 12 7000 5.7 350 22:41 02.05.2020
3884 Clear 29 1013 11 7000 5.7 350 22:22 02.05.2020
3885 Clear 30 1012 12 6000 5.7 340 21:55 02.05.2020
3886 Clear 30 1012 12 6000 5.7 340 21:37 02.05.2020
3887 Clear 32 1012 11 7000 5.7 340 21:18 02.05.2020
3888 Clear 32 1012 11 7000 5.7 340 20:54 02.05.2020
3889 Clear 32 1012 11 7000 5.7 340 20:36 02.05.2020
3890 Clouds 33 1011 13 7000 6.7 340 20:18 02.05.2020
3891 Clouds 33 1011 13 7000 6.7 340 19:39 02.05.2020
3892 Clouds 33 1011 13 7000 6.7 340 19:21 02.05.2020
3893 Clouds 34 1010 14 6000 7.2 350 18:59 02.05.2020
3894 Clouds 34 1010 14 6000 7.2 350 18:39 02.05.2020
3895 Clouds 34 1010 14 6000 7.2 350 18:21 02.05.2020
3896 Clouds 36 1009 11 6000 6.2 320 17:57 02.05.2020
3897 Clouds 36 1009 11 6000 6.2 320 17:38 02.05.2020
3898 Clear 36 1009 11 6000 6.2 320 17:19 02.05.2020
3899 Clear 37 1009 12 10000 5.1 270 16:56 02.05.2020
3900 Clear 37 1009 12 10000 5.1 270 16:38 02.05.2020
3901 Clear 37 1009 12 10000 5.1 270 16:20 02.05.2020
3902 Clear 37 1008 13 10000 4.6 250 15:41 02.05.2020
3903 Clear 38 1009 12 10000 4.1 230 15:20 02.05.2020
3904 Clear 38 1009 12 10000 4.1 230 14:44 02.05.2020
3905 Clear 37 1009 13 10000 3.6 230 14:26 02.05.2020
3906 Clear 37 1009 13 10000 3.6 230 13:59 02.05.2020
3907 Clear 37 1009 13 10000 3.6 230 13:39 02.05.2020
3908 Clear 37 1009 13 10000 3.6 230 13:19 02.05.2020
3909 Clear 37 1010 11 10000 4.6 230 12:41 02.05.2020
3910 Clear 37 1010 11 10000 4.6 230 12:22 02.05.2020
3911 Clear 37 1010 13 10000 4.6 210 11:57 02.05.2020
3912 Clear 37 1010 13 10000 4.6 210 11:39 02.05.2020
3913 Clouds 37 1010 13 10000 4.6 210 11:20 02.05.2020
3914 Clouds 35 1011 14 10000 6.2 200 10:41 02.05.2020
3915 Clouds 35 1011 14 10000 6.2 200 10:22 02.05.2020
3916 Clouds 33 1011 18 10000 6.2 180 09:59 02.05.2020
3917 Clear 33 1011 18 10000 6.2 180 09:41 02.05.2020
3918 Clouds 33 1011 18 10000 6.2 180 09:23 02.05.2020
3919 Clear 33 1011 18 10000 6.2 180 09:23 02.05.2020
3920 Clear 31 1012 22 10000 5.7 180 08:57 02.05.2020
3921 Clear 31 1012 22 10000 5.7 180 08:38 02.05.2020
3922 Clear 31 1012 22 10000 5.7 180 08:19 02.05.2020
3923 Clear 29 1012 28 10000 5.1 170 07:45 02.05.2020
3924 Clear 29 1012 28 10000 5.1 170 07:27 02.05.2020
3925 Clear 29 1012 28 10000 5.1 170 07:27 02.05.2020
3926 Clear 27 1012 36 10000 3.6 150 06:43 02.05.2020
3927 Clear 25 1012 44 10000 2.1 140 05:28 02.05.2020
3928 Clear 25 1011 44 10000 2.1 140 04:31 02.05.2020
3929 Clear 25 1010 47 10000 2.6 140 03:56 02.05.2020
3930 Clear 26 1010 41 10000 2.1 140 02:42 02.05.2020
3931 Clouds 27 1010 36 10000 2.6 140 01:59 02.05.2020
3932 Clouds 27 1010 36 10000 2.6 140 01:28 02.05.2020
3933 Clouds 27 1010 34 10000 3.1 130 00:44 02.05.2020
3934 Clouds 27 1010 34 10000 3.1 130 00:24 02.05.2020
3935 Clouds 28 1011 30 10000 4.6 110 23:56 01.05.2020
3936 Clouds 28 1011 30 10000 4.6 110 23:37 01.05.2020
3937 Clouds 29 1011 25 10000 3.1 100 23:18 01.05.2020
3938 Clouds 29 1011 25 10000 3.1 100 22:40 01.05.2020
3939 Clouds 29 1011 25 10000 3.1 100 22:21 01.05.2020
3940 Clouds 30 1011 23 10000 2.6 80 21:58 01.05.2020
3941 Clouds 30 1011 23 10000 2.6 80 21:39 01.05.2020
3942 Clear 31 1010 19 8000 4.6 110 21:20 01.05.2020
3943 Clear 31 1010 19 8000 4.6 110 20:58 01.05.2020
3944 Clear 31 1010 19 8000 4.6 110 20:40 01.05.2020
3945 Clouds 32 1010 17 8000 5.1 110 20:20 01.05.2020
3946 Clouds 32 1010 17 8000 5.1 110 19:56 01.05.2020
3947 Clouds 32 1010 17 8000 5.1 110 19:38 01.05.2020
3948 Clouds 33 1010 17 8000 3.1 130 19:19 01.05.2020
3949 Clouds 33 1010 17 8000 3.1 130 18:55 01.05.2020
3950 Clouds 33 1010 17 8000 3.1 130 18:37 01.05.2020
3951 Clouds 35 1010 17 6000 2.1 140 18:18 01.05.2020
3952 Clouds 35 1010 17 6000 2.1 140 17:40 01.05.2020
3953 Clouds 35 1010 17 6000 2.1 140 17:21 01.05.2020
3954 Clear 36 1010 16 6000 3.6 140 16:57 01.05.2020
3955 Clear 36 1010 16 6000 3.6 140 16:39 01.05.2020
3956 Clear 36 1010 16 8000 2.6 110 16:20 01.05.2020
3957 Clear 36 1010 16 8000 2.6 110 15:57 01.05.2020
3958 Clear 36 1010 16 8000 2.6 110 15:39 01.05.2020
3959 Clear 36 1010 16 8000 2.6 110 15:19 01.05.2020
3960 Clear 36 1010 20 10000 2.6 120 14:43 01.05.2020
3961 Clear 36 1010 20 10000 2.6 120 14:24 01.05.2020
3962 Clear 35 1012 19 10000 3.1 130 13:55 01.05.2020
3963 Clear 35 1012 19 10000 3.1 130 13:36 01.05.2020
3964 Clear 34 1012 23 10000 2.6 50 13:18 01.05.2020
3965 Clear 34 1012 23 10000 2.6 50 12:54 01.05.2020
3966 Clear 34 1012 23 10000 2.6 50 12:36 01.05.2020
3967 Clear 33 1013 22 10000 4.1 80 12:18 01.05.2020
3968 Clear 33 1013 22 10000 4.1 80 11:41 01.05.2020
3969 Clear 31 1014 25 10000 3.6 60 11:21 01.05.2020
3970 Clear 31 1014 25 10000 3.6 60 10:56 01.05.2020
3971 Clear 31 1014 25 10000 3.6 60 10:37 01.05.2020
3972 Clear 30 1014 28 10000 5.1 80 10:19 01.05.2020
3973 Clear 30 1014 28 10000 5.1 80 09:43 01.05.2020
3974 Clouds 28 1015 37 10000 4.6 90 09:19 01.05.2020
3975 Clouds 28 1015 37 10000 4.6 90 08:47 01.05.2020
3976 Clouds 28 1015 37 10000 4.6 90 08:28 01.05.2020
3977 Clouds 26 1015 44 10000 3.6 70 07:59 01.05.2020
3978 Clouds 26 1015 44 10000 3.6 70 07:40 01.05.2020
3979 Clouds 26 1015 44 10000 3.6 70 07:20 01.05.2020
3980 Clouds 25 1014 50 10000 4.1 70 06:30 01.05.2020
3981 Clear 23 1014 60 10000 2.1 60 05:26 01.05.2020
3982 Clear 23 1013 60 10000 3.1 40 04:19 01.05.2020
3983 Clear 24 1012 38 10000 3.1 30 02:57 01.05.2020
3984 Clear 24 1012 38 10000 3.1 30 02:38 01.05.2020
3985 Clear 26 1012 27 10000 4.1 30 01:54 01.05.2020
3986 Clear 26 1012 27 10000 4.1 30 01:27 01.05.2020
3987 Clear 27 1012 26 10000 3.6 20 00:41 01.05.2020
3988 Clear 27 1012 26 10000 3.6 20 00:41 01.05.2020
3989 Clear 27 1012 26 10000 3.6 20 00:22 01.05.2020
3990 Clear 27 1013 24 7000 3.6 360 23:57 30.04.2020
3991 Clear 27 1013 24 7000 3.6 360 23:39 30.04.2020
3992 Dust 28 1013 24 5000 4.1 360 23:21 30.04.2020
3993 Dust 28 1013 24 5000 4.1 360 22:59 30.04.2020
3994 Dust 28 1013 24 5000 4.1 360 22:39 30.04.2020
3995 Dust 28 1013 24 5000 4.1 360 22:19 30.04.2020
3996 Dust 29 1013 21 5000 4.6 10 21:43 30.04.2020
3997 Dust 29 1013 21 5000 4.6 10 21:23 30.04.2020
3998 Dust 30 1012 19 5000 4.6 10 20:58 30.04.2020
3999 Dust 30 1012 19 5000 4.6 10 20:40 30.04.2020
4000 Dust 31 1011 16 5000 5.1 10 20:18 30.04.2020
4001 Dust 31 1011 16 5000 5.1 10 19:47 30.04.2020
4002 Dust 31 1011 16 5000 5.1 10 19:27 30.04.2020
4003 Dust 33 1010 16 3000 5.1 20 18:59 30.04.2020
4004 Dust 33 1010 16 3000 5.1 20 18:39 30.04.2020
4005 Dust 33 1010 16 3000 5.1 20 18:21 30.04.2020
4006 Dust 34 1010 15 3000 5.1 360 17:58 30.04.2020
4007 Dust 34 1010 15 3000 5.1 360 17:40 30.04.2020
4008 Dust 34 1010 15 3000 5.1 360 17:21 30.04.2020
4009 Dust 35 1009 15 3000 5.1 10 16:57 30.04.2020
4010 Dust 35 1009 15 3000 5.1 10 16:38 30.04.2020
4011 Dust 36 1009 15 2000 5.1 340 16:18 30.04.2020
4012 Dust 36 1009 15 2000 5.1 340 15:45 30.04.2020
4013 Dust 36 1009 15 2000 5.1 340 15:24 30.04.2020
4014 Dust 36 1009 15 2000 6.2 350 14:56 30.04.2020
4015 Dust 36 1009 15 2000 6.2 350 14:38 30.04.2020
4016 Dust 36 1009 15 2000 6.2 350 14:18 30.04.2020
4017 Dust 36 1009 15 2000 5.7 330 13:54 30.04.2020
4018 Dust 36 1009 15 2000 5.7 330 13:36 30.04.2020
4019 Dust 36 1009 15 2000 5.7 330 13:36 30.04.2020
4020 Dust 36 1010 14 2000 5.1 330 13:18 30.04.2020
4021 Dust 36 1010 14 2000 5.1 330 12:41 30.04.2020
4022 Dust 36 1010 14 2000 5.1 330 12:41 30.04.2020
4023 Dust 36 1010 15 2000 5.1 340 12:19 30.04.2020
4024 Dust 36 1010 15 2000 5.1 340 11:57 30.04.2020
4025 Dust 36 1010 15 2000 5.1 340 11:36 30.04.2020
4026 Dust 34 1010 20 1000 7.2 330 11:18 30.04.2020
4027 Dust 34 1010 20 1000 7.2 330 10:41 30.04.2020
4028 Dust 34 1010 20 1000 7.2 330 10:21 30.04.2020
4029 Dust 34 1010 20 1000 5.7 340 09:57 30.04.2020
4030 Dust 34 1010 20 1000 5.7 340 09:39 30.04.2020
4031 Dust 31 1010 27 1000 4.1 310 09:20 30.04.2020
4032 Dust 31 1010 27 1000 4.1 310 08:46 30.04.2020
4033 Dust 31 1010 27 1000 4.1 310 08:26 30.04.2020
4034 Dust 29 1010 32 1000 3.1 300 07:45 30.04.2020
4035 Dust 29 1010 32 1000 3.1 300 07:26 30.04.2020
4036 Dust 28 1010 34 1000 3.6 320 06:55 30.04.2020
4037 Dust 28 1010 34 1000 3.6 320 06:29 30.04.2020
4038 Clouds 28 1008 37 8000 1 170 05:46 30.04.2020
4039 Clouds 27 1008 44 10000 3.82 297 04:43 30.04.2020
4040 Clouds 27 1008 44 10000 4.29 306 04:19 30.04.2020
4041 Clouds 28 1007 42 10000 1.5 140 02:48 30.04.2020
4042 Clouds 28 1007 42 10000 1.5 140 02:26 30.04.2020
4043 Clouds 30 1007 35 10000 1.5 120 01:37 30.04.2020
4044 Clouds 31 1007 29 10000 2.6 20 00:42 30.04.2020
4045 Clouds 31 1007 29 10000 3.6 210 00:20 30.04.2020
4046 Clouds 31 1007 29 10000 3.6 210 23:58 29.04.2020
4047 Clouds 31 1007 29 10000 3.6 210 23:39 29.04.2020
4048 Clouds 31 1007 29 10000 3.6 210 23:21 29.04.2020
4049 Clouds 32 1008 27 8000 4.1 210 22:54 29.04.2020
4050 Clouds 32 1008 27 8000 4.1 210 22:36 29.04.2020
4051 Clouds 32 1007 27 8000 6.2 180 22:18 29.04.2020
4052 Clouds 32 1007 27 8000 6.2 180 21:38 29.04.2020
4053 Clouds 32 1007 27 8000 5.7 180 21:19 29.04.2020
4054 Clouds 32 1007 27 8000 5.7 180 20:57 29.04.2020
4055 Clouds 32 1007 27 8000 5.7 180 20:38 29.04.2020
4056 Clouds 33 1007 26 8000 6.7 190 20:18 29.04.2020
4057 Clouds 33 1007 26 8000 6.7 190 19:43 29.04.2020
4058 Clouds 33 1007 26 8000 6.7 190 19:22 29.04.2020
4059 Clouds 33 1006 24 7000 7.2 180 18:57 29.04.2020
4060 Clouds 33 1006 24 7000 7.2 180 18:38 29.04.2020
4061 Dust 34 1006 23 5000 8.2 170 18:18 29.04.2020
4062 Dust 34 1006 23 5000 8.2 170 17:42 29.04.2020
4063 Dust 34 1006 23 5000 8.2 170 17:21 29.04.2020
4064 Dust 37 1005 19 5000 5.1 170 16:56 29.04.2020
4065 Dust 37 1005 19 5000 5.1 170 16:36 29.04.2020
4066 Dust 37 1006 18 5000 5.7 180 16:18 29.04.2020
4067 Dust 37 1006 18 5000 5.7 180 15:55 29.04.2020
4068 Dust 37 1006 18 5000 5.7 180 15:36 29.04.2020
4069 Dust 37 1006 18 4000 7.7 180 15:18 29.04.2020
4070 Dust 37 1006 18 4000 7.7 180 14:42 29.04.2020
4071 Dust 37 1006 18 4000 7.7 180 14:23 29.04.2020
4072 Dust 37 1007 17 5000 8.2 170 13:56 29.04.2020
4073 Dust 37 1007 17 5000 8.2 170 13:38 29.04.2020
4074 Dust 37 1007 17 5000 8.2 170 13:38 29.04.2020
4075 Clouds 36 1009 18 6000 8.2 170 13:18 29.04.2020
4076 Clouds 36 1009 18 6000 8.2 170 12:41 29.04.2020
4077 Clouds 35 1010 19 6000 9.3 170 12:19 29.04.2020
4078 Clouds 35 1010 19 6000 9.3 170 12:19 29.04.2020
4079 Clouds 35 1010 19 6000 9.3 170 11:58 29.04.2020
4080 Clouds 35 1010 19 6000 9.3 170 11:38 29.04.2020
4081 Clouds 35 1010 19 6000 9.3 170 11:20 29.04.2020
4082 Clear 34 1010 18 8000 8.7 180 10:39 29.04.2020
4083 Clear 34 1010 18 8000 8.7 180 10:20 29.04.2020
4084 Clear 32 1011 22 8000 8.7 170 09:59 29.04.2020
4085 Clear 32 1011 22 8000 8.7 170 09:40 29.04.2020
4086 Clear 31 1011 23 8000 7.7 170 09:19 29.04.2020
4087 Clear 31 1011 23 8000 7.7 170 08:43 29.04.2020
4088 Clear 31 1011 23 8000 7.7 170 08:25 29.04.2020
4089 Clear 29 1011 25 10000 7.2 180 07:53 29.04.2020
4090 Clear 29 1011 25 10000 7.2 180 07:28 29.04.2020
4091 Clear 28 1011 30 10000 5.7 180 06:52 29.04.2020
4092 Clear 28 1011 30 10000 5.7 180 06:32 29.04.2020
4093 Clear 27 1010 32 10000 3.1 170 05:43 29.04.2020
4094 Clear 27 1010 32 10000 3.1 170 05:19 29.04.2020
4095 Clear 26 1009 31 10000 2.6 170 04:19 29.04.2020
4096 Clear 26 1010 27 10000 3.6 130 02:58 29.04.2020
4097 Clouds 28 1011 23 9000 5.1 160 01:54 29.04.2020
4098 Clouds 28 1011 23 9000 5.1 160 01:28 29.04.2020
4099 Clouds 28 1011 26 9000 3.1 150 00:55 29.04.2020
4100 Clouds 28 1011 26 9000 3.1 150 00:36 29.04.2020
4101 Clouds 29 1011 26 8000 4.1 150 00:18 29.04.2020
4102 Clouds 29 1011 26 8000 4.1 150 23:43 28.04.2020
4103 Clouds 30 1011 23 8000 4.1 150 23:20 28.04.2020
4104 Clouds 30 1011 23 8000 4.1 150 22:38 28.04.2020
4105 Clouds 30 1011 23 8000 4.1 150 22:20 28.04.2020
4106 Clouds 30 1011 20 8000 3.1 140 21:59 28.04.2020
4107 Clouds 30 1011 20 8000 3.1 140 21:40 28.04.2020
4108 Clear 30 1011 20 8000 3.1 140 21:21 28.04.2020
4109 Clouds 31 1011 18 8000 4.1 140 20:56 28.04.2020
4110 Clouds 31 1011 18 8000 4.1 140 20:38 28.04.2020
4111 Clouds 31 1011 18 8000 4.1 140 20:20 28.04.2020
4112 Clouds 32 1011 18 7000 3.6 150 19:56 28.04.2020
4113 Clouds 32 1011 18 7000 3.6 150 19:37 28.04.2020
4114 Clouds 32 1011 18 7000 3.6 150 19:19 28.04.2020
4115 Clouds 32 1011 18 7000 3.6 150 19:19 28.04.2020
4116 Clouds 33 1011 17 7000 3.6 140 18:41 28.04.2020
4117 Clouds 33 1011 17 7000 3.6 140 18:20 28.04.2020
4118 Clouds 34 1010 16 8000 4.1 140 17:59 28.04.2020
4119 Clouds 34 1010 16 8000 4.1 140 17:37 28.04.2020
4120 Clouds 35 1010 15 10000 3.6 150 17:19 28.04.2020
4121 Clouds 35 1010 15 10000 3.6 150 16:56 28.04.2020
4122 Clouds 35 1010 15 10000 3.6 150 16:37 28.04.2020
4123 Clouds 35 1011 14 10000 4.6 170 16:18 28.04.2020
4124 Clouds 35 1011 14 10000 4.6 170 16:18 28.04.2020
4125 Clouds 35 1011 14 10000 4.6 170 15:54 28.04.2020
4126 Clouds 35 1011 14 10000 4.6 170 15:36 28.04.2020
4127 Clear 35 1012 16 10000 3.6 160 15:18 28.04.2020
4128 Clear 35 1012 16 10000 3.6 160 14:41 28.04.2020
4129 Clear 34 1013 16 10000 4.1 160 14:22 28.04.2020
4130 Clear 34 1013 16 10000 4.1 160 13:59 28.04.2020
4131 Clear 34 1013 16 10000 4.1 160 13:39 28.04.2020
4132 Clear 34 1013 16 10000 4.1 160 13:21 28.04.2020
4133 Clear 34 1013 15 10000 4.6 170 12:57 28.04.2020
4134 Clear 34 1009 14 0 6.35 177 12:37 28.04.2020
4135 Clear 33 1011 15 0 6.63 173 12:19 28.04.2020
4136 Clear 31 1015 16 10000 4.6 170 11:40 28.04.2020
4137 Clear 31 1015 16 10000 4.6 170 11:20 28.04.2020
4138 Clear 31 1015 16 10000 4.6 170 10:39 28.04.2020
4139 Clear 29 1015 18 10000 4.1 160 10:19 28.04.2020
4140 Clear 29 1015 18 10000 4.1 160 09:59 28.04.2020
4141 Clear 29 1015 18 10000 4.1 160 09:40 28.04.2020
4142 Clear 28 1015 20 10000 4.1 170 09:22 28.04.2020
4143 Clear 28 1015 20 10000 4.1 170 08:46 28.04.2020
4144 Clear 28 1015 20 10000 4.1 170 08:46 28.04.2020
4145 Clear 28 1015 20 10000 4.1 170 08:27 28.04.2020
4146 Clear 26 1015 26 10000 3.1 150 07:58 28.04.2020
4147 Clear 26 1015 26 10000 3.1 150 07:39 28.04.2020
4148 Clear 23 1014 38 10000 1.5 160 07:18 28.04.2020
4149 Clear 23 1014 38 10000 1.5 160 07:18 28.04.2020
4150 Clear 23 1014 38 10000 1.5 160 06:28 28.04.2020
4151 Clear 21 1014 40 10000 1.5 150 05:45 28.04.2020
4152 Clear 21 1014 40 10000 1.5 150 05:26 28.04.2020
4153 Clear 21 1014 40 10000 1.5 150 04:33 28.04.2020
4154 Clear 21 1013 43 10000 3.59 106 02:36 28.04.2020
4155 Clear 23 1013 35 10000 1.5 90 01:25 28.04.2020
4156 Clear 24 1014 23 10000 4.1 80 00:59 28.04.2020
4157 Clear 24 1014 23 10000 4.1 80 00:26 28.04.2020
4158 Clear 25 1014 25 10000 2.6 70 23:47 27.04.2020
4159 Clear 26 1014 24 10000 2.6 70 23:25 27.04.2020
4160 Clear 26 1014 24 10000 2.6 70 22:57 27.04.2020
4161 Clear 26 1014 24 10000 2.6 70 22:38 27.04.2020
4162 Clear 27 1014 22 10000 3.1 70 22:20 27.04.2020
4163 Clear 27 1014 22 10000 3.1 70 21:56 27.04.2020
4164 Clear 27 1014 22 10000 3.1 70 21:38 27.04.2020
4165 Clear 27 1014 22 10000 3.1 70 21:18 27.04.2020
4166 Clear 27 1014 22 10000 3.1 70 21:18 27.04.2020
4167 Clear 27 1014 22 10000 3.1 70 20:54 27.04.2020
4168 Clear 27 1014 22 10000 3.1 70 20:36 27.04.2020
4169 Clear 29 1014 18 10000 3.1 70 20:18 27.04.2020
4170 Clear 29 1014 18 10000 3.1 70 19:40 27.04.2020
4171 Clear 30 1013 19 10000 2.6 70 19:21 27.04.2020
4172 Clear 30 1013 19 10000 2.6 70 18:58 27.04.2020
4173 Clear 30 1013 19 10000 2.6 70 18:40 27.04.2020
4174 Clear 30 1013 19 10000 2.6 70 18:40 27.04.2020
4175 Clear 31 1013 18 10000 2.1 70 18:19 27.04.2020
4176 Clear 31 1013 18 10000 2.1 70 17:54 27.04.2020
4177 Clear 31 1013 18 10000 2.1 70 17:54 27.04.2020
4178 Clear 31 1013 18 10000 2.1 70 17:36 27.04.2020
4179 Clear 32 1012 18 10000 2.1 90 17:18 27.04.2020
4180 Clear 32 1012 18 10000 2.1 90 16:40 27.04.2020
4181 Clear 32 1012 18 10000 2.1 90 16:22 27.04.2020
4182 Clear 32 1012 22 10000 1.5 70 15:57 27.04.2020
4183 Clear 32 1012 22 10000 1.5 70 15:38 27.04.2020
4184 Clear 32 1012 22 10000 1.5 70 15:19 27.04.2020
4185 Clear 32 1013 22 10000 2.1 60 14:56 27.04.2020
4186 Clear 32 1013 22 10000 2.1 60 14:56 27.04.2020
4187 Clear 32 1013 22 10000 2.1 60 14:37 27.04.2020
4188 Clear 31 1014 19 10000 2.6 110 14:18 27.04.2020
4189 Clear 31 1014 19 10000 2.6 110 13:42 27.04.2020
4190 Clear 30 1014 19 10000 3.6 50 13:21 27.04.2020
4191 Clear 30 1014 19 10000 3.6 50 12:57 27.04.2020
4192 Clear 30 1014 19 10000 3.6 50 12:39 27.04.2020
4193 Clear 29 1015 18 10000 4.1 60 12:20 27.04.2020
4194 Clear 29 1015 18 10000 4.1 60 11:41 27.04.2020
4195 Clear 28 1016 18 10000 5.1 40 11:21 27.04.2020
4196 Clear 28 1016 18 10000 5.1 40 10:57 27.04.2020
4197 Clear 28 1016 18 10000 5.1 40 10:39 27.04.2020
4198 Clear 27 1017 19 10000 4.6 50 10:20 27.04.2020
4199 Clear 27 1017 19 10000 4.6 50 09:44 27.04.2020
4200 Clear 27 1017 19 10000 4.6 50 09:44 27.04.2020
4201 Clear 25 1016 22 10000 5.7 40 09:19 27.04.2020
4202 Clear 25 1016 22 10000 5.7 40 08:58 27.04.2020
4203 Clear 25 1016 22 10000 5.7 40 08:40 27.04.2020
4204 Clear 24 1016 23 10000 6.2 30 08:22 27.04.2020
4205 Clear 24 1016 23 10000 6.2 30 07:44 27.04.2020
4206 Clear 23 1016 25 10000 5.7 30 07:20 27.04.2020
4207 Clear 23 1016 25 10000 5.7 30 06:56 27.04.2020
4208 Clear 23 1016 25 10000 5.7 30 06:27 27.04.2020
4209 Clear 23 1016 25 10000 5.7 30 06:27 27.04.2020
4210 Clear 22 1015 26 10000 5.1 20 05:50 27.04.2020
4211 Clear 23 1015 25 10000 5.7 20 04:49 27.04.2020
4212 Clear 23 1014 28 10000 4.6 20 03:59 27.04.2020
4213 Clear 23 1014 28 10000 4.6 20 03:35 27.04.2020
4214 Clear 25 1012 23 8000 5.7 20 01:41 27.04.2020
4215 Clear 26 1012 19 8000 5.7 360 00:58 27.04.2020
4216 Clear 26 1012 19 8000 5.7 360 00:20 27.04.2020
4217 Clear 27 1012 18 8000 3.6 350 23:56 26.04.2020
4218 Clear 27 1012 18 8000 3.6 350 23:38 26.04.2020
4219 Clear 27 1012 18 8000 3.6 350 23:19 26.04.2020
4220 Clear 28 1012 17 8000 3.6 360 22:58 26.04.2020
4221 Clear 28 1012 17 8000 3.6 360 22:39 26.04.2020
4222 Clear 28 1012 17 8000 3.6 360 22:39 26.04.2020
4223 Clear 29 1012 14 8000 4.6 20 22:20 26.04.2020
4224 Clear 29 1012 14 8000 4.6 20 21:57 26.04.2020
4225 Clear 29 1012 14 8000 4.6 20 21:38 26.04.2020
4226 Clear 30 1011 11 8000 4.1 350 21:18 26.04.2020
4227 Clear 30 1011 11 8000 4.1 350 20:42 26.04.2020
4228 Clear 30 1011 11 8000 4.1 350 20:24 26.04.2020
4229 Clear 32 1010 11 8000 5.7 340 19:59 26.04.2020
4230 Clear 32 1010 11 8000 5.7 340 19:38 26.04.2020
4231 Clear 33 1009 11 8000 2.6 290 19:20 26.04.2020
4232 Clear 33 1009 11 8000 2.6 290 18:57 26.04.2020
4233 Clear 33 1009 11 8000 2.6 290 18:39 26.04.2020
4234 Clear 33 1009 11 8000 2.6 290 18:21 26.04.2020
4235 Clear 35 1009 11 8000 6.2 290 17:42 26.04.2020
4236 Clear 35 1009 11 8000 6.2 290 17:22 26.04.2020
4237 Clear 36 1008 12 8000 6.7 280 16:55 26.04.2020
4238 Clear 36 1008 12 8000 6.7 280 16:37 26.04.2020
4239 Clear 37 1008 12 7000 6.7 290 16:18 26.04.2020
4240 Clear 37 1008 12 7000 6.7 290 15:55 26.04.2020
4241 Clear 37 1008 12 7000 6.7 290 15:36 26.04.2020
4242 Clear 37 1009 11 7000 6.2 290 15:18 26.04.2020
4243 Clear 37 1009 11 7000 6.2 290 14:40 26.04.2020
4244 Clear 37 1009 11 6000 5.1 260 14:19 26.04.2020
4245 Clear 37 1009 11 6000 5.1 260 13:58 26.04.2020
4246 Clear 37 1009 11 6000 5.1 260 13:38 26.04.2020
4247 Clear 37 1009 11 6000 5.1 260 13:20 26.04.2020
4248 Clear 36 1010 12 7000 5.1 260 12:54 26.04.2020
4249 Clear 36 1010 12 7000 5.1 260 12:36 26.04.2020
4250 Clear 36 1010 14 7000 4.6 260 12:18 26.04.2020
4251 Clear 36 1010 14 7000 4.6 260 11:42 26.04.2020
4252 Clear 36 1010 14 7000 4.6 260 11:23 26.04.2020
4253 Clear 35 1011 14 7000 4.6 260 10:59 26.04.2020
4254 Clear 35 1011 14 7000 4.6 260 10:41 26.04.2020
4255 Clear 35 1011 14 7000 4.6 260 10:41 26.04.2020
4256 Dust 34 1011 15 5000 5.7 250 10:23 26.04.2020
4257 Dust 34 1011 15 5000 5.7 250 09:57 26.04.2020
4258 Dust 34 1011 15 5000 5.7 250 09:37 26.04.2020
4259 Dust 34 1011 15 5000 5.7 250 09:18 26.04.2020
4260 Dust 33 1011 21 3000 4.6 230 08:41 26.04.2020
4261 Dust 33 1011 21 3000 4.6 230 08:21 26.04.2020
4262 Dust 31 1011 27 3000 3.1 230 07:48 26.04.2020
4263 Dust 31 1011 27 3000 3.1 230 07:23 26.04.2020
4264 Dust 30 1011 30 5000 2.6 220 06:46 26.04.2020
4265 Clouds 28 1010 34 10000 3.6 210 06:20 26.04.2020
4266 Clouds 28 1010 34 10000 3.6 210 05:47 26.04.2020
4267 Clouds 28 1010 34 10000 3.6 210 05:28 26.04.2020
4268 Clouds 29 1009 30 8000 4.6 200 04:30 26.04.2020
4269 Rain 29 1009 30 7000 3.6 230 03:33 26.04.2020
4270 Clear 27 1007 36 7000 3.6 170 02:33 26.04.2020
4271 Clear 27 1008 39 7000 3.1 150 01:54 26.04.2020
4272 Clear 27 1008 39 7000 3.1 150 01:35 26.04.2020
4273 Clouds 28 1008 37 10000 3.6 140 00:41 26.04.2020
4274 Clouds 28 1008 45 10000 2.6 140 00:20 26.04.2020
4275 Clouds 28 1008 45 10000 2.6 140 23:40 25.04.2020
4276 Clouds 28 1008 45 10000 2.6 140 23:21 25.04.2020
4277 Clouds 28 1008 45 10000 2.6 140 22:59 25.04.2020
4278 Clouds 28 1008 45 10000 2.6 140 22:41 25.04.2020
4279 Clouds 28 1008 45 10000 2.6 140 22:19 25.04.2020
4280 Clouds 29 1008 48 10000 1.5 150 21:57 25.04.2020
4281 Clouds 29 1008 48 10000 1.5 150 21:37 25.04.2020
4282 Clouds 29 1008 48 10000 1.5 150 21:18 25.04.2020
4283 Thunderstorm 30 1008 48 9000 2.1 200 20:42 25.04.2020
4284 Thunderstorm 30 1008 48 9000 2.1 200 20:22 25.04.2020
4285 Thunderstorm 32 1008 27 7000 4.6 180 19:58 25.04.2020
4286 Thunderstorm 32 1008 27 7000 4.6 180 19:38 25.04.2020
4287 Thunderstorm 36 1007 15 9000 5.1 190 19:19 25.04.2020
4288 Thunderstorm 36 1007 15 9000 5.1 190 18:43 25.04.2020
4289 Clouds 37 1007 16 10000 3.6 180 18:21 25.04.2020
4290 Thunderstorm 36 1007 15 9000 5.1 190 18:21 25.04.2020
4291 Clouds 37 1007 16 10000 3.6 180 17:59 25.04.2020
4292 Clouds 37 1007 16 10000 3.6 180 17:39 25.04.2020
4293 Clouds 37 1007 13 10000 7.7 180 17:20 25.04.2020
4294 Clouds 37 1007 13 10000 7.7 180 16:59 25.04.2020
4295 Clouds 37 1007 13 10000 7.7 180 16:41 25.04.2020
4296 Clouds 37 1007 13 10000 7.7 180 16:21 25.04.2020
4297 Clouds 39 1007 13 10000 6.2 220 15:54 25.04.2020
4298 Clouds 39 1007 13 10000 6.2 220 15:36 25.04.2020
4299 Clouds 39 1008 12 10000 6.2 200 15:18 25.04.2020
4300 Clouds 39 1008 12 10000 6.2 200 14:39 25.04.2020
4301 Clouds 39 1008 13 10000 6.2 200 14:20 25.04.2020
4302 Clouds 39 1008 13 10000 6.2 200 13:59 25.04.2020
4303 Clouds 39 1008 13 10000 6.2 200 13:40 25.04.2020
4304 Clouds 39 1008 13 10000 6.2 200 13:18 25.04.2020
4305 Clear 38 1009 15 10000 6.7 220 12:55 25.04.2020
4306 Clear 38 1009 15 10000 6.7 220 12:36 25.04.2020
4307 Clear 38 1010 14 10000 6.7 200 12:18 25.04.2020
4308 Clear 38 1010 14 10000 6.7 200 11:41 25.04.2020
4309 Clear 38 1010 14 10000 6.7 200 11:23 25.04.2020
4310 Clear 37 1011 13 10000 6.2 220 10:55 25.04.2020
4311 Clear 37 1011 13 10000 6.2 220 10:37 25.04.2020
4312 Clear 36 1011 13 9000 7.2 210 10:18 25.04.2020
4313 Clear 36 1011 13 9000 7.2 210 09:41 25.04.2020
4314 Clear 36 1011 13 9000 7.2 210 09:21 25.04.2020
4315 Clear 34 1011 17 8000 2.6 220 08:55 25.04.2020
4316 Clear 34 1011 17 8000 2.6 220 08:36 25.04.2020
4317 Clear 34 1011 17 8000 2.6 220 08:18 25.04.2020
4318 Clear 32 1011 22 8000 1.5 190 07:42 25.04.2020
4319 Clear 27 1011 36 8000 2.1 210 07:19 25.04.2020
4320 Clear 27 1011 36 8000 2.1 210 06:42 25.04.2020
4321 Clear 25 1010 38 8000 1.11 193 05:44 25.04.2020
4322 Clear 25 1010 38 8000 1.11 193 05:26 25.04.2020
4323 Clear 25 1010 44 8000 1 20 04:20 25.04.2020
4324 Clear 29 1010 28 8000 3.1 270 02:44 25.04.2020
4325 Clear 30 1010 28 8000 2.6 250 02:18 25.04.2020
4326 Clear 30 1010 28 8000 2.6 250 01:45 25.04.2020
4327 Clear 30 1010 28 8000 2.6 250 01:19 25.04.2020
4328 Clear 30 1010 30 10000 1.5 270 00:42 25.04.2020
4329 Clear 32 1011 22 10000 3.6 180 00:18 25.04.2020
4330 Clear 32 1011 22 10000 3.6 180 23:41 24.04.2020
4331 Clouds 31 1011 25 10000 3.1 200 23:20 24.04.2020
4332 Clouds 31 1011 25 10000 3.1 200 22:41 24.04.2020
4333 Clouds 31 1011 25 10000 3.1 200 22:21 24.04.2020
4334 Clouds 31 1011 31 10000 1.5 150 21:59 24.04.2020
4335 Clouds 31 1011 31 10000 1.5 150 21:40 24.04.2020
4336 Clouds 31 1011 31 10000 1.5 150 21:22 24.04.2020
4337 Clouds 30 1010 37 10000 1 110 20:58 24.04.2020
4338 Clouds 30 1010 37 10000 1 110 20:40 24.04.2020
4339 Clouds 33 1010 27 10000 1.5 110 20:19 24.04.2020
4340 Clouds 33 1010 27 10000 1.5 110 19:47 24.04.2020
4341 Clouds 33 1010 27 10000 1.5 110 19:28 24.04.2020
4342 Clouds 34 1009 24 10000 1.5 80 18:58 24.04.2020
4343 Clouds 34 1009 24 10000 1.5 80 18:38 24.04.2020
4344 Clouds 37 1009 20 10000 1.5 290 18:20 24.04.2020
4345 Clouds 37 1009 20 10000 1.5 290 18:20 24.04.2020
4346 Clouds 37 1009 20 10000 1.5 290 17:42 24.04.2020
4347 Clouds 37 1009 20 10000 1.5 290 17:24 24.04.2020
4348 Clouds 38 1009 18 10000 2.1 180 16:59 24.04.2020
4349 Clouds 38 1009 18 10000 2.1 180 16:41 24.04.2020
4350 Clouds 38 1009 18 10000 2.1 180 16:41 24.04.2020
4351 Clouds 37 1009 16 10000 2.6 240 16:22 24.04.2020
4352 Clouds 37 1009 16 10000 2.6 240 15:59 24.04.2020
4353 Clouds 37 1009 16 10000 2.6 240 15:38 24.04.2020
4354 Clouds 38 1010 17 10000 2.1 150 15:18 24.04.2020
4355 Clouds 38 1010 17 10000 2.1 150 14:40 24.04.2020
4356 Clouds 38 1010 17 10000 2.1 150 14:20 24.04.2020
4357 Clouds 36 1011 14 10000 6.7 250 13:57 24.04.2020
4358 Clouds 36 1011 14 10000 6.7 250 13:38 24.04.2020
4359 Clouds 38 1011 14 10000 3.6 230 13:19 24.04.2020
4360 Clouds 38 1011 14 10000 3.6 230 12:42 24.04.2020
4361 Clouds 38 1011 14 10000 3.6 230 12:23 24.04.2020
4362 Clear 37 1012 14 10000 5.1 200 11:58 24.04.2020
4363 Clear 37 1012 14 10000 5.1 200 11:38 24.04.2020
4364 Clear 37 1012 14 10000 5.1 200 11:19 24.04.2020
4365 Clear 37 1013 14 10000 5.7 200 10:54 24.04.2020
4366 Clear 37 1013 14 10000 5.7 200 10:36 24.04.2020
4367 Clear 36 1013 16 10000 3.6 190 10:18 24.04.2020
4368 Clear 36 1013 16 10000 3.6 190 09:45 24.04.2020
4369 Clear 36 1013 16 10000 3.6 190 09:24 24.04.2020
4370 Clear 32 1013 22 10000 3.1 160 08:57 24.04.2020
4371 Clear 32 1013 22 10000 3.1 160 08:37 24.04.2020
4372 Clear 32 1013 22 10000 3.1 160 08:18 24.04.2020
4373 Clear 29 1013 37 10000 2.1 180 07:44 24.04.2020
4374 Clear 29 1013 37 10000 2.1 180 07:26 24.04.2020
4375 Clear 25 1013 41 10000 1 230 06:51 24.04.2020
4376 Clear 25 1013 41 10000 1 230 06:32 24.04.2020
4377 Clear 22 1012 60 10000 1 280 05:48 24.04.2020
4378 Clear 22 1011 60 10000 2.81 173 04:26 24.04.2020
4379 Clear 22 1011 56 10000 1 290 02:59 24.04.2020
4380 Clear 22 1011 56 10000 1 290 02:38 24.04.2020
4381 Clear 23 1012 46 10000 1 280 02:20 24.04.2020
4382 Clear 23 1012 46 10000 1 280 01:23 24.04.2020
4383 Clear 24 1012 50 10000 1 280 00:38 24.04.2020
4384 Clear 26 1013 39 10000 1 210 00:18 24.04.2020
4385 Clear 26 1013 39 10000 1 210 23:42 23.04.2020
4386 Clear 26 1013 39 10000 1 210 23:23 23.04.2020
4387 Clear 27 1013 42 10000 1 150 22:55 23.04.2020
4388 Clear 27 1013 42 10000 1 150 22:36 23.04.2020
4389 Clear 27 1013 39 10000 1.77 155 22:18 23.04.2020
4390 Clear 27 1013 39 10000 1.77 155 21:56 23.04.2020
4391 Clear 27 1013 39 10000 1.77 155 21:38 23.04.2020
4392 Clear 29 1012 28 10000 2.1 290 21:19 23.04.2020
4393 Clear 29 1012 28 10000 2.1 290 20:41 23.04.2020
4394 Clouds 30 1012 35 10000 1 10 20:22 23.04.2020
4395 Clouds 30 1012 35 10000 1 10 19:59 23.04.2020
4396 Clouds 30 1012 35 10000 1 10 19:40 23.04.2020
4397 Clouds 30 1012 35 10000 1 10 19:21 23.04.2020
4398 Clouds 33 1011 22 10000 1.5 290 18:56 23.04.2020
4399 Clouds 33 1011 22 10000 1.5 290 18:38 23.04.2020
4400 Clear 35 1010 14 10000 3.1 290 18:19 23.04.2020
4401 Clear 35 1010 14 10000 3.1 290 18:19 23.04.2020
4402 Clear 35 1010 14 10000 3.1 290 17:55 23.04.2020
4403 Clear 35 1010 14 10000 3.1 290 17:36 23.04.2020
4404 Clouds 36 1010 14 10000 2.6 300 17:18 23.04.2020
4405 Clouds 36 1010 14 10000 2.6 300 16:43 23.04.2020
4406 Clouds 37 1011 13 10000 3.1 270 16:19 23.04.2020
4407 Clouds 37 1011 13 10000 3.1 270 15:43 23.04.2020
4408 Clouds 37 1011 13 10000 3.1 270 15:23 23.04.2020
4409 Clouds 37 1011 13 10000 3.1 270 15:23 23.04.2020
4410 Clouds 37 1011 16 10000 2.6 270 14:59 23.04.2020
4411 Clouds 37 1011 16 10000 2.6 270 14:39 23.04.2020
4412 Clouds 37 1011 16 10000 2.6 270 14:21 23.04.2020
4413 Clouds 36 1012 16 10000 2.6 230 13:57 23.04.2020
4414 Clouds 36 1012 16 10000 2.6 230 13:38 23.04.2020
4415 Clouds 36 1012 16 10000 2.6 230 13:19 23.04.2020
4416 Clear 35 1012 15 10000 4.1 240 12:44 23.04.2020
4417 Clear 35 1012 15 10000 4.1 240 12:26 23.04.2020
4418 Clear 35 1013 16 10000 4.6 250 11:59 23.04.2020
4419 Clear 35 1013 16 10000 4.6 250 11:59 23.04.2020
4420 Clear 35 1013 16 10000 4.6 250 11:40 23.04.2020
4421 Clear 35 1013 16 10000 4.6 250 11:22 23.04.2020
4422 Clear 34 1014 21 10000 5.1 240 10:42 23.04.2020
4423 Clear 34 1014 21 10000 5.1 240 10:24 23.04.2020
4424 Clear 32 1014 29 10000 3.6 220 09:55 23.04.2020
4425 Clear 32 1014 29 10000 3.6 220 09:37 23.04.2020
4426 Clear 29 1014 42 10000 2.6 180 09:18 23.04.2020
4427 Clear 29 1014 42 10000 2.6 180 08:45 23.04.2020
4428 Clear 29 1014 42 10000 2.6 180 08:27 23.04.2020
4429 Clear 27 1014 47 10000 3.1 180 07:43 23.04.2020
4430 Clear 27 1014 47 10000 3.1 180 07:23 23.04.2020
4431 Clear 24 1013 57 10000 2.6 180 06:49 23.04.2020
4432 Clear 24 1013 57 10000 2.6 180 06:27 23.04.2020
4433 Clear 23 1013 60 10000 3.1 190 05:31 23.04.2020
4434 Clear 23 1013 60 10000 3.6 180 04:53 23.04.2020
4435 Clear 23 1013 69 10000 2.1 180 02:25 23.04.2020
4436 Clear 23 1013 73 10000 2.1 170 01:51 23.04.2020
4437 Clear 23 1013 73 10000 2.1 170 01:33 23.04.2020
4438 Clear 23 1013 73 10000 2.88 108 00:47 23.04.2020
4439 Clear 23 1013 73 10000 2.84 83 00:22 23.04.2020
4440 Clear 24 1014 69 10000 1.5 10 23:50 22.04.2020
4441 Clear 24 1014 69 10000 1.5 10 23:24 22.04.2020
4442 Clear 25 1014 65 10000 2.84 83 22:57 22.04.2020
4443 Clear 25 1014 65 10000 2.84 83 22:37 22.04.2020
4444 Clear 26 1014 57 10000 3.1 90 22:19 22.04.2020
4445 Clear 26 1014 57 10000 3.1 90 21:56 22.04.2020
4446 Clouds 26 1014 57 10000 3.1 90 21:38 22.04.2020
4447 Clouds 27 1013 47 10000 1.5 50 21:19 22.04.2020
4448 Clouds 27 1013 47 10000 1.5 50 20:43 22.04.2020
4449 Clouds 27 1013 47 10000 1.5 50 20:20 22.04.2020
4450 Clouds 28 1013 39 10000 1.5 60 19:58 22.04.2020
4451 Clouds 28 1013 39 10000 1.5 60 19:39 22.04.2020
4452 Clouds 28 1013 39 10000 1.5 60 19:19 22.04.2020
4453 Clouds 30 1012 35 10000 1.5 20 18:59 22.04.2020
4454 Clouds 30 1012 35 10000 1.5 20 18:41 22.04.2020
4455 Clouds 30 1012 35 10000 1.5 20 18:22 22.04.2020
4456 Clouds 32 1012 24 10000 3.6 270 17:57 22.04.2020
4457 Clouds 32 1012 24 10000 3.6 270 17:39 22.04.2020
4458 Clouds 32 1012 22 10000 2.6 280 17:20 22.04.2020
4459 Clouds 32 1012 22 10000 2.6 280 16:43 22.04.2020
4460 Clouds 32 1012 22 10000 2.6 280 16:25 22.04.2020
4461 Clouds 33 1012 18 10000 3.1 280 15:43 22.04.2020
4462 Clouds 33 1012 18 10000 3.1 280 15:25 22.04.2020
4463 Clouds 33 1012 16 10000 5.7 300 14:59 22.04.2020
4464 Clouds 33 1012 16 10000 5.7 300 14:59 22.04.2020
4465 Clouds 33 1012 16 10000 5.7 300 14:41 22.04.2020
4466 Clouds 32 1012 24 10000 3.1 270 14:20 22.04.2020
4467 Clouds 32 1012 24 10000 3.1 270 13:57 22.04.2020
4468 Clouds 32 1012 24 10000 3.1 270 13:39 22.04.2020
4469 Clouds 32 1013 27 10000 2.6 230 13:19 22.04.2020
4470 Clouds 32 1013 27 10000 2.6 230 12:42 22.04.2020
4471 Clouds 32 1013 27 10000 2.6 230 12:23 22.04.2020
4472 Clear 30 1014 40 10000 2.6 220 11:57 22.04.2020
4473 Clear 30 1014 40 10000 2.6 220 11:36 22.04.2020
4474 Clear 30 1014 40 10000 2.6 220 11:18 22.04.2020
4475 Clear 29 1015 45 10000 3.1 220 10:41 22.04.2020
4476 Clear 29 1015 45 10000 3.1 220 10:21 22.04.2020
4477 Clear 26 1015 54 10000 3.1 210 09:41 22.04.2020
4478 Clear 26 1015 54 10000 3.1 210 09:23 22.04.2020
4479 Clear 24 1015 64 10000 3.1 180 08:59 22.04.2020
4480 Clear 24 1015 64 10000 3.1 180 08:41 22.04.2020
4481 Clear 22 1015 68 10000 2.6 160 08:22 22.04.2020
4482 Clear 22 1015 68 10000 2.6 160 07:53 22.04.2020
4483 Clear 22 1015 68 10000 2.6 160 07:33 22.04.2020
4484 Clear 21 1015 73 10000 3.1 170 06:53 22.04.2020
4485 Clear 21 1015 73 10000 3.1 170 06:23 22.04.2020
4486 Clear 19 1015 77 10000 2.6 180 05:38 22.04.2020
4487 Clear 19 1014 77 10000 2.1 190 04:32 22.04.2020
4488 Clear 18 1014 82 10000 1.5 140 02:59 22.04.2020
4489 Clear 18 1014 82 10000 1.5 140 01:55 22.04.2020
4490 Clear 18 1014 82 10000 1.5 140 01:28 22.04.2020
4491 Clear 18 1015 88 10000 1.5 150 00:59 22.04.2020
4492 Clear 18 1015 88 10000 1.5 150 00:41 22.04.2020
4493 Clear 18 1015 88 10000 1.5 150 00:20 22.04.2020
4494 Clear 19 1015 77 10000 3.1 110 23:44 21.04.2020
4495 Clear 19 1015 77 10000 3.1 110 23:20 21.04.2020
4496 Clear 19 1016 77 10000 2.6 70 22:41 21.04.2020
4497 Thunderstorm 18 1016 82 10000 3.1 80 22:22 21.04.2020
4498 Thunderstorm 18 1016 82 10000 3.1 80 22:00 21.04.2020
4499 Thunderstorm 18 1016 82 10000 3.1 80 21:41 21.04.2020
4500 Thunderstorm 20 1016 68 8000 5.1 340 21:23 21.04.2020
4501 Thunderstorm 20 1016 68 8000 5.1 340 20:57 21.04.2020
4502 Thunderstorm 20 1016 68 8000 5.1 340 20:39 21.04.2020
4503 Thunderstorm 20 1016 68 8000 5.1 340 20:21 21.04.2020
4504 Thunderstorm 24 1014 60 10000 3.1 140 19:41 21.04.2020
4505 Thunderstorm 24 1014 60 10000 3.1 140 19:20 21.04.2020
4506 Tornado 25 1014 57 10000 3.1 130 18:59 21.04.2020
4507 Tornado 25 1014 57 10000 3.1 130 18:59 21.04.2020
4508 Tornado 25 1014 57 10000 3.1 130 18:39 21.04.2020
4509 Tornado 26 1013 50 10000 3.6 130 18:19 21.04.2020
4510 Tornado 26 1013 50 10000 3.6 130 17:59 21.04.2020
4511 Clouds 26 1013 50 10000 3.6 140 17:38 21.04.2020
4512 Clouds 27 1013 44 10000 3.6 160 17:19 21.04.2020
4513 Clouds 27 1013 44 10000 3.6 160 16:39 21.04.2020
4514 Clouds 28 1013 42 10000 3.6 160 16:20 21.04.2020
4515 Clouds 28 1013 42 10000 3.6 160 15:59 21.04.2020
4516 Clouds 28 1013 42 10000 3.6 160 15:59 21.04.2020
4517 Clouds 28 1013 42 10000 3.6 160 15:41 21.04.2020
4518 Clouds 28 1013 42 10000 3.6 160 15:23 21.04.2020
4519 Rain 28 1014 39 10000 4.1 170 14:58 21.04.2020
4520 Rain 28 1014 39 10000 4.1 170 14:40 21.04.2020
4521 Rain 28 1014 39 10000 4.1 170 14:22 21.04.2020
4522 Rain 26 1014 54 10000 3.1 120 13:42 21.04.2020
4523 Rain 26 1014 54 10000 3.1 120 13:24 21.04.2020
4524 Clouds 25 1015 57 10000 2.6 150 12:58 21.04.2020
4525 Clouds 25 1015 57 10000 2.6 150 12:38 21.04.2020
4526 Clouds 24 1016 60 10000 1 160 12:19 21.04.2020
4527 Clouds 24 1016 60 10000 1 160 11:57 21.04.2020
4528 Clouds 24 1016 60 10000 1 160 11:37 21.04.2020
4529 Clouds 22 1017 64 10000 2.6 290 11:18 21.04.2020
4530 Clouds 22 1017 64 10000 2.6 290 10:56 21.04.2020
4531 Clouds 22 1017 64 10000 2.6 290 10:38 21.04.2020
4532 Clouds 21 1017 68 10000 2.1 230 10:20 21.04.2020
4533 Clouds 21 1017 68 10000 2.1 230 09:38 21.04.2020
4534 Drizzle 20 1017 77 9000 2.1 200 09:20 21.04.2020
4535 Drizzle 20 1017 77 9000 2.1 200 08:58 21.04.2020
4536 Drizzle 20 1017 77 9000 2.1 200 08:58 21.04.2020
4537 Drizzle 20 1017 77 9000 2.1 200 08:39 21.04.2020
4538 Drizzle 20 1017 77 9000 2.1 200 08:39 21.04.2020
4539 Clouds 19 1017 77 10000 2.6 270 08:19 21.04.2020
4540 Clouds 19 1017 77 10000 2.6 270 07:45 21.04.2020
4541 Clouds 19 1017 77 10000 2.6 270 07:23 21.04.2020
4542 Rain 18 1016 82 9000 4.6 320 06:49 21.04.2020
4543 Rain 18 1016 82 9000 4.6 320 06:20 21.04.2020
4544 Clouds 19 1016 82 10000 3.6 310 05:49 21.04.2020
4545 Clouds 19 1016 82 10000 4.1 300 04:21 21.04.2020
4546 Clouds 19 1016 82 10000 4.1 300 03:42 21.04.2020
4547 Clouds 19 1015 82 10000 1.3 163 01:46 21.04.2020
4548 Clouds 18 1016 82 10000 2.6 70 01:18 21.04.2020
4549 Clouds 18 1016 82 10000 2.6 70 00:35 21.04.2020
4550 Clouds 17 1017 88 10000 4.1 30 23:45 20.04.2020
4551 Clouds 17 1017 88 10000 4.1 30 23:25 20.04.2020
4552 Thunderstorm 17 1019 88 5000 5.7 320 22:58 20.04.2020
4553 Thunderstorm 17 1019 88 5000 5.7 320 22:39 20.04.2020
4554 Thunderstorm 18 1017 82 5000 7.7 350 22:20 20.04.2020
4555 Thunderstorm 18 1017 82 5000 7.7 350 21:57 20.04.2020
4556 Thunderstorm 18 1017 82 5000 7.7 350 21:38 20.04.2020
4557 Thunderstorm 22 1015 68 5000 11.3 300 21:19 20.04.2020
4558 Thunderstorm 22 1015 68 5000 11.3 300 20:58 20.04.2020
4559 Thunderstorm 22 1015 68 5000 11.3 300 20:38 20.04.2020
4560 Tornado 27 1013 44 9000 3.1 170 20:18 20.04.2020
4561 Tornado 27 1013 44 9000 3.1 170 20:18 20.04.2020
4562 Tornado 27 1013 44 9000 3.1 170 19:57 20.04.2020
4563 Tornado 27 1013 44 9000 3.1 170 19:38 20.04.2020
4564 Tornado 27 1013 44 9000 3.1 170 19:19 20.04.2020
4565 Thunderstorm 27 1012 47 9000 3.1 150 18:42 20.04.2020
4566 Thunderstorm 27 1012 47 9000 3.1 150 18:23 20.04.2020
4567 Clouds 28 1012 45 10000 2.1 150 17:56 20.04.2020
4568 Clouds 28 1012 45 10000 2.1 150 17:37 20.04.2020
4569 Clouds 28 1012 42 10000 2.1 170 17:19 20.04.2020
4570 Clouds 28 1012 42 10000 2.1 170 16:58 20.04.2020
4571 Clouds 28 1012 42 10000 2.1 170 16:39 20.04.2020
4572 Clouds 28 1012 48 10000 1 50 16:18 20.04.2020
4573 Clouds 28 1012 48 10000 1 50 15:43 20.04.2020
4574 Clouds 28 1012 48 10000 1 50 15:23 20.04.2020
4575 Clouds 27 1012 47 8000 2.6 150 14:56 20.04.2020
4576 Clouds 27 1012 47 8000 2.6 150 14:38 20.04.2020
4577 Thunderstorm 26 1012 50 9000 4.1 140 14:18 20.04.2020
4578 Clouds 28 1015 42 8000 2.6 210 13:54 20.04.2020
4579 Clouds 28 1015 42 8000 2.6 210 13:36 20.04.2020
4580 Clouds 28 1014 42 7000 2.6 130 13:18 20.04.2020
4581 Clouds 28 1014 42 7000 2.6 130 12:42 20.04.2020
4582 Rain 27 1015 44 7000 3.1 110 12:19 20.04.2020
4583 Rain 27 1015 44 7000 3.1 110 11:41 20.04.2020
4584 Rain 27 1015 44 7000 3.1 110 11:22 20.04.2020
4585 Rain 26 1015 47 6000 2.6 130 10:57 20.04.2020
4586 Rain 26 1015 47 6000 2.6 130 10:39 20.04.2020
4587 Rain 26 1015 47 6000 2.6 130 10:19 20.04.2020
4588 Clouds 26 1015 47 6000 3.6 130 09:56 20.04.2020
4589 Clouds 26 1015 47 6000 3.6 130 09:37 20.04.2020
4590 Clouds 26 1015 47 6000 3.6 130 09:37 20.04.2020
4591 Clouds 26 1015 47 6000 3.6 130 09:19 20.04.2020
4592 Clouds 25 1016 50 6000 2.6 120 08:41 20.04.2020
4593 Clouds 25 1016 50 6000 2.6 120 08:22 20.04.2020
4594 Rain 24 1015 50 7000 4.1 100 07:52 20.04.2020
4595 Rain 24 1015 50 7000 4.1 100 07:29 20.04.2020
4596 Rain 23 1014 53 7000 2.1 80 06:58 20.04.2020
4597 Rain 23 1014 53 7000 2.1 80 06:36 20.04.2020
4598 Rain 23 1014 49 7000 2.1 110 05:44 20.04.2020
4599 Rain 23 1013 53 8000 1.5 30 04:21 20.04.2020
4600 Rain 24 1013 47 8000 1.5 70 02:47 20.04.2020
4601 Clouds 24 1013 47 8000 1.5 50 01:54 20.04.2020
4602 Clouds 24 1013 47 8000 1.5 50 01:28 20.04.2020
4603 Clouds 25 1013 44 8000 1.5 50 00:37 20.04.2020
4604 Clouds 25 1014 44 8000 1.5 80 23:59 19.04.2020
4605 Clouds 25 1014 44 8000 1.5 80 23:39 19.04.2020
4606 Clouds 25 1014 44 8000 1.5 80 23:20 19.04.2020
4607 Clouds 26 1015 41 8000 1.5 90 22:43 19.04.2020
4608 Clouds 26 1015 41 8000 1.5 90 22:23 19.04.2020
4609 Clouds 26 1014 36 8000 3.1 30 21:59 19.04.2020
4610 Clouds 26 1014 36 8000 3.1 30 21:41 19.04.2020
4611 Clouds 26 1014 36 8000 3.1 30 21:41 19.04.2020
4612 Clouds 26 1014 36 8000 3.1 30 21:21 19.04.2020
4613 Clouds 27 1014 30 8000 3.1 40 20:55 19.04.2020
4614 Clouds 27 1014 30 8000 3.1 40 20:37 19.04.2020
4615 Clouds 28 1013 28 8000 4.1 40 20:19 19.04.2020
4616 Clouds 28 1013 28 8000 4.1 40 19:41 19.04.2020
4617 Clouds 28 1013 28 8000 4.1 40 19:23 19.04.2020
4618 Clouds 28 1013 28 7000 5.1 30 18:58 19.04.2020
4619 Clouds 28 1013 28 7000 5.1 30 18:40 19.04.2020
4620 Rain 28 1013 28 7000 5.1 30 18:21 19.04.2020
4621 Dust 29 1012 28 5000 4.1 30 17:59 19.04.2020
4622 Dust 29 1012 28 5000 4.1 30 17:40 19.04.2020
4623 Dust 29 1012 28 5000 4.1 30 17:22 19.04.2020
4624 Dust 30 1012 27 5000 4.6 20 16:58 19.04.2020
4625 Dust 30 1012 27 5000 4.6 20 16:39 19.04.2020
4626 Dust 30 1012 27 5000 4.6 20 16:21 19.04.2020
4627 Dust 31 1011 27 5000 3.1 350 15:54 19.04.2020
4628 Dust 31 1011 27 5000 3.1 350 15:36 19.04.2020
4629 Dust 31 1011 27 5000 3.6 30 15:18 19.04.2020
4630 Dust 31 1011 27 5000 3.6 30 14:38 19.04.2020
4631 Dust 32 1012 25 5000 3.1 10 14:20 19.04.2020
4632 Dust 32 1012 25 5000 3.1 10 13:41 19.04.2020
4633 Dust 32 1012 25 5000 3.1 10 13:22 19.04.2020
4634 Dust 31 1013 31 5000 4.1 10 12:59 19.04.2020
4635 Dust 31 1013 31 5000 4.1 10 12:41 19.04.2020
4636 Dust 31 1013 33 5000 2.1 360 12:23 19.04.2020
4637 Dust 31 1013 31 5000 4.1 10 12:23 19.04.2020
4638 Dust 28 1013 37 3000 3.6 360 11:38 19.04.2020
4639 Dust 27 1014 42 2500 4.1 360 11:19 19.04.2020
4640 Dust 27 1014 42 2500 4.1 360 10:58 19.04.2020
4641 Dust 27 1014 42 2500 4.1 360 10:40 19.04.2020
4642 Dust 27 1014 42 2500 4.1 360 10:20 19.04.2020
4643 Dust 25 1014 47 2000 4.6 350 09:46 19.04.2020
4644 Dust 25 1014 47 2000 4.6 350 09:28 19.04.2020
4645 Dust 23 1015 56 1500 3.6 340 08:59 19.04.2020
4646 Dust 23 1015 56 1500 3.6 340 08:37 19.04.2020
4647 Dust 21 1014 60 800 4.1 330 08:18 19.04.2020
4648 Dust 21 1014 60 800 4.1 330 07:41 19.04.2020
4649 Dust 21 1014 60 800 4.1 330 07:23 19.04.2020
4650 Dust 20 1014 68 800 4.6 320 06:31 19.04.2020
4651 Dust 20 1013 64 800 4.6 340 05:56 19.04.2020
4652 Dust 21 1012 52 2000 3.1 330 04:48 19.04.2020
4653 Dust 23 1010 56 5000 4.1 360 02:59 19.04.2020
4654 Dust 23 1010 56 5000 4.1 360 02:21 19.04.2020
4655 Dust 24 1010 57 5000 1.5 300 01:39 19.04.2020
4656 Dust 26 1011 44 5000 2.1 160 00:50 19.04.2020
4657 Dust 26 1011 44 5000 2.1 160 00:26 19.04.2020
4658 Clouds 26 1011 41 10000 2.1 160 23:56 18.04.2020
4659 Clouds 26 1011 41 10000 2.1 160 23:36 18.04.2020
4660 Clouds 26 1012 44 10000 2.1 140 23:18 18.04.2020
4661 Clouds 26 1012 44 10000 2.1 140 22:42 18.04.2020
4662 Clouds 26 1012 44 10000 2.1 140 22:21 18.04.2020
4663 Clouds 26 1012 47 10000 1.5 120 21:57 18.04.2020
4664 Clouds 26 1012 47 10000 1.5 120 21:38 18.04.2020
4665 Clouds 26 1012 47 10000 1.5 120 21:20 18.04.2020
4666 Clouds 28 1011 39 10000 2.6 120 20:42 18.04.2020
4667 Clouds 28 1011 39 10000 2.6 120 20:22 18.04.2020
4668 Clouds 29 1011 28 10000 1 110 19:59 18.04.2020
4669 Clouds 29 1011 28 10000 1 110 19:38 18.04.2020
4670 Clouds 30 1010 27 10000 1.5 140 19:20 18.04.2020
4671 Clouds 30 1010 27 10000 1.5 140 18:38 18.04.2020
4672 Clouds 32 1010 17 10000 3.1 320 18:20 18.04.2020
4673 Clouds 32 1010 17 10000 3.1 320 17:55 18.04.2020
4674 Clouds 32 1010 17 10000 3.1 320 17:36 18.04.2020
4675 Clouds 33 1009 14 10000 5.1 290 17:18 18.04.2020
4676 Clouds 33 1009 14 10000 5.1 290 16:42 18.04.2020
4677 Clouds 33 1009 14 10000 5.1 290 16:22 18.04.2020
4678 Clouds 34 1009 15 10000 4.6 280 15:40 18.04.2020
4679 Clouds 34 1009 15 10000 4.6 280 15:22 18.04.2020
4680 Clouds 33 1009 26 10000 4.1 190 14:54 18.04.2020
4681 Clouds 33 1009 26 10000 4.1 190 14:36 18.04.2020
4682 Clouds 33 1009 26 10000 4.1 190 14:18 18.04.2020
4683 Clouds 32 1010 27 10000 6.2 170 13:42 18.04.2020
4684 Clouds 30 1011 30 10000 6.2 160 13:20 18.04.2020
4685 Clouds 30 1011 30 10000 6.2 160 12:43 18.04.2020
4686 Clear 30 1011 30 10000 6.2 160 12:24 18.04.2020
4687 Clear 29 1012 35 10000 7.2 190 11:57 18.04.2020
4688 Clear 29 1012 35 10000 7.2 190 11:39 18.04.2020
4689 Clear 29 1012 35 10000 7.2 190 11:20 18.04.2020
4690 Clear 28 1013 37 10000 6.2 180 10:42 18.04.2020
4691 Clear 28 1013 37 10000 6.2 180 10:22 18.04.2020
4692 Clear 27 1013 39 10000 7.2 180 10:22 18.04.2020
4693 Clear 27 1013 39 10000 7.2 180 09:59 18.04.2020
4694 Clear 27 1013 39 10000 7.2 180 09:39 18.04.2020
4695 Clouds 27 1013 39 10000 7.2 180 09:20 18.04.2020
4696 Clouds 25 1013 47 10000 5.7 160 08:42 18.04.2020
4697 Clouds 25 1013 47 10000 5.7 160 08:21 18.04.2020
4698 Clouds 23 1013 53 10000 4.6 170 07:47 18.04.2020
4699 Clouds 23 1013 53 10000 4.6 170 07:28 18.04.2020
4700 Clouds 21 1012 68 8000 2.1 140 06:39 18.04.2020
4701 Clouds 19 1012 72 7000 3.1 170 05:49 18.04.2020
4702 Clouds 19 1012 72 8000 2.1 160 04:54 18.04.2020
4703 Clouds 19 1012 72 8000 2.1 160 04:30 18.04.2020
4704 Clear 19 1011 68 8000 3.1 140 03:33 18.04.2020
4705 Dust 19 1011 68 5000 6.7 110 02:40 18.04.2020
4706 Dust 19 1011 68 5000 6.7 110 02:21 18.04.2020
4707 Thunderstorm 19 1012 82 5000 5.1 80 01:43 18.04.2020
4708 Thunderstorm 19 1013 82 5000 4.6 60 01:22 18.04.2020
4709 Thunderstorm 23 1013 60 5000 8.2 300 00:24 18.04.2020
4710 Thunderstorm 25 1011 53 8000 4.1 110 23:58 17.04.2020
4711 Thunderstorm 25 1011 53 8000 4.1 110 23:40 17.04.2020
4712 Thunderstorm 25 1011 53 8000 4.1 110 23:19 17.04.2020
4713 Thunderstorm 25 1012 53 4000 3.1 60 22:58 17.04.2020
4714 Thunderstorm 25 1012 53 4000 3.1 60 22:40 17.04.2020
4715 Thunderstorm 28 1011 34 4000 7.7 180 22:20 17.04.2020
4716 Thunderstorm 28 1011 34 4000 7.7 180 21:57 17.04.2020
4717 Thunderstorm 28 1011 37 8000 8.7 170 21:38 17.04.2020
4718 Thunderstorm 28 1011 37 8000 4.6 170 21:18 17.04.2020
4719 Thunderstorm 28 1011 37 8000 4.6 170 20:55 17.04.2020
4720 Thunderstorm 28 1011 37 8000 4.6 170 20:36 17.04.2020
4721 Thunderstorm 29 1010 35 8000 5.7 150 20:18 17.04.2020
4722 Thunderstorm 29 1010 32 8000 4.6 140 19:42 17.04.2020
4723 Thunderstorm 29 1010 32 8000 4.6 140 19:23 17.04.2020
4724 Clouds 30 1010 28 10000 4.1 140 18:47 17.04.2020
4725 Clouds 30 1010 28 10000 4.1 140 18:25 17.04.2020
4726 Clouds 30 1010 28 10000 4.1 150 17:58 17.04.2020
4727 Clouds 30 1010 28 10000 4.1 130 17:37 17.04.2020
4728 Clouds 31 1010 23 10000 3.6 160 17:19 17.04.2020
4729 Clouds 31 1010 23 10000 3.6 160 16:44 17.04.2020
4730 Clouds 31 1010 23 10000 3.6 160 16:23 17.04.2020
4731 Clouds 31 1010 23 10000 3.6 160 16:23 17.04.2020
4732 Clouds 32 1010 24 10000 3.1 170 15:55 17.04.2020
4733 Clouds 32 1010 24 10000 3.1 170 15:37 17.04.2020
4734 Clear 31 1011 25 10000 3.6 180 15:18 17.04.2020
4735 Clear 31 1011 25 10000 3.6 180 14:40 17.04.2020
4736 Clear 31 1011 25 10000 3.6 180 14:22 17.04.2020
4737 Clear 30 1011 28 10000 3.6 170 13:56 17.04.2020
4738 Clear 30 1011 28 10000 3.6 170 13:37 17.04.2020
4739 Clear 30 1012 28 10000 4.6 160 13:18 17.04.2020
4740 Clear 30 1012 28 10000 4.6 160 12:45 17.04.2020
4741 Clear 30 1012 28 10000 4.6 160 12:24 17.04.2020
4742 Clear 29 1014 30 10000 4.6 170 11:42 17.04.2020
4743 Clear 29 1014 30 10000 4.6 170 11:20 17.04.2020
4744 Clear 29 1014 30 10000 4.6 170 11:20 17.04.2020
4745 Clear 27 1014 36 10000 4.6 160 10:56 17.04.2020
4746 Clear 27 1014 36 10000 4.6 160 10:38 17.04.2020
4747 Clear 26 1015 36 10000 4.6 170 10:19 17.04.2020
4748 Clear 26 1015 36 10000 4.6 170 09:41 17.04.2020
4749 Clear 26 1015 36 10000 4.6 170 09:22 17.04.2020
4750 Clear 25 1015 41 10000 4.6 140 08:58 17.04.2020
4751 Clear 25 1015 41 10000 4.6 140 08:39 17.04.2020
4752 Clear 25 1015 41 10000 4.6 140 08:19 17.04.2020
4753 Clear 23 1015 49 10000 4.1 170 07:44 17.04.2020
4754 Clear 21 1015 52 10000 1.5 150 07:23 17.04.2020
4755 Clear 21 1015 52 10000 1.5 150 06:47 17.04.2020
4756 Clear 21 1015 52 10000 1.5 150 06:23 17.04.2020
4757 Clear 19 1015 55 10000 1 130 05:26 17.04.2020
4758 Clear 20 1013 49 10000 1.5 140 03:19 17.04.2020
4759 Clear 20 1013 52 10000 1 120 02:19 17.04.2020
4760 Clear 20 1014 52 10000 1 150 01:29 17.04.2020
4761 Clear 21 1014 49 10000 1 150 00:51 17.04.2020
4762 Clear 21 1014 49 10000 1 60 00:19 17.04.2020
4763 Clear 21 1014 49 10000 1 60 23:42 16.04.2020
4764 Clear 21 1014 49 10000 1 60 23:42 16.04.2020
4765 Clear 21 1014 49 10000 1 60 23:22 16.04.2020
4766 Clear 22 1015 43 10000 1.5 80 22:57 16.04.2020
4767 Clear 22 1015 43 10000 1.5 80 22:37 16.04.2020
4768 Clear 22 1015 43 10000 1.5 80 22:19 16.04.2020
4769 Clouds 23 1015 38 10000 2.6 80 21:42 16.04.2020
4770 Clouds 23 1015 38 10000 2.6 80 21:20 16.04.2020
4771 Clouds 24 1014 36 10000 3.6 70 20:59 16.04.2020
4772 Clouds 24 1014 36 10000 3.6 70 20:39 16.04.2020
4773 Clouds 24 1014 36 10000 3.6 70 20:19 16.04.2020
4774 Clouds 25 1014 31 10000 4.6 70 19:55 16.04.2020
4775 Clouds 25 1014 31 10000 4.6 70 19:36 16.04.2020
4776 Clouds 27 1013 32 10000 1.5 50 19:18 16.04.2020
4777 Clouds 27 1013 32 10000 1.5 50 18:42 16.04.2020
4778 Clouds 27 1013 32 10000 1.5 50 18:23 16.04.2020
4779 Clouds 28 1012 32 10000 2.1 340 17:57 16.04.2020
4780 Clouds 28 1012 32 10000 2.1 340 17:39 16.04.2020
4781 Clouds 28 1012 32 10000 2.1 340 17:18 16.04.2020
4782 Clouds 30 1013 23 10000 3.1 330 16:42 16.04.2020
4783 Clouds 30 1013 23 10000 3.1 330 16:24 16.04.2020
4784 Clouds 29 1013 32 10000 1 170 15:45 16.04.2020
4785 Clouds 29 1013 32 10000 1 170 15:20 16.04.2020
4786 Clouds 29 1013 26 10000 2.6 40 14:59 16.04.2020
4787 Clouds 29 1013 26 10000 2.6 40 14:40 16.04.2020
4788 Clouds 29 1013 26 10000 2.6 40 14:21 16.04.2020
4789 Clouds 28 1014 34 10000 1.5 70 14:21 16.04.2020
4790 Clouds 28 1014 34 10000 1.5 70 13:57 16.04.2020
4791 Clouds 28 1014 34 10000 1.5 70 13:38 16.04.2020
4792 Clouds 28 1014 34 10000 1.5 70 13:20 16.04.2020
4793 Clouds 30 1015 33 10000 2.1 340 12:57 16.04.2020
4794 Clouds 30 1015 33 10000 2.1 340 12:38 16.04.2020
4795 Clouds 30 1015 33 10000 2.1 340 12:19 16.04.2020
4796 Clear 27 1016 39 10000 2.1 360 11:56 16.04.2020
4797 Clear 27 1016 39 10000 2.1 360 11:37 16.04.2020
4798 Clear 27 1016 39 10000 2.1 360 11:18 16.04.2020
4799 Clear 26 1017 41 10000 2.1 10 10:40 16.04.2020
4800 Clear 26 1017 41 10000 2.1 10 10:19 16.04.2020
4801 Clear 24 1017 57 10000 1 190 09:59 16.04.2020
4802 Clear 24 1017 57 10000 1 190 09:38 16.04.2020
4803 Clear 24 1017 57 10000 1 190 09:20 16.04.2020
4804 Clear 24 1017 60 10000 1 300 08:43 16.04.2020
4805 Clear 24 1017 60 10000 1 300 08:23 16.04.2020
4806 Clear 22 1017 68 10000 2.1 160 07:46 16.04.2020
4807 Clear 22 1017 68 10000 2.1 160 07:28 16.04.2020
4808 Clouds 19 1017 72 10000 2.1 110 06:57 16.04.2020
4809 Clouds 19 1017 72 10000 2.1 110 06:39 16.04.2020
4810 Clouds 18 1016 72 10000 1.5 80 06:21 16.04.2020
4811 Clouds 19 1016 68 10000 2.1 60 04:44 16.04.2020
4812 Clouds 18 1015 63 10000 4.1 40 03:25 16.04.2020
4813 Clouds 20 1015 77 10000 2.1 100 02:55 16.04.2020
4814 Clouds 20 1015 77 10000 2.1 100 02:33 16.04.2020
4815 Clouds 20 1015 77 10000 3.6 110 01:21 16.04.2020
4816 Clouds 20 1015 77 10000 3.6 110 00:39 16.04.2020
4817 Clear 20 1015 77 10000 3.6 120 00:18 16.04.2020
4818 Clear 20 1015 77 10000 3.6 120 23:43 15.04.2020
4819 Clear 20 1015 77 10000 3.6 120 23:22 15.04.2020
4820 Clouds 21 1015 68 10000 4.1 130 22:58 15.04.2020
4821 Clouds 21 1015 68 10000 4.1 130 22:37 15.04.2020
4822 Clouds 21 1015 68 10000 4.1 130 22:19 15.04.2020
4823 Clear 21 1015 68 10000 5.1 130 21:41 15.04.2020
4824 Rain 21 1015 68 10000 5.1 130 21:23 15.04.2020
4825 Clouds 23 1014 56 10000 5.1 120 20:59 15.04.2020
4826 Clouds 23 1014 56 10000 5.1 120 20:59 15.04.2020
4827 Clouds 23 1014 56 10000 5.1 120 20:41 15.04.2020
4828 Clouds 23 1014 56 10000 5.1 120 20:22 15.04.2020
4829 Clouds 26 1013 36 10000 2.6 130 19:57 15.04.2020
4830 Clouds 26 1013 36 10000 2.6 130 19:39 15.04.2020
4831 Clouds 26 1013 31 10000 1 90 19:18 15.04.2020
4832 Clouds 26 1013 31 10000 1 90 18:40 15.04.2020
4833 Rain 28 1012 32 10000 1 140 18:22 15.04.2020
4834 Rain 28 1012 32 10000 1 140 17:56 15.04.2020
4835 Rain 28 1012 32 10000 1 140 17:38 15.04.2020
4836 Rain 28 1012 32 10000 1 140 17:20 15.04.2020
4837 Rain 28 1012 24 10000 2.1 70 16:55 15.04.2020
4838 Rain 28 1012 24 10000 2.1 70 16:36 15.04.2020
4839 Rain 28 1013 28 10000 1 60 16:18 15.04.2020
4840 Rain 28 1013 28 10000 1 60 15:55 15.04.2020
4841 Rain 28 1013 28 10000 1 60 15:37 15.04.2020
4842 Rain 28 1013 28 10000 1 60 15:18 15.04.2020
4843 Rain 28 1013 28 10000 2.1 290 14:54 15.04.2020
4844 Rain 28 1013 28 10000 2.1 290 14:36 15.04.2020
4845 Rain 28 1013 28 10000 2.1 290 14:18 15.04.2020
4846 Rain 28 1013 24 10000 2.1 140 13:40 15.04.2020
4847 Rain 28 1013 24 10000 2.1 140 13:40 15.04.2020
4848 Rain 28 1013 24 10000 2.1 140 13:21 15.04.2020
4849 Clouds 26 1014 22 10000 3.6 130 12:59 15.04.2020
4850 Clouds 26 1014 22 10000 3.6 130 12:41 15.04.2020
4851 Clouds 26 1014 22 10000 3.6 130 12:22 15.04.2020
4852 Clouds 26 1015 22 10000 4.1 140 11:58 15.04.2020
4853 Clouds 26 1015 22 10000 4.1 140 11:38 15.04.2020
4854 Clouds 26 1015 22 10000 4.1 140 11:20 15.04.2020
4855 Rain 25 1016 22 10000 4.1 140 10:38 15.04.2020
4856 Rain 25 1016 22 10000 4.1 140 10:20 15.04.2020
4857 Rain 24 1016 33 10000 5.1 120 09:57 15.04.2020
4858 Rain 24 1016 33 10000 5.1 120 09:38 15.04.2020
4859 Rain 24 1016 39 10000 5.1 120 09:20 15.04.2020
4860 Clouds 22 1017 24 10000 5.1 120 08:55 15.04.2020
4861 Clouds 22 1017 24 10000 5.1 120 08:36 15.04.2020
4862 Clouds 21 1017 28 10000 5.1 110 08:18 15.04.2020
4863 Clouds 21 1017 28 10000 5.1 110 07:46 15.04.2020
4864 Clouds 21 1017 28 10000 5.1 110 07:27 15.04.2020
4865 Clouds 19 1016 42 10000 2.1 120 06:29 15.04.2020
4866 Clouds 17 1015 55 10000 1.5 210 05:49 15.04.2020
4867 Rain 17 1015 55 10000 4.16 107 04:48 15.04.2020
4868 Rain 17 1015 55 10000 4.16 107 04:22 15.04.2020
4869 Rain 18 1014 52 10000 4.83 108 03:22 15.04.2020
4870 Rain 20 1015 32 8000 3.6 80 02:49 15.04.2020
4871 Thunderstorm 21 1016 26 10000 3.1 40 01:52 15.04.2020
4872 Thunderstorm 21 1016 26 10000 3.1 40 01:25 15.04.2020
4873 Clouds 20 1015 28 10000 3.1 70 00:49 15.04.2020
4874 Thunderstorm 21 1015 22 10000 5.7 110 00:27 15.04.2020
4875 Clouds 21 1015 22 9000 4.6 110 23:56 14.04.2020
4876 Clouds 21 1015 22 9000 4.6 110 23:38 14.04.2020
4877 Clouds 21 1015 22 9000 4.6 110 23:20 14.04.2020
4878 Clear 22 1014 21 9000 8.7 110 22:56 14.04.2020
4879 Clear 22 1014 21 9000 8.7 110 22:38 14.04.2020
4880 Clear 22 1014 21 9000 8.7 110 22:20 14.04.2020
4881 Clear 23 1015 24 10000 7.2 110 21:56 14.04.2020
4882 Clear 23 1015 24 10000 7.2 110 21:38 14.04.2020
4883 Clear 23 1015 24 10000 7.2 110 21:19 14.04.2020
4884 Clear 24 1015 25 10000 6.2 100 20:57 14.04.2020
4885 Clear 24 1015 25 10000 6.2 100 20:38 14.04.2020
4886 Clear 24 1015 25 10000 6.2 100 20:38 14.04.2020
4887 Clear 24 1015 25 10000 6.2 100 20:19 14.04.2020
4888 Clouds 25 1014 23 10000 5.7 110 19:41 14.04.2020
4889 Clouds 25 1014 23 10000 5.7 110 19:22 14.04.2020
4890 Clouds 26 1013 24 10000 6.2 110 18:58 14.04.2020
4891 Clouds 26 1013 24 10000 6.2 110 18:39 14.04.2020
4892 Clouds 26 1013 24 10000 6.2 110 18:21 14.04.2020
4893 Clouds 27 1014 24 10000 5.7 110 17:58 14.04.2020
4894 Clouds 27 1014 24 10000 5.7 110 17:38 14.04.2020
4895 Clouds 27 1014 24 10000 5.7 110 17:19 14.04.2020
4896 Clouds 28 1013 21 10000 5.7 110 16:55 14.04.2020
4897 Clouds 28 1013 21 10000 5.7 110 16:37 14.04.2020
4898 Clouds 28 1013 21 10000 4.1 120 16:19 14.04.2020
4899 Clouds 28 1013 21 10000 4.1 120 15:42 14.04.2020
4900 Clouds 28 1013 21 10000 4.1 120 15:23 14.04.2020
4901 Clouds 29 1013 18 10000 5.1 120 14:59 14.04.2020
4902 Clouds 29 1013 18 10000 5.1 120 14:41 14.04.2020
4903 Clouds 29 1013 18 10000 5.1 120 14:22 14.04.2020
4904 Clear 28 1014 18 10000 6.7 110 13:58 14.04.2020
4905 Clear 28 1014 18 10000 6.7 110 13:40 14.04.2020
4906 Clear 28 1015 15 10000 6.7 110 13:21 14.04.2020
4907 Clear 28 1015 15 10000 6.7 110 12:42 14.04.2020
4908 Clear 28 1015 15 10000 6.7 110 12:22 14.04.2020
4909 Clear 27 1016 15 10000 6.2 110 11:57 14.04.2020
4910 Clear 27 1016 15 10000 6.2 110 11:38 14.04.2020
4911 Clear 27 1016 15 10000 6.2 110 11:19 14.04.2020
4912 Clear 26 1017 14 10000 6.2 100 10:45 14.04.2020
4913 Clear 26 1017 14 10000 6.2 100 10:26 14.04.2020
4914 Clear 24 1017 22 10000 6.2 120 09:55 14.04.2020
4915 Clear 24 1017 22 10000 6.2 120 09:37 14.04.2020
4916 Clear 24 1017 22 10000 6.2 120 09:19 14.04.2020
4917 Clear 23 1018 25 10000 4.1 100 08:41 14.04.2020
4918 Clear 23 1018 25 10000 4.1 100 08:22 14.04.2020
4919 Clear 23 1018 25 10000 4.1 100 08:22 14.04.2020
4920 Clear 20 1018 37 10000 2.6 120 07:54 14.04.2020
4921 Clear 20 1018 37 10000 2.6 120 07:30 14.04.2020
4922 Clear 18 1017 55 10000 1 170 06:50 14.04.2020
4923 Clear 18 1017 55 10000 1 170 06:24 14.04.2020
4924 Clear 18 1015 27 0 4.28 74 04:43 14.04.2020
4925 Clear 16 1016 67 10000 1 20 02:56 14.04.2020
4926 Clear 16 1016 67 10000 1.5 30 01:49 14.04.2020
4927 Clear 16 1016 67 10000 1.5 30 01:24 14.04.2020
4928 Clear 17 1017 67 10000 1.5 60 00:39 14.04.2020
4929 Clear 17 1017 67 10000 1.5 60 00:19 14.04.2020
4930 Clear 20 1015 29 0 6.28 73 23:44 13.04.2020
4931 Clear 18 1017 68 10000 1.5 80 23:26 13.04.2020
4932 Clear 18 1017 68 10000 1.5 80 22:58 13.04.2020
4933 Clear 18 1017 68 10000 1.5 80 22:40 13.04.2020
4934 Clear 18 1017 68 10000 1.5 80 22:22 13.04.2020
4935 Clear 19 1017 63 10000 3.1 80 21:55 13.04.2020
4936 Clear 19 1017 63 10000 3.1 80 21:37 13.04.2020
4937 Clouds 19 1017 63 10000 3.1 80 21:19 13.04.2020
4938 Clouds 20 1017 60 10000 3.1 80 20:41 13.04.2020
4939 Clouds 20 1017 60 10000 3.1 80 20:21 13.04.2020
4940 Clouds 20 1017 60 10000 3.1 90 20:00 13.04.2020
4941 -273 0 0 0 0 0 20:00 13.04.2020
4942 Clouds 20 1017 60 10000 3.1 90 19:38 13.04.2020
4943 Clouds 20 1017 60 10000 3.1 90 19:20 13.04.2020
4944 Clouds 21 1016 56 6000 4.1 90 18:59 13.04.2020
4945 Clouds 21 1016 56 6000 4.1 90 18:39 13.04.2020
4946 Clouds 21 1016 56 6000 4.1 90 18:20 13.04.2020
4947 Dust 21 1016 56 5000 5.1 90 17:58 13.04.2020
4948 Dust 22 1016 49 4000 5.1 100 17:38 13.04.2020
4949 Dust 22 1016 49 4000 5.1 100 17:19 13.04.2020
4950 Dust 23 1015 43 4000 6.7 80 16:58 13.04.2020
4951 Dust 23 1015 43 4000 6.7 80 16:40 13.04.2020
4952 Dust 23 1015 43 4000 6.7 80 16:20 13.04.2020
4953 Dust 24 1015 38 3000 6.7 90 15:57 13.04.2020
4954 Dust 24 1015 38 3000 6.7 90 15:39 13.04.2020
4955 Dust 24 1015 38 3000 6.7 90 15:20 13.04.2020
4956 Dust 25 1014 38 2500 7.2 90 14:54 13.04.2020
4957 Dust 25 1014 38 2500 7.2 90 14:36 13.04.2020
4958 Dust 25 1014 38 2500 7.2 90 14:18 13.04.2020
4959 Dust 25 1015 36 2500 6.2 80 13:54 13.04.2020
4960 Dust 25 1015 36 2500 6.2 80 13:36 13.04.2020
4961 Dust 24 1015 36 3000 6.2 90 13:18 13.04.2020
4962 Dust 24 1015 36 3000 6.2 90 12:55 13.04.2020
4963 Dust 24 1015 36 3000 6.2 90 12:37 13.04.2020
4964 Dust 24 1015 36 3000 6.2 90 12:18 13.04.2020
4965 Rain 25 1016 33 6000 5.1 70 11:41 13.04.2020
4966 Thunderstorm 25 1016 27 5000 6.2 70 11:18 13.04.2020
4967 Rain 25 1016 33 6000 5.1 70 11:18 13.04.2020
4968 Thunderstorm 25 1016 27 5000 6.2 70 10:55 13.04.2020
4969 Clouds 25 1016 27 10000 5.1 70 10:37 13.04.2020
4970 Clouds 25 1016 27 10000 5.1 70 10:19 13.04.2020
4971 Clouds 24 1016 29 10000 6.7 80 09:45 13.04.2020
4972 Clouds 24 1016 29 10000 6.7 80 09:26 13.04.2020
4973 Clouds 23 1016 31 10000 6.2 70 08:49 13.04.2020
4974 Clouds 22 1015 30 10000 5.1 70 08:30 13.04.2020
4975 Clouds 22 1015 30 10000 5.1 70 07:58 13.04.2020
4976 Clouds 22 1015 30 10000 5.1 70 07:38 13.04.2020
4977 Clouds 22 1015 30 10000 5.1 70 07:20 13.04.2020
4978 Clouds 21 1015 32 10000 3.1 70 06:47 13.04.2020
4979 Clouds 21 1014 30 10000 3.1 60 05:56 13.04.2020
4980 Clouds 21 1014 30 10000 3.1 60 05:28 13.04.2020
4981 Clouds 20 1013 32 10000 2.6 90 04:52 13.04.2020
4982 Clouds 20 1013 32 10000 2.6 90 04:22 13.04.2020
4983 Clouds 20 1013 32 10000 2.1 80 03:45 13.04.2020
4984 Clouds 21 1013 32 10000 3.1 60 02:50 13.04.2020
4985 Clouds 21 1014 30 10000 3.1 50 01:54 13.04.2020
4986 Clouds 21 1014 30 10000 3.1 50 01:35 13.04.2020
4987 Clouds 22 1013 28 10000 3.1 70 00:56 13.04.2020
4988 Clouds 22 1013 28 10000 3.1 70 00:38 13.04.2020
4989 Clouds 22 1013 28 10000 3.1 70 00:18 13.04.2020
4990 Clouds 22 1013 26 10000 5.1 70 23:43 12.04.2020
4991 Clouds 22 1013 26 10000 5.1 70 23:22 12.04.2020
4992 Clouds 23 1014 27 10000 5.7 70 22:57 12.04.2020
4993 Clouds 23 1014 27 10000 5.7 70 22:37 12.04.2020
4994 Clouds 23 1014 27 10000 5.7 70 22:19 12.04.2020
4995 Clouds 25 1014 31 10000 5.1 80 21:40 12.04.2020
4996 Clouds 25 1014 31 10000 5.1 80 21:20 12.04.2020
4997 Clouds 25 1013 41 10000 1.5 110 20:56 12.04.2020
4998 Clouds 25 1013 41 10000 1.5 110 20:38 12.04.2020
4999 Clouds 25 1013 41 10000 1.5 110 20:19 12.04.2020
5000 Clouds 25 1013 41 10000 1 130 19:55 12.04.2020
5001 Clouds 25 1013 41 10000 1 130 19:36 12.04.2020
5002 Clouds 27 1012 32 10000 3.1 110 19:18 12.04.2020
5003 Clouds 27 1012 32 10000 3.1 110 18:40 12.04.2020
5004 Clouds 27 1012 30 10000 3.6 110 18:20 12.04.2020
5005 Clouds 27 1012 30 10000 3.6 110 17:56 12.04.2020
5006 Clouds 27 1012 30 10000 3.6 110 17:38 12.04.2020
5007 Clouds 27 1012 30 10000 3.6 110 17:18 12.04.2020
5008 Clouds 29 1012 28 10000 3.1 120 16:56 12.04.2020
5009 Clouds 29 1012 28 10000 3.1 120 16:36 12.04.2020
5010 Clouds 29 1012 30 10000 4.1 110 16:18 12.04.2020
5011 Clouds 29 1012 30 10000 4.1 110 15:41 12.04.2020
5012 Clouds 29 1012 30 10000 4.1 110 15:21 12.04.2020
5013 Clouds 27 1012 34 10000 2.1 130 14:40 12.04.2020
5014 Clouds 27 1012 34 10000 2.1 130 14:22 12.04.2020
5015 Clouds 29 1013 28 10000 3.1 160 13:58 12.04.2020
5016 Clouds 29 1013 28 10000 3.1 160 13:40 12.04.2020
5017 Clouds 29 1014 28 10000 2.6 80 13:21 12.04.2020
5018 Clouds 29 1014 28 10000 2.6 80 12:47 12.04.2020
5019 Clouds 29 1014 28 10000 2.6 80 12:22 12.04.2020
5020 Clouds 27 1015 32 10000 4.6 60 11:59 12.04.2020
5021 Clouds 27 1015 32 10000 4.6 60 11:38 12.04.2020
5022 Clouds 27 1015 32 10000 4.6 60 11:19 12.04.2020
5023 Clouds 25 1015 33 10000 3.1 80 10:56 12.04.2020
5024 Clouds 25 1015 33 10000 3.1 80 10:38 12.04.2020
5025 Clouds 25 1015 33 10000 3.1 80 10:20 12.04.2020
5026 Clouds 23 1016 31 9000 5.1 60 09:58 12.04.2020
5027 Clouds 23 1016 31 9000 5.1 60 09:37 12.04.2020
5028 Clouds 23 1016 31 9000 5.1 60 09:19 12.04.2020
5029 Clouds 23 1015 27 7000 5.7 70 08:50 12.04.2020
5030 Clouds 23 1015 27 7000 5.7 70 08:30 12.04.2020
5031 Clouds 23 1014 25 10000 5.7 60 07:47 12.04.2020
5032 Clouds 23 1014 25 10000 4.6 60 07:19 12.04.2020
5033 Clouds 23 1014 25 10000 4.6 60 06:54 12.04.2020
5034 Clouds 23 1014 25 10000 4.6 60 06:28 12.04.2020
5035 Clouds 22 1013 28 10000 3.6 70 05:48 12.04.2020
5036 Clouds 22 1013 26 10000 4.1 80 04:32 12.04.2020
5037 Clouds 23 1013 27 10000 3.1 90 03:30 12.04.2020
5038 Clouds 23 1013 27 10000 3.1 80 02:48 12.04.2020
5039 Clouds 23 1013 27 10000 3.1 80 02:29 12.04.2020
5040 Clouds 23 1013 28 8000 3.6 30 01:23 12.04.2020
5041 Clouds 24 1013 27 7000 3.1 60 00:43 12.04.2020
5042 Clouds 24 1013 27 7000 3.1 60 00:21 12.04.2020
5043 Clouds 24 1013 31 6000 2.6 80 23:47 11.04.2020
5044 Clouds 24 1013 31 6000 2.6 80 23:26 11.04.2020
5045 Dust 25 1013 29 5000 5.7 70 22:59 11.04.2020
5046 Dust 25 1013 29 5000 5.7 70 22:37 11.04.2020
5047 Dust 25 1013 29 5000 5.7 70 22:18 11.04.2020
5048 Dust 26 1013 31 5000 4.1 50 21:55 11.04.2020
5049 Dust 26 1013 31 5000 4.1 50 21:36 11.04.2020
5050 Dust 27 1013 32 5000 4.6 20 21:18 11.04.2020
5051 Dust 27 1013 32 5000 4.6 20 20:55 11.04.2020
5052 Dust 27 1013 32 5000 4.6 20 20:37 11.04.2020
5053 Dust 27 1013 32 5000 4.6 20 20:19 11.04.2020
5054 Dust 27 1013 32 5000 4.6 20 20:19 11.04.2020
5055 Dust 28 1012 28 5000 5.1 50 19:56 11.04.2020
5056 Dust 28 1012 28 5000 5.1 50 19:38 11.04.2020
5057 Dust 28 1012 28 5000 5.1 50 19:18 11.04.2020
5058 Dust 29 1011 25 5000 5.7 50 18:55 11.04.2020
5059 Dust 29 1011 25 5000 5.7 50 18:37 11.04.2020
5060 Dust 29 1011 25 5000 5.7 50 18:18 11.04.2020
5061 Clouds 30 1011 16 7000 7.2 330 17:57 11.04.2020
5062 Clouds 30 1011 16 7000 7.2 330 17:57 11.04.2020
5063 Clouds 30 1011 16 7000 7.2 330 17:37 11.04.2020
5064 Clouds 30 1011 16 7000 7.2 330 17:37 11.04.2020
5065 Clouds 30 1011 16 7000 7.2 330 17:19 11.04.2020
5066 Clouds 33 1010 13 10000 3.1 360 16:42 11.04.2020
5067 Clouds 33 1010 13 10000 3.1 360 16:21 11.04.2020
5068 Clouds 34 1010 13 10000 3.6 360 15:42 11.04.2020
5069 Clouds 34 1010 13 10000 3.6 360 15:21 11.04.2020
5070 Clouds 34 1010 14 10000 2.6 330 14:59 11.04.2020
5071 Clouds 34 1010 14 10000 2.6 330 14:40 11.04.2020
5072 Clouds 34 1010 14 10000 2.6 330 14:22 11.04.2020
5073 Clouds 34 1010 13 10000 3.1 350 13:42 11.04.2020
5074 Clouds 34 1010 13 10000 3.1 350 13:24 11.04.2020
5075 Clouds 33 1011 15 10000 7.14 266 12:59 11.04.2020
5076 Clouds 33 1011 15 10000 7.14 266 12:37 11.04.2020
5077 Clouds 33 1011 15 10000 2.88 265 12:18 11.04.2020
5078 Clouds 32 1011 17 10000 2.88 265 11:43 11.04.2020
5079 Clouds 31 1012 18 10000 2.88 265 11:21 11.04.2020
5080 Clouds 31 1012 18 10000 2.88 265 10:57 11.04.2020
5081 Clouds 31 1012 18 10000 2.88 265 10:37 11.04.2020
5082 Clouds 31 1012 18 10000 2.88 265 10:19 11.04.2020
5083 Clouds 29 1012 16 10000 2.1 20 09:57 11.04.2020
5084 Clouds 29 1012 16 10000 2.1 20 09:37 11.04.2020
5085 Clouds 29 1012 16 10000 2.1 20 09:37 11.04.2020
5086 Clouds 29 1012 16 10000 2.1 20 09:18 11.04.2020
5087 Clouds 28 1013 10 10000 3.6 350 08:42 11.04.2020
5088 Clouds 28 1013 10 10000 3.6 350 08:23 11.04.2020
5089 Clouds 26 1012 21 10000 4.6 340 07:48 11.04.2020
5090 Clouds 26 1012 21 10000 4.6 340 07:27 11.04.2020
5091 Clouds 26 1012 21 10000 5.1 350 06:42 11.04.2020
5092 Clouds 25 1011 25 10000 3.6 340 05:59 11.04.2020
5093 Clouds 26 1010 24 10000 3.6 330 04:33 11.04.2020
5094 Clouds 27 1009 28 10000 2.1 350 03:30 11.04.2020
5095 Clouds 27 1009 22 10000 3.6 320 01:48 11.04.2020
5096 Clouds 27 1009 22 10000 3.6 320 01:19 11.04.2020
5097 Clouds 29 1010 18 10000 3.6 350 00:42 11.04.2020
5098 Clouds 29 1010 18 10000 3.6 350 00:19 11.04.2020
5099 Clouds 29 1010 21 10000 2.6 20 23:56 10.04.2020
5100 Clouds 29 1010 21 10000 2.6 20 23:37 10.04.2020
5101 Clouds 30 1010 17 10000 3.6 350 23:18 10.04.2020
5102 Clouds 30 1010 17 10000 3.6 350 22:43 10.04.2020
5103 Clouds 30 1010 17 10000 3.6 350 22:21 10.04.2020
5104 Clouds 31 1010 18 8000 3.6 20 21:58 10.04.2020
5105 Clouds 31 1010 18 8000 3.6 20 21:39 10.04.2020
5106 Clouds 31 1010 18 8000 3.6 20 21:39 10.04.2020
5107 Clouds 31 1009 18 8000 6.7 10 21:18 10.04.2020
5108 Clouds 31 1009 18 8000 6.7 10 20:41 10.04.2020
5109 Clouds 31 1009 18 8000 6.7 10 20:23 10.04.2020
5110 Clouds 33 1008 14 8000 6.2 360 19:57 10.04.2020
5111 Clouds 33 1008 14 8000 6.2 360 19:39 10.04.2020
5112 Clouds 36 1007 11 7000 4.1 360 19:20 10.04.2020
5113 Clouds 36 1007 11 7000 4.1 360 18:57 10.04.2020
5114 Clouds 36 1007 11 7000 4.1 360 18:38 10.04.2020
5115 Clouds 36 1007 11 7000 4.1 360 18:20 10.04.2020
5116 Clouds 38 1006 10 8000 4.1 220 17:58 10.04.2020
5117 Clouds 38 1006 10 8000 4.1 220 17:39 10.04.2020
5118 Clouds 38 1006 10 8000 4.1 220 17:20 10.04.2020
5119 Clouds 39 1006 9 10000 5.7 240 16:55 10.04.2020
5120 Clouds 39 1006 9 10000 5.7 240 16:36 10.04.2020
5121 Clouds 39 1006 9 10000 5.7 240 16:18 10.04.2020
5122 Clouds 39 1006 9 10000 7.7 220 15:54 10.04.2020
5123 Clouds 39 1006 9 10000 7.7 220 15:36 10.04.2020
5124 Clouds 39 1006 9 10000 7.7 220 15:18 10.04.2020
5125 Clouds 39 1006 7 10000 6.7 210 14:54 10.04.2020
5126 Clouds 39 1006 8 10000 6.7 210 14:36 10.04.2020
5127 Clouds 39 1006 8 10000 6.7 210 14:18 10.04.2020
5128 Clouds 39 1007 10 10000 6.2 220 13:42 10.04.2020
5129 Clouds 38 1008 10 10000 5.1 230 13:21 10.04.2020
5130 Clouds 38 1008 10 10000 5.1 230 12:43 10.04.2020
5131 Clouds 38 1008 10 10000 5.1 230 12:23 10.04.2020
5132 Clouds 37 1009 12 10000 5.7 210 11:56 10.04.2020
5133 Clouds 37 1009 12 10000 5.7 210 11:38 10.04.2020
5134 Clouds 37 1009 12 10000 5.7 210 11:20 10.04.2020
5135 Clouds 37 1010 13 10000 3.6 210 10:44 10.04.2020
5136 Clouds 37 1010 13 10000 3.6 210 10:23 10.04.2020
5137 Clouds 34 1010 12 7000 4.1 230 09:57 10.04.2020
5138 Clouds 34 1010 12 7000 4.1 230 09:38 10.04.2020
5139 Clouds 34 1010 12 7000 4.1 230 09:18 10.04.2020
5140 Clouds 33 1011 16 8000 4.1 220 08:42 10.04.2020
5141 Clouds 33 1011 16 8000 4.1 220 08:23 10.04.2020
5142 Dust 32 1010 27 5000 1.5 220 07:45 10.04.2020
5143 Dust 32 1010 27 5000 1.5 220 07:24 10.04.2020
5144 Dust 30 1010 27 5000 2.6 210 06:49 10.04.2020
5145 Dust 30 1010 27 5000 2.6 210 06:28 10.04.2020
5146 Dust 30 1009 25 3000 2.1 250 05:42 10.04.2020
5147 Dust 30 1009 25 2000 2.6 220 04:58 10.04.2020
5148 Dust 31 1009 19 2000 3.6 210 03:50 10.04.2020
5149 Dust 31 1009 19 2000 3.6 210 03:31 10.04.2020
5150 Dust 30 1009 25 3000 2.1 190 02:49 10.04.2020
5151 Dust 30 1009 25 3000 2.1 190 02:30 10.04.2020
5152 Dust 32 1009 22 5000 1 270 01:30 10.04.2020
5153 Dust 32 1010 18 5000 2.6 290 00:50 10.04.2020
5154 Dust 32 1010 18 5000 2.6 290 00:24 10.04.2020
5155 Dust 34 1010 21 5000 2.1 250 23:56 09.04.2020
5156 Dust 34 1010 21 5000 2.1 250 23:38 09.04.2020
5157 Dust 34 1010 21 5000 2.1 250 23:19 09.04.2020
5158 Dust 35 1011 14 5000 4.6 240 22:41 09.04.2020
5159 Dust 35 1011 14 5000 4.6 240 22:41 09.04.2020
5160 Dust 35 1011 14 5000 4.6 240 22:23 09.04.2020
5161 Clouds 35 1010 14 7000 3.1 180 21:55 09.04.2020
5162 Clouds 35 1010 14 7000 3.1 180 21:37 09.04.2020
5163 Clouds 35 1010 14 7000 3.1 180 21:18 09.04.2020
5164 Clouds 36 1010 11 7000 4.6 180 20:41 09.04.2020
5165 Clouds 36 1010 11 7000 4.6 180 20:20 09.04.2020
5166 Dust 36 1008 11 5000 7.2 170 19:57 09.04.2020
5167 Dust 36 1008 11 5000 7.2 170 19:36 09.04.2020
5168 Dust 37 1008 10 3000 8.2 170 19:18 09.04.2020
5169 Dust 37 1008 10 3000 8.2 170 18:41 09.04.2020
5170 Dust 37 1008 10 3000 8.2 170 18:19 09.04.2020
5171 Dust 38 1008 10 3000 7.7 170 17:41 09.04.2020
5172 Dust 38 1008 10 3000 7.7 170 17:23 09.04.2020
5173 Clouds 39 1008 11 8000 4.1 200 16:56 09.04.2020
5174 Clouds 39 1008 11 8000 4.1 200 16:38 09.04.2020
5175 Clouds 39 1008 11 8000 4.1 200 16:18 09.04.2020
5176 Clouds 39 1008 10 8000 6.7 210 15:54 09.04.2020
5177 Clouds 39 1008 10 8000 6.7 210 15:36 09.04.2020
5178 Clouds 39 1008 10 8000 6.7 210 15:36 09.04.2020
5179 Clear 39 1008 10 8000 6.7 210 15:18 09.04.2020
5180 Clear 39 1008 10 8000 6.7 210 15:18 09.04.2020
5181 Clouds 40 1008 10 8000 6.7 190 14:39 09.04.2020
5182 Clouds 40 1008 10 8000 6.7 190 14:21 09.04.2020
5183 Clouds 39 1009 10 8000 6.2 210 13:43 09.04.2020
5184 Clouds 39 1009 10 8000 6.2 210 13:43 09.04.2020
5185 Clouds 39 1009 10 8000 6.2 210 13:25 09.04.2020
5186 Clouds 39 1010 10 8000 6.7 220 12:59 09.04.2020
5187 Clouds 39 1010 10 8000 6.7 220 12:59 09.04.2020
5188 Clouds 39 1010 10 8000 6.7 220 12:41 09.04.2020
5189 Clouds 39 1010 10 8000 6.7 220 12:21 09.04.2020
5190 Clouds 39 1011 10 8000 6.7 230 11:57 09.04.2020
5191 Clouds 39 1011 10 8000 6.7 230 11:38 09.04.2020
5192 Clouds 39 1011 10 8000 6.7 230 11:19 09.04.2020
5193 Clouds 38 1011 10 6000 8.7 210 10:55 09.04.2020
5194 Clouds 38 1011 10 6000 8.7 210 10:37 09.04.2020
5195 Clouds 38 1011 10 6000 8.7 210 10:37 09.04.2020
5196 Clouds 38 1011 10 6000 8.7 210 10:18 09.04.2020
5197 Clouds 37 1012 10 6000 7.7 200 09:40 09.04.2020
5198 Clouds 37 1012 10 6000 7.7 200 09:21 09.04.2020
5199 Clouds 34 1012 15 6000 5.7 180 08:58 09.04.2020
5200 Clouds 34 1012 15 6000 5.7 180 08:39 09.04.2020
5201 Clouds 34 1012 15 6000 5.7 180 08:21 09.04.2020
5202 Dust 30 1012 33 4000 2.1 150 07:46 09.04.2020
5203 Dust 30 1012 33 4000 2.1 150 07:21 09.04.2020
5204 Dust 26 1012 44 4000 9.15 220 06:42 09.04.2020
5205 Dust 26 1011 41 3000 1.5 250 05:49 09.04.2020
5206 Dust 25 1011 41 1500 2.1 280 05:25 09.04.2020
5207 Dust 27 1011 34 3000 2.6 50 02:36 09.04.2020
5208 Dust 28 1011 30 3000 4.1 80 01:46 09.04.2020
5209 Dust 28 1011 30 3000 4.1 80 01:27 09.04.2020
5210 Dust 31 1012 22 2000 6.2 10 00:55 09.04.2020
5211 Dust 31 1012 22 2000 6.2 10 00:37 09.04.2020
5212 Dust 31 1012 22 2000 6.2 10 00:18 09.04.2020
5213 Dust 32 1012 18 5000 2.6 60 23:42 08.04.2020
5214 Dust 32 1012 18 5000 2.6 60 23:23 08.04.2020
5215 Thunderstorm 33 1012 15 10000 4.6 200 22:54 08.04.2020
5216 Thunderstorm 33 1012 15 10000 4.6 200 22:36 08.04.2020
5217 Thunderstorm 33 1011 15 10000 4.1 180 22:18 08.04.2020
5218 Thunderstorm 33 1011 15 10000 4.1 180 21:54 08.04.2020
5219 Clouds 33 1011 17 10000 3.1 170 21:36 08.04.2020
5220 Clouds 33 1011 17 10000 3.1 170 21:18 08.04.2020
5221 Clouds 34 1011 21 10000 1.5 190 20:40 08.04.2020
5222 Clouds 34 1010 16 8000 2.1 200 20:21 08.04.2020
5223 Clouds 34 1010 16 8000 2.1 200 19:59 08.04.2020
5224 Clouds 34 1010 16 8000 2.1 200 19:40 08.04.2020
5225 Clouds 34 1010 16 8000 2.1 200 19:21 08.04.2020
5226 Clouds 36 1010 14 8000 2.1 210 18:45 08.04.2020
5227 Clouds 36 1010 14 8000 2.1 210 18:27 08.04.2020
5228 Clouds 37 1010 13 8000 2.6 230 17:57 08.04.2020
5229 Clouds 37 1010 13 8000 2.6 230 17:39 08.04.2020
5230 Clouds 37 1010 13 8000 2.6 230 17:20 08.04.2020
5231 Clouds 39 1010 13 8000 2.1 200 16:56 08.04.2020
5232 Clouds 39 1010 13 8000 2.1 200 16:37 08.04.2020
5233 Clouds 39 1010 10 8000 5.1 210 16:19 08.04.2020
5234 Clouds 38 1010 10 8000 6.2 230 15:38 08.04.2020
5235 Clear 38 1010 10 8000 6.2 230 15:20 08.04.2020
5236 Clear 38 1010 10 8000 6.2 230 14:54 08.04.2020
5237 Clear 38 1010 10 8000 6.2 230 14:36 08.04.2020
5238 Clear 38 1010 10 8000 6.2 230 14:18 08.04.2020
5239 Clear 38 1011 11 8000 6.2 250 13:43 08.04.2020
5240 Clear 38 1011 11 8000 6.2 250 13:43 08.04.2020
5241 Clear 38 1012 11 6000 6.2 220 13:21 08.04.2020
5242 Clear 38 1012 11 6000 6.2 220 12:43 08.04.2020
5243 Clouds 38 1012 11 6000 6.2 220 12:19 08.04.2020
5244 Dust 36 1013 13 1000 6.7 190 11:58 08.04.2020
5245 Dust 36 1013 13 1000 6.7 190 11:40 08.04.2020
5246 Dust 36 1013 13 1000 6.7 190 11:21 08.04.2020
5247 Dust 35 1014 16 1000 4.1 200 10:56 08.04.2020
5248 Dust 35 1014 16 1000 4.1 200 10:37 08.04.2020
5249 Dust 35 1014 16 1000 4.1 200 10:19 08.04.2020
5250 Dust 33 1015 26 500 2.1 170 09:55 08.04.2020
5251 Dust 33 1015 26 500 2.1 170 09:36 08.04.2020
5252 Dust 33 1015 26 500 2.1 170 09:18 08.04.2020
5253 Dust 31 1015 29 500 1 170 08:42 08.04.2020
5254 Dust 31 1015 29 500 1 170 08:23 08.04.2020
5255 Dust 27 1014 34 500 1 260 07:44 08.04.2020
5256 Dust 27 1014 34 500 1 260 07:25 08.04.2020
5257 Dust 25 1014 41 500 1.5 350 06:56 08.04.2020
5258 Dust 25 1014 33 500 3.1 310 05:56 08.04.2020
5259 Dust 25 1012 33 3000 1.5 110 03:49 08.04.2020
5260 Dust 26 1012 26 4000 3.1 120 02:49 08.04.2020
5261 Clear 27 1013 22 8000 4.1 20 02:19 08.04.2020
5262 Clear 27 1013 22 8000 4.1 20 01:45 08.04.2020
5263 Clear 27 1013 22 8000 4.1 20 01:23 08.04.2020
5264 Clear 27 1012 28 10000 2.1 140 00:41 08.04.2020
5265 Clear 27 1012 28 10000 2.1 140 00:21 08.04.2020
5266 Clear 26 1013 34 10000 5.49 185 23:39 07.04.2020
5267 Clear 26 1013 34 10000 5.49 185 23:21 07.04.2020
5268 Clear 29 1013 25 10000 1.5 300 22:57 07.04.2020
5269 Clear 29 1013 25 10000 1.5 300 22:39 07.04.2020
5270 Clear 29 1013 25 10000 1.5 300 22:19 07.04.2020
5271 Clear 31 1013 19 10000 2.1 180 21:56 07.04.2020
5272 Clear 31 1013 19 10000 2.1 180 21:38 07.04.2020
5273 Clouds 31 1013 19 10000 2.1 180 21:19 07.04.2020
5274 Clouds 32 1013 24 10000 2.1 210 20:56 07.04.2020
5275 Clouds 32 1013 24 10000 2.1 210 20:37 07.04.2020
5276 Clouds 32 1013 24 10000 2.1 210 20:19 07.04.2020
5277 Clouds 33 1012 21 10000 2.1 250 19:56 07.04.2020
5278 Clouds 33 1012 21 10000 2.1 250 19:36 07.04.2020
5279 Clouds 34 1012 21 10000 1 210 19:18 07.04.2020
5280 Clouds 34 1012 21 10000 1 210 18:54 07.04.2020
5281 Clouds 34 1012 21 10000 1 210 18:36 07.04.2020
5282 Clouds 34 1012 21 10000 1 210 18:18 07.04.2020
5283 Clouds 36 1012 20 10000 1.5 230 17:41 07.04.2020
5284 Clouds 36 1012 20 10000 1.5 230 17:20 07.04.2020
5285 Clouds 37 1012 16 10000 2.6 260 16:45 07.04.2020
5286 Clouds 38 1012 16 10000 3.1 230 16:27 07.04.2020
5287 Clouds 38 1012 16 10000 3.1 230 15:55 07.04.2020
5288 Clouds 38 1012 16 10000 3.1 230 15:36 07.04.2020
5289 Clouds 37 1012 13 10000 3.6 270 15:18 07.04.2020
5290 Clouds 37 1012 13 10000 3.6 270 14:39 07.04.2020
5291 Clouds 36 1013 15 10000 3.1 230 14:21 07.04.2020
5292 Clouds 36 1013 15 10000 3.1 230 13:54 07.04.2020
5293 Clouds 36 1013 15 10000 3.1 230 13:36 07.04.2020
5294 Clouds 36 1013 15 10000 3.1 230 13:18 07.04.2020
5295 Clouds 35 1014 14 10000 4.6 190 12:40 07.04.2020
5296 Clouds 34 1015 15 10000 5.1 180 12:22 07.04.2020
5297 Clouds 34 1015 15 10000 5.1 180 11:59 07.04.2020
5298 Clouds 34 1015 15 10000 5.1 180 11:41 07.04.2020
5299 Clouds 34 1015 15 10000 5.1 180 11:21 07.04.2020
5300 Clouds 32 1017 18 10000 5.1 190 10:56 07.04.2020
5301 Clouds 32 1017 18 10000 5.1 190 10:37 07.04.2020
5302 Clouds 31 1017 22 10000 5.1 180 10:18 07.04.2020
5303 Clouds 31 1017 22 10000 5.1 180 09:44 07.04.2020
5304 Clouds 31 1017 22 10000 5.1 180 09:18 07.04.2020
5305 Clouds 29 1018 28 10000 3.1 170 08:42 07.04.2020
5306 Clouds 29 1018 28 10000 3.1 170 08:24 07.04.2020
5307 Clouds 26 1019 36 10000 2.6 220 07:58 07.04.2020
5308 Clouds 26 1019 36 10000 2.6 220 07:40 07.04.2020
5309 Clouds 25 1018 41 10000 1.5 130 07:21 07.04.2020
5310 Clouds 25 1018 41 10000 1.5 130 06:48 07.04.2020
5311 Clouds 25 1018 41 10000 1.5 130 06:20 07.04.2020
5312 Clouds 25 1018 41 10000 1.5 320 05:32 07.04.2020
5313 Clouds 25 1018 33 10000 2.6 20 04:35 07.04.2020
5314 Clear 25 1018 29 7000 6.2 20 03:24 07.04.2020
5315 Dust 25 1018 31 5000 9.8 360 02:48 07.04.2020
5316 Dust 27 1017 21 3000 10.3 350 01:48 07.04.2020
5317 Clouds 27 1015 26 10000 1.5 230 01:24 07.04.2020
5318 Clouds 26 1016 29 10000 2.6 160 00:28 07.04.2020
5319 Clouds 28 1016 24 10000 2.1 160 23:44 06.04.2020
5320 Clouds 28 1016 24 10000 2.1 160 23:23 06.04.2020
5321 Clouds 29 1016 21 10000 2.6 150 22:58 06.04.2020
5322 Clouds 29 1016 21 10000 2.6 150 22:38 06.04.2020
5323 Clouds 29 1016 21 10000 2.6 150 22:20 06.04.2020
5324 Clouds 30 1017 20 10000 3.1 140 21:57 06.04.2020
5325 Clouds 30 1017 20 10000 3.1 140 21:38 06.04.2020
5326 Clouds 30 1016 20 10000 2.6 150 21:18 06.04.2020
5327 Clouds 30 1016 20 10000 2.6 150 20:54 06.04.2020
5328 Clouds 30 1016 20 10000 2.6 150 20:36 06.04.2020
5329 Clouds 30 1016 20 10000 2.6 150 20:18 06.04.2020
5330 Clouds 30 1016 20 10000 2.6 150 20:18 06.04.2020
5331 Clouds 31 1016 23 10000 2.1 140 19:40 06.04.2020
5332 Clouds 31 1016 23 10000 2.1 140 19:22 06.04.2020
5333 Clouds 32 1016 18 10000 2.6 140 18:57 06.04.2020
5334 Clouds 32 1016 18 10000 2.6 140 18:39 06.04.2020
5335 Clouds 32 1016 18 10000 2.6 140 18:20 06.04.2020
5336 Clouds 33 1016 17 10000 2.6 130 17:42 06.04.2020
5337 Clouds 33 1016 17 10000 2.6 130 17:20 06.04.2020
5338 Clouds 33 1016 17 10000 2.6 130 17:20 06.04.2020
5339 Clouds 33 1016 17 10000 2.6 130 17:20 06.04.2020
5340 Clouds 34 1016 17 10000 2.1 130 16:50 06.04.2020
5341 Clouds 34 1016 17 10000 2.1 130 16:31 06.04.2020
5342 Clouds 35 1016 17 10000 2.6 200 15:41 06.04.2020
5343 Clouds 34 1017 16 10000 3.1 180 13:46 06.04.2020
5344 Clouds 34 1017 16 10000 3.1 180 13:24 06.04.2020
5345 Clouds 33 1018 16 10000 3.6 170 13:02 06.04.2020
5346 Clouds 33 1018 16 10000 3.6 170 13:02 06.04.2020
5347 Clouds 33 1018 16 10000 3.6 170 13:02 06.04.2020
5348 Clouds 33 1018 16 10000 3.6 170 13:02 06.04.2020
5349 Clouds 33 1018 16 10000 3.6 170 12:22 06.04.2020
5350 Clouds 33 1018 16 10000 3.6 170 12:22 06.04.2020
5351 Clouds 33 1019 14 10000 3.6 170 11:54 06.04.2020
5352 Clouds 33 1019 14 10000 3.6 170 11:54 06.04.2020
5353 Clouds 33 1019 14 10000 3.6 170 11:32 06.04.2020
5354 Clouds 33 1019 14 10000 3.6 170 11:32 06.04.2020
5355 Clouds 33 1019 14 10000 3.6 170 11:32 06.04.2020
5356 Clouds 33 1019 14 10000 3.6 170 11:32 06.04.2020
5357 Clouds 33 1019 14 10000 3.6 170 11:32 06.04.2020
5358 Clouds 31 1020 15 10000 3.6 140 10:51 06.04.2020
5359 Clouds 31 1020 15 10000 3.6 140 10:51 06.04.2020
5360 Clouds 31 1020 15 10000 3.6 140 10:51 06.04.2020
5361 Clouds 31 1020 15 10000 3.6 140 10:51 06.04.2020
5362 Clouds 31 1020 15 10000 3.6 140 10:51 06.04.2020
5363 Clouds 31 1020 15 10000 3.6 140 10:21 06.04.2020
5364 Clouds 29 1020 17 10000 3.6 160 09:47 06.04.2020
5365 Clouds 29 1020 17 10000 3.6 160 09:47 06.04.2020
5366 Clouds 29 1020 17 10000 3.6 160 09:47 06.04.2020
5367 Clouds 29 1020 17 10000 3.6 160 09:47 06.04.2020
5368 Clouds 29 1020 17 10000 3.6 160 09:47 06.04.2020
5369 Clouds 29 1020 17 10000 3.6 160 09:21 06.04.2020
5370 Clouds 29 1020 17 10000 3.6 160 09:21 06.04.2020
5371 Clouds 28 1020 18 10000 3.1 130 08:54 06.04.2020
5372 Clouds 28 1020 18 10000 3.1 130 08:30 06.04.2020
5373 Clouds 26 1020 22 10000 3.1 150 07:37 06.04.2020
5374 Clouds 26 1020 22 10000 3.1 150 07:37 06.04.2020
5375 Clouds 24 1019 27 10000 2.6 120 06:42 06.04.2020
5376 Clouds 24 1019 27 10000 2.6 120 06:23 06.04.2020
5377 Clouds 24 1018 27 10000 2.6 160 04:20 06.04.2020
5378 Clouds 24 1019 31 10000 1.5 140 02:58 06.04.2020
5379 Clouds 24 1019 31 10000 1.5 140 02:36 06.04.2020
5380 Clouds 25 1019 25 10000 2.1 150 01:26 06.04.2020
5381 Clouds 25 1020 23 10000 2.1 160 00:44 06.04.2020
5382 Clouds 25 1020 23 10000 2.1 160 00:23 06.04.2020
5383 Clouds 25 1020 22 10000 3.6 120 23:44 05.04.2020
5384 Clouds 25 1020 22 10000 3.6 120 23:25 05.04.2020
5385 Clouds 25 1020 22 10000 3.6 120 23:25 05.04.2020
5386 Clouds 25 1020 22 10000 3.6 120 23:25 05.04.2020
5387 Clouds 25 1020 22 10000 3.6 120 23:25 05.04.2020
5388 Clouds 27 1020 16 10000 5.1 110 22:55 05.04.2020
5389 Clouds 27 1020 16 10000 5.1 110 22:37 05.04.2020
5390 Clouds 27 1020 16 10000 5.1 110 22:37 05.04.2020
5391 Clouds 27 1020 16 10000 5.1 110 22:18 05.04.2020
5392 Clouds 27 1020 18 10000 4.1 100 21:46 05.04.2020
5393 Clouds 27 1020 18 10000 4.1 100 21:24 05.04.2020
5394 Clouds 28 1019 17 10000 4.1 100 20:43 05.04.2020
5395 Clouds 28 1019 17 10000 4.1 100 20:18 05.04.2020
5396 Clouds 28 1019 17 10000 4.1 100 20:18 05.04.2020
5397 Clouds 28 1019 17 10000 4.1 100 20:18 05.04.2020
5398 Clouds 28 1019 17 10000 4.1 100 20:18 05.04.2020
5399 Clouds 29 1019 16 10000 5.1 100 19:37 05.04.2020
5400 Clouds 29 1019 16 10000 5.1 100 19:19 05.04.2020
5401 Clouds 30 1018 15 10000 4.6 90 18:44 05.04.2020
5402 Clouds 30 1018 15 10000 4.6 90 18:44 05.04.2020
5403 Clouds 30 1018 15 10000 4.6 90 18:44 05.04.2020
5404 Clouds 30 1018 15 10000 4.6 90 18:44 05.04.2020
5405 Clouds 30 1018 15 10000 4.6 90 18:44 05.04.2020
5406 Clear 31 1017 14 10000 5.1 110 17:52 05.04.2020
5407 Clear 31 1017 14 10000 5.1 110 17:52 05.04.2020
5408 Clear 31 1017 14 10000 5.1 110 17:52 05.04.2020
5409 Clear 31 1017 14 10000 5.1 110 17:52 05.04.2020
5410 Clear 31 1017 14 10000 5.1 110 17:52 05.04.2020
5411 Clear 31 1017 14 10000 5.1 110 17:24 05.04.2020
5412 Clear 31 1017 14 10000 5.1 110 17:24 05.04.2020
5413 Clouds 32 1018 15 10000 4.1 100 16:49 05.04.2020
5414 Clouds 32 1018 15 10000 4.1 100 16:20 05.04.2020
5415 Clouds 33 1018 15 10000 4.1 100 15:51 05.04.2020
5416 Clouds 33 1018 15 10000 4.1 100 15:32 05.04.2020
5417 Clouds 33 1018 15 10000 4.1 100 15:32 05.04.2020
5418 Clear 33 1018 15 10000 5.1 110 14:50 05.04.2020
5419 Clear 33 1018 15 10000 5.1 110 14:50 05.04.2020
5420 Clear 33 1018 15 10000 5.1 110 14:25 05.04.2020
5421 Clear 33 1018 15 10000 5.1 110 14:25 05.04.2020
5422 Clear 32 1019 14 10000 3.6 100 13:43 05.04.2020
5423 Clear 32 1020 14 10000 4.6 100 12:49 05.04.2020
5424 Clear 32 1020 14 10000 4.6 100 12:49 05.04.2020
5425 Rain 31 1020 14 10000 3.1 120 11:41 05.04.2020
5426 Rain 31 1020 14 10000 3.1 120 11:21 05.04.2020
5427 Rain 30 1021 13 10000 5.7 120 10:49 05.04.2020
5428 Rain 30 1021 13 10000 5.7 120 10:24 05.04.2020
5429 Rain 29 1022 13 10000 5.1 110 09:57 05.04.2020
5430 Rain 29 1022 13 10000 5.1 110 09:31 05.04.2020
5431 Clear 29 1022 13 10000 5.1 110 09:02 05.04.2020
5432 Clear 27 1022 12 10000 3.6 100 09:02 05.04.2020
5433 Clear 27 1022 12 10000 3.6 100 09:02 05.04.2020
5434 Clear 24 1021 25 10000 1.5 130 07:31 05.04.2020
5435 Clouds 21 1020 22 10000 2.1 100 04:36 05.04.2020
5436 Clouds 22 1020 24 10000 1 80 03:31 05.04.2020
5437 Clouds 23 1019 25 10000 1.5 100 02:49 05.04.2020
5438 Clear 23 1020 19 8000 2.1 70 01:47 05.04.2020
5439 Clear 23 1020 19 8000 2.1 70 01:28 05.04.2020
5440 Clear 23 1020 27 8000 2.1 90 00:44 05.04.2020
5441 Clear 23 1020 27 8000 2.1 90 00:21 05.04.2020
5442 Clear 23 1019 20 7000 3.1 80 23:43 04.04.2020
5443 Clear 23 1019 20 7000 3.1 80 23:23 04.04.2020
5444 Clear 24 1019 17 7000 4.6 70 22:59 04.04.2020
5445 Clear 24 1019 17 7000 4.6 70 22:40 04.04.2020
5446 Clear 24 1019 17 7000 4.6 70 22:21 04.04.2020
5447 Dust 25 1019 16 5000 5.1 70 21:58 04.04.2020
5448 Dust 25 1019 16 5000 5.1 70 21:39 04.04.2020
5449 Dust 25 1019 16 5000 5.1 70 21:19 04.04.2020
5450 Dust 26 1019 15 5000 6.2 70 20:58 04.04.2020
5451 Dust 26 1019 15 5000 6.2 70 20:39 04.04.2020
5452 Dust 26 1019 15 5000 6.2 70 20:20 04.04.2020
5453 Clouds 28 1018 15 8000 6.2 70 19:57 04.04.2020
5454 Clouds 28 1018 15 8000 6.2 70 19:37 04.04.2020
5455 Clouds 28 1018 15 8000 6.2 70 19:18 04.04.2020
5456 Clouds 30 1016 16 10000 5.7 100 18:55 04.04.2020
5457 Clouds 30 1016 16 10000 5.7 100 18:37 04.04.2020
5458 Clouds 30 1016 16 10000 5.7 100 18:18 04.04.2020
5459 Clouds 31 1016 15 10000 5.1 110 17:40 04.04.2020
5460 Clouds 31 1016 15 10000 5.1 110 17:20 04.04.2020
5461 Clouds 32 1015 15 10000 4.6 120 16:55 04.04.2020
5462 Clouds 32 1015 15 10000 4.6 120 16:37 04.04.2020
5463 Clouds 32 1015 15 10000 4.6 120 16:37 04.04.2020
5464 Clouds 32 1015 15 10000 4.6 120 16:19 04.04.2020
5465 Clouds 32 1015 17 10000 4.1 80 15:41 04.04.2020
5466 Clouds 32 1015 17 10000 4.1 80 15:22 04.04.2020
5467 Clouds 32 1016 14 10000 5.19 82 14:57 04.04.2020
5468 Clouds 32 1016 14 10000 5.08 82 14:39 04.04.2020
5469 Clouds 32 1016 14 10000 5.08 82 14:21 04.04.2020
5470 Clouds 32 1017 14 10000 5.08 82 13:55 04.04.2020
5471 Clouds 32 1017 14 10000 5.08 82 13:37 04.04.2020
5472 Clouds 32 1017 14 10000 5.08 82 13:18 04.04.2020
5473 Clouds 32 1017 14 10000 5.08 82 13:18 04.04.2020
5474 Clouds 31 1017 18 10000 3.1 110 12:44 04.04.2020
5475 Clear 31 1017 18 10000 3.1 110 12:23 04.04.2020
5476 Clear 31 1017 18 10000 3.1 110 12:23 04.04.2020
5477 Clear 30 1018 17 10000 3.6 90 11:55 04.04.2020
5478 Clear 30 1018 17 10000 3.6 90 11:37 04.04.2020
5479 Clear 30 1018 17 10000 3.6 90 11:18 04.04.2020
5480 Clear 28 1018 23 10000 4.6 100 10:55 04.04.2020
5481 Clear 28 1018 23 10000 4.6 100 10:37 04.04.2020
5482 Clear 28 1018 23 10000 4.6 100 10:18 04.04.2020
5483 Clear 26 1019 22 10000 5.7 80 09:54 04.04.2020
5484 Clear 26 1019 22 10000 5.7 80 09:36 04.04.2020
5485 Clear 26 1019 22 10000 5.7 80 09:18 04.04.2020
5486 Clear 24 1019 27 10000 4.1 80 08:38 04.04.2020
5487 Clear 24 1019 27 10000 4.1 80 08:19 04.04.2020
5488 Clear 21 1019 40 10000 3.6 70 07:41 04.04.2020
5489 Clear 21 1019 40 10000 3.6 70 07:23 04.04.2020
5490 Clear 19 1018 48 10000 2.6 50 06:47 04.04.2020
5491 Clear 19 1018 48 10000 2.6 50 06:18 04.04.2020
5492 Clear 19 1017 48 10000 2.1 20 05:41 04.04.2020
5493 Clear 19 1017 48 10000 2.1 20 05:23 04.04.2020
5494 Clear 19 1017 52 10000 2.6 350 04:27 04.04.2020
5495 Clear 19 1016 52 10000 2.1 30 03:49 04.04.2020
5496 Clear 19 1016 48 10000 2.6 20 02:50 04.04.2020
5497 Clear 19 1016 48 10000 2.6 20 02:32 04.04.2020
5498 Clear 20 1016 45 8000 3.6 30 01:53 04.04.2020
5499 Clear 20 1016 45 8000 3.6 30 01:24 04.04.2020
5500 Dust 21 1016 40 5000 4.6 20 00:48 04.04.2020
5501 Dust 21 1016 40 5000 4.6 20 00:28 04.04.2020
5502 Dust 21 1016 37 5000 4.6 20 23:39 03.04.2020
5503 Dust 21 1017 37 2000 4.1 20 23:21 03.04.2020
5504 Dust 22 1016 35 2000 5.1 30 22:57 03.04.2020
5505 Dust 22 1016 35 2000 5.1 30 22:39 03.04.2020
5506 Dust 22 1016 35 2000 5.1 30 22:18 03.04.2020
5507 Dust 23 1016 33 2000 6.2 50 21:43 03.04.2020
5508 Dust 23 1016 33 2000 6.2 50 21:24 03.04.2020
5509 Dust 25 1015 31 1000 8.7 40 20:57 03.04.2020
5510 Dust 25 1015 31 1000 8.7 40 20:37 03.04.2020
5511 Dust 25 1015 31 1000 8.7 40 20:19 03.04.2020
5512 Dust 27 1014 28 1000 9.3 30 19:57 03.04.2020
5513 Dust 27 1014 28 1000 9.3 30 19:38 03.04.2020
5514 Dust 27 1014 28 1000 9.3 30 19:20 03.04.2020
5515 Dust 30 1012 22 1000 7.2 30 18:59 03.04.2020
5516 Dust 30 1012 22 1000 7.2 30 18:41 03.04.2020
5517 Dust 30 1012 22 1000 7.2 30 18:22 03.04.2020
5518 Clouds 34 1011 12 10000 2.6 270 17:55 03.04.2020
5519 Clouds 34 1011 12 10000 2.6 270 17:36 03.04.2020
5520 Clouds 34 1011 12 10000 2.6 270 17:18 03.04.2020
5521 Clouds 35 1011 11 10000 3.6 270 16:43 03.04.2020
5522 Clouds 35 1011 11 10000 3.6 270 16:21 03.04.2020
5523 Clear 35 1011 10 10000 3.1 220 15:58 03.04.2020
5524 Clear 35 1011 10 10000 3.1 220 15:39 03.04.2020
5525 Clouds 35 1011 10 10000 5.1 210 15:20 03.04.2020
5526 Clouds 35 1011 10 10000 5.1 210 14:55 03.04.2020
5527 Clouds 35 1007 10 0 2.81 240 14:37 03.04.2020
5528 Clouds 35 1012 10 10000 3.1 210 14:19 03.04.2020
5529 Clouds 35 1012 9 10000 3.1 210 13:42 03.04.2020
5530 Clouds 35 1012 9 10000 3.1 210 13:24 03.04.2020
5531 Clouds 34 1013 14 10000 2.6 230 12:45 03.04.2020
5532 Clouds 34 1013 14 10000 2.6 230 12:21 03.04.2020
5533 Clouds 33 1014 12 10000 2.6 170 11:59 03.04.2020
5534 Clouds 33 1014 12 10000 2.6 170 11:40 03.04.2020
5535 Clouds 33 1014 12 10000 2.6 170 11:21 03.04.2020
5536 Clouds 30 1014 16 10000 3.1 140 10:59 03.04.2020
5537 Clouds 30 1014 16 10000 3.1 140 10:39 03.04.2020
5538 Clouds 30 1014 16 10000 3.1 140 10:20 03.04.2020
5539 Clouds 29 1015 14 10000 3.1 120 09:59 03.04.2020
5540 Clouds 29 1015 14 10000 3.1 120 09:40 03.04.2020
5541 Clouds 29 1015 14 10000 3.1 120 09:22 03.04.2020
5542 Clouds 27 1015 18 10000 2.6 70 08:56 03.04.2020
5543 Clouds 27 1015 18 10000 2.6 70 08:38 03.04.2020
5544 Clouds 27 1015 18 10000 2.6 70 08:20 03.04.2020
5545 Clouds 24 1015 29 6000 2.6 70 07:46 03.04.2020
5546 Clouds 24 1015 29 6000 2.6 70 07:28 03.04.2020
5547 Clouds 22 1015 33 6000 2.1 20 06:42 03.04.2020
5548 Clouds 22 1015 33 6000 2.1 20 06:23 03.04.2020
5549 Clouds 21 1014 35 6000 3.1 10 05:39 03.04.2020
5550 Clouds 23 1013 28 10000 2.1 40 03:42 03.04.2020
5551 Clouds 24 1012 31 10000 1.5 60 02:56 03.04.2020
5552 Clouds 24 1012 31 10000 1.5 60 02:18 03.04.2020
5553 Clouds 25 1013 22 10000 3.1 70 01:22 03.04.2020
5554 Clouds 25 1013 22 10000 1.5 40 00:36 03.04.2020
5555 Clouds 25 1013 22 10000 1.5 40 00:18 03.04.2020
5556 Clouds 25 1013 17 10000 3.1 350 23:40 02.04.2020
5557 Clouds 25 1013 17 10000 3.1 350 23:21 02.04.2020
5558 Clouds 27 1013 21 10000 1.5 90 22:57 02.04.2020
5559 Clouds 27 1013 21 10000 1.5 90 22:37 02.04.2020
5560 Clouds 27 1013 21 10000 1.5 90 22:18 02.04.2020
5561 Clouds 28 1013 15 10000 2.6 80 21:39 02.04.2020
5562 Clear 28 1013 15 10000 2.6 80 21:19 02.04.2020
5563 Clear 26 1013 26 10000 1 160 20:58 02.04.2020
5564 Clear 26 1013 26 10000 1 160 20:58 02.04.2020
5565 Clear 26 1013 26 10000 1 160 20:58 02.04.2020
5566 Clear 26 1013 26 10000 1 160 20:40 02.04.2020
5567 Clear 26 1013 26 10000 1 160 20:21 02.04.2020
5568 Clear 27 1012 24 10000 2.86 0 19:44 02.04.2020
5569 Clear 27 1012 24 10000 2.86 0 19:21 02.04.2020
5570 Clear 31 1012 18 10000 2.1 270 18:58 02.04.2020
5571 Clear 31 1012 18 10000 2.1 270 18:39 02.04.2020
5572 Clear 31 1012 18 10000 2.1 270 18:20 02.04.2020
5573 Clear 33 1011 10 10000 2.6 280 17:56 02.04.2020
5574 Clear 33 1011 10 10000 2.6 280 17:38 02.04.2020
5575 Clear 33 1011 10 10000 2.6 280 17:18 02.04.2020
5576 Clear 34 1011 10 10000 3.1 280 16:55 02.04.2020
5577 Clear 34 1011 10 10000 3.1 280 16:36 02.04.2020
5578 Clear 34 1011 10 10000 3.1 280 16:18 02.04.2020
5579 Clear 34 1011 12 10000 3.6 270 15:44 02.04.2020
5580 Clear 34 1011 12 10000 3.6 270 15:44 02.04.2020
5581 Clear 34 1011 12 10000 3.6 270 15:43 02.04.2020
5582 Clear 34 1011 12 10000 3.6 270 15:21 02.04.2020
5583 Clear 35 1011 10 10000 4.6 270 14:58 02.04.2020
5584 Clear 35 1011 10 10000 4.6 270 14:39 02.04.2020
5585 Clear 35 1011 10 10000 4.6 270 14:19 02.04.2020
5586 Clear 34 1011 9 10000 4.1 290 13:56 02.04.2020
5587 Clear 34 1011 9 10000 4.1 290 13:38 02.04.2020
5588 Clear 34 1011 9 10000 4.1 290 13:19 02.04.2020
5589 Clear 35 1012 11 10000 3.1 300 12:47 02.04.2020
5590 Clear 35 1012 11 10000 3.1 300 12:21 02.04.2020
5591 Clear 34 1013 9 10000 3.1 290 11:58 02.04.2020
5592 Clear 34 1013 9 10000 3.1 290 11:39 02.04.2020
5593 Clear 34 1013 9 10000 3.1 290 11:21 02.04.2020
5594 Clear 32 1014 9 10000 4.1 250 10:57 02.04.2020
5595 Clear 32 1014 9 10000 4.1 250 10:39 02.04.2020
5596 Clear 32 1014 9 10000 4.1 250 10:21 02.04.2020
5597 Clear 31 1015 15 10000 2.1 240 09:59 02.04.2020
5598 Clear 31 1015 15 10000 2.1 240 09:59 02.04.2020
5599 Clear 31 1015 15 10000 2.1 240 09:41 02.04.2020
5600 Clear 31 1015 15 10000 2.1 240 09:23 02.04.2020
5601 Clouds 28 1015 23 10000 2.1 260 08:58 02.04.2020
5602 Clouds 28 1015 23 10000 2.1 260 08:39 02.04.2020
5603 Clouds 28 1015 23 10000 2.1 260 08:19 02.04.2020
5604 Clouds 26 1014 26 10000 2.1 160 07:42 02.04.2020
5605 Clouds 26 1014 26 10000 2.1 160 07:19 02.04.2020
5606 Clouds 23 1014 28 10000 2.1 160 06:46 02.04.2020
5607 Clouds 23 1014 28 10000 2.1 160 06:20 02.04.2020
5608 Clouds 22 1013 30 8000 4.38 219 05:41 02.04.2020
5609 Clouds 25 1012 22 10000 2.6 160 02:59 02.04.2020
5610 Clouds 26 1012 19 10000 4.1 180 01:30 02.04.2020
5611 Clouds 27 1012 15 10000 6.7 180 00:42 02.04.2020
5612 Clouds 27 1012 15 10000 6.7 180 00:24 02.04.2020
5613 Clouds 27 1013 15 10000 5.7 180 23:41 01.04.2020
5614 Clouds 27 1013 15 10000 5.7 180 23:20 01.04.2020
5615 Clouds 27 1013 15 10000 6.7 170 22:58 01.04.2020
5616 Clouds 27 1013 15 10000 6.7 170 22:58 01.04.2020
5617 Clouds 27 1013 15 10000 6.7 170 22:39 01.04.2020
5618 Clouds 27 1013 15 10000 6.7 170 22:21 01.04.2020
5619 Clouds 27 1013 15 10000 6.7 170 22:21 01.04.2020
5620 Clouds 28 1014 15 10000 6.2 170 21:42 01.04.2020
5621 Clouds 28 1014 15 10000 6.2 170 21:42 01.04.2020
5622 -273 0 0 0 0 0 21:22 01.04.2020
5623 Clouds 28 1014 15 10000 6.2 170 21:22 01.04.2020
5624 Clouds 28 1014 15 10000 6.2 170 21:22 01.04.2020
5625 Clouds 28 1014 19 9000 5.1 170 20:57 01.04.2020
5626 Clouds 28 1014 19 9000 5.1 170 20:39 01.04.2020
5627 Clouds 28 1014 19 9000 5.1 170 20:20 01.04.2020
5628 Clouds 28 1014 19 9000 5.1 170 20:20 01.04.2020
5629 Clouds 29 1014 16 8000 4.6 170 19:59 01.04.2020
5630 Clouds 29 1014 16 8000 4.6 170 19:41 01.04.2020
5631 -273 0 0 0 0 0 19:20 01.04.2020
5632 Clouds 30 1013 17 8000 3.6 170 18:44 01.04.2020
5633 Clouds 30 1013 17 8000 3.6 170 18:25 01.04.2020
5634 Clouds 31 1013 16 6000 3.6 190 17:58 01.04.2020
5635 Clouds 31 1013 16 6000 3.6 190 17:38 01.04.2020
5636 Clouds 31 1013 16 6000 3.6 190 17:19 01.04.2020
5637 Clouds 32 1013 13 6000 6.2 190 16:59 01.04.2020
5638 Clouds 32 1013 13 6000 6.2 190 16:39 01.04.2020
5639 Clouds 32 1013 13 6000 6.2 190 16:21 01.04.2020
5640 Clouds 32 1013 14 6000 6.2 180 15:57 01.04.2020
5641 Clouds 32 1013 14 6000 6.2 180 15:38 01.04.2020
5642 Clouds 32 1013 14 6000 6.2 180 15:19 01.04.2020
5643 Clouds 32 1014 14 6000 6.2 180 14:55 01.04.2020
5644 Clouds 32 1014 14 6000 6.2 180 14:55 01.04.2020
5645 Clouds 32 1014 14 6000 6.2 180 14:37 01.04.2020
5646 Clouds 32 1014 14 6000 6.2 180 14:19 01.04.2020
5647 Clouds 32 1015 13 6000 6.2 190 13:56 01.04.2020
5648 Clouds 32 1015 13 6000 6.2 190 13:37 01.04.2020
5649 Clouds 32 1015 13 6000 6.2 190 13:18 01.04.2020
5650 Clouds 30 1016 15 6000 6.2 170 12:42 01.04.2020
5651 Clouds 30 1016 15 6000 6.2 170 12:24 01.04.2020
5652 Clear 28 1017 15 6000 7.7 180 11:59 01.04.2020
5653 Clear 28 1017 15 6000 7.7 180 11:39 01.04.2020
5654 Clear 28 1017 15 6000 7.7 180 11:20 01.04.2020
5655 Clear 27 1017 15 7000 6.2 170 10:56 01.04.2020
5656 Clear 27 1017 15 7000 6.2 170 10:37 01.04.2020
5657 Clear 27 1017 15 7000 6.2 170 10:37 01.04.2020
5658 Clear 27 1017 15 7000 6.2 170 10:18 01.04.2020
5659 Clear 26 1018 14 8000 7.2 170 09:40 01.04.2020
5660 Clear 26 1018 14 8000 7.2 170 09:40 01.04.2020
5661 Clear 26 1018 14 8000 7.2 170 09:21 01.04.2020
5662 Clear 24 1018 17 8000 7.7 170 08:59 01.04.2020
5663 Clear 24 1018 17 8000 7.7 170 08:40 01.04.2020
5664 Clear 24 1018 17 8000 7.7 170 08:18 01.04.2020
5665 Clear 23 1018 18 9000 6.7 170 07:42 01.04.2020
5666 Clear 23 1018 18 9000 6.7 170 07:19 01.04.2020
5667 Clear 21 1017 22 10000 4.6 160 06:47 01.04.2020
5668 Clear 21 1017 22 10000 4.6 160 06:21 01.04.2020
5669 Clear 20 1017 24 10000 4.1 160 05:53 01.04.2020
5670 Clear 21 1017 21 10000 4.6 170 04:29 01.04.2020
5671 Clear 21 1016 22 10000 4.1 170 03:21 01.04.2020
5672 Clear 21 1016 22 10000 3.1 150 02:41 01.04.2020
5673 Clear 22 1017 22 10000 3.6 150 01:53 01.04.2020
5674 Clear 22 1017 22 10000 3.6 150 01:27 01.04.2020
5675 Clear 22 1017 22 10000 2.6 150 00:47 01.04.2020
5676 Clear 22 1017 22 10000 2.6 150 00:24 01.04.2020
5677 Clear 23 1017 23 10000 3.1 150 23:59 31.03.2020
5678 Clear 23 1017 23 10000 3.1 150 23:41 31.03.2020
5679 Clear 23 1017 25 10000 3.1 130 23:22 31.03.2020
5680 Clear 23 1017 25 10000 3.1 130 22:41 31.03.2020
5681 Clear 23 1017 25 10000 3.1 130 22:22 31.03.2020
5682 Clear 24 1018 25 10000 2.1 130 21:58 31.03.2020
5683 Clear 24 1018 25 10000 2.1 130 21:40 31.03.2020
5684 Clear 24 1018 25 10000 2.1 130 21:21 31.03.2020
5685 Clear 24 1018 31 10000 2.1 130 20:58 31.03.2020
5686 Clear 24 1018 31 10000 2.1 130 20:37 31.03.2020
5687 Clear 24 1018 31 10000 2.1 130 20:19 31.03.2020
5688 Clear 26 1017 21 10000 3.1 140 19:57 31.03.2020
5689 Clear 26 1017 21 10000 3.1 140 19:38 31.03.2020
5690 Clear 26 1017 21 10000 3.1 140 19:19 31.03.2020
5691 Clear 26 1017 24 10000 2.1 140 18:44 31.03.2020
5692 Clear 27 1017 22 10000 2.6 150 18:21 31.03.2020
5693 Clear 27 1017 22 10000 2.6 150 17:57 31.03.2020
5694 Clear 27 1017 22 10000 2.6 150 17:57 31.03.2020
5695 Clear 27 1017 22 10000 2.6 150 17:39 31.03.2020
5696 Clear 27 1017 22 10000 2.6 150 17:21 31.03.2020
5697 Clear 28 1017 21 10000 3.1 130 16:56 31.03.2020
5698 Clear 28 1017 21 10000 3.1 130 16:37 31.03.2020
5699 Clear 28 1017 21 10000 3.1 130 16:18 31.03.2020
5700 Clear 28 1017 20 10000 2.1 120 15:56 31.03.2020
5701 Clear 28 1017 20 10000 2.1 120 15:37 31.03.2020
5702 Clear 28 1017 20 10000 2.1 120 15:37 31.03.2020
5703 Clear 28 1017 20 10000 2.1 120 15:18 31.03.2020
5704 Clear 29 1017 20 10000 2.1 140 14:42 31.03.2020
5705 Clear 29 1017 20 10000 2.1 140 14:23 31.03.2020
5706 Clear 29 1017 18 10000 3.1 170 13:59 31.03.2020
5707 Clear 29 1017 18 10000 3.1 170 13:40 31.03.2020
5708 Clear 29 1017 18 10000 3.1 170 13:19 31.03.2020
5709 Clear 29 1017 18 10000 3.1 170 13:19 31.03.2020
5710 Clear 28 1018 18 10000 3.1 130 12:46 31.03.2020
5711 Clear 28 1018 18 10000 3.1 130 12:21 31.03.2020
5712 Clear 28 1018 18 10000 3.1 130 12:21 31.03.2020
5713 Clear 27 1019 19 10000 2.6 110 11:59 31.03.2020
5714 Clear 27 1019 19 10000 2.6 110 11:38 31.03.2020
5715 Clear 27 1019 19 10000 2.6 110 11:19 31.03.2020
5716 Clear 26 1020 19 10000 2.6 130 10:56 31.03.2020
5717 Clear 26 1020 19 10000 2.6 130 10:38 31.03.2020
5718 Clear 26 1020 19 10000 2.6 130 10:20 31.03.2020
5719 Clear 24 1021 19 10000 3.1 110 09:45 31.03.2020
5720 Clear 24 1021 19 10000 3.1 110 09:26 31.03.2020
5721 Clear 23 1021 15 10000 3.1 120 08:59 31.03.2020
5722 Clear 23 1021 15 10000 3.1 120 08:41 31.03.2020
5723 Clear 23 1021 15 10000 3.1 120 08:21 31.03.2020
5724 Clear 21 1021 30 10000 1.5 150 07:59 31.03.2020
5725 Clear 21 1021 30 10000 1.5 150 07:41 31.03.2020
5726 Clear 21 1021 30 10000 1.5 150 07:22 31.03.2020
5727 Clear 19 1020 37 10000 1 140 06:55 31.03.2020
5728 Clear 19 1020 37 10000 1 140 06:36 31.03.2020
5729 Clear 15 1019 41 10000 2.67 92 05:42 31.03.2020
5730 Clear 15 1019 41 10000 2.67 92 05:20 31.03.2020
5731 Clear 18 1017 34 10000 1.5 310 02:40 31.03.2020
5732 Clear 18 1017 36 10000 1 340 01:47 31.03.2020
5733 Clear 18 1017 36 10000 1 340 01:19 31.03.2020
5734 Clear 18 1017 34 10000 1 360 00:42 31.03.2020
5735 Clear 18 1017 34 10000 1 360 00:19 31.03.2020
5736 Clear 19 1018 34 10000 1.5 360 23:39 30.03.2020
5737 Clear 19 1018 34 10000 1.5 360 23:20 30.03.2020
5738 Clear 21 1018 30 10000 1.5 30 22:57 30.03.2020
5739 Clear 21 1018 30 10000 1.5 30 22:38 30.03.2020
5740 Clear 21 1018 30 10000 1.5 30 22:18 30.03.2020
5741 Clear 22 1018 24 10000 2.6 20 21:57 30.03.2020
5742 Clear 22 1018 24 10000 2.6 20 21:37 30.03.2020
5743 Clear 22 1018 24 10000 2.6 20 21:19 30.03.2020
5744 Clear 23 1017 25 10000 3.6 20 20:56 30.03.2020
5745 Clear 23 1017 25 10000 3.6 20 20:37 30.03.2020
5746 Clear 23 1017 25 10000 3.6 20 20:19 30.03.2020
5747 Clear 24 1017 23 10000 4.1 10 19:41 30.03.2020
5748 Clear 24 1017 23 10000 4.1 10 19:22 30.03.2020
5749 Clear 25 1016 25 10000 3.6 20 18:57 30.03.2020
5750 Clear 25 1016 25 10000 3.6 20 18:39 30.03.2020
5751 Clear 25 1016 25 10000 3.6 20 18:20 30.03.2020
5752 Clear 26 1015 24 10000 3.1 360 17:57 30.03.2020
5753 Clear 26 1015 24 10000 3.1 360 17:38 30.03.2020
5754 Clear 26 1015 24 10000 3.1 360 17:19 30.03.2020
5755 Clear 27 1015 24 10000 2.6 10 16:55 30.03.2020
5756 Clear 27 1015 24 10000 2.6 10 16:37 30.03.2020
5757 Clear 27 1015 24 10000 2.6 10 16:19 30.03.2020
5758 Clear 29 1015 23 10000 2.6 340 15:54 30.03.2020
5759 Clear 29 1015 23 10000 2.6 340 15:36 30.03.2020
5760 Clear 29 1015 23 10000 2.6 340 15:18 30.03.2020
5761 Clear 28 1015 20 10000 4.1 360 14:39 30.03.2020
5762 Clear 28 1015 20 10000 4.1 360 14:19 30.03.2020
5763 Clear 27 1015 22 10000 2.6 340 13:59 30.03.2020
5764 Clear 27 1015 22 10000 2.6 340 13:40 30.03.2020
5765 Clear 27 1015 22 10000 2.6 340 13:21 30.03.2020
5766 Clear 28 1016 23 10000 3.6 340 12:56 30.03.2020
5767 Clear 28 1016 23 10000 3.6 340 12:37 30.03.2020
5768 Clear 28 1016 23 10000 3.6 340 12:19 30.03.2020
5769 Clear 27 1017 26 10000 2.6 350 11:56 30.03.2020
5770 Clear 27 1017 26 10000 2.6 350 11:38 30.03.2020
5771 Clear 27 1017 26 10000 2.6 350 11:20 30.03.2020
5772 Clear 24 1017 29 10000 3.6 20 10:39 30.03.2020
5773 Clear 24 1017 29 10000 3.6 20 10:21 30.03.2020
5774 Clear 24 1017 31 10000 3.1 360 09:55 30.03.2020
5775 Clear 24 1017 31 10000 3.1 360 09:37 30.03.2020
5776 Clear 24 1017 31 10000 3.1 360 09:18 30.03.2020
5777 Clear 22 1017 33 10000 4.1 360 08:40 30.03.2020
5778 Clear 22 1017 33 10000 4.1 360 08:22 30.03.2020
5779 Clear 21 1017 37 10000 3.6 340 07:49 30.03.2020
5780 Clear 21 1017 37 10000 3.6 340 07:26 30.03.2020
5781 Clear 17 1016 51 8000 3.1 300 06:52 30.03.2020
5782 Clear 17 1016 51 8000 3.1 300 06:30 30.03.2020
5783 Clear 17 1015 51 7000 3.1 320 05:47 30.03.2020
5784 Clear 17 1015 51 7000 3.1 320 05:18 30.03.2020
5785 Clear 17 1015 51 10000 1.5 290 04:21 30.03.2020
5786 Clear 17 1013 48 10000 2.1 310 03:19 30.03.2020
5787 Clear 19 1013 39 10000 3.6 360 01:59 30.03.2020
5788 Clear 19 1013 39 10000 3.6 360 01:24 30.03.2020
5789 Clear 20 1013 34 10000 4.1 350 00:30 30.03.2020
5790 Clear 21 1013 32 10000 3.6 30 23:59 29.03.2020
5791 Clear 21 1013 32 10000 3.6 30 23:40 29.03.2020
5792 Clear 21 1013 32 10000 3.6 30 23:21 29.03.2020
5793 Clear 22 1013 28 9000 4.6 30 22:55 29.03.2020
5794 Clear 22 1013 28 9000 4.6 30 22:37 29.03.2020
5795 Clear 22 1013 28 9000 4.6 30 22:18 29.03.2020
5796 Clear 23 1012 28 8000 5.1 20 21:39 29.03.2020
5797 Clear 23 1012 28 8000 5.1 20 21:20 29.03.2020
5798 Clear 24 1012 27 8000 5.7 10 20:56 29.03.2020
5799 Clear 24 1012 27 8000 5.7 10 20:37 29.03.2020
5800 Clear 24 1012 27 8000 5.7 10 20:19 29.03.2020
5801 Clear 24 1011 27 6000 7.2 20 19:58 29.03.2020
5802 Clear 24 1011 27 6000 7.2 20 19:40 29.03.2020
5803 Clear 24 1011 27 6000 7.2 20 19:22 29.03.2020
5804 Clear 25 1010 25 6000 7.2 20 18:57 29.03.2020
5805 Clear 25 1010 25 6000 7.2 20 18:38 29.03.2020
5806 Clear 25 1010 25 6000 7.2 20 18:19 29.03.2020
5807 Clear 26 1010 24 6000 7.2 30 17:56 29.03.2020
5808 Clear 26 1010 24 6000 7.2 30 17:38 29.03.2020
5809 Clear 26 1010 24 6000 7.2 30 17:19 29.03.2020
5810 Clouds 28 1010 20 6000 5.7 330 16:56 29.03.2020
5811 Clouds 28 1010 20 6000 5.7 330 16:38 29.03.2020
5812 Clouds 28 1010 20 6000 5.7 330 16:19 29.03.2020
5813 Clear 29 1009 18 6000 6.2 360 15:41 29.03.2020
5814 Clear 29 1009 18 6000 6.2 360 15:41 29.03.2020
5815 Clear 29 1009 18 6000 6.2 360 15:23 29.03.2020
5816 Clear 29 1009 21 8000 4.6 340 14:58 29.03.2020
5817 Clear 29 1009 21 8000 4.6 340 14:40 29.03.2020
5818 Clear 29 1009 21 8000 4.6 340 14:20 29.03.2020
5819 Clear 29 1009 23 8000 5.1 10 13:58 29.03.2020
5820 Clear 29 1009 23 8000 5.1 10 13:39 29.03.2020
5821 Clear 29 1009 23 8000 5.1 10 13:20 29.03.2020
5822 Clear 29 1009 21 8000 6.7 350 12:56 29.03.2020
5823 Clear 29 1009 21 8000 6.7 350 12:37 29.03.2020
5824 Clear 29 1009 21 8000 6.7 350 12:19 29.03.2020
5825 Clear 29 1010 23 7000 5.1 340 11:55 29.03.2020
5826 Clear 29 1010 23 7000 5.1 340 11:37 29.03.2020
5827 Clear 29 1010 23 7000 5.1 340 11:18 29.03.2020
5828 Clear 29 1010 23 7000 5.1 340 11:18 29.03.2020
5829 Clear 27 1011 28 7000 6.2 360 10:38 29.03.2020
5830 Clear 27 1011 28 7000 6.2 360 10:19 29.03.2020
5831 Clear 25 1011 36 7000 6.7 10 09:41 29.03.2020
5832 Clear 25 1011 36 7000 6.7 10 09:22 29.03.2020
5833 Clear 24 1011 44 7000 6.2 360 08:54 29.03.2020
5834 Clear 24 1011 44 7000 6.2 360 08:36 29.03.2020
5835 Clear 24 1011 44 7000 6.2 360 08:18 29.03.2020
5836 Dust 22 1011 53 5000 3.6 350 07:42 29.03.2020
5837 Dust 22 1011 53 5000 3.6 350 07:21 29.03.2020
5838 Dust 20 1010 42 5000 3.1 320 05:46 29.03.2020
5839 Dust 22 1009 35 5000 4.1 330 04:27 29.03.2020
5840 Dust 23 1009 31 5000 5.1 320 03:31 29.03.2020
5841 Dust 24 1008 27 5000 5.7 340 01:51 29.03.2020
5842 Dust 24 1008 27 5000 5.7 340 01:23 29.03.2020
5843 Dust 25 1009 23 3000 5.7 330 00:56 29.03.2020
5844 Dust 25 1009 23 3000 5.7 330 00:33 29.03.2020
5845 Dust 25 1009 25 3000 4.6 320 23:56 28.03.2020
5846 Dust 25 1009 25 3000 4.6 320 23:38 28.03.2020
5847 Dust 25 1009 25 3000 4.6 320 23:18 28.03.2020
5848 Dust 27 1009 19 3000 5.1 330 22:39 28.03.2020
5849 Dust 27 1009 19 3000 5.1 330 22:21 28.03.2020
5850 Dust 28 1008 28 3000 3.6 330 21:55 28.03.2020
5851 Dust 28 1008 28 3000 3.6 330 21:37 28.03.2020
5852 Dust 28 1008 28 3000 3.6 330 21:18 28.03.2020
5853 Dust 28 1008 34 3000 3.6 310 20:42 28.03.2020
5854 Dust 28 1008 34 3000 3.6 310 20:23 28.03.2020
5855 Dust 31 1007 25 3000 2.6 270 19:57 28.03.2020
5856 Dust 31 1007 25 3000 2.6 270 19:39 28.03.2020
5857 Dust 31 1007 25 3000 2.6 270 19:20 28.03.2020
5858 Dust 31 1006 29 3000 2.1 240 18:58 28.03.2020
5859 Dust 31 1006 29 3000 2.1 240 18:39 28.03.2020
5860 Dust 31 1006 29 3000 2.1 240 18:19 28.03.2020
5861 Dust 31 1006 29 3000 2.1 240 18:19 28.03.2020
5862 Dust 30 1006 28 3000 2.6 270 17:39 28.03.2020
5863 Dust 30 1006 28 3000 2.6 270 17:20 28.03.2020
5864 Dust 30 1006 33 3000 3.6 270 16:43 28.03.2020
5865 Thunderstorm 31 1006 31 4000 4.1 290 16:20 28.03.2020
5866 Thunderstorm 31 1006 31 4000 4.1 290 16:20 28.03.2020
5867 Thunderstorm 31 1006 31 4000 4.1 290 16:20 28.03.2020
5868 Dust 35 1005 13 3000 6.7 260 15:59 28.03.2020
5869 Dust 35 1005 13 3000 6.7 260 15:39 28.03.2020
5870 Dust 35 1005 13 5000 6.2 240 15:19 28.03.2020
5871 Dust 35 1005 12 5000 8.7 240 14:55 28.03.2020
5872 Dust 35 1005 12 5000 8.7 240 14:37 28.03.2020
5873 Dust 35 1005 12 5000 8.7 240 14:18 28.03.2020
5874 Clouds 36 1006 12 8000 4.6 240 13:39 28.03.2020
5875 Clouds 36 1006 12 8000 4.6 240 13:21 28.03.2020
5876 Clouds 35 1007 13 10000 4.6 220 12:40 28.03.2020
5877 Clouds 35 1007 13 10000 4.6 220 12:22 28.03.2020
5878 Clouds 34 1008 14 10000 4.1 210 11:43 28.03.2020
5879 Clouds 34 1008 14 10000 4.1 210 11:23 28.03.2020
5880 Clouds 35 1009 14 10000 3.1 160 10:57 28.03.2020
5881 Clouds 35 1009 14 10000 3.1 160 10:38 28.03.2020
5882 Clouds 35 1009 14 10000 3.1 160 10:18 28.03.2020
5883 Clouds 33 1021 16 9000 3.6 150 09:42 28.03.2020
5884 Clouds 33 1021 16 9000 3.6 150 09:23 28.03.2020
5885 Clouds 31 1012 16 8000 3.6 170 08:47 28.03.2020
5886 Clouds 31 1012 16 8000 3.6 170 08:28 28.03.2020
5887 Clouds 29 1012 28 8000 1 240 07:59 28.03.2020
5888 Clouds 29 1012 28 8000 1 240 07:41 28.03.2020
5889 Clouds 27 1011 32 7000 1 50 06:56 28.03.2020
5890 Clouds 27 1011 32 7000 1 50 06:34 28.03.2020
5891 Clouds 23 1011 38 8000 1 340 05:41 28.03.2020
5892 Clouds 23 1011 38 8000 1 340 05:21 28.03.2020
5893 Clouds 23 1010 35 8000 1 250 04:40 28.03.2020
5894 Clouds 23 1010 33 10000 1.5 110 03:21 28.03.2020
5895 Clouds 23 1011 33 10000 1.5 200 01:49 28.03.2020
5896 Clouds 23 1011 33 10000 1.5 200 01:24 28.03.2020
5897 Clouds 24 1011 33 10000 2.55 84 00:55 28.03.2020
5898 Clouds 24 1011 33 10000 2.55 84 00:33 28.03.2020
5899 Clouds 25 1011 29 10000 1 270 23:45 27.03.2020
5900 Clouds 25 1011 29 10000 1 270 23:26 27.03.2020
5901 Clouds 24 1011 36 10000 1 330 22:58 27.03.2020
5902 Clouds 24 1011 36 10000 1 330 22:40 27.03.2020
5903 Clouds 24 1011 36 10000 1 330 22:21 27.03.2020
5904 Clouds 25 1011 33 10000 1 50 22:00 27.03.2020
5905 Clouds 25 1011 33 10000 1 50 21:41 27.03.2020
5906 Clouds 24 1011 36 10000 4.29 16 21:23 27.03.2020
5907 Clouds 24 1011 36 10000 4.29 16 20:57 27.03.2020
5908 Clouds 24 1011 36 10000 4.29 16 20:39 27.03.2020
5909 Clouds 24 1011 36 10000 2.93 356 20:19 27.03.2020
5910 Clouds 24 1011 36 10000 3.69 354 20:19 27.03.2020
5911 Clouds 27 1011 32 10000 1 230 19:56 27.03.2020
5912 Clouds 27 1011 32 10000 1 230 19:38 27.03.2020
5913 Clouds 27 1011 32 10000 1 230 19:19 27.03.2020
5914 Clouds 30 1011 19 8000 2.1 270 18:43 27.03.2020
5915 Clouds 30 1011 19 8000 2.1 270 18:23 27.03.2020
5916 Clouds 30 1010 17 8000 3.6 290 17:55 27.03.2020
5917 Clouds 30 1010 17 8000 3.6 290 17:36 27.03.2020
5918 Clouds 30 1010 17 8000 3.6 290 17:18 27.03.2020
5919 Clouds 32 1010 13 8000 6.2 290 16:43 27.03.2020
5920 Clouds 32 1010 13 8000 6.2 290 16:24 27.03.2020
5921 Clouds 33 1010 13 10000 6.2 290 15:44 27.03.2020
5922 Clouds 30 1007 11 0 2.82 304 15:26 27.03.2020
5923 Clouds 30 1007 11 0 2.82 304 14:56 27.03.2020
5924 Clouds 30 1007 11 0 2.82 304 14:36 27.03.2020
5925 Clouds 34 1006 9 0 5.35 271 14:18 27.03.2020
5926 Clouds 34 1006 9 0 5.35 271 13:42 27.03.2020
5927 Clouds 34 1006 9 0 5.35 271 13:21 27.03.2020
5928 Clouds 34 1005 9 0 5.11 271 12:58 27.03.2020
5929 Clouds 34 1005 9 0 5.11 271 12:39 27.03.2020
5930 Clouds 34 1005 9 0 5.11 271 12:19 27.03.2020
5931 Clouds 34 1005 9 0 5.11 271 11:42 27.03.2020
5932 Clouds 34 1005 9 0 5.11 271 11:24 27.03.2020
5933 Clouds 33 1009 9 0 5.47 230 10:55 27.03.2020
5934 Clouds 33 1009 9 0 5.47 230 10:37 27.03.2020
5935 Clouds 33 1009 9 0 5.47 230 10:19 27.03.2020
5936 Clouds 33 1009 9 0 5.47 230 09:57 27.03.2020
5937 Clouds 33 1009 9 0 5.47 230 09:38 27.03.2020
5938 Clouds 33 1009 9 0 5.47 230 09:19 27.03.2020
5939 Clouds 33 1009 9 0 5.47 230 08:56 27.03.2020
5940 Clouds 33 1009 9 0 5.47 230 08:38 27.03.2020
5941 Clouds 27 1011 16 0 8.24 186 08:20 27.03.2020
5942 Clouds 27 1011 14 0 6.75 182 07:52 27.03.2020
5943 Clouds 27 1011 14 0 6.75 182 07:25 27.03.2020
5944 Clouds 27 1011 14 0 6.75 182 06:53 27.03.2020
5945 Clouds 27 1011 14 0 6.75 182 06:35 27.03.2020
5946 Clouds 20 1010 23 0 4.78 145 04:59 27.03.2020
5947 Clouds 20 1010 23 0 4.78 145 02:36 27.03.2020
5948 Clouds 20 1008 20 0 5.03 130 01:23 27.03.2020
5949 Clouds 20 1008 20 0 5.89 130 00:50 27.03.2020
5950 Clouds 20 1008 20 0 5.89 130 00:24 27.03.2020
5951 Clouds 20 1008 20 0 5.89 130 23:44 26.03.2020
5952 Clouds 22 1009 17 0 4.11 117 23:22 26.03.2020
5953 Clouds 22 1009 17 0 4.11 117 22:59 26.03.2020
5954 Clouds 22 1009 17 0 4.11 117 22:38 26.03.2020
5955 Clouds 22 1009 17 0 4.11 117 22:19 26.03.2020
5956 Clouds 22 1009 17 0 4.11 117 21:56 26.03.2020
5957 Clouds 22 1009 17 0 4.11 117 21:37 26.03.2020
5958 Clouds 22 1009 17 0 4.11 117 21:18 26.03.2020
5959 Clouds 22 1009 17 0 4.11 117 20:56 26.03.2020
5960 Clouds 22 1009 17 0 4.11 117 20:37 26.03.2020
5961 Clouds 24 1008 14 0 2.06 217 20:19 26.03.2020
5962 Clouds 24 1008 15 0 1.21 7 19:54 26.03.2020
5963 Clouds 24 1008 15 0 1.21 7 19:36 26.03.2020
5964 Clouds 24 1008 15 0 1.21 7 19:18 26.03.2020
5965 Clouds 24 1008 15 0 1.21 7 18:41 26.03.2020
5966 Clouds 24 1008 15 0 1.21 7 18:23 26.03.2020
5967 Clouds 24 1008 15 0 1.21 7 17:55 26.03.2020
5968 Clouds 24 1008 15 0 1.21 7 17:37 26.03.2020
5969 Clouds 29 1006 11 0 2.04 203 17:18 26.03.2020
5970 Clouds 29 1006 11 0 2.04 203 16:40 26.03.2020
5971 Clouds 29 1006 11 0 2.04 203 16:21 26.03.2020
5972 Clouds 29 1006 11 0 2.04 203 15:57 26.03.2020
5973 Clouds 29 1006 11 0 2.04 203 15:38 26.03.2020
5974 Clouds 29 1006 11 0 2.04 203 15:38 26.03.2020
5975 Clouds 29 1006 11 0 2.04 203 15:20 26.03.2020
5976 Clouds 29 1006 11 0 2.04 203 14:44 26.03.2020
5977 Clouds 29 1006 11 0 2.04 203 14:26 26.03.2020
5978 Clouds 33 1005 9 0 6.58 229 13:59 26.03.2020
5979 Clouds 33 1005 9 0 6.58 229 13:40 26.03.2020
5980 Clouds 33 1005 9 0 6.37 227 13:21 26.03.2020
5981 Clouds 33 1005 9 0 6.37 227 13:21 26.03.2020
5982 Clouds 33 1005 9 0 6.37 227 12:39 26.03.2020
5983 Clouds 33 1005 9 0 6.37 227 12:21 26.03.2020
5984 Clouds 33 1005 9 0 6.37 227 11:56 26.03.2020
5985 Clouds 33 1005 9 0 6.37 227 11:56 26.03.2020
5986 Clouds 33 1005 9 0 6.37 227 11:37 26.03.2020
5987 Clear 31 1009 10 0 7.3 199 11:19 26.03.2020
5988 Clear 31 1009 10 0 7.3 199 10:42 26.03.2020
5989 Clear 31 1009 10 0 7.3 199 10:20 26.03.2020
5990 Clear 31 1009 10 0 7.3 199 09:46 26.03.2020
5991 Clear 31 1009 10 0 7.3 199 09:24 26.03.2020
5992 Clear 31 1009 10 0 7.3 199 08:58 26.03.2020
5993 Clear 31 1008 10 0 7.32 198 08:40 26.03.2020
5994 Clouds 26 1010 13 0 6.21 162 08:22 26.03.2020
5995 Clouds 25 1010 13 0 6.35 163 07:56 26.03.2020
5996 Clouds 25 1010 13 0 6.35 163 07:38 26.03.2020
5997 Clouds 25 1010 13 0 6.35 163 07:19 26.03.2020
5998 Clouds 25 1010 13 0 6.35 163 06:33 26.03.2020
5999 Clouds 25 1010 13 0 6.35 163 05:47 26.03.2020
6000 Clouds 19 1011 20 0 4.28 126 03:46 26.03.2020
6001 Clouds 19 1011 20 0 4.28 126 02:58 26.03.2020
6002 Clouds 21 1009 19 0 5.49 154 01:51 26.03.2020
6003 Clouds 21 1009 19 0 5.49 154 01:18 26.03.2020
6004 Clouds 21 1009 19 0 4.86 162 00:32 26.03.2020
6005 Clouds 21 1009 19 0 4.86 162 23:44 25.03.2020
6006 Clouds 21 1009 19 0 4.86 162 23:24 25.03.2020
6007 Clouds 21 1010 18 0 5.32 140 22:42 25.03.2020
6008 Clouds 21 1010 18 0 5.32 140 22:22 25.03.2020
6009 Clouds 21 1010 18 0 5.32 140 21:59 25.03.2020
6010 Clouds 21 1010 18 0 5.32 140 21:41 25.03.2020
6011 Clouds 21 1010 18 0 5.32 140 21:23 25.03.2020
6012 Clouds 21 1010 18 0 5.32 140 20:57 25.03.2020
6013 Clouds 21 1010 18 0 5.32 140 20:38 25.03.2020
6014 Clouds 21 1010 18 0 5.32 140 20:38 25.03.2020
6015 Clouds 23 1009 17 0 6.23 112 20:18 25.03.2020
6016 Clouds 24 1008 16 0 6.13 141 19:43 25.03.2020
6017 Rain 23 1009 19 0 7.56 133 19:24 25.03.2020
6018 Clouds 24 1008 16 0 6.13 141 18:59 25.03.2020
6019 Clouds 24 1008 16 0 6.13 141 18:41 25.03.2020
6020 Clouds 24 1008 16 0 6.13 141 18:23 25.03.2020
6021 Clouds 24 1008 16 0 6.13 141 17:58 25.03.2020
6022 Rain 23 1009 19 0 7.56 133 17:58 25.03.2020
6023 Rain 23 1009 19 0 7.56 133 17:39 25.03.2020
6024 Clouds 27 1007 13 0 1.82 109 17:21 25.03.2020
6025 -273 0 0 0 0 0 16:55 25.03.2020
6026 Clouds 27 1007 13 0 1.82 109 16:37 25.03.2020
6027 Clouds 27 1007 13 0 1.82 109 16:18 25.03.2020
6028 Clouds 27 1007 13 0 1.82 109 15:41 25.03.2020
6029 Clouds 27 1007 13 0 1.82 109 15:20 25.03.2020
6030 Clouds 26 1007 14 0 1.45 82 14:56 25.03.2020
6031 Clouds 27 1007 13 0 1.82 109 14:37 25.03.2020
6032 Clouds 30 1006 10 0 4.91 240 14:19 25.03.2020
6033 Clouds 30 1006 10 0 4.91 240 13:42 25.03.2020
6034 Clouds 30 1006 10 0 4.91 240 13:22 25.03.2020
6035 Clouds 30 1006 10 0 4.91 240 12:38 25.03.2020
6036 Clouds 30 1006 10 0 4.16 221 12:20 25.03.2020
6037 Clouds 30 1006 10 0 4.16 221 11:57 25.03.2020
6038 Clouds 30 1006 10 0 4.16 221 11:39 25.03.2020
6039 Clouds 29 1010 11 0 5.49 224 11:20 25.03.2020
6040 Clouds 29 1010 11 0 5.49 224 10:57 25.03.2020
6041 Clouds 29 1010 11 0 5.49 224 10:39 25.03.2020
6042 Clouds 29 1010 11 0 5.49 224 10:18 25.03.2020
6043 Clouds 29 1010 11 0 5.49 224 09:43 25.03.2020
6044 Clouds 29 1010 11 0 5.49 224 09:25 25.03.2020
6045 Clouds 29 1010 11 0 5.49 224 08:57 25.03.2020
6046 Clouds 29 1010 11 0 5.49 224 08:39 25.03.2020
6047 Clouds 24 1012 14 0 6.41 198 08:19 25.03.2020
6048 Clouds 24 1012 14 0 6.41 198 08:19 25.03.2020
6049 Clouds 24 1012 14 0 6.41 198 07:41 25.03.2020
6050 Clouds 24 1012 14 0 6.41 198 07:23 25.03.2020
6051 Clouds 24 1012 14 0 6.41 198 06:50 25.03.2020
6052 Clouds 24 1012 14 0 6.41 198 06:28 25.03.2020
6053 Clouds 24 1012 14 0 6.41 198 05:57 25.03.2020
6054 Clouds 24 1012 14 0 6.41 198 05:37 25.03.2020
6055 Clouds 16 1013 22 0 2.08 188 04:40 25.03.2020
6056 Clouds 16 1013 22 0 2.08 188 03:49 25.03.2020
6057 Clouds 16 1013 22 0 2.08 188 03:29 25.03.2020
6058 Clear 17 1011 21 0 3.36 149 01:25 25.03.2020
6059 Clear 17 1011 21 0 3.22 150 00:49 25.03.2020
6060 Clear 17 1011 21 0 3.22 150 00:25 25.03.2020
6061 Clear 17 1011 21 0 3.22 150 23:46 24.03.2020
6062 Clear 17 1011 21 0 3.22 150 23:28 24.03.2020
6063 Clear 18 1012 19 0 2.82 123 22:57 24.03.2020
6064 Clear 18 1012 19 0 2.82 123 22:38 24.03.2020
6065 Clear 18 1012 19 0 2.82 123 22:19 24.03.2020
6066 Clear 18 1012 19 0 2.82 123 21:56 24.03.2020
6067 Clear 18 1012 19 0 2.82 123 21:37 24.03.2020
6068 Clear 18 1012 19 0 2.82 123 21:18 24.03.2020
6069 Clear 18 1012 19 0 2.82 123 20:56 24.03.2020
6070 Clear 18 1012 19 0 2.82 123 20:38 24.03.2020
6071 Clouds 20 1012 17 0 2.58 71 20:20 24.03.2020
6072 Clouds 21 1012 16 0 3.43 89 19:44 24.03.2020
6073 Clouds 21 1012 16 0 3.43 89 19:19 24.03.2020
6074 Clouds 21 1012 16 0 3.43 89 18:56 24.03.2020
6075 Clouds 21 1012 16 0 3.43 89 18:37 24.03.2020
6076 Clouds 21 1012 16 0 3.43 89 18:18 24.03.2020
6077 Clouds 21 1012 16 0 3.43 89 18:18 24.03.2020
6078 Clouds 21 1012 16 0 3.43 89 17:42 24.03.2020
6079 Clouds 21 1012 16 0 3.43 89 17:23 24.03.2020
6080 Clouds 26 1013 15 10000 2.6 340 16:58 24.03.2020
6081 Clouds 26 1013 15 10000 2.6 340 16:40 24.03.2020
6082 Clouds 26 1013 15 10000 2.6 340 16:22 24.03.2020
6083 Clouds 27 1012 14 10000 2.1 270 15:58 24.03.2020
6084 Clouds 27 1012 14 10000 2.1 270 15:38 24.03.2020
6085 Clouds 27 1012 14 10000 2.1 270 15:20 24.03.2020
6086 Clouds 28 1012 14 10000 2.6 300 14:43 24.03.2020
6087 Clouds 27 1010 11 0 2.43 272 14:20 24.03.2020
6088 Clouds 27 1010 11 0 2.43 272 13:44 24.03.2020
6089 Clouds 27 1010 11 0 2.43 272 13:24 24.03.2020
6090 Clouds 27 1010 11 0 2.5 272 12:58 24.03.2020
6091 Clouds 27 1010 11 0 2.5 272 12:38 24.03.2020
6092 Clouds 27 1010 11 0 2.5 272 12:38 24.03.2020
6093 Clouds 27 1010 11 0 2.5 272 12:20 24.03.2020
6094 Clouds 26 1014 21 10000 2.1 280 11:40 24.03.2020
6095 Clouds 26 1014 21 10000 2.1 280 11:20 24.03.2020
6096 Clouds 25 1015 16 10000 3.1 200 10:54 24.03.2020
6097 Clouds 25 1015 16 10000 3.1 200 10:36 24.03.2020
6098 Clouds 25 1015 16 10000 3.1 200 10:18 24.03.2020
6099 Clouds 23 1017 18 10000 3.1 180 09:42 24.03.2020
6100 Clouds 23 1017 18 10000 3.1 180 09:24 24.03.2020
6101 Clouds 22 1017 21 10000 3.6 170 08:40 24.03.2020
6102 Clear 22 1017 21 10000 3.6 170 08:21 24.03.2020
6103 Clear 22 1017 21 10000 3.6 170 08:21 24.03.2020
6104 Clear 20 1018 24 10000 4.1 170 07:51 24.03.2020
6105 Clear 20 1018 24 10000 4.1 170 07:25 24.03.2020
6106 Clear 16 1018 36 10000 1.5 120 06:59 24.03.2020
6107 Clear 16 1018 36 10000 1.5 120 06:33 24.03.2020
6108 Clear 13 1017 43 10000 1 140 05:30 24.03.2020
6109 Clear 11 1017 43 10000 1.84 105 04:49 24.03.2020
6110 Clear 11 1016 37 10000 1.84 105 03:19 24.03.2020
6111 Clear 12 1016 40 10000 1 100 01:59 24.03.2020
6112 Clear 13 1016 37 10000 1 250 00:52 24.03.2020
6113 Clear 13 1016 37 10000 1 250 00:26 24.03.2020
6114 Clear 13 1016 37 10000 0.71 87 23:50 23.03.2020
6115 Clear 13 1016 37 10000 0.71 87 23:29 23.03.2020
6116 Clear 14 1017 35 10000 1 160 22:59 23.03.2020
6117 Clear 14 1017 35 10000 1 160 22:40 23.03.2020
6118 Clear 14 1017 35 10000 1 160 22:22 23.03.2020
6119 Clear 16 1017 16 10000 2.8 7 21:44 23.03.2020
6120 Clear 16 1017 16 10000 2.8 7 21:21 23.03.2020
6121 Clear 16 1017 29 10000 1.5 350 20:59 23.03.2020
6122 Clear 16 1017 29 10000 1.5 350 20:41 23.03.2020
6123 Clear 16 1017 29 10000 1.5 350 20:23 23.03.2020
6124 Clear 18 1017 20 10000 2.1 310 19:55 23.03.2020
6125 Clear 18 1017 20 10000 2.1 310 19:37 23.03.2020
6126 Clear 18 1017 20 10000 2.1 310 19:18 23.03.2020
6127 Clear 20 1017 19 10000 2.1 340 18:43 23.03.2020
6128 Clear 20 1017 19 10000 2.1 340 18:24 23.03.2020
6129 Clear 22 1016 17 10000 3.1 350 17:57 23.03.2020
6130 Clear 22 1016 17 10000 3.1 350 17:57 23.03.2020
6131 Clear 22 1016 17 10000 3.1 350 17:38 23.03.2020
6132 Clear 22 1016 17 10000 3.1 350 17:19 23.03.2020
6133 Clear 24 1016 16 10000 2.6 310 16:43 23.03.2020
6134 Clear 24 1016 16 10000 2.6 310 16:25 23.03.2020
6135 Clear 25 1015 13 10000 3.1 300 15:44 23.03.2020
6136 Clear 25 1015 13 10000 3.1 300 15:21 23.03.2020
6137 Clear 25 1015 14 10000 3.1 310 14:57 23.03.2020
6138 Clear 25 1015 14 10000 3.1 310 14:37 23.03.2020
6139 Clear 25 1015 14 10000 3.1 310 14:18 23.03.2020
6140 Clear 25 1015 14 10000 3.1 310 14:18 23.03.2020
6141 Clear 24 1016 15 10000 3.1 280 13:41 23.03.2020
6142 Clear 24 1016 15 10000 3.1 280 13:41 23.03.2020
6143 Clear 24 1016 15 10000 3.1 280 13:22 23.03.2020
6144 Clear 24 1016 13 10000 4.6 270 12:58 23.03.2020
6145 Clear 24 1016 13 10000 4.6 270 12:40 23.03.2020
6146 Clear 24 1016 13 10000 4.6 270 12:22 23.03.2020
6147 Clear 23 1017 15 10000 6.2 320 11:42 23.03.2020
6148 Clear 23 1017 15 10000 6.2 320 11:21 23.03.2020
6149 Clear 22 1018 18 10000 3.1 290 10:58 23.03.2020
6150 Clear 22 1018 18 10000 3.1 290 10:40 23.03.2020
6151 Clear 22 1018 18 10000 3.1 290 10:21 23.03.2020
6152 Clear 20 1019 19 10000 5.7 300 09:57 23.03.2020
6153 Clear 20 1019 19 10000 5.7 300 09:39 23.03.2020
6154 Clear 20 1019 19 10000 5.7 300 09:18 23.03.2020
6155 Clear 20 1019 22 10000 3.6 330 08:37 23.03.2020
6156 Clear 20 1019 22 10000 3.6 330 08:19 23.03.2020
6157 Clear 18 1019 25 10000 5.1 330 07:50 23.03.2020
6158 Clear 18 1019 25 10000 5.1 330 07:50 23.03.2020
6159 Clear 18 1019 25 10000 5.1 330 07:31 23.03.2020
6160 Clear 15 1019 33 10000 3.6 300 06:53 23.03.2020
6161 Clear 15 1019 33 10000 3.6 300 06:25 23.03.2020
6162 Clear 12 1018 22 10000 2.1 280 05:42 23.03.2020
6163 Clear 11 1017 40 10000 2.6 290 03:45 23.03.2020
6164 Clear 12 1017 37 7000 2.1 290 02:40 23.03.2020
6165 Clear 12 1016 34 7000 2.6 290 01:34 23.03.2020
6166 Clear 13 1016 37 7000 1.5 260 00:43 23.03.2020
6167 Clear 14 1016 35 10000 2.1 310 23:54 22.03.2020
6168 Clear 14 1016 35 10000 2.1 310 23:27 22.03.2020
6169 Clear 15 1016 26 10000 2.6 320 22:59 22.03.2020
6170 Clear 15 1016 26 10000 2.6 320 22:39 22.03.2020
6171 Clear 15 1016 26 10000 2.6 320 22:18 22.03.2020
6172 Clear 16 1016 23 10000 3.1 330 21:40 22.03.2020
6173 Clear 16 1016 23 10000 3.1 330 21:20 22.03.2020
6174 Clear 18 1017 18 10000 4.6 330 20:58 22.03.2020
6175 Clear 18 1017 18 10000 4.6 330 20:39 22.03.2020
6176 Clear 18 1017 18 10000 4.6 330 20:21 22.03.2020
6177 Clear 18 1016 22 10000 4.6 330 19:55 22.03.2020
6178 Clear 18 1016 22 10000 4.6 330 19:37 22.03.2020
6179 Clear 18 1016 22 10000 4.6 330 19:18 22.03.2020
6180 Clear 19 1016 19 10000 4.1 330 18:56 22.03.2020
6181 Clear 19 1016 19 10000 4.1 330 18:37 22.03.2020
6182 Clear 19 1016 19 10000 4.1 330 18:18 22.03.2020
6183 Clear 20 1015 18 9000 5.1 340 17:56 22.03.2020
6184 Clear 20 1015 18 9000 5.1 340 17:36 22.03.2020
6185 Clear 20 1015 18 9000 5.1 340 17:36 22.03.2020
6186 Clear 20 1015 18 9000 5.1 340 17:36 22.03.2020
6187 Clear 20 1015 18 9000 5.1 340 17:18 22.03.2020
6188 Clear 21 1014 15 9000 5.7 330 16:54 22.03.2020
6189 Clear 21 1014 15 9000 5.7 330 16:36 22.03.2020
6190 Clear 21 1014 15 9000 5.7 330 16:18 22.03.2020
6191 Clear 23 1014 15 7000 5.7 320 15:39 22.03.2020
6192 Clear 24 1013 13 7000 5.1 330 14:48 22.03.2020
6193 Clear 24 1013 13 7000 5.1 330 14:20 22.03.2020
6194 Clear 23 1013 15 7000 8.2 310 13:58 22.03.2020
6195 Clear 23 1013 15 7000 8.2 310 13:58 22.03.2020
6196 Clear 23 1013 15 7000 8.2 310 13:40 22.03.2020
6197 Clear 23 1013 15 7000 8.2 310 13:19 22.03.2020
6198 Clear 23 1013 18 9000 6.2 320 12:47 22.03.2020
6199 Clear 23 1013 18 9000 6.2 320 12:23 22.03.2020
6200 Clear 23 1014 20 9000 6.2 340 11:58 22.03.2020
6201 Clear 23 1014 20 9000 6.2 340 11:39 22.03.2020
6202 Clear 23 1014 20 9000 6.2 340 11:21 22.03.2020
6203 Clear 22 1014 21 7000 4.6 300 10:44 22.03.2020
6204 Clear 22 1014 21 7000 4.6 300 10:24 22.03.2020
6205 Clear 22 1014 21 7000 4.6 300 10:24 22.03.2020
6206 Dust 22 1015 10 5000 4.6 360 10:00 22.03.2020
6207 Dust 22 1015 10 5000 4.6 360 09:40 22.03.2020
6208 Dust 22 1015 10 5000 4.6 360 09:19 22.03.2020
6209 Dust 21 1015 26 3000 5.1 340 08:42 22.03.2020
6210 Dust 21 1015 26 3000 5.1 340 08:23 22.03.2020
6211 Dust 19 1014 29 1500 6.2 350 07:50 22.03.2020
6212 Dust 19 1014 29 1500 6.2 350 07:22 22.03.2020
6213 Dust 18 1012 31 700 5.1 340 05:57 22.03.2020
6214 Dust 18 1012 15 1500 3.1 310 05:21 22.03.2020
6215 Dust 22 1009 19 1000 4.6 320 02:58 22.03.2020
6216 Dust 24 1009 17 1500 3.6 260 01:22 22.03.2020
6217 Dust 24 1009 17 1500 4.1 270 00:41 22.03.2020
6218 Dust 25 1009 16 3000 4.6 270 00:23 22.03.2020
6219 Dust 25 1009 16 3000 4.1 270 23:42 21.03.2020
6220 Dust 25 1009 16 3000 4.1 270 23:19 21.03.2020
6221 Dust 25 1009 15 5000 2.6 260 22:39 21.03.2020
6222 Clear 25 1009 15 7000 3.1 260 22:21 21.03.2020
6223 Clear 22 1008 30 7000 1 190 21:59 21.03.2020
6224 Clear 22 1008 30 7000 1 190 21:41 21.03.2020
6225 Clear 22 1008 30 7000 1 190 21:22 21.03.2020
6226 Clear 22 1008 30 7000 1 190 21:22 21.03.2020
6227 Clear 23 1008 27 10000 1.5 150 20:56 21.03.2020
6228 Clear 23 1008 27 10000 1.5 150 20:38 21.03.2020
6229 Clear 23 1008 27 10000 1.5 150 20:18 21.03.2020
6230 Clear 23 1009 25 10000 1.5 150 19:43 21.03.2020
6231 Clear 23 1009 25 10000 1.5 150 19:23 21.03.2020
6232 Clear 24 1008 25 10000 1 140 18:55 21.03.2020
6233 Clear 24 1008 25 10000 1 140 18:37 21.03.2020
6234 Clear 24 1008 25 10000 1 140 18:19 21.03.2020
6235 Clear 27 1009 22 10000 1 220 17:43 21.03.2020
6236 Clear 27 1009 22 10000 1 220 17:43 21.03.2020
6237 Clear 27 1009 22 10000 1 220 17:43 21.03.2020
6238 Clear 27 1009 22 10000 1 220 17:24 21.03.2020
6239 Clear 28 1008 12 10000 2.6 270 16:57 21.03.2020
6240 Clear 28 1008 12 10000 2.6 270 16:39 21.03.2020
6241 Clear 28 1008 12 10000 2.6 270 16:18 21.03.2020
6242 Clear 29 1008 13 10000 4.1 290 15:43 21.03.2020
6243 Clear 29 1008 13 10000 4.1 290 15:23 21.03.2020
6244 Clear 29 1008 13 10000 4.1 270 14:59 21.03.2020
6245 Clear 29 1008 13 10000 4.1 270 14:40 21.03.2020
6246 Clear 29 1008 13 10000 4.1 270 14:20 21.03.2020
6247 Clear 29 1008 13 10000 4.1 270 14:20 21.03.2020
6248 Clear 29 1008 11 10000 5.1 300 13:59 21.03.2020
6249 Clear 29 1008 11 10000 5.1 300 13:40 21.03.2020
6250 Clear 29 1008 11 10000 5.1 300 13:22 21.03.2020
6251 Clear 30 1008 10 10000 4.6 290 12:59 21.03.2020
6252 Clear 30 1008 10 10000 4.6 290 12:38 21.03.2020
6253 Clear 30 1008 10 10000 4.6 290 12:19 21.03.2020
6254 Clear 30 1009 11 10000 5.1 300 11:56 21.03.2020
6255 Clear 30 1009 11 10000 5.1 300 11:38 21.03.2020
6256 Clear 30 1009 11 10000 5.1 300 11:19 21.03.2020
6257 Clear 30 1010 10 10000 5.7 310 10:57 21.03.2020
6258 Clear 30 1010 10 10000 5.7 310 10:38 21.03.2020
6259 Clear 30 1010 10 10000 5.7 310 10:19 21.03.2020
6260 Clear 30 1010 10 10000 6.2 310 09:56 21.03.2020
6261 Clear 30 1010 10 10000 6.2 310 09:37 21.03.2020
6262 Clear 30 1010 10 10000 6.2 310 09:19 21.03.2020
6263 Clear 28 1011 20 10000 1.5 290 08:43 21.03.2020
6264 Clear 28 1011 20 10000 1.5 290 08:24 21.03.2020
6265 Clouds 24 1011 25 10000 1.5 230 07:45 21.03.2020
6266 Clouds 24 1011 25 10000 1.5 230 07:27 21.03.2020
6267 Clouds 22 1011 49 10000 3.1 280 06:48 21.03.2020
6268 Clouds 22 1011 49 10000 3.1 280 06:28 21.03.2020
6269 Clouds 20 1010 68 10000 1.5 180 05:48 21.03.2020
6270 Clouds 20 1010 64 10000 2.1 180 04:47 21.03.2020
6271 Clouds 20 1009 60 10000 2.1 150 02:55 21.03.2020
6272 Clouds 20 1009 60 10000 2.1 150 02:33 21.03.2020
6273 Clouds 21 1009 60 10000 3.1 140 01:33 21.03.2020
6274 Clouds 22 1010 60 10000 2.1 120 00:56 21.03.2020
6275 Clouds 22 1010 60 10000 2.1 120 00:37 21.03.2020
6276 Clouds 23 1010 56 10000 1.5 150 23:58 20.03.2020
6277 Clouds 23 1010 56 10000 1.5 150 23:40 20.03.2020
6278 Clouds 23 1010 56 10000 1.5 150 23:18 20.03.2020
6279 Clouds 23 1010 53 10000 2.1 130 22:41 20.03.2020
6280 Clouds 23 1010 53 10000 2.1 130 22:22 20.03.2020
6281 Clouds 25 1011 44 10000 3.6 140 21:56 20.03.2020
6282 Clouds 25 1011 44 10000 3.6 140 21:38 20.03.2020
6283 Clouds 25 1011 44 10000 3.6 140 21:18 20.03.2020
6284 Clouds 26 1010 41 10000 3.1 140 20:57 20.03.2020
6285 Clouds 26 1010 41 10000 3.1 140 20:38 20.03.2020
6286 Clouds 26 1010 41 10000 3.1 140 20:18 20.03.2020
6287 Clouds 26 1011 44 10000 1 90 19:45 20.03.2020
6288 Clouds 26 1011 44 10000 1 90 19:19 20.03.2020
6289 Clouds 26 1011 44 10000 1 90 19:19 20.03.2020
6290 Clouds 26 1010 41 10000 1.5 100 18:55 20.03.2020
6291 Clouds 26 1010 41 10000 1.5 100 18:37 20.03.2020
6292 Clouds 26 1010 41 10000 1.5 100 18:19 20.03.2020
6293 Clouds 27 1010 39 10000 2.1 130 17:39 20.03.2020
6294 Clouds 27 1010 39 10000 2.1 130 17:21 20.03.2020
6295 Clouds 28 1009 30 10000 3.1 150 16:58 20.03.2020
6296 Clouds 28 1009 30 10000 3.1 150 16:58 20.03.2020
6297 Clouds 28 1009 30 10000 3.1 150 16:40 20.03.2020
6298 Clouds 28 1009 30 10000 3.1 150 16:19 20.03.2020
6299 Clouds 28 1009 32 10000 3.1 140 15:43 20.03.2020
6300 Clouds 28 1009 32 10000 3.1 140 15:22 20.03.2020
6301 Clouds 29 1009 30 10000 3.6 130 14:56 20.03.2020
6302 Clouds 29 1009 30 10000 3.6 130 14:37 20.03.2020
6303 Clouds 29 1009 30 10000 3.6 130 14:19 20.03.2020
6304 Clouds 29 1010 30 10000 3.1 160 13:45 20.03.2020
6305 Clouds 29 1010 30 10000 3.1 160 13:19 20.03.2020
6306 Clouds 29 1011 28 10000 4.1 160 12:41 20.03.2020
6307 Clouds 29 1011 28 10000 4.1 160 12:23 20.03.2020
6308 Clouds 28 1012 30 10000 4.1 150 11:59 20.03.2020
6309 Clouds 28 1012 30 10000 4.1 150 11:38 20.03.2020
6310 Clouds 28 1012 30 10000 4.1 150 11:19 20.03.2020
6311 Clouds 26 1014 29 10000 4.6 170 10:42 20.03.2020
6312 Clouds 26 1014 29 10000 4.6 170 10:21 20.03.2020
6313 Clouds 25 1015 27 10000 3.1 150 09:59 20.03.2020
6314 Clouds 25 1015 27 10000 3.1 150 09:59 20.03.2020
6315 Clouds 25 1015 27 10000 3.1 150 09:41 20.03.2020
6316 Clouds 25 1015 27 10000 3.1 150 09:19 20.03.2020
6317 Clouds 22 1015 30 10000 2.6 130 08:43 20.03.2020
6318 Clouds 22 1015 30 10000 2.6 130 08:22 20.03.2020
6319 Clouds 22 1015 30 10000 2.6 130 08:22 20.03.2020
6320 Clouds 21 1016 30 10000 2.6 130 07:55 20.03.2020
6321 Clouds 21 1016 30 10000 2.6 130 07:37 20.03.2020
6322 Clouds 21 1016 30 10000 2.6 130 07:18 20.03.2020
6323 Clouds 19 1015 32 10000 1.5 130 06:41 20.03.2020
6324 Clear 15 1015 38 10000 1.5 70 04:54 20.03.2020
6325 Clear 16 1014 38 10000 1 70 03:50 20.03.2020
6326 Clear 17 1014 36 10000 3.76 100 02:21 20.03.2020
6327 Clear 17 1014 33 10000 1.5 70 01:33 20.03.2020
6328 Clear 18 1014 39 10000 3.73 105 00:33 20.03.2020
6329 Clear 18 1015 36 10000 1.5 80 23:49 19.03.2020
6330 Clear 18 1015 36 10000 1.5 80 23:30 19.03.2020
6331 Clear 19 1015 32 10000 2.6 80 22:57 19.03.2020
6332 Clear 19 1015 32 10000 2.6 80 22:38 19.03.2020
6333 Clear 19 1015 32 10000 2.6 80 22:20 19.03.2020
6334 Clear 20 1015 28 10000 3.6 70 21:55 19.03.2020
6335 Clear 20 1015 28 10000 3.6 70 21:37 19.03.2020
6336 Clear 20 1015 28 10000 3.6 70 21:18 19.03.2020
6337 Clear 21 1015 37 9000 4.6 80 20:42 19.03.2020
6338 Clear 21 1015 27 9000 4.6 80 20:23 19.03.2020
6339 Clear 22 1015 24 6000 6.2 80 19:56 19.03.2020
6340 Clear 22 1015 24 6000 6.2 80 19:38 19.03.2020
6341 Clear 22 1015 24 6000 6.2 80 19:19 19.03.2020
6342 Clear 24 1014 23 6000 5.7 70 18:56 19.03.2020
6343 Clear 24 1014 23 6000 5.7 70 18:38 19.03.2020
6344 Clear 24 1014 23 6000 5.7 60 18:19 19.03.2020
6345 Dust 25 1014 25 4000 5.1 60 17:41 19.03.2020
6346 Dust 25 1014 25 4000 5.1 60 17:19 19.03.2020
6347 Dust 26 1013 26 4000 4.6 60 16:45 19.03.2020
6348 Dust 26 1013 26 4000 4.6 60 16:24 19.03.2020
6349 Dust 26 1013 26 4000 4.6 60 16:24 19.03.2020
6350 Dust 27 1013 24 5000 4.6 50 15:54 19.03.2020
6351 Clear 28 1013 23 10000 3.1 50 15:36 19.03.2020
6352 Clear 28 1013 23 10000 3.1 50 15:18 19.03.2020
6353 Clear 28 1013 28 10000 1.5 70 14:42 19.03.2020
6354 Clear 28 1013 28 10000 1.5 70 14:20 19.03.2020
6355 Clear 28 1013 30 10000 2.1 70 13:41 19.03.2020
6356 Clear 28 1013 30 10000 2.1 70 13:19 19.03.2020
6357 Clear 28 1013 26 10000 3.1 90 12:56 19.03.2020
6358 Clear 28 1013 26 10000 3.1 90 12:56 19.03.2020
6359 Clear 28 1013 26 10000 3.1 90 12:38 19.03.2020
6360 Clear 27 1014 30 10000 3.6 40 12:19 19.03.2020
6361 Clear 27 1014 30 10000 3.6 40 11:42 19.03.2020
6362 Clear 26 1015 31 10000 3.1 30 11:23 19.03.2020
6363 Clear 26 1015 31 10000 3.1 30 10:57 19.03.2020
6364 Clear 26 1015 31 10000 3.1 30 10:37 19.03.2020
6365 Clear 26 1015 31 10000 3.1 30 10:18 19.03.2020
6366 Clear 24 1016 36 10000 3.6 60 09:44 19.03.2020
6367 Clear 24 1016 36 10000 3.6 60 09:26 19.03.2020
6368 Clear 23 1016 38 10000 4.1 40 08:57 19.03.2020
6369 Clear 23 1016 38 10000 4.1 40 08:38 19.03.2020
6370 Clear 23 1016 38 10000 4.1 40 08:18 19.03.2020
6371 Clear 22 1016 37 10000 5.1 30 07:43 19.03.2020
6372 Clear 22 1016 37 10000 5.1 30 07:22 19.03.2020
6373 Clear 19 1016 48 10000 3.6 20 06:29 19.03.2020
6374 Clear 18 1015 45 10000 2.6 350 05:46 19.03.2020
6375 Clear 17 1014 48 10000 2.1 310 04:51 19.03.2020
6376 Clear 17 1014 48 10000 2.1 310 04:24 19.03.2020
6377 Clear 18 1013 45 10000 1.5 10 02:34 19.03.2020
6378 Clouds 20 1014 37 10000 3.6 30 00:55 19.03.2020
6379 Clear 20 1014 37 8000 4.6 30 00:20 19.03.2020
6380 Clear 20 1014 37 8000 4.6 30 23:45 18.03.2020
6381 Clear 20 1014 37 8000 4.6 30 23:26 18.03.2020
6382 Clear 22 1015 33 7000 6.2 20 22:43 18.03.2020
6383 Clear 22 1015 33 7000 6.2 20 22:24 18.03.2020
6384 Clouds 23 1014 28 10000 5.1 10 21:59 18.03.2020
6385 Clouds 23 1014 28 10000 5.1 10 21:40 18.03.2020
6386 Clouds 23 1014 28 10000 5.1 10 21:21 18.03.2020
6387 Clouds 23 1014 28 10000 5.1 10 21:21 18.03.2020
6388 Clouds 25 1013 25 10000 3.6 320 20:56 18.03.2020
6389 Clouds 25 1013 25 10000 3.6 320 20:38 18.03.2020
6390 Clouds 25 1013 25 10000 3.6 320 20:19 18.03.2020
6391 Clouds 26 1013 27 10000 2.6 330 19:42 18.03.2020
6392 Clouds 26 1013 27 10000 2.6 330 19:21 18.03.2020
6393 Clouds 27 1012 26 10000 3.1 310 18:59 18.03.2020
6394 Clouds 27 1012 26 10000 3.1 310 18:40 18.03.2020
6395 Clouds 27 1012 26 10000 3.1 310 18:19 18.03.2020
6396 Clouds 29 1011 25 10000 4.1 300 17:57 18.03.2020
6397 Clouds 29 1011 25 10000 4.1 300 17:39 18.03.2020
6398 Clouds 31 1010 27 10000 3.6 280 17:19 18.03.2020
6399 Clouds 31 1010 27 10000 3.6 280 16:43 18.03.2020
6400 Clouds 31 1010 27 10000 3.6 280 16:22 18.03.2020
6401 Clouds 32 1010 24 9000 3.6 220 15:59 18.03.2020
6402 Clouds 32 1010 24 9000 3.6 220 15:39 18.03.2020
6403 Clouds 32 1010 24 9000 3.6 220 15:20 18.03.2020
6404 Clouds 32 1009 24 7000 5.1 210 14:44 18.03.2020
6405 Clouds 32 1009 24 7000 5.1 210 14:21 18.03.2020
6406 Clouds 32 1010 22 7000 5.7 220 13:42 18.03.2020
6407 Clouds 32 1010 22 7000 5.7 220 13:20 18.03.2020
6408 Clouds 31 1011 23 6000 6.7 220 12:58 18.03.2020
6409 Clouds 31 1011 23 6000 6.7 220 12:39 18.03.2020
6410 Clouds 30 1012 25 10000 4.1 220 12:19 18.03.2020
6411 Clouds 30 1012 25 10000 4.1 220 11:39 18.03.2020
6412 Clouds 30 1012 25 10000 4.1 220 11:19 18.03.2020
6413 Clouds 30 1012 25 10000 4.1 230 10:58 18.03.2020
6414 Clouds 30 1012 25 10000 4.1 230 10:38 18.03.2020
6415 Clouds 30 1012 25 10000 4.1 230 10:19 18.03.2020
6416 Clouds 29 1013 26 10000 5.7 190 09:43 18.03.2020
6417 Clouds 29 1013 26 10000 5.7 190 09:24 18.03.2020
6418 Clouds 28 1014 30 10000 4.6 200 08:56 18.03.2020
6419 Clouds 28 1014 30 10000 4.6 200 08:38 18.03.2020
6420 Clouds 28 1014 30 10000 4.6 200 08:38 18.03.2020
6421 Clouds 28 1014 30 10000 4.6 200 08:20 18.03.2020
6422 Clouds 26 1015 31 10000 4.6 180 07:44 18.03.2020
6423 Clouds 26 1015 31 10000 4.6 180 07:25 18.03.2020
6424 Clouds 24 1014 36 10000 2.6 160 06:44 18.03.2020
6425 Clouds 21 1013 40 10000 2.1 130 06:18 18.03.2020
6426 Clouds 21 1013 40 10000 2.1 130 05:34 18.03.2020
6427 Clouds 21 1013 37 10000 2.1 140 04:24 18.03.2020
6428 Clouds 23 1011 33 10000 4.1 150 02:42 18.03.2020
6429 Clouds 24 1011 33 10000 3.6 150 01:47 18.03.2020
6430 Thunderstorm 23 1012 46 8000 2.1 90 01:21 18.03.2020
6431 Thunderstorm 23 1012 46 8000 2.1 90 00:23 18.03.2020
6432 Thunderstorm 24 1012 36 8000 4.1 150 23:47 17.03.2020
6433 Thunderstorm 24 1012 36 8000 4.1 150 23:26 17.03.2020
6434 Clouds 25 1012 31 8000 4.6 150 22:47 17.03.2020
6435 Clouds 25 1012 31 8000 4.6 150 22:29 17.03.2020
6436 Rain 25 1012 31 10000 4.6 140 21:59 17.03.2020
6437 Clouds 25 1012 31 10000 4.6 140 21:37 17.03.2020
6438 Rain 25 1012 31 10000 4.6 140 21:19 17.03.2020
6439 Clouds 27 1013 28 10000 4.6 140 20:38 17.03.2020
6440 Clouds 27 1013 28 10000 4.6 140 20:20 17.03.2020
6441 Clouds 26 1013 29 10000 4.1 130 19:54 17.03.2020
6442 Clouds 26 1013 29 10000 4.1 130 19:36 17.03.2020
6443 Clouds 26 1013 29 10000 4.1 130 19:18 17.03.2020
6444 Clouds 27 1014 30 10000 2.6 150 18:54 17.03.2020
6445 Clouds 27 1014 30 10000 2.6 150 18:36 17.03.2020
6446 Clouds 27 1014 30 10000 2.6 150 18:36 17.03.2020
6447 Clouds 27 1014 30 10000 2.6 150 18:18 17.03.2020
6448 Clouds 27 1014 30 10000 2.6 150 18:18 17.03.2020
6449 Clouds 27 1014 30 10000 2.6 150 18:18 17.03.2020
6450 Clouds 28 1013 28 8000 2.6 150 17:39 17.03.2020
6451 Clouds 28 1013 26 8000 3.6 160 17:20 17.03.2020
6452 Clouds 28 1013 26 8000 3.6 160 16:44 17.03.2020
6453 Clouds 28 1013 26 8000 3.6 160 16:20 17.03.2020
6454 Clouds 29 1013 23 8000 4.6 160 15:56 17.03.2020
6455 Clouds 29 1013 23 8000 4.6 160 15:38 17.03.2020
6456 Clouds 29 1013 23 8000 4.6 160 15:18 17.03.2020
6457 Clouds 29 1013 25 8000 4.6 150 14:41 17.03.2020
6458 Clear 29 1013 25 8000 4.6 150 14:18 17.03.2020
6459 Clear 29 1013 25 8000 4.6 150 13:41 17.03.2020
6460 Clear 29 1013 25 8000 4.6 150 13:22 17.03.2020
6461 Clear 29 1014 25 8000 5.1 160 12:48 17.03.2020
6462 Clear 29 1014 25 8000 5.1 160 12:26 17.03.2020
6463 Clear 28 1015 26 10000 4.6 140 11:59 17.03.2020
6464 Clear 28 1015 26 10000 4.6 140 11:39 17.03.2020
6465 Clear 28 1015 26 10000 4.6 140 11:39 17.03.2020
6466 Clear 28 1015 26 10000 4.6 140 11:21 17.03.2020
6467 Clear 27 1017 26 10000 4.6 170 10:55 17.03.2020
6468 Clear 27 1017 26 10000 4.6 170 10:36 17.03.2020
6469 Clear 27 1017 26 10000 4.6 170 10:18 17.03.2020
6470 Clear 25 1017 29 10000 4.6 140 09:45 17.03.2020
6471 Clear 25 1017 29 10000 4.6 140 09:20 17.03.2020
6472 Clear 23 1018 35 10000 4.1 120 08:58 17.03.2020
6473 Clear 23 1018 35 10000 4.1 120 08:58 17.03.2020
6474 Clear 23 1018 35 10000 4.1 120 08:40 17.03.2020
6475 Clear 23 1018 35 10000 4.1 120 08:18 17.03.2020
6476 Clear 22 1019 40 10000 3.6 130 07:49 17.03.2020
6477 Clear 22 1019 40 10000 3.6 130 07:20 17.03.2020
6478 Clear 20 1018 42 10000 2.1 130 06:45 17.03.2020
6479 Clear 17 1018 55 10000 5.55 114 06:25 17.03.2020
6480 Clear 17 1018 55 10000 2.29 81 05:20 17.03.2020
6481 Clear 16 1017 55 10000 1 160 03:31 17.03.2020
6482 Clear 17 1016 55 10000 2.84 80 01:50 17.03.2020
6483 Clear 17 1016 55 10000 2.9 83 01:31 17.03.2020
6484 Clear 18 1016 52 10000 2.9 83 00:52 17.03.2020
6485 Clear 19 1017 48 10000 1 70 23:53 16.03.2020
6486 Clear 19 1017 48 10000 1 70 23:34 16.03.2020
6487 Clear 19 1017 45 10000 1 80 22:55 16.03.2020
6488 Clear 19 1017 45 10000 1 80 22:37 16.03.2020
6489 Clear 19 1017 45 10000 1 80 22:19 16.03.2020
6490 Clear 20 1018 45 10000 1.5 80 21:44 16.03.2020
6491 Clear 20 1018 45 10000 1.5 80 21:25 16.03.2020
6492 Clear 21 1018 37 10000 2.1 40 20:58 16.03.2020
6493 Clear 21 1018 37 10000 2.1 40 20:38 16.03.2020
6494 Clear 21 1018 37 10000 2.1 40 20:38 16.03.2020
6495 Clear 21 1018 37 10000 2.1 40 20:20 16.03.2020
6496 Clear 22 1017 33 10000 3.1 30 19:44 16.03.2020
6497 Clear 22 1017 33 10000 3.1 30 19:23 16.03.2020
6498 Clear 23 1017 33 10000 2.6 40 18:57 16.03.2020
6499 Clear 23 1017 33 10000 2.6 40 18:38 16.03.2020
6500 Clear 23 1017 33 10000 2.6 40 18:18 16.03.2020
6501 Clear 25 1016 27 10000 2.6 20 17:45 16.03.2020
6502 Clear 25 1016 27 10000 2.6 20 17:24 16.03.2020
6503 Clear 26 1016 29 10000 2.1 30 16:49 16.03.2020
6504 Clear 26 1016 29 10000 2.1 30 16:31 16.03.2020
6505 Clear 28 1015 23 10000 2.6 340 15:58 16.03.2020
6506 Clear 28 1015 23 10000 2.6 340 15:40 16.03.2020
6507 Clear 28 1015 23 10000 2.6 340 15:20 16.03.2020
6508 Clear 28 1015 24 10000 2.6 340 14:44 16.03.2020
6509 Clear 28 1015 24 10000 2.6 340 14:20 16.03.2020
6510 Clear 27 1015 26 10000 5.7 350 13:43 16.03.2020
6511 Clear 27 1015 26 10000 5.7 350 13:25 16.03.2020
6512 Clouds 27 1016 24 10000 3.6 20 12:55 16.03.2020
6513 Clouds 27 1016 24 10000 3.6 20 12:36 16.03.2020
6514 Clouds 27 1016 24 10000 3.6 20 12:18 16.03.2020
6515 Clouds 26 1017 27 10000 3.6 290 11:41 16.03.2020
6516 Clouds 26 1017 27 10000 3.6 290 11:19 16.03.2020
6517 Clear 25 1017 31 10000 2.6 350 10:43 16.03.2020
6518 Clear 25 1017 31 10000 2.6 350 10:24 16.03.2020
6519 Clear 24 1018 38 10000 1.5 270 09:46 16.03.2020
6520 Clear 24 1018 38 10000 1.5 270 09:28 16.03.2020
6521 Clear 23 1018 43 10000 2.1 40 08:58 16.03.2020
6522 Clear 23 1018 43 10000 2.1 40 08:26 16.03.2020
6523 Clear 22 1018 43 10000 1.5 330 07:54 16.03.2020
6524 Clear 22 1018 43 10000 1.5 330 07:28 16.03.2020
6525 Clear 18 1018 48 10000 1 270 06:54 16.03.2020
6526 Clear 18 1018 48 10000 1 270 06:54 16.03.2020
6527 Clear 18 1018 48 10000 1 270 06:27 16.03.2020
6528 Clear 16 1017 59 10000 4.75 51 05:54 16.03.2020
6529 Clear 17 1015 45 10000 2.6 350 02:46 16.03.2020
6530 Clear 17 1015 45 10000 3.1 340 01:20 16.03.2020
6531 Clear 18 1015 42 10000 2.6 360 00:42 16.03.2020
6532 Clear 20 1015 37 10000 4.1 340 23:49 15.03.2020
6533 Clear 20 1015 37 10000 4.1 340 23:21 15.03.2020
6534 Clear 20 1016 37 10000 4.1 340 22:56 15.03.2020
6535 Clear 20 1016 37 10000 4.1 340 22:37 15.03.2020
6536 Clear 20 1016 37 10000 4.1 340 22:19 15.03.2020
6537 Clear 21 1016 37 10000 3.6 360 21:39 15.03.2020
6538 Clear 21 1016 37 10000 3.6 360 21:19 15.03.2020
6539 Clear 22 1016 35 10000 4.1 20 20:43 15.03.2020
6540 Clear 22 1016 35 10000 4.1 20 20:22 15.03.2020
6541 Clear 22 1016 35 10000 4.6 20 19:58 15.03.2020
6542 Clear 22 1016 35 10000 4.6 20 19:40 15.03.2020
6543 Clear 22 1016 35 10000 4.6 20 19:22 15.03.2020
6544 Clear 23 1015 33 10000 5.1 20 18:57 15.03.2020
6545 Clear 23 1015 33 10000 5.1 20 18:38 15.03.2020
6546 Clear 23 1015 33 10000 5.1 20 18:20 15.03.2020
6547 Clear 24 1014 31 7000 5.1 20 17:42 15.03.2020
6548 Clear 24 1014 31 7000 5.1 20 17:22 15.03.2020
6549 Clear 25 1013 29 6000 4.6 350 16:59 15.03.2020
6550 Clear 25 1013 29 6000 4.6 350 16:40 15.03.2020
6551 Clear 25 1013 29 6000 4.6 350 16:22 15.03.2020
6552 Clear 27 1013 26 6000 4.1 330 15:56 15.03.2020
6553 Clear 27 1013 26 6000 4.1 330 15:38 15.03.2020
6554 Clear 27 1013 26 6000 4.1 330 15:19 15.03.2020
6555 Clear 28 1012 23 7000 4.6 320 14:40 15.03.2020
6556 Clear 28 1012 23 7000 4.6 320 14:22 15.03.2020
6557 Dust 28 1012 26 5000 4.1 350 13:56 15.03.2020
6558 Dust 28 1012 26 5000 4.1 350 13:38 15.03.2020
6559 Dust 28 1012 26 5000 4.1 350 13:38 15.03.2020
6560 Dust 28 1012 26 5000 4.1 350 13:19 15.03.2020
6561 Dust 27 1012 28 4000 2.6 350 12:40 15.03.2020
6562 Dust 27 1012 28 4000 2.6 350 12:22 15.03.2020
6563 Dust 26 1013 27 4000 6.2 360 11:45 15.03.2020
6564 Dust 26 1013 27 4000 6.2 360 11:26 15.03.2020
6565 Dust 26 1014 27 4000 6.2 360 10:59 15.03.2020
6566 Dust 26 1014 27 4000 6.2 360 10:41 15.03.2020
6567 Dust 26 1014 27 4000 6.2 360 10:22 15.03.2020
6568 Dust 26 1014 27 4000 6.2 360 10:22 15.03.2020
6569 Dust 24 1014 31 4000 6.2 360 09:59 15.03.2020
6570 Dust 24 1014 31 4000 6.2 360 09:39 15.03.2020
6571 Dust 24 1014 31 4000 6.2 360 09:20 15.03.2020
6572 Dust 24 1015 33 4000 5.1 340 08:41 15.03.2020
6573 Dust 24 1015 33 4000 5.1 340 08:20 15.03.2020
6574 Dust 22 1014 40 4000 3.6 350 07:50 15.03.2020
6575 Dust 22 1014 40 4000 3.6 350 07:23 15.03.2020
6576 Haze 19 1014 48 4000 2.6 330 06:44 15.03.2020
6577 Haze 17 1013 51 4000 2.1 360 05:49 15.03.2020
6578 Haze 17 1012 51 4000 2.1 310 04:57 15.03.2020
6579 Haze 17 1012 51 4000 2.1 310 04:39 15.03.2020
6580 Haze 17 1012 51 4000 2.1 310 04:20 15.03.2020
6581 Haze 18 1011 48 5000 2.1 290 03:19 15.03.2020
6582 Haze 18 1011 48 5000 2.6 290 02:23 15.03.2020
6583 Haze 19 1011 48 5000 2.1 80 00:59 15.03.2020
6584 Haze 19 1011 48 5000 2.1 80 00:40 15.03.2020
6585 Haze 19 1011 48 5000 2.1 80 00:19 15.03.2020
6586 Haze 19 1012 42 5000 2.1 70 23:39 14.03.2020
6587 Haze 19 1012 42 5000 2.1 70 23:20 14.03.2020
6588 Clouds 20 1013 45 6000 1.5 360 22:56 14.03.2020
6589 Clouds 20 1013 45 6000 1.5 360 22:37 14.03.2020
6590 Clouds 20 1013 45 6000 1.5 360 22:37 14.03.2020
6591 Clouds 20 1013 45 6000 1.5 360 22:19 14.03.2020
6592 Haze 21 1013 43 5000 1.5 310 21:55 14.03.2020
6593 Haze 21 1013 43 5000 1.5 310 21:36 14.03.2020
6594 Haze 21 1013 43 5000 1.5 310 21:18 14.03.2020
6595 Dust 21 1013 43 5000 2.1 310 20:56 14.03.2020
6596 Dust 21 1013 43 5000 2.1 310 20:56 14.03.2020
6597 Dust 21 1013 43 5000 2.1 310 20:38 14.03.2020
6598 Dust 21 1013 43 5000 2.1 310 20:18 14.03.2020
6599 Dust 23 1013 40 5000 1 230 19:41 14.03.2020
6600 Dust 23 1013 40 5000 1 230 19:20 14.03.2020
6601 Dust 25 1013 33 5000 1.5 210 18:40 14.03.2020
6602 Dust 25 1013 33 5000 1.5 210 18:20 14.03.2020
6603 Dust 25 1012 29 5000 3.6 310 17:43 14.03.2020
6604 Dust 26 1011 24 4000 4.6 170 17:24 14.03.2020
6605 Dust 26 1011 24 4000 4.6 170 16:59 14.03.2020
6606 Dust 26 1011 24 4000 4.6 170 16:38 14.03.2020
6607 Dust 26 1011 24 4000 4.6 170 16:19 14.03.2020
6608 Dust 27 1012 21 3000 6.2 170 15:46 14.03.2020
6609 Dust 27 1012 21 3000 6.2 170 15:22 14.03.2020
6610 Clouds 28 1012 21 6000 4.1 160 14:43 14.03.2020
6611 Clouds 28 1012 21 6000 4.1 160 14:21 14.03.2020
6612 Clouds 27 1012 21 8000 4.1 180 13:57 14.03.2020
6613 Clouds 27 1012 21 8000 4.1 180 13:38 14.03.2020
6614 Clouds 27 1012 21 8000 4.1 180 13:20 14.03.2020
6615 Clouds 27 1012 21 8000 5.1 170 12:44 14.03.2020
6616 Clouds 27 1012 21 8000 5.1 170 12:26 14.03.2020
6617 Clouds 26 1013 21 7000 6.7 180 11:46 14.03.2020
6618 Clouds 26 1013 21 7000 6.7 180 11:26 14.03.2020
6619 Clouds 26 1013 22 7000 6.2 180 10:57 14.03.2020
6620 Clouds 26 1013 22 7000 6.2 180 10:39 14.03.2020
6621 Clouds 26 1013 22 7000 6.2 180 10:20 14.03.2020
6622 Clouds 25 1014 25 6000 8.2 180 09:41 14.03.2020
6623 Clouds 25 1014 25 6000 8.2 180 09:22 14.03.2020
6624 Clouds 25 1014 25 10000 6.2 170 08:47 14.03.2020
6625 Clouds 25 1014 25 10000 6.2 170 08:28 14.03.2020
6626 Clouds 24 1014 25 7000 7.2 180 07:51 14.03.2020
6627 Clouds 24 1014 25 7000 7.2 180 07:23 14.03.2020
6628 Clouds 24 1014 22 6000 7.2 170 06:59 14.03.2020
6629 Clouds 24 1014 22 6000 7.2 170 06:39 14.03.2020
6630 Clouds 23 1013 23 6000 6.7 170 05:19 14.03.2020
6631 Clouds 24 1015 23 10000 3.1 170 03:42 14.03.2020
6632 Clouds 24 1015 23 10000 3.1 170 03:23 14.03.2020
6633 Clouds 24 1015 19 10000 4.6 170 02:20 14.03.2020
6634 Clouds 24 1015 14 10000 5.1 180 00:42 14.03.2020
6635 Clouds 24 1015 17 10000 4.1 180 23:45 13.03.2020
6636 Clouds 24 1015 17 10000 4.1 180 23:26 13.03.2020
6637 Clouds 25 1015 14 10000 3.1 160 22:47 13.03.2020
6638 Clouds 25 1015 14 10000 3.1 160 22:25 13.03.2020
6639 Clouds 25 1016 15 10000 3.6 170 21:43 13.03.2020
6640 Clouds 25 1016 15 10000 3.6 170 21:21 13.03.2020
6641 Clouds 25 1016 15 10000 4.1 170 20:57 13.03.2020
6642 Clouds 25 1016 15 10000 4.1 170 20:38 13.03.2020
6643 Clouds 25 1016 15 10000 4.1 170 20:19 13.03.2020
6644 Clouds 25 1016 17 10000 2.6 150 19:45 13.03.2020
6645 Clouds 25 1016 17 10000 2.6 150 19:27 13.03.2020
6646 Clouds 25 1015 17 8000 2.6 140 18:47 13.03.2020
6647 Clouds 25 1015 17 8000 2.6 140 18:28 13.03.2020
6648 Clouds 26 1015 16 8000 2.1 150 17:57 13.03.2020
6649 Clouds 26 1015 16 8000 2.1 150 17:37 13.03.2020
6650 Clouds 27 1013 12 6000 5.7 160 17:18 13.03.2020
6651 Clouds 27 1013 12 6000 5.7 160 16:41 13.03.2020
6652 Clouds 27 1013 12 6000 5.7 160 16:23 13.03.2020
6653 Clouds 27 1013 12 6000 5.7 160 15:55 13.03.2020
6654 Clouds 27 1013 12 6000 5.7 160 15:37 13.03.2020
6655 Clouds 27 1013 12 6000 5.7 160 15:18 13.03.2020
6656 Clouds 27 1013 14 7000 4.6 150 14:41 13.03.2020
6657 Clouds 27 1013 14 7000 4.6 150 14:22 13.03.2020
6658 Clouds 28 1013 12 6000 6.2 160 13:56 13.03.2020
6659 Clouds 28 1013 12 6000 6.2 160 13:37 13.03.2020
6660 Clouds 28 1013 12 6000 6.2 160 13:18 13.03.2020
6661 Clouds 28 1014 12 6000 6.7 170 12:40 13.03.2020
6662 Clouds 27 1015 11 6000 7.2 170 12:21 13.03.2020
6663 Clouds 27 1015 11 6000 7.2 170 11:57 13.03.2020
6664 Clouds 27 1015 11 6000 7.2 170 11:38 13.03.2020
6665 Clouds 27 1015 11 6000 7.2 170 11:19 13.03.2020
6666 Dust 26 1016 11 5000 7.7 170 10:47 13.03.2020
6667 Dust 26 1016 11 5000 7.7 170 10:27 13.03.2020
6668 Dust 25 1017 11 5000 8.2 170 09:57 13.03.2020
6669 Dust 25 1017 11 5000 8.2 170 09:38 13.03.2020
6670 Dust 25 1017 11 5000 8.2 170 09:20 13.03.2020
6671 Clouds 23 1018 13 10000 5.1 160 08:44 13.03.2020
6672 Clouds 23 1018 13 10000 5.1 160 08:22 13.03.2020
6673 Clouds 21 1018 15 10000 4.6 160 07:47 13.03.2020
6674 Clouds 21 1018 15 10000 4.6 160 07:28 13.03.2020
6675 Clouds 19 1017 20 10000 3.6 160 06:47 13.03.2020
6676 Clouds 19 1017 20 10000 3.6 160 06:26 13.03.2020
6677 Clouds 17 1016 25 10000 2.6 160 05:49 13.03.2020
6678 Clouds 17 1016 25 10000 2.6 160 05:20 13.03.2020
6679 Clouds 17 1016 25 10000 2.1 160 04:37 13.03.2020
6680 Clouds 19 1015 22 10000 4.1 180 02:58 13.03.2020
6681 Clouds 19 1015 22 10000 3.1 170 01:45 13.03.2020
6682 Clouds 19 1015 22 10000 3.1 170 01:18 13.03.2020
6683 Clouds 19 1015 22 10000 3.1 170 01:18 13.03.2020
6684 Clouds 20 1016 22 10000 3.6 170 00:46 13.03.2020
6685 Clouds 20 1016 22 10000 3.6 170 00:23 13.03.2020
6686 Clouds 20 1017 24 10000 2.6 170 23:47 12.03.2020
6687 Clouds 20 1017 24 10000 2.6 170 23:26 12.03.2020
6688 Clouds 21 1017 22 10000 2.6 150 22:55 12.03.2020
6689 Clouds 21 1017 22 10000 2.6 150 22:37 12.03.2020
6690 Clouds 21 1017 22 10000 2.6 150 22:19 12.03.2020
6691 Clouds 21 1017 22 10000 2.6 150 21:42 12.03.2020
6692 Clouds 21 1017 22 10000 2.6 150 21:24 12.03.2020
6693 Clouds 22 1017 19 10000 2.6 150 20:55 12.03.2020
6694 Clouds 22 1017 19 10000 2.6 150 20:37 12.03.2020
6695 Clouds 22 1017 19 10000 2.6 150 20:18 12.03.2020
6696 Clouds 23 1017 20 10000 2.6 140 19:39 12.03.2020
6697 Clouds 23 1017 20